<?xml version="1.0" encoding="UTF-8" standalone="no" ?>
<gpx xmlns="http://www.topografix.com/GPX/1/1" xmlns:xsi="http://www.w3.org/2001/XMLSchema-instance" xsi:schemaLocation="http://www.topografix.com/GPX/1/1 http://www.topografix.com/GPX/1/1/gpx.xsd" version="1.1" creator="VisuGPX - https://www.visugpx.com">
  <metadata>
    <name>Raid 75 km Trans\' Pyrénées Comminges 2012</name>
    <desc><![CDATA[Partez sur les traces de cette mytique rando VTT organisée par Cap Vert VTT dans le comminges !]]></desc>
  </metadata>
  <trk>
    <name><![CDATA[Trans Pyrénées Comminges 2012 - Raid 70 km]]></name>
    <trkseg>
      <trkpt lat="43.05283" lon="0.74316">
        <ele>372.60000610352</ele>
        <time>2012-09-02T06:34:46.000Z</time>
      </trkpt>
      <trkpt lat="43.05272" lon="0.74301">
        <ele>372.39999389648</ele>
        <time>2012-09-02T06:35:02.000Z</time>
      </trkpt>
      <trkpt lat="43.05265" lon="0.74292">
        <ele>372.20001220703</ele>
        <time>2012-09-02T06:35:10.000Z</time>
      </trkpt>
      <trkpt lat="43.05255" lon="0.7428">
        <ele>371.79998779297</ele>
        <time>2012-09-02T06:35:17.000Z</time>
      </trkpt>
      <trkpt lat="43.05237" lon="0.74262">
        <ele>371.79998779297</ele>
        <time>2012-09-02T06:35:24.000Z</time>
      </trkpt>
      <trkpt lat="43.0521" lon="0.74238">
        <ele>373</ele>
        <time>2012-09-02T06:35:33.000Z</time>
      </trkpt>
      <trkpt lat="43.05188" lon="0.74216">
        <ele>374</ele>
        <time>2012-09-02T06:35:41.000Z</time>
      </trkpt>
      <trkpt lat="43.05177" lon="0.74193">
        <ele>374.60000610352</ele>
        <time>2012-09-02T06:35:47.000Z</time>
      </trkpt>
      <trkpt lat="43.05174" lon="0.74185">
        <ele>374.79998779297</ele>
        <time>2012-09-02T06:35:49.000Z</time>
      </trkpt>
      <trkpt lat="43.05165" lon="0.74187">
        <ele>375</ele>
        <time>2012-09-02T06:35:53.000Z</time>
      </trkpt>
      <trkpt lat="43.05161" lon="0.74195">
        <ele>375.20001220703</ele>
        <time>2012-09-02T06:35:55.000Z</time>
      </trkpt>
      <trkpt lat="43.05145" lon="0.74226">
        <ele>375.60000610352</ele>
        <time>2012-09-02T06:36:03.000Z</time>
      </trkpt>
      <trkpt lat="43.05122" lon="0.74268">
        <ele>376.39999389648</ele>
        <time>2012-09-02T06:36:13.000Z</time>
      </trkpt>
      <trkpt lat="43.05105" lon="0.74301">
        <ele>376.39999389648</ele>
        <time>2012-09-02T06:36:19.000Z</time>
      </trkpt>
      <trkpt lat="43.05086" lon="0.74334">
        <ele>376</ele>
        <time>2012-09-02T06:36:25.000Z</time>
      </trkpt>
      <trkpt lat="43.05073" lon="0.74351">
        <ele>376.79998779297</ele>
        <time>2012-09-02T06:36:29.000Z</time>
      </trkpt>
      <trkpt lat="43.05049" lon="0.74388">
        <ele>378.20001220703</ele>
        <time>2012-09-02T06:36:38.000Z</time>
      </trkpt>
      <trkpt lat="43.05031" lon="0.74418">
        <ele>379.20001220703</ele>
        <time>2012-09-02T06:36:45.000Z</time>
      </trkpt>
      <trkpt lat="43.05019" lon="0.74434">
        <ele>380</ele>
        <time>2012-09-02T06:36:50.000Z</time>
      </trkpt>
      <trkpt lat="43.05007" lon="0.74451">
        <ele>380.60000610352</ele>
        <time>2012-09-02T06:36:55.000Z</time>
      </trkpt>
      <trkpt lat="43.04994" lon="0.74444">
        <ele>380.79998779297</ele>
        <time>2012-09-02T06:36:59.000Z</time>
      </trkpt>
      <trkpt lat="43.04969" lon="0.74403">
        <ele>380.79998779297</ele>
        <time>2012-09-02T06:37:08.000Z</time>
      </trkpt>
      <trkpt lat="43.04942" lon="0.7437">
        <ele>381.20001220703</ele>
        <time>2012-09-02T06:37:15.000Z</time>
      </trkpt>
      <trkpt lat="43.04905" lon="0.74336">
        <ele>381.39999389648</ele>
        <time>2012-09-02T06:37:23.000Z</time>
      </trkpt>
      <trkpt lat="43.0486" lon="0.74296">
        <ele>381.60000610352</ele>
        <time>2012-09-02T06:37:31.000Z</time>
      </trkpt>
      <trkpt lat="43.04849" lon="0.74263">
        <ele>380.60000610352</ele>
        <time>2012-09-02T06:37:35.000Z</time>
      </trkpt>
      <trkpt lat="43.04855" lon="0.74235">
        <ele>379.79998779297</ele>
        <time>2012-09-02T06:37:38.000Z</time>
      </trkpt>
      <trkpt lat="43.04868" lon="0.74192">
        <ele>379.39999389648</ele>
        <time>2012-09-02T06:37:43.000Z</time>
      </trkpt>
      <trkpt lat="43.04861" lon="0.74177">
        <ele>379.20001220703</ele>
        <time>2012-09-02T06:37:47.000Z</time>
      </trkpt>
      <trkpt lat="43.04856" lon="0.74177">
        <ele>379.20001220703</ele>
        <time>2012-09-02T06:37:48.000Z</time>
      </trkpt>
      <trkpt lat="43.04828" lon="0.74171">
        <ele>379.20001220703</ele>
        <time>2012-09-02T06:37:53.000Z</time>
      </trkpt>
      <trkpt lat="43.04811" lon="0.74163">
        <ele>379.20001220703</ele>
        <time>2012-09-02T06:37:56.000Z</time>
      </trkpt>
      <trkpt lat="43.04782" lon="0.74129">
        <ele>379.79998779297</ele>
        <time>2012-09-02T06:38:02.000Z</time>
      </trkpt>
      <trkpt lat="43.04751" lon="0.74087">
        <ele>381</ele>
        <time>2012-09-02T06:38:09.000Z</time>
      </trkpt>
      <trkpt lat="43.04732" lon="0.74065">
        <ele>381.20001220703</ele>
        <time>2012-09-02T06:38:13.000Z</time>
      </trkpt>
      <trkpt lat="43.04693" lon="0.7404">
        <ele>381.60000610352</ele>
        <time>2012-09-02T06:38:20.000Z</time>
      </trkpt>
      <trkpt lat="43.04656" lon="0.74022">
        <ele>381.60000610352</ele>
        <time>2012-09-02T06:38:27.000Z</time>
      </trkpt>
      <trkpt lat="43.04632" lon="0.74011">
        <ele>381.79998779297</ele>
        <time>2012-09-02T06:38:32.000Z</time>
      </trkpt>
      <trkpt lat="43.04617" lon="0.74007">
        <ele>381.79998779297</ele>
        <time>2012-09-02T06:38:35.000Z</time>
      </trkpt>
      <trkpt lat="43.04598" lon="0.74017">
        <ele>382.39999389648</ele>
        <time>2012-09-02T06:38:39.000Z</time>
      </trkpt>
      <trkpt lat="43.04594" lon="0.74022">
        <ele>382.60000610352</ele>
        <time>2012-09-02T06:38:40.000Z</time>
      </trkpt>
      <trkpt lat="43.04586" lon="0.74031">
        <ele>383</ele>
        <time>2012-09-02T06:38:42.000Z</time>
      </trkpt>
      <trkpt lat="43.04574" lon="0.74048">
        <ele>384</ele>
        <time>2012-09-02T06:38:45.000Z</time>
      </trkpt>
      <trkpt lat="43.04558" lon="0.74087">
        <ele>385.20001220703</ele>
        <time>2012-09-02T06:38:51.000Z</time>
      </trkpt>
      <trkpt lat="43.04526" lon="0.74125">
        <ele>387.20001220703</ele>
        <time>2012-09-02T06:38:59.000Z</time>
      </trkpt>
      <trkpt lat="43.04518" lon="0.74135">
        <ele>387.60000610352</ele>
        <time>2012-09-02T06:39:01.000Z</time>
      </trkpt>
      <trkpt lat="43.04487" lon="0.74155">
        <ele>389</ele>
        <time>2012-09-02T06:39:08.000Z</time>
      </trkpt>
      <trkpt lat="43.04446" lon="0.74174">
        <ele>391.79998779297</ele>
        <time>2012-09-02T06:39:17.000Z</time>
      </trkpt>
      <trkpt lat="43.04413" lon="0.74185">
        <ele>393</ele>
        <time>2012-09-02T06:39:24.000Z</time>
      </trkpt>
      <trkpt lat="43.04393" lon="0.74206">
        <ele>392.60000610352</ele>
        <time>2012-09-02T06:39:29.000Z</time>
      </trkpt>
      <trkpt lat="43.0439" lon="0.74228">
        <ele>393</ele>
        <time>2012-09-02T06:39:32.000Z</time>
      </trkpt>
      <trkpt lat="43.04391" lon="0.74244">
        <ele>393.79998779297</ele>
        <time>2012-09-02T06:39:34.000Z</time>
      </trkpt>
      <trkpt lat="43.04392" lon="0.74275">
        <ele>396.39999389648</ele>
        <time>2012-09-02T06:39:38.000Z</time>
      </trkpt>
      <trkpt lat="43.04386" lon="0.74324">
        <ele>399.39999389648</ele>
        <time>2012-09-02T06:39:44.000Z</time>
      </trkpt>
      <trkpt lat="43.04367" lon="0.74367">
        <ele>400</ele>
        <time>2012-09-02T06:39:50.000Z</time>
      </trkpt>
      <trkpt lat="43.04348" lon="0.74396">
        <ele>398.60000610352</ele>
        <time>2012-09-02T06:39:55.000Z</time>
      </trkpt>
      <trkpt lat="43.04325" lon="0.74417">
        <ele>396</ele>
        <time>2012-09-02T06:40:00.000Z</time>
      </trkpt>
      <trkpt lat="43.04292" lon="0.74433">
        <ele>396.60000610352</ele>
        <time>2012-09-02T06:40:06.000Z</time>
      </trkpt>
      <trkpt lat="43.04255" lon="0.74452">
        <ele>395</ele>
        <time>2012-09-02T06:40:13.000Z</time>
      </trkpt>
      <trkpt lat="43.04214" lon="0.74464">
        <ele>395.39999389648</ele>
        <time>2012-09-02T06:40:20.000Z</time>
      </trkpt>
      <trkpt lat="43.04164" lon="0.74454">
        <ele>392.39999389648</ele>
        <time>2012-09-02T06:40:29.000Z</time>
      </trkpt>
      <trkpt lat="43.04116" lon="0.74449">
        <ele>391</ele>
        <time>2012-09-02T06:40:38.000Z</time>
      </trkpt>
      <trkpt lat="43.0408" lon="0.74459">
        <ele>391</ele>
        <time>2012-09-02T06:40:45.000Z</time>
      </trkpt>
      <trkpt lat="43.04028" lon="0.74477">
        <ele>391.79998779297</ele>
        <time>2012-09-02T06:40:56.000Z</time>
      </trkpt>
      <trkpt lat="43.03981" lon="0.74489">
        <ele>393.60000610352</ele>
        <time>2012-09-02T06:41:07.000Z</time>
      </trkpt>
      <trkpt lat="43.03947" lon="0.74485">
        <ele>395.39999389648</ele>
        <time>2012-09-02T06:41:15.000Z</time>
      </trkpt>
      <trkpt lat="43.03907" lon="0.74475">
        <ele>397.60000610352</ele>
        <time>2012-09-02T06:41:26.000Z</time>
      </trkpt>
      <trkpt lat="43.03872" lon="0.74466">
        <ele>399.39999389648</ele>
        <time>2012-09-02T06:41:36.000Z</time>
      </trkpt>
      <trkpt lat="43.03858" lon="0.74473">
        <ele>401</ele>
        <time>2012-09-02T06:41:40.000Z</time>
      </trkpt>
      <trkpt lat="43.0383" lon="0.74498">
        <ele>405.79998779297</ele>
        <time>2012-09-02T06:41:49.000Z</time>
      </trkpt>
      <trkpt lat="43.03806" lon="0.74512">
        <ele>406.60000610352</ele>
        <time>2012-09-02T06:41:56.000Z</time>
      </trkpt>
      <trkpt lat="43.03796" lon="0.74517">
        <ele>407</ele>
        <time>2012-09-02T06:41:59.000Z</time>
      </trkpt>
      <trkpt lat="43.03781" lon="0.74525">
        <ele>407.39999389648</ele>
        <time>2012-09-02T06:42:03.000Z</time>
      </trkpt>
      <trkpt lat="43.0374" lon="0.74535">
        <ele>408.39999389648</ele>
        <time>2012-09-02T06:42:13.000Z</time>
      </trkpt>
      <trkpt lat="43.03704" lon="0.74531">
        <ele>409</ele>
        <time>2012-09-02T06:42:22.000Z</time>
      </trkpt>
      <trkpt lat="43.03662" lon="0.74519">
        <ele>409.60000610352</ele>
        <time>2012-09-02T06:42:32.000Z</time>
      </trkpt>
      <trkpt lat="43.03625" lon="0.74515">
        <ele>412.20001220703</ele>
        <time>2012-09-02T06:42:41.000Z</time>
      </trkpt>
      <trkpt lat="43.03621" lon="0.74515">
        <ele>412.60000610352</ele>
        <time>2012-09-02T06:42:42.000Z</time>
      </trkpt>
      <trkpt lat="43.0359" lon="0.74513">
        <ele>414.79998779297</ele>
        <time>2012-09-02T06:42:50.000Z</time>
      </trkpt>
      <trkpt lat="43.03566" lon="0.74513">
        <ele>417.20001220703</ele>
        <time>2012-09-02T06:42:56.000Z</time>
      </trkpt>
      <trkpt lat="43.03554" lon="0.74512">
        <ele>418.60000610352</ele>
        <time>2012-09-02T06:42:59.000Z</time>
      </trkpt>
      <trkpt lat="43.03533" lon="0.74499">
        <ele>418.39999389648</ele>
        <time>2012-09-02T06:43:04.000Z</time>
      </trkpt>
      <trkpt lat="43.03524" lon="0.74492">
        <ele>418.39999389648</ele>
        <time>2012-09-02T06:43:06.000Z</time>
      </trkpt>
      <trkpt lat="43.03489" lon="0.74479">
        <ele>418.60000610352</ele>
        <time>2012-09-02T06:43:13.000Z</time>
      </trkpt>
      <trkpt lat="43.03465" lon="0.74467">
        <ele>416.79998779297</ele>
        <time>2012-09-02T06:43:17.000Z</time>
      </trkpt>
      <trkpt lat="43.03428" lon="0.74449">
        <ele>413.60000610352</ele>
        <time>2012-09-02T06:43:22.000Z</time>
      </trkpt>
      <trkpt lat="43.03367" lon="0.74418">
        <ele>405.20001220703</ele>
        <time>2012-09-02T06:43:29.000Z</time>
      </trkpt>
      <trkpt lat="43.03308" lon="0.74389">
        <ele>403</ele>
        <time>2012-09-02T06:43:35.000Z</time>
      </trkpt>
      <trkpt lat="43.03288" lon="0.74367">
        <ele>403.20001220703</ele>
        <time>2012-09-02T06:43:38.000Z</time>
      </trkpt>
      <trkpt lat="43.03288" lon="0.74345">
        <ele>401</ele>
        <time>2012-09-02T06:43:40.000Z</time>
      </trkpt>
      <trkpt lat="43.03291" lon="0.74334">
        <ele>399.60000610352</ele>
        <time>2012-09-02T06:43:41.000Z</time>
      </trkpt>
      <trkpt lat="43.0332" lon="0.74234">
        <ele>394.20001220703</ele>
        <time>2012-09-02T06:43:50.000Z</time>
      </trkpt>
      <trkpt lat="43.03325" lon="0.74215">
        <ele>394.39999389648</ele>
        <time>2012-09-02T06:43:52.000Z</time>
      </trkpt>
      <trkpt lat="43.03327" lon="0.74168">
        <ele>395</ele>
        <time>2012-09-02T06:43:57.000Z</time>
      </trkpt>
      <trkpt lat="43.03323" lon="0.74153">
        <ele>395.20001220703</ele>
        <time>2012-09-02T06:43:59.000Z</time>
      </trkpt>
      <trkpt lat="43.03325" lon="0.74118">
        <ele>396</ele>
        <time>2012-09-02T06:44:03.000Z</time>
      </trkpt>
      <trkpt lat="43.0333" lon="0.7411">
        <ele>396.20001220703</ele>
        <time>2012-09-02T06:44:04.000Z</time>
      </trkpt>
      <trkpt lat="43.03367" lon="0.74059">
        <ele>401.60000610352</ele>
        <time>2012-09-02T06:44:12.000Z</time>
      </trkpt>
      <trkpt lat="43.03387" lon="0.74048">
        <ele>403.39999389648</ele>
        <time>2012-09-02T06:44:17.000Z</time>
      </trkpt>
      <trkpt lat="43.03399" lon="0.74045">
        <ele>404.20001220703</ele>
        <time>2012-09-02T06:44:21.000Z</time>
      </trkpt>
      <trkpt lat="43.03404" lon="0.74032">
        <ele>404.79998779297</ele>
        <time>2012-09-02T06:44:25.000Z</time>
      </trkpt>
      <trkpt lat="43.03398" lon="0.73992">
        <ele>406.39999389648</ele>
        <time>2012-09-02T06:44:35.000Z</time>
      </trkpt>
      <trkpt lat="43.0339" lon="0.73949">
        <ele>409</ele>
        <time>2012-09-02T06:44:45.000Z</time>
      </trkpt>
      <trkpt lat="43.03382" lon="0.73906">
        <ele>411.60000610352</ele>
        <time>2012-09-02T06:44:55.000Z</time>
      </trkpt>
      <trkpt lat="43.03376" lon="0.73871">
        <ele>413.20001220703</ele>
        <time>2012-09-02T06:45:03.000Z</time>
      </trkpt>
      <trkpt lat="43.03369" lon="0.73832">
        <ele>415.20001220703</ele>
        <time>2012-09-02T06:45:12.000Z</time>
      </trkpt>
      <trkpt lat="43.03361" lon="0.73785">
        <ele>416.60000610352</ele>
        <time>2012-09-02T06:45:23.000Z</time>
      </trkpt>
      <trkpt lat="43.03355" lon="0.73746">
        <ele>417.79998779297</ele>
        <time>2012-09-02T06:45:32.000Z</time>
      </trkpt>
      <trkpt lat="43.03356" lon="0.73713">
        <ele>420.79998779297</ele>
        <time>2012-09-02T06:45:40.000Z</time>
      </trkpt>
      <trkpt lat="43.03371" lon="0.73701">
        <ele>421.39999389648</ele>
        <time>2012-09-02T06:45:45.000Z</time>
      </trkpt>
      <trkpt lat="43.03397" lon="0.73686">
        <ele>422</ele>
        <time>2012-09-02T06:45:52.000Z</time>
      </trkpt>
      <trkpt lat="43.03409" lon="0.7368">
        <ele>422.20001220703</ele>
        <time>2012-09-02T06:45:55.000Z</time>
      </trkpt>
      <trkpt lat="43.03459" lon="0.73676">
        <ele>421.20001220703</ele>
        <time>2012-09-02T06:46:06.000Z</time>
      </trkpt>
      <trkpt lat="43.03503" lon="0.73672">
        <ele>420.60000610352</ele>
        <time>2012-09-02T06:46:16.000Z</time>
      </trkpt>
      <trkpt lat="43.0352" lon="0.73666">
        <ele>420.79998779297</ele>
        <time>2012-09-02T06:46:20.000Z</time>
      </trkpt>
      <trkpt lat="43.03558" lon="0.73639">
        <ele>425.60000610352</ele>
        <time>2012-09-02T06:46:30.000Z</time>
      </trkpt>
      <trkpt lat="43.03591" lon="0.73612">
        <ele>428.39999389648</ele>
        <time>2012-09-02T06:46:39.000Z</time>
      </trkpt>
      <trkpt lat="43.03621" lon="0.7358">
        <ele>430.39999389648</ele>
        <time>2012-09-02T06:46:48.000Z</time>
      </trkpt>
      <trkpt lat="43.03645" lon="0.73537">
        <ele>433.20001220703</ele>
        <time>2012-09-02T06:46:57.000Z</time>
      </trkpt>
      <trkpt lat="43.0367" lon="0.73489">
        <ele>432.20001220703</ele>
        <time>2012-09-02T06:47:07.000Z</time>
      </trkpt>
      <trkpt lat="43.03691" lon="0.73453">
        <ele>432</ele>
        <time>2012-09-02T06:47:15.000Z</time>
      </trkpt>
      <trkpt lat="43.03706" lon="0.73414">
        <ele>432.60000610352</ele>
        <time>2012-09-02T06:47:22.000Z</time>
      </trkpt>
      <trkpt lat="43.03727" lon="0.73368">
        <ele>431.79998779297</ele>
        <time>2012-09-02T06:47:30.000Z</time>
      </trkpt>
      <trkpt lat="43.03763" lon="0.73317">
        <ele>430.60000610352</ele>
        <time>2012-09-02T06:47:40.000Z</time>
      </trkpt>
      <trkpt lat="43.03791" lon="0.7328">
        <ele>432.79998779297</ele>
        <time>2012-09-02T06:47:48.000Z</time>
      </trkpt>
      <trkpt lat="43.03797" lon="0.73248">
        <ele>433.60000610352</ele>
        <time>2012-09-02T06:47:53.000Z</time>
      </trkpt>
      <trkpt lat="43.03797" lon="0.73242">
        <ele>433.39999389648</ele>
        <time>2012-09-02T06:47:54.000Z</time>
      </trkpt>
      <trkpt lat="43.03793" lon="0.7322">
        <ele>432.79998779297</ele>
        <time>2012-09-02T06:47:57.000Z</time>
      </trkpt>
      <trkpt lat="43.03796" lon="0.73189">
        <ele>432.60000610352</ele>
        <time>2012-09-02T06:48:01.000Z</time>
      </trkpt>
      <trkpt lat="43.03805" lon="0.73133">
        <ele>432.39999389648</ele>
        <time>2012-09-02T06:48:07.000Z</time>
      </trkpt>
      <trkpt lat="43.03814" lon="0.73068">
        <ele>431</ele>
        <time>2012-09-02T06:48:13.000Z</time>
      </trkpt>
      <trkpt lat="43.03818" lon="0.73045">
        <ele>429.60000610352</ele>
        <time>2012-09-02T06:48:15.000Z</time>
      </trkpt>
      <trkpt lat="43.03836" lon="0.72973">
        <ele>425</ele>
        <time>2012-09-02T06:48:22.000Z</time>
      </trkpt>
      <trkpt lat="43.03842" lon="0.72954">
        <ele>424.60000610352</ele>
        <time>2012-09-02T06:48:24.000Z</time>
      </trkpt>
      <trkpt lat="43.03858" lon="0.72924">
        <ele>424.79998779297</ele>
        <time>2012-09-02T06:48:28.000Z</time>
      </trkpt>
      <trkpt lat="43.0388" lon="0.72883">
        <ele>424.60000610352</ele>
        <time>2012-09-02T06:48:34.000Z</time>
      </trkpt>
      <trkpt lat="43.039" lon="0.72839">
        <ele>421.79998779297</ele>
        <time>2012-09-02T06:48:40.000Z</time>
      </trkpt>
      <trkpt lat="43.03924" lon="0.72809">
        <ele>420</ele>
        <time>2012-09-02T06:48:45.000Z</time>
      </trkpt>
      <trkpt lat="43.03948" lon="0.72792">
        <ele>419.20001220703</ele>
        <time>2012-09-02T06:48:49.000Z</time>
      </trkpt>
      <trkpt lat="43.03969" lon="0.72782">
        <ele>418.20001220703</ele>
        <time>2012-09-02T06:48:52.000Z</time>
      </trkpt>
      <trkpt lat="43.04007" lon="0.72766">
        <ele>417</ele>
        <time>2012-09-02T06:48:57.000Z</time>
      </trkpt>
      <trkpt lat="43.0402" lon="0.72756">
        <ele>415.79998779297</ele>
        <time>2012-09-02T06:48:59.000Z</time>
      </trkpt>
      <trkpt lat="43.0405" lon="0.72738">
        <ele>415.20001220703</ele>
        <time>2012-09-02T06:49:03.000Z</time>
      </trkpt>
      <trkpt lat="43.04076" lon="0.7271">
        <ele>410.79998779297</ele>
        <time>2012-09-02T06:49:07.000Z</time>
      </trkpt>
      <trkpt lat="43.04088" lon="0.72698">
        <ele>408.79998779297</ele>
        <time>2012-09-02T06:49:09.000Z</time>
      </trkpt>
      <trkpt lat="43.041" lon="0.72681">
        <ele>406.20001220703</ele>
        <time>2012-09-02T06:49:12.000Z</time>
      </trkpt>
      <trkpt lat="43.04117" lon="0.72656">
        <ele>404.20001220703</ele>
        <time>2012-09-02T06:49:16.000Z</time>
      </trkpt>
      <trkpt lat="43.0413" lon="0.72649">
        <ele>405.39999389648</ele>
        <time>2012-09-02T06:49:20.000Z</time>
      </trkpt>
      <trkpt lat="43.04138" lon="0.72647">
        <ele>406.39999389648</ele>
        <time>2012-09-02T06:49:28.000Z</time>
      </trkpt>
      <trkpt lat="43.04138" lon="0.72647">
        <ele>406.60000610352</ele>
        <time>2012-09-02T06:49:30.000Z</time>
      </trkpt>
      <trkpt lat="43.04139" lon="0.72624">
        <ele>403.79998779297</ele>
        <time>2012-09-02T06:50:50.000Z</time>
      </trkpt>
      <trkpt lat="43.04137" lon="0.72611">
        <ele>402</ele>
        <time>2012-09-02T06:51:48.000Z</time>
      </trkpt>
      <trkpt lat="43.04142" lon="0.72601">
        <ele>401</ele>
        <time>2012-09-02T06:51:55.000Z</time>
      </trkpt>
      <trkpt lat="43.04143" lon="0.72593">
        <ele>400</ele>
        <time>2012-09-02T06:51:58.000Z</time>
      </trkpt>
      <trkpt lat="43.04148" lon="0.72565">
        <ele>399.60000610352</ele>
        <time>2012-09-02T06:52:06.000Z</time>
      </trkpt>
      <trkpt lat="43.04154" lon="0.7254">
        <ele>400.79998779297</ele>
        <time>2012-09-02T06:52:14.000Z</time>
      </trkpt>
      <trkpt lat="43.04162" lon="0.72518">
        <ele>402</ele>
        <time>2012-09-02T06:52:21.000Z</time>
      </trkpt>
      <trkpt lat="43.04168" lon="0.725">
        <ele>403</ele>
        <time>2012-09-02T06:52:28.000Z</time>
      </trkpt>
      <trkpt lat="43.04172" lon="0.72482">
        <ele>403.39999389648</ele>
        <time>2012-09-02T06:52:35.000Z</time>
      </trkpt>
      <trkpt lat="43.04178" lon="0.72464">
        <ele>404.20001220703</ele>
        <time>2012-09-02T06:52:43.000Z</time>
      </trkpt>
      <trkpt lat="43.04184" lon="0.72447">
        <ele>405.20001220703</ele>
        <time>2012-09-02T06:52:51.000Z</time>
      </trkpt>
      <trkpt lat="43.04189" lon="0.7243">
        <ele>406.20001220703</ele>
        <time>2012-09-02T06:52:59.000Z</time>
      </trkpt>
      <trkpt lat="43.04194" lon="0.72413">
        <ele>407.39999389648</ele>
        <time>2012-09-02T06:53:06.000Z</time>
      </trkpt>
      <trkpt lat="43.042" lon="0.72395">
        <ele>408.60000610352</ele>
        <time>2012-09-02T06:53:14.000Z</time>
      </trkpt>
      <trkpt lat="43.04206" lon="0.72384">
        <ele>409.39999389648</ele>
        <time>2012-09-02T06:53:20.000Z</time>
      </trkpt>
      <trkpt lat="43.04208" lon="0.72381">
        <ele>409.60000610352</ele>
        <time>2012-09-02T06:53:22.000Z</time>
      </trkpt>
      <trkpt lat="43.04221" lon="0.72373">
        <ele>411</ele>
        <time>2012-09-02T06:53:31.000Z</time>
      </trkpt>
      <trkpt lat="43.04233" lon="0.7236">
        <ele>412.60000610352</ele>
        <time>2012-09-02T06:53:39.000Z</time>
      </trkpt>
      <trkpt lat="43.04244" lon="0.72351">
        <ele>414.20001220703</ele>
        <time>2012-09-02T06:53:45.000Z</time>
      </trkpt>
      <trkpt lat="43.0426" lon="0.72333">
        <ele>416.20001220703</ele>
        <time>2012-09-02T06:53:52.000Z</time>
      </trkpt>
      <trkpt lat="43.04275" lon="0.72313">
        <ele>416.39999389648</ele>
        <time>2012-09-02T06:53:59.000Z</time>
      </trkpt>
      <trkpt lat="43.04274" lon="0.72296">
        <ele>416.60000610352</ele>
        <time>2012-09-02T06:54:03.000Z</time>
      </trkpt>
      <trkpt lat="43.04267" lon="0.72245">
        <ele>417.20001220703</ele>
        <time>2012-09-02T06:54:15.000Z</time>
      </trkpt>
      <trkpt lat="43.04262" lon="0.72204">
        <ele>418</ele>
        <time>2012-09-02T06:54:25.000Z</time>
      </trkpt>
      <trkpt lat="43.04255" lon="0.72158">
        <ele>419.20001220703</ele>
        <time>2012-09-02T06:54:36.000Z</time>
      </trkpt>
      <trkpt lat="43.04247" lon="0.72106">
        <ele>420.39999389648</ele>
        <time>2012-09-02T06:54:48.000Z</time>
      </trkpt>
      <trkpt lat="43.04241" lon="0.72063">
        <ele>421.79998779297</ele>
        <time>2012-09-02T06:54:58.000Z</time>
      </trkpt>
      <trkpt lat="43.04241" lon="0.72021">
        <ele>423.60000610352</ele>
        <time>2012-09-02T06:55:07.000Z</time>
      </trkpt>
      <trkpt lat="43.04247" lon="0.71989">
        <ele>425</ele>
        <time>2012-09-02T06:55:14.000Z</time>
      </trkpt>
      <trkpt lat="43.04265" lon="0.71969">
        <ele>425.39999389648</ele>
        <time>2012-09-02T06:55:21.000Z</time>
      </trkpt>
      <trkpt lat="43.04272" lon="0.71959">
        <ele>425.79998779297</ele>
        <time>2012-09-02T06:55:24.000Z</time>
      </trkpt>
      <trkpt lat="43.04266" lon="0.71942">
        <ele>425.79998779297</ele>
        <time>2012-09-02T06:55:28.000Z</time>
      </trkpt>
      <trkpt lat="43.04242" lon="0.71914">
        <ele>424.60000610352</ele>
        <time>2012-09-02T06:55:34.000Z</time>
      </trkpt>
      <trkpt lat="43.04205" lon="0.7187">
        <ele>424</ele>
        <time>2012-09-02T06:55:42.000Z</time>
      </trkpt>
      <trkpt lat="43.04171" lon="0.71837">
        <ele>424</ele>
        <time>2012-09-02T06:55:49.000Z</time>
      </trkpt>
      <trkpt lat="43.04125" lon="0.71808">
        <ele>423.39999389648</ele>
        <time>2012-09-02T06:55:58.000Z</time>
      </trkpt>
      <trkpt lat="43.04087" lon="0.71789">
        <ele>422.20001220703</ele>
        <time>2012-09-02T06:56:05.000Z</time>
      </trkpt>
      <trkpt lat="43.04027" lon="0.71756">
        <ele>421.39999389648</ele>
        <time>2012-09-02T06:56:15.000Z</time>
      </trkpt>
      <trkpt lat="43.0397" lon="0.71711">
        <ele>421</ele>
        <time>2012-09-02T06:56:25.000Z</time>
      </trkpt>
      <trkpt lat="43.03924" lon="0.71667">
        <ele>421.20001220703</ele>
        <time>2012-09-02T06:56:34.000Z</time>
      </trkpt>
      <trkpt lat="43.0387" lon="0.71605">
        <ele>419.20001220703</ele>
        <time>2012-09-02T06:56:45.000Z</time>
      </trkpt>
      <trkpt lat="43.03834" lon="0.71546">
        <ele>418.39999389648</ele>
        <time>2012-09-02T06:56:54.000Z</time>
      </trkpt>
      <trkpt lat="43.03827" lon="0.7153">
        <ele>418.20001220703</ele>
        <time>2012-09-02T06:56:56.000Z</time>
      </trkpt>
      <trkpt lat="43.038" lon="0.71489">
        <ele>416.39999389648</ele>
        <time>2012-09-02T06:57:02.000Z</time>
      </trkpt>
      <trkpt lat="43.03787" lon="0.71474">
        <ele>415.20001220703</ele>
        <time>2012-09-02T06:57:04.000Z</time>
      </trkpt>
      <trkpt lat="43.0376" lon="0.71421">
        <ele>411.20001220703</ele>
        <time>2012-09-02T06:57:09.000Z</time>
      </trkpt>
      <trkpt lat="43.03732" lon="0.71379">
        <ele>408.39999389648</ele>
        <time>2012-09-02T06:57:13.000Z</time>
      </trkpt>
      <trkpt lat="43.03717" lon="0.71332">
        <ele>407.39999389648</ele>
        <time>2012-09-02T06:57:17.000Z</time>
      </trkpt>
      <trkpt lat="43.03717" lon="0.71318">
        <ele>407.39999389648</ele>
        <time>2012-09-02T06:57:18.000Z</time>
      </trkpt>
      <trkpt lat="43.03721" lon="0.7121">
        <ele>407.20001220703</ele>
        <time>2012-09-02T06:57:27.000Z</time>
      </trkpt>
      <trkpt lat="43.03726" lon="0.71149">
        <ele>407.60000610352</ele>
        <time>2012-09-02T06:57:33.000Z</time>
      </trkpt>
      <trkpt lat="43.03726" lon="0.7114">
        <ele>407.60000610352</ele>
        <time>2012-09-02T06:57:34.000Z</time>
      </trkpt>
      <trkpt lat="43.03739" lon="0.71122">
        <ele>408.39999389648</ele>
        <time>2012-09-02T06:57:38.000Z</time>
      </trkpt>
      <trkpt lat="43.03743" lon="0.71123">
        <ele>408.60000610352</ele>
        <time>2012-09-02T06:57:39.000Z</time>
      </trkpt>
      <trkpt lat="43.03768" lon="0.71131">
        <ele>410.60000610352</ele>
        <time>2012-09-02T06:57:46.000Z</time>
      </trkpt>
      <trkpt lat="43.03798" lon="0.71137">
        <ele>413.39999389648</ele>
        <time>2012-09-02T06:57:55.000Z</time>
      </trkpt>
      <trkpt lat="43.03828" lon="0.71136">
        <ele>416.20001220703</ele>
        <time>2012-09-02T06:58:05.000Z</time>
      </trkpt>
      <trkpt lat="43.03851" lon="0.71128">
        <ele>417.60000610352</ele>
        <time>2012-09-02T06:58:13.000Z</time>
      </trkpt>
      <trkpt lat="43.03875" lon="0.71123">
        <ele>419</ele>
        <time>2012-09-02T06:58:21.000Z</time>
      </trkpt>
      <trkpt lat="43.039" lon="0.71127">
        <ele>420.60000610352</ele>
        <time>2012-09-02T06:58:29.000Z</time>
      </trkpt>
      <trkpt lat="43.03932" lon="0.71131">
        <ele>422.20001220703</ele>
        <time>2012-09-02T06:58:39.000Z</time>
      </trkpt>
      <trkpt lat="43.03962" lon="0.71125">
        <ele>423.39999389648</ele>
        <time>2012-09-02T06:58:48.000Z</time>
      </trkpt>
      <trkpt lat="43.03996" lon="0.71118">
        <ele>424.60000610352</ele>
        <time>2012-09-02T06:58:58.000Z</time>
      </trkpt>
      <trkpt lat="43.04026" lon="0.71119">
        <ele>426.39999389648</ele>
        <time>2012-09-02T06:59:07.000Z</time>
      </trkpt>
      <trkpt lat="43.04058" lon="0.71117">
        <ele>428.39999389648</ele>
        <time>2012-09-02T06:59:16.000Z</time>
      </trkpt>
      <trkpt lat="43.04093" lon="0.71116">
        <ele>431</ele>
        <time>2012-09-02T06:59:26.000Z</time>
      </trkpt>
      <trkpt lat="43.04122" lon="0.71111">
        <ele>433.79998779297</ele>
        <time>2012-09-02T06:59:35.000Z</time>
      </trkpt>
      <trkpt lat="43.0416" lon="0.71102">
        <ele>437</ele>
        <time>2012-09-02T06:59:47.000Z</time>
      </trkpt>
      <trkpt lat="43.04192" lon="0.71092">
        <ele>440.39999389648</ele>
        <time>2012-09-02T06:59:58.000Z</time>
      </trkpt>
      <trkpt lat="43.042" lon="0.71099">
        <ele>441.60000610352</ele>
        <time>2012-09-02T07:00:03.000Z</time>
      </trkpt>
      <trkpt lat="43.0421" lon="0.71108">
        <ele>443</ele>
        <time>2012-09-02T07:00:09.000Z</time>
      </trkpt>
      <trkpt lat="43.04222" lon="0.7112">
        <ele>445</ele>
        <time>2012-09-02T07:00:17.000Z</time>
      </trkpt>
      <trkpt lat="43.04238" lon="0.71133">
        <ele>447.39999389648</ele>
        <time>2012-09-02T07:00:27.000Z</time>
      </trkpt>
      <trkpt lat="43.04258" lon="0.71137">
        <ele>450</ele>
        <time>2012-09-02T07:00:37.000Z</time>
      </trkpt>
      <trkpt lat="43.04273" lon="0.7114">
        <ele>452</ele>
        <time>2012-09-02T07:00:45.000Z</time>
      </trkpt>
      <trkpt lat="43.04291" lon="0.71142">
        <ele>454.39999389648</ele>
        <time>2012-09-02T07:00:55.000Z</time>
      </trkpt>
      <trkpt lat="43.04308" lon="0.71144">
        <ele>456.39999389648</ele>
        <time>2012-09-02T07:01:04.000Z</time>
      </trkpt>
      <trkpt lat="43.04321" lon="0.71147">
        <ele>458.20001220703</ele>
        <time>2012-09-02T07:01:11.000Z</time>
      </trkpt>
      <trkpt lat="43.04333" lon="0.71149">
        <ele>459.79998779297</ele>
        <time>2012-09-02T07:01:17.000Z</time>
      </trkpt>
      <trkpt lat="43.04346" lon="0.71148">
        <ele>462.79998779297</ele>
        <time>2012-09-02T07:01:23.000Z</time>
      </trkpt>
      <trkpt lat="43.04368" lon="0.71145">
        <ele>468</ele>
        <time>2012-09-02T07:01:35.000Z</time>
      </trkpt>
      <trkpt lat="43.04382" lon="0.71151">
        <ele>471.39999389648</ele>
        <time>2012-09-02T07:01:43.000Z</time>
      </trkpt>
      <trkpt lat="43.04388" lon="0.71168">
        <ele>473.79998779297</ele>
        <time>2012-09-02T07:01:51.000Z</time>
      </trkpt>
      <trkpt lat="43.04395" lon="0.71188">
        <ele>475.79998779297</ele>
        <time>2012-09-02T07:02:00.000Z</time>
      </trkpt>
      <trkpt lat="43.04401" lon="0.71207">
        <ele>477.39999389648</ele>
        <time>2012-09-02T07:02:09.000Z</time>
      </trkpt>
      <trkpt lat="43.04406" lon="0.71224">
        <ele>478.60000610352</ele>
        <time>2012-09-02T07:02:17.000Z</time>
      </trkpt>
      <trkpt lat="43.0441" lon="0.7124">
        <ele>479.60000610352</ele>
        <time>2012-09-02T07:02:25.000Z</time>
      </trkpt>
      <trkpt lat="43.04414" lon="0.71262">
        <ele>480.60000610352</ele>
        <time>2012-09-02T07:02:34.000Z</time>
      </trkpt>
      <trkpt lat="43.0442" lon="0.71289">
        <ele>482.79998779297</ele>
        <time>2012-09-02T07:02:45.000Z</time>
      </trkpt>
      <trkpt lat="43.04426" lon="0.71308">
        <ele>485</ele>
        <time>2012-09-02T07:02:54.000Z</time>
      </trkpt>
      <trkpt lat="43.04429" lon="0.71329">
        <ele>486.39999389648</ele>
        <time>2012-09-02T07:03:02.000Z</time>
      </trkpt>
      <trkpt lat="43.0443" lon="0.71331">
        <ele>486.79998779297</ele>
        <time>2012-09-02T07:03:03.000Z</time>
      </trkpt>
      <trkpt lat="43.04435" lon="0.71329">
        <ele>488.39999389648</ele>
        <time>2012-09-02T07:03:07.000Z</time>
      </trkpt>
      <trkpt lat="43.04434" lon="0.71318">
        <ele>488.20001220703</ele>
        <time>2012-09-02T07:03:11.000Z</time>
      </trkpt>
      <trkpt lat="43.0443" lon="0.71285">
        <ele>486.60000610352</ele>
        <time>2012-09-02T07:03:20.000Z</time>
      </trkpt>
      <trkpt lat="43.04432" lon="0.71248">
        <ele>487</ele>
        <time>2012-09-02T07:03:30.000Z</time>
      </trkpt>
      <trkpt lat="43.04437" lon="0.71223">
        <ele>489</ele>
        <time>2012-09-02T07:03:38.000Z</time>
      </trkpt>
      <trkpt lat="43.04444" lon="0.71206">
        <ele>491.20001220703</ele>
        <time>2012-09-02T07:03:45.000Z</time>
      </trkpt>
      <trkpt lat="43.04451" lon="0.71189">
        <ele>493.79998779297</ele>
        <time>2012-09-02T07:03:52.000Z</time>
      </trkpt>
      <trkpt lat="43.0446" lon="0.71167">
        <ele>496.60000610352</ele>
        <time>2012-09-02T07:04:01.000Z</time>
      </trkpt>
      <trkpt lat="43.04472" lon="0.71145">
        <ele>499</ele>
        <time>2012-09-02T07:04:10.000Z</time>
      </trkpt>
      <trkpt lat="43.04482" lon="0.71127">
        <ele>500.79998779297</ele>
        <time>2012-09-02T07:04:18.000Z</time>
      </trkpt>
      <trkpt lat="43.04491" lon="0.71104">
        <ele>501.79998779297</ele>
        <time>2012-09-02T07:04:26.000Z</time>
      </trkpt>
      <trkpt lat="43.04497" lon="0.71089">
        <ele>502.39999389648</ele>
        <time>2012-09-02T07:04:32.000Z</time>
      </trkpt>
      <trkpt lat="43.04507" lon="0.71068">
        <ele>505.39999389648</ele>
        <time>2012-09-02T07:04:40.000Z</time>
      </trkpt>
      <trkpt lat="43.04514" lon="0.71058">
        <ele>507.60000610352</ele>
        <time>2012-09-02T07:04:46.000Z</time>
      </trkpt>
      <trkpt lat="43.0452" lon="0.71047">
        <ele>509.20001220703</ele>
        <time>2012-09-02T07:04:52.000Z</time>
      </trkpt>
      <trkpt lat="43.04529" lon="0.71029">
        <ele>511.39999389648</ele>
        <time>2012-09-02T07:05:00.000Z</time>
      </trkpt>
      <trkpt lat="43.04536" lon="0.71015">
        <ele>512.79998779297</ele>
        <time>2012-09-02T07:05:07.000Z</time>
      </trkpt>
      <trkpt lat="43.04538" lon="0.71007">
        <ele>513</ele>
        <time>2012-09-02T07:05:11.000Z</time>
      </trkpt>
      <trkpt lat="43.04532" lon="0.70999">
        <ele>511.39999389648</ele>
        <time>2012-09-02T07:05:16.000Z</time>
      </trkpt>
      <trkpt lat="43.0453" lon="0.71001">
        <ele>510.79998779297</ele>
        <time>2012-09-02T07:05:17.000Z</time>
      </trkpt>
      <trkpt lat="43.04522" lon="0.71003">
        <ele>509</ele>
        <time>2012-09-02T07:05:20.000Z</time>
      </trkpt>
      <trkpt lat="43.04502" lon="0.70994">
        <ele>505.79998779297</ele>
        <time>2012-09-02T07:05:25.000Z</time>
      </trkpt>
      <trkpt lat="43.045" lon="0.70993">
        <ele>505.60000610352</ele>
        <time>2012-09-02T07:05:26.000Z</time>
      </trkpt>
      <trkpt lat="43.0449" lon="0.70984">
        <ele>505.20001220703</ele>
        <time>2012-09-02T07:05:30.000Z</time>
      </trkpt>
      <trkpt lat="43.04483" lon="0.7098">
        <ele>504.39999389648</ele>
        <time>2012-09-02T07:05:32.000Z</time>
      </trkpt>
      <trkpt lat="43.04462" lon="0.70963">
        <ele>502.60000610352</ele>
        <time>2012-09-02T07:05:37.000Z</time>
      </trkpt>
      <trkpt lat="43.04442" lon="0.70952">
        <ele>500</ele>
        <time>2012-09-02T07:05:41.000Z</time>
      </trkpt>
      <trkpt lat="43.04414" lon="0.70951">
        <ele>493.39999389648</ele>
        <time>2012-09-02T07:05:46.000Z</time>
      </trkpt>
      <trkpt lat="43.04398" lon="0.70949">
        <ele>489.60000610352</ele>
        <time>2012-09-02T07:05:50.000Z</time>
      </trkpt>
      <trkpt lat="43.04386" lon="0.70937">
        <ele>488.20001220703</ele>
        <time>2012-09-02T07:05:54.000Z</time>
      </trkpt>
      <trkpt lat="43.04372" lon="0.70928">
        <ele>485.39999389648</ele>
        <time>2012-09-02T07:05:58.000Z</time>
      </trkpt>
      <trkpt lat="43.04355" lon="0.70902">
        <ele>481</ele>
        <time>2012-09-02T07:06:02.000Z</time>
      </trkpt>
      <trkpt lat="43.04353" lon="0.70892">
        <ele>480.39999389648</ele>
        <time>2012-09-02T07:06:04.000Z</time>
      </trkpt>
      <trkpt lat="43.04351" lon="0.70879">
        <ele>479.20001220703</ele>
        <time>2012-09-02T07:06:10.000Z</time>
      </trkpt>
      <trkpt lat="43.04348" lon="0.70853">
        <ele>477.39999389648</ele>
        <time>2012-09-02T07:06:16.000Z</time>
      </trkpt>
      <trkpt lat="43.04349" lon="0.7082">
        <ele>477</ele>
        <time>2012-09-02T07:06:23.000Z</time>
      </trkpt>
      <trkpt lat="43.04353" lon="0.70791">
        <ele>478</ele>
        <time>2012-09-02T07:06:30.000Z</time>
      </trkpt>
      <trkpt lat="43.04357" lon="0.7076">
        <ele>478.79998779297</ele>
        <time>2012-09-02T07:06:37.000Z</time>
      </trkpt>
      <trkpt lat="43.04363" lon="0.70728">
        <ele>479.39999389648</ele>
        <time>2012-09-02T07:06:44.000Z</time>
      </trkpt>
      <trkpt lat="43.04371" lon="0.70706">
        <ele>480.79998779297</ele>
        <time>2012-09-02T07:06:50.000Z</time>
      </trkpt>
      <trkpt lat="43.04379" lon="0.70689">
        <ele>482.39999389648</ele>
        <time>2012-09-02T07:06:57.000Z</time>
      </trkpt>
      <trkpt lat="43.04389" lon="0.70672">
        <ele>484.60000610352</ele>
        <time>2012-09-02T07:07:05.000Z</time>
      </trkpt>
      <trkpt lat="43.04402" lon="0.70658">
        <ele>487.79998779297</ele>
        <time>2012-09-02T07:07:14.000Z</time>
      </trkpt>
      <trkpt lat="43.04416" lon="0.70642">
        <ele>490.20001220703</ele>
        <time>2012-09-02T07:07:24.000Z</time>
      </trkpt>
      <trkpt lat="43.04428" lon="0.70632">
        <ele>491.79998779297</ele>
        <time>2012-09-02T07:07:32.000Z</time>
      </trkpt>
      <trkpt lat="43.0444" lon="0.70622">
        <ele>493.60000610352</ele>
        <time>2012-09-02T07:07:40.000Z</time>
      </trkpt>
      <trkpt lat="43.04451" lon="0.70614">
        <ele>495.20001220703</ele>
        <time>2012-09-02T07:07:47.000Z</time>
      </trkpt>
      <trkpt lat="43.04465" lon="0.70605">
        <ele>497.60000610352</ele>
        <time>2012-09-02T07:07:57.000Z</time>
      </trkpt>
      <trkpt lat="43.04481" lon="0.70598">
        <ele>500.39999389648</ele>
        <time>2012-09-02T07:08:07.000Z</time>
      </trkpt>
      <trkpt lat="43.04493" lon="0.70593">
        <ele>502.79998779297</ele>
        <time>2012-09-02T07:08:15.000Z</time>
      </trkpt>
      <trkpt lat="43.04507" lon="0.70589">
        <ele>505.39999389648</ele>
        <time>2012-09-02T07:08:24.000Z</time>
      </trkpt>
      <trkpt lat="43.0452" lon="0.70588">
        <ele>507.79998779297</ele>
        <time>2012-09-02T07:08:33.000Z</time>
      </trkpt>
      <trkpt lat="43.04535" lon="0.70586">
        <ele>510.20001220703</ele>
        <time>2012-09-02T07:08:42.000Z</time>
      </trkpt>
      <trkpt lat="43.04549" lon="0.70585">
        <ele>512.79998779297</ele>
        <time>2012-09-02T07:08:51.000Z</time>
      </trkpt>
      <trkpt lat="43.04565" lon="0.70585">
        <ele>515.79998779297</ele>
        <time>2012-09-02T07:09:02.000Z</time>
      </trkpt>
      <trkpt lat="43.04578" lon="0.70584">
        <ele>518</ele>
        <time>2012-09-02T07:09:11.000Z</time>
      </trkpt>
      <trkpt lat="43.04589" lon="0.70576">
        <ele>519.59997558594</ele>
        <time>2012-09-02T07:09:20.000Z</time>
      </trkpt>
      <trkpt lat="43.04598" lon="0.70567">
        <ele>521</ele>
        <time>2012-09-02T07:09:28.000Z</time>
      </trkpt>
      <trkpt lat="43.04608" lon="0.70557">
        <ele>522.59997558594</ele>
        <time>2012-09-02T07:09:37.000Z</time>
      </trkpt>
      <trkpt lat="43.04616" lon="0.70548">
        <ele>524</ele>
        <time>2012-09-02T07:09:44.000Z</time>
      </trkpt>
      <trkpt lat="43.04627" lon="0.7054">
        <ele>526</ele>
        <time>2012-09-02T07:09:52.000Z</time>
      </trkpt>
      <trkpt lat="43.04639" lon="0.70526">
        <ele>528</ele>
        <time>2012-09-02T07:10:02.000Z</time>
      </trkpt>
      <trkpt lat="43.04646" lon="0.70514">
        <ele>529</ele>
        <time>2012-09-02T07:10:10.000Z</time>
      </trkpt>
      <trkpt lat="43.04649" lon="0.7051">
        <ele>529.40002441406</ele>
        <time>2012-09-02T07:10:15.000Z</time>
      </trkpt>
      <trkpt lat="43.04656" lon="0.7049">
        <ele>529.40002441406</ele>
        <time>2012-09-02T07:12:10.000Z</time>
      </trkpt>
      <trkpt lat="43.04662" lon="0.70469">
        <ele>529.40002441406</ele>
        <time>2012-09-02T07:12:18.000Z</time>
      </trkpt>
      <trkpt lat="43.04664" lon="0.70451">
        <ele>528.40002441406</ele>
        <time>2012-09-02T07:12:24.000Z</time>
      </trkpt>
      <trkpt lat="43.04666" lon="0.70441">
        <ele>528.40002441406</ele>
        <time>2012-09-02T07:12:29.000Z</time>
      </trkpt>
      <trkpt lat="43.04671" lon="0.70423">
        <ele>528</ele>
        <time>2012-09-02T07:12:36.000Z</time>
      </trkpt>
      <trkpt lat="43.04675" lon="0.70407">
        <ele>528.59997558594</ele>
        <time>2012-09-02T07:12:41.000Z</time>
      </trkpt>
      <trkpt lat="43.04679" lon="0.70391">
        <ele>529.20001220703</ele>
        <time>2012-09-02T07:12:47.000Z</time>
      </trkpt>
      <trkpt lat="43.04684" lon="0.70383">
        <ele>530.40002441406</ele>
        <time>2012-09-02T07:12:52.000Z</time>
      </trkpt>
      <trkpt lat="43.04686" lon="0.70378">
        <ele>530.59997558594</ele>
        <time>2012-09-02T07:12:57.000Z</time>
      </trkpt>
      <trkpt lat="43.04687" lon="0.70375">
        <ele>530.79998779297</ele>
        <time>2012-09-02T07:13:01.000Z</time>
      </trkpt>
      <trkpt lat="43.04688" lon="0.7036">
        <ele>530.20001220703</ele>
        <time>2012-09-02T07:13:07.000Z</time>
      </trkpt>
      <trkpt lat="43.0469" lon="0.70349">
        <ele>530</ele>
        <time>2012-09-02T07:13:10.000Z</time>
      </trkpt>
      <trkpt lat="43.04695" lon="0.70335">
        <ele>530.20001220703</ele>
        <time>2012-09-02T07:13:15.000Z</time>
      </trkpt>
      <trkpt lat="43.04705" lon="0.70318">
        <ele>531.20001220703</ele>
        <time>2012-09-02T07:13:21.000Z</time>
      </trkpt>
      <trkpt lat="43.04722" lon="0.70294">
        <ele>531.79998779297</ele>
        <time>2012-09-02T07:13:27.000Z</time>
      </trkpt>
      <trkpt lat="43.0473" lon="0.70285">
        <ele>531.59997558594</ele>
        <time>2012-09-02T07:13:30.000Z</time>
      </trkpt>
      <trkpt lat="43.04729" lon="0.70267">
        <ele>529.40002441406</ele>
        <time>2012-09-02T07:13:34.000Z</time>
      </trkpt>
      <trkpt lat="43.0472" lon="0.70247">
        <ele>526.59997558594</ele>
        <time>2012-09-02T07:13:38.000Z</time>
      </trkpt>
      <trkpt lat="43.04709" lon="0.70229">
        <ele>524.40002441406</ele>
        <time>2012-09-02T07:13:41.000Z</time>
      </trkpt>
      <trkpt lat="43.04699" lon="0.70208">
        <ele>522.40002441406</ele>
        <time>2012-09-02T07:13:45.000Z</time>
      </trkpt>
      <trkpt lat="43.04705" lon="0.70194">
        <ele>520.79998779297</ele>
        <time>2012-09-02T07:13:48.000Z</time>
      </trkpt>
      <trkpt lat="43.0471" lon="0.70184">
        <ele>519.59997558594</ele>
        <time>2012-09-02T07:13:50.000Z</time>
      </trkpt>
      <trkpt lat="43.04727" lon="0.70174">
        <ele>518</ele>
        <time>2012-09-02T07:13:54.000Z</time>
      </trkpt>
      <trkpt lat="43.04744" lon="0.70181">
        <ele>518.20001220703</ele>
        <time>2012-09-02T07:13:58.000Z</time>
      </trkpt>
      <trkpt lat="43.04758" lon="0.70188">
        <ele>519.20001220703</ele>
        <time>2012-09-02T07:14:02.000Z</time>
      </trkpt>
      <trkpt lat="43.04765" lon="0.70188">
        <ele>519.20001220703</ele>
        <time>2012-09-02T07:14:05.000Z</time>
      </trkpt>
      <trkpt lat="43.04769" lon="0.70172">
        <ele>517.20001220703</ele>
        <time>2012-09-02T07:14:09.000Z</time>
      </trkpt>
      <trkpt lat="43.04767" lon="0.70167">
        <ele>516.40002441406</ele>
        <time>2012-09-02T07:14:10.000Z</time>
      </trkpt>
      <trkpt lat="43.04763" lon="0.7015">
        <ele>514</ele>
        <time>2012-09-02T07:14:13.000Z</time>
      </trkpt>
      <trkpt lat="43.0476" lon="0.70126">
        <ele>510.60000610352</ele>
        <time>2012-09-02T07:14:17.000Z</time>
      </trkpt>
      <trkpt lat="43.04766" lon="0.70122">
        <ele>510.20001220703</ele>
        <time>2012-09-02T07:14:20.000Z</time>
      </trkpt>
      <trkpt lat="43.04783" lon="0.7012">
        <ele>510.79998779297</ele>
        <time>2012-09-02T07:14:24.000Z</time>
      </trkpt>
      <trkpt lat="43.04789" lon="0.70113">
        <ele>510.20001220703</ele>
        <time>2012-09-02T07:14:25.000Z</time>
      </trkpt>
      <trkpt lat="43.04803" lon="0.7009">
        <ele>508</ele>
        <time>2012-09-02T07:14:28.000Z</time>
      </trkpt>
      <trkpt lat="43.04817" lon="0.70048">
        <ele>504.20001220703</ele>
        <time>2012-09-02T07:14:33.000Z</time>
      </trkpt>
      <trkpt lat="43.04821" lon="0.70033">
        <ele>502.60000610352</ele>
        <time>2012-09-02T07:14:35.000Z</time>
      </trkpt>
      <trkpt lat="43.04821" lon="0.69995">
        <ele>498.39999389648</ele>
        <time>2012-09-02T07:14:40.000Z</time>
      </trkpt>
      <trkpt lat="43.04827" lon="0.69963">
        <ele>495</ele>
        <time>2012-09-02T07:14:45.000Z</time>
      </trkpt>
      <trkpt lat="43.04844" lon="0.69919">
        <ele>493.79998779297</ele>
        <time>2012-09-02T07:14:52.000Z</time>
      </trkpt>
      <trkpt lat="43.04864" lon="0.69871">
        <ele>493.79998779297</ele>
        <time>2012-09-02T07:15:00.000Z</time>
      </trkpt>
      <trkpt lat="43.04884" lon="0.69826">
        <ele>493.39999389648</ele>
        <time>2012-09-02T07:15:08.000Z</time>
      </trkpt>
      <trkpt lat="43.049" lon="0.69782">
        <ele>493</ele>
        <time>2012-09-02T07:15:16.000Z</time>
      </trkpt>
      <trkpt lat="43.04912" lon="0.69741">
        <ele>490.79998779297</ele>
        <time>2012-09-02T07:15:22.000Z</time>
      </trkpt>
      <trkpt lat="43.04922" lon="0.69712">
        <ele>489.79998779297</ele>
        <time>2012-09-02T07:15:27.000Z</time>
      </trkpt>
      <trkpt lat="43.04935" lon="0.69675">
        <ele>489.20001220703</ele>
        <time>2012-09-02T07:15:32.000Z</time>
      </trkpt>
      <trkpt lat="43.04947" lon="0.69617">
        <ele>485.60000610352</ele>
        <time>2012-09-02T07:15:38.000Z</time>
      </trkpt>
      <trkpt lat="43.04958" lon="0.69551">
        <ele>480.60000610352</ele>
        <time>2012-09-02T07:15:44.000Z</time>
      </trkpt>
      <trkpt lat="43.04968" lon="0.69489">
        <ele>476</ele>
        <time>2012-09-02T07:15:50.000Z</time>
      </trkpt>
      <trkpt lat="43.04981" lon="0.69436">
        <ele>472.60000610352</ele>
        <time>2012-09-02T07:15:55.000Z</time>
      </trkpt>
      <trkpt lat="43.0501" lon="0.69362">
        <ele>469.20001220703</ele>
        <time>2012-09-02T07:16:02.000Z</time>
      </trkpt>
      <trkpt lat="43.05055" lon="0.69292">
        <ele>465.79998779297</ele>
        <time>2012-09-02T07:16:10.000Z</time>
      </trkpt>
      <trkpt lat="43.0508" lon="0.69261">
        <ele>463.60000610352</ele>
        <time>2012-09-02T07:16:14.000Z</time>
      </trkpt>
      <trkpt lat="43.05119" lon="0.69229">
        <ele>460</ele>
        <time>2012-09-02T07:16:21.000Z</time>
      </trkpt>
      <trkpt lat="43.05125" lon="0.69226">
        <ele>459.79998779297</ele>
        <time>2012-09-02T07:16:22.000Z</time>
      </trkpt>
      <trkpt lat="43.05169" lon="0.69206">
        <ele>458.20001220703</ele>
        <time>2012-09-02T07:16:29.000Z</time>
      </trkpt>
      <trkpt lat="43.05181" lon="0.69193">
        <ele>456.60000610352</ele>
        <time>2012-09-02T07:16:33.000Z</time>
      </trkpt>
      <trkpt lat="43.05189" lon="0.69182">
        <ele>455</ele>
        <time>2012-09-02T07:16:37.000Z</time>
      </trkpt>
      <trkpt lat="43.05197" lon="0.69167">
        <ele>452.79998779297</ele>
        <time>2012-09-02T07:16:41.000Z</time>
      </trkpt>
      <trkpt lat="43.05198" lon="0.69162">
        <ele>452.39999389648</ele>
        <time>2012-09-02T07:16:42.000Z</time>
      </trkpt>
      <trkpt lat="43.05208" lon="0.69143">
        <ele>451.20001220703</ele>
        <time>2012-09-02T07:16:46.000Z</time>
      </trkpt>
      <trkpt lat="43.05219" lon="0.69127">
        <ele>450.60000610352</ele>
        <time>2012-09-02T07:16:50.000Z</time>
      </trkpt>
      <trkpt lat="43.05227" lon="0.69105">
        <ele>449.39999389648</ele>
        <time>2012-09-02T07:16:54.000Z</time>
      </trkpt>
      <trkpt lat="43.05229" lon="0.69083">
        <ele>448</ele>
        <time>2012-09-02T07:16:57.000Z</time>
      </trkpt>
      <trkpt lat="43.05241" lon="0.69053">
        <ele>447.20001220703</ele>
        <time>2012-09-02T07:17:02.000Z</time>
      </trkpt>
      <trkpt lat="43.05253" lon="0.69023">
        <ele>446.20001220703</ele>
        <time>2012-09-02T07:17:08.000Z</time>
      </trkpt>
      <trkpt lat="43.05266" lon="0.68981">
        <ele>446</ele>
        <time>2012-09-02T07:17:16.000Z</time>
      </trkpt>
      <trkpt lat="43.05274" lon="0.68957">
        <ele>447</ele>
        <time>2012-09-02T07:17:22.000Z</time>
      </trkpt>
      <trkpt lat="43.05282" lon="0.68931">
        <ele>448</ele>
        <time>2012-09-02T07:17:28.000Z</time>
      </trkpt>
      <trkpt lat="43.05294" lon="0.68905">
        <ele>449.20001220703</ele>
        <time>2012-09-02T07:17:35.000Z</time>
      </trkpt>
      <trkpt lat="43.053" lon="0.68888">
        <ele>449.60000610352</ele>
        <time>2012-09-02T07:17:40.000Z</time>
      </trkpt>
      <trkpt lat="43.05308" lon="0.6887">
        <ele>450.20001220703</ele>
        <time>2012-09-02T07:17:46.000Z</time>
      </trkpt>
      <trkpt lat="43.05319" lon="0.68848">
        <ele>451</ele>
        <time>2012-09-02T07:17:52.000Z</time>
      </trkpt>
      <trkpt lat="43.05329" lon="0.68828">
        <ele>451.79998779297</ele>
        <time>2012-09-02T07:17:57.000Z</time>
      </trkpt>
      <trkpt lat="43.05323" lon="0.68798">
        <ele>451.20001220703</ele>
        <time>2012-09-02T07:18:03.000Z</time>
      </trkpt>
      <trkpt lat="43.05315" lon="0.68763">
        <ele>450.60000610352</ele>
        <time>2012-09-02T07:18:09.000Z</time>
      </trkpt>
      <trkpt lat="43.05306" lon="0.68724">
        <ele>450.20001220703</ele>
        <time>2012-09-02T07:18:16.000Z</time>
      </trkpt>
      <trkpt lat="43.05306" lon="0.68696">
        <ele>450.79998779297</ele>
        <time>2012-09-02T07:18:22.000Z</time>
      </trkpt>
      <trkpt lat="43.05313" lon="0.68661">
        <ele>452.20001220703</ele>
        <time>2012-09-02T07:18:31.000Z</time>
      </trkpt>
      <trkpt lat="43.05313" lon="0.68621">
        <ele>453.79998779297</ele>
        <time>2012-09-02T07:18:40.000Z</time>
      </trkpt>
      <trkpt lat="43.05308" lon="0.68579">
        <ele>454.60000610352</ele>
        <time>2012-09-02T07:18:48.000Z</time>
      </trkpt>
      <trkpt lat="43.05295" lon="0.68531">
        <ele>453.60000610352</ele>
        <time>2012-09-02T07:18:56.000Z</time>
      </trkpt>
      <trkpt lat="43.05282" lon="0.68484">
        <ele>452.79998779297</ele>
        <time>2012-09-02T07:19:04.000Z</time>
      </trkpt>
      <trkpt lat="43.05278" lon="0.68467">
        <ele>452.39999389648</ele>
        <time>2012-09-02T07:19:07.000Z</time>
      </trkpt>
      <trkpt lat="43.05262" lon="0.68441">
        <ele>451</ele>
        <time>2012-09-02T07:19:12.000Z</time>
      </trkpt>
      <trkpt lat="43.05232" lon="0.68408">
        <ele>448.79998779297</ele>
        <time>2012-09-02T07:19:18.000Z</time>
      </trkpt>
      <trkpt lat="43.05221" lon="0.68395">
        <ele>448</ele>
        <time>2012-09-02T07:19:20.000Z</time>
      </trkpt>
      <trkpt lat="43.052" lon="0.68354">
        <ele>446.60000610352</ele>
        <time>2012-09-02T07:19:25.000Z</time>
      </trkpt>
      <trkpt lat="43.05191" lon="0.68337">
        <ele>446.20001220703</ele>
        <time>2012-09-02T07:19:27.000Z</time>
      </trkpt>
      <trkpt lat="43.05149" lon="0.6828">
        <ele>444.79998779297</ele>
        <time>2012-09-02T07:19:35.000Z</time>
      </trkpt>
      <trkpt lat="43.05113" lon="0.68227">
        <ele>442.20001220703</ele>
        <time>2012-09-02T07:19:43.000Z</time>
      </trkpt>
      <trkpt lat="43.05082" lon="0.68188">
        <ele>440</ele>
        <time>2012-09-02T07:19:49.000Z</time>
      </trkpt>
      <trkpt lat="43.05042" lon="0.6815">
        <ele>438</ele>
        <time>2012-09-02T07:19:55.000Z</time>
      </trkpt>
      <trkpt lat="43.05021" lon="0.68119">
        <ele>437.20001220703</ele>
        <time>2012-09-02T07:19:59.000Z</time>
      </trkpt>
      <trkpt lat="43.04999" lon="0.6806">
        <ele>437.79998779297</ele>
        <time>2012-09-02T07:20:06.000Z</time>
      </trkpt>
      <trkpt lat="43.04986" lon="0.68025">
        <ele>438.60000610352</ele>
        <time>2012-09-02T07:20:11.000Z</time>
      </trkpt>
      <trkpt lat="43.04976" lon="0.68007">
        <ele>439</ele>
        <time>2012-09-02T07:20:14.000Z</time>
      </trkpt>
      <trkpt lat="43.04952" lon="0.67986">
        <ele>438.79998779297</ele>
        <time>2012-09-02T07:20:19.000Z</time>
      </trkpt>
      <trkpt lat="43.04934" lon="0.67985">
        <ele>438.20001220703</ele>
        <time>2012-09-02T07:20:22.000Z</time>
      </trkpt>
      <trkpt lat="43.04898" lon="0.67994">
        <ele>438.20001220703</ele>
        <time>2012-09-02T07:20:28.000Z</time>
      </trkpt>
      <trkpt lat="43.04878" lon="0.67987">
        <ele>439.60000610352</ele>
        <time>2012-09-02T07:20:33.000Z</time>
      </trkpt>
      <trkpt lat="43.04858" lon="0.67967">
        <ele>441.20001220703</ele>
        <time>2012-09-02T07:20:40.000Z</time>
      </trkpt>
      <trkpt lat="43.0483" lon="0.6794">
        <ele>443</ele>
        <time>2012-09-02T07:20:51.000Z</time>
      </trkpt>
      <trkpt lat="43.04816" lon="0.67922">
        <ele>444</ele>
        <time>2012-09-02T07:20:57.000Z</time>
      </trkpt>
      <trkpt lat="43.04795" lon="0.67883">
        <ele>445.39999389648</ele>
        <time>2012-09-02T07:21:07.000Z</time>
      </trkpt>
      <trkpt lat="43.04778" lon="0.67843">
        <ele>446</ele>
        <time>2012-09-02T07:21:16.000Z</time>
      </trkpt>
      <trkpt lat="43.04753" lon="0.67805">
        <ele>446.20001220703</ele>
        <time>2012-09-02T07:21:26.000Z</time>
      </trkpt>
      <trkpt lat="43.04729" lon="0.67765">
        <ele>448.20001220703</ele>
        <time>2012-09-02T07:21:36.000Z</time>
      </trkpt>
      <trkpt lat="43.0471" lon="0.67711">
        <ele>449.39999389648</ele>
        <time>2012-09-02T07:21:48.000Z</time>
      </trkpt>
      <trkpt lat="43.04696" lon="0.67673">
        <ele>450</ele>
        <time>2012-09-02T07:21:57.000Z</time>
      </trkpt>
      <trkpt lat="43.04683" lon="0.67639">
        <ele>449.79998779297</ele>
        <time>2012-09-02T07:22:05.000Z</time>
      </trkpt>
      <trkpt lat="43.04664" lon="0.67623">
        <ele>451.20001220703</ele>
        <time>2012-09-02T07:22:12.000Z</time>
      </trkpt>
      <trkpt lat="43.04644" lon="0.67599">
        <ele>454.79998779297</ele>
        <time>2012-09-02T07:22:20.000Z</time>
      </trkpt>
      <trkpt lat="43.04627" lon="0.67567">
        <ele>457.60000610352</ele>
        <time>2012-09-02T07:22:28.000Z</time>
      </trkpt>
      <trkpt lat="43.04606" lon="0.67539">
        <ele>461.79998779297</ele>
        <time>2012-09-02T07:22:36.000Z</time>
      </trkpt>
      <trkpt lat="43.04599" lon="0.67516">
        <ele>462.39999389648</ele>
        <time>2012-09-02T07:22:42.000Z</time>
      </trkpt>
      <trkpt lat="43.04593" lon="0.67492">
        <ele>462.39999389648</ele>
        <time>2012-09-02T07:22:49.000Z</time>
      </trkpt>
      <trkpt lat="43.04581" lon="0.67484">
        <ele>464.39999389648</ele>
        <time>2012-09-02T07:22:55.000Z</time>
      </trkpt>
      <trkpt lat="43.04571" lon="0.67469">
        <ele>466.20001220703</ele>
        <time>2012-09-02T07:23:02.000Z</time>
      </trkpt>
      <trkpt lat="43.04565" lon="0.67451">
        <ele>466.79998779297</ele>
        <time>2012-09-02T07:23:08.000Z</time>
      </trkpt>
      <trkpt lat="43.04558" lon="0.67434">
        <ele>467.39999389648</ele>
        <time>2012-09-02T07:23:14.000Z</time>
      </trkpt>
      <trkpt lat="43.0455" lon="0.67415">
        <ele>468.60000610352</ele>
        <time>2012-09-02T07:23:21.000Z</time>
      </trkpt>
      <trkpt lat="43.04541" lon="0.67398">
        <ele>470.20001220703</ele>
        <time>2012-09-02T07:23:27.000Z</time>
      </trkpt>
      <trkpt lat="43.04532" lon="0.67379">
        <ele>471.79998779297</ele>
        <time>2012-09-02T07:23:33.000Z</time>
      </trkpt>
      <trkpt lat="43.04526" lon="0.67364">
        <ele>472.60000610352</ele>
        <time>2012-09-02T07:23:38.000Z</time>
      </trkpt>
      <trkpt lat="43.0452" lon="0.67353">
        <ele>473.39999389648</ele>
        <time>2012-09-02T07:23:42.000Z</time>
      </trkpt>
      <trkpt lat="43.04512" lon="0.67339">
        <ele>474.79998779297</ele>
        <time>2012-09-02T07:23:48.000Z</time>
      </trkpt>
      <trkpt lat="43.04505" lon="0.67318">
        <ele>475</ele>
        <time>2012-09-02T07:23:54.000Z</time>
      </trkpt>
      <trkpt lat="43.04501" lon="0.67306">
        <ele>474.60000610352</ele>
        <time>2012-09-02T07:23:59.000Z</time>
      </trkpt>
      <trkpt lat="43.04496" lon="0.67292">
        <ele>474</ele>
        <time>2012-09-02T07:24:04.000Z</time>
      </trkpt>
      <trkpt lat="43.04489" lon="0.67274">
        <ele>473</ele>
        <time>2012-09-02T07:24:09.000Z</time>
      </trkpt>
      <trkpt lat="43.04477" lon="0.67254">
        <ele>471.79998779297</ele>
        <time>2012-09-02T07:24:16.000Z</time>
      </trkpt>
      <trkpt lat="43.04469" lon="0.67242">
        <ele>471.60000610352</ele>
        <time>2012-09-02T07:24:21.000Z</time>
      </trkpt>
      <trkpt lat="43.04458" lon="0.67221">
        <ele>470.60000610352</ele>
        <time>2012-09-02T07:24:27.000Z</time>
      </trkpt>
      <trkpt lat="43.04446" lon="0.67195">
        <ele>469</ele>
        <time>2012-09-02T07:24:33.000Z</time>
      </trkpt>
      <trkpt lat="43.04434" lon="0.67174">
        <ele>467.60000610352</ele>
        <time>2012-09-02T07:24:38.000Z</time>
      </trkpt>
      <trkpt lat="43.04432" lon="0.67168">
        <ele>467.20001220703</ele>
        <time>2012-09-02T07:24:39.000Z</time>
      </trkpt>
      <trkpt lat="43.04418" lon="0.67145">
        <ele>466.20001220703</ele>
        <time>2012-09-02T07:24:44.000Z</time>
      </trkpt>
      <trkpt lat="43.04406" lon="0.67153">
        <ele>466.60000610352</ele>
        <time>2012-09-02T07:24:48.000Z</time>
      </trkpt>
      <trkpt lat="43.04391" lon="0.67173">
        <ele>467.39999389648</ele>
        <time>2012-09-02T07:24:54.000Z</time>
      </trkpt>
      <trkpt lat="43.04384" lon="0.67181">
        <ele>467.60000610352</ele>
        <time>2012-09-02T07:24:57.000Z</time>
      </trkpt>
      <trkpt lat="43.0437" lon="0.67197">
        <ele>468</ele>
        <time>2012-09-02T07:25:01.000Z</time>
      </trkpt>
      <trkpt lat="43.04357" lon="0.67227">
        <ele>468.79998779297</ele>
        <time>2012-09-02T07:25:07.000Z</time>
      </trkpt>
      <trkpt lat="43.04352" lon="0.67237">
        <ele>468.60000610352</ele>
        <time>2012-09-02T07:25:09.000Z</time>
      </trkpt>
      <trkpt lat="43.04345" lon="0.67261">
        <ele>469.20001220703</ele>
        <time>2012-09-02T07:25:14.000Z</time>
      </trkpt>
      <trkpt lat="43.04339" lon="0.67283">
        <ele>469.60000610352</ele>
        <time>2012-09-02T07:25:19.000Z</time>
      </trkpt>
      <trkpt lat="43.04332" lon="0.67312">
        <ele>469.79998779297</ele>
        <time>2012-09-02T07:25:25.000Z</time>
      </trkpt>
      <trkpt lat="43.04327" lon="0.67343">
        <ele>470.79998779297</ele>
        <time>2012-09-02T07:25:31.000Z</time>
      </trkpt>
      <trkpt lat="43.04323" lon="0.67372">
        <ele>471.60000610352</ele>
        <time>2012-09-02T07:25:36.000Z</time>
      </trkpt>
      <trkpt lat="43.04321" lon="0.67385">
        <ele>471.79998779297</ele>
        <time>2012-09-02T07:25:38.000Z</time>
      </trkpt>
      <trkpt lat="43.04318" lon="0.67419">
        <ele>472.39999389648</ele>
        <time>2012-09-02T07:25:42.000Z</time>
      </trkpt>
      <trkpt lat="43.04317" lon="0.67457">
        <ele>472.20001220703</ele>
        <time>2012-09-02T07:25:46.000Z</time>
      </trkpt>
      <trkpt lat="43.04324" lon="0.67495">
        <ele>473.39999389648</ele>
        <time>2012-09-02T07:25:52.000Z</time>
      </trkpt>
      <trkpt lat="43.04329" lon="0.67515">
        <ele>473.60000610352</ele>
        <time>2012-09-02T07:25:56.000Z</time>
      </trkpt>
      <trkpt lat="43.04334" lon="0.67537">
        <ele>473.79998779297</ele>
        <time>2012-09-02T07:26:01.000Z</time>
      </trkpt>
      <trkpt lat="43.04336" lon="0.67545">
        <ele>474.20001220703</ele>
        <time>2012-09-02T07:26:03.000Z</time>
      </trkpt>
      <trkpt lat="43.04336" lon="0.67569">
        <ele>473.39999389648</ele>
        <time>2012-09-02T07:26:08.000Z</time>
      </trkpt>
      <trkpt lat="43.0434" lon="0.67594">
        <ele>473.60000610352</ele>
        <time>2012-09-02T07:26:13.000Z</time>
      </trkpt>
      <trkpt lat="43.04342" lon="0.67598">
        <ele>474</ele>
        <time>2012-09-02T07:26:14.000Z</time>
      </trkpt>
      <trkpt lat="43.04347" lon="0.67627">
        <ele>474.79998779297</ele>
        <time>2012-09-02T07:26:21.000Z</time>
      </trkpt>
      <trkpt lat="43.04352" lon="0.67652">
        <ele>475.20001220703</ele>
        <time>2012-09-02T07:26:28.000Z</time>
      </trkpt>
      <trkpt lat="43.04351" lon="0.67669">
        <ele>474.39999389648</ele>
        <time>2012-09-02T07:26:34.000Z</time>
      </trkpt>
      <trkpt lat="43.04352" lon="0.67671">
        <ele>474.79998779297</ele>
        <time>2012-09-02T07:26:37.000Z</time>
      </trkpt>
      <trkpt lat="43.04354" lon="0.67676">
        <ele>475</ele>
        <time>2012-09-02T07:26:42.000Z</time>
      </trkpt>
      <trkpt lat="43.04354" lon="0.67677">
        <ele>475</ele>
        <time>2012-09-02T07:26:47.000Z</time>
      </trkpt>
      <trkpt lat="43.04356" lon="0.67677">
        <ele>475.60000610352</ele>
        <time>2012-09-02T07:26:52.000Z</time>
      </trkpt>
      <trkpt lat="43.04358" lon="0.67676">
        <ele>476.20001220703</ele>
        <time>2012-09-02T07:26:57.000Z</time>
      </trkpt>
      <trkpt lat="43.04362" lon="0.67677">
        <ele>477.60000610352</ele>
        <time>2012-09-02T07:27:05.000Z</time>
      </trkpt>
      <trkpt lat="43.04362" lon="0.67678">
        <ele>477.60000610352</ele>
        <time>2012-09-02T07:27:06.000Z</time>
      </trkpt>
      <trkpt lat="43.04363" lon="0.67684">
        <ele>477.60000610352</ele>
        <time>2012-09-02T07:27:12.000Z</time>
      </trkpt>
      <trkpt lat="43.04365" lon="0.67699">
        <ele>477.60000610352</ele>
        <time>2012-09-02T07:27:17.000Z</time>
      </trkpt>
      <trkpt lat="43.04367" lon="0.67715">
        <ele>477.39999389648</ele>
        <time>2012-09-02T07:27:22.000Z</time>
      </trkpt>
      <trkpt lat="43.0437" lon="0.67733">
        <ele>477.60000610352</ele>
        <time>2012-09-02T07:27:28.000Z</time>
      </trkpt>
      <trkpt lat="43.04374" lon="0.67743">
        <ele>478.39999389648</ele>
        <time>2012-09-02T07:27:31.000Z</time>
      </trkpt>
      <trkpt lat="43.04375" lon="0.6775">
        <ele>478.39999389648</ele>
        <time>2012-09-02T07:27:34.000Z</time>
      </trkpt>
      <trkpt lat="43.04375" lon="0.6777">
        <ele>478.39999389648</ele>
        <time>2012-09-02T07:27:40.000Z</time>
      </trkpt>
      <trkpt lat="43.04375" lon="0.67787">
        <ele>478.79998779297</ele>
        <time>2012-09-02T07:27:44.000Z</time>
      </trkpt>
      <trkpt lat="43.04372" lon="0.67801">
        <ele>477.79998779297</ele>
        <time>2012-09-02T07:27:48.000Z</time>
      </trkpt>
      <trkpt lat="43.0437" lon="0.6781">
        <ele>477.20001220703</ele>
        <time>2012-09-02T07:27:51.000Z</time>
      </trkpt>
      <trkpt lat="43.04369" lon="0.67816">
        <ele>477</ele>
        <time>2012-09-02T07:27:53.000Z</time>
      </trkpt>
      <trkpt lat="43.04368" lon="0.67828">
        <ele>476.60000610352</ele>
        <time>2012-09-02T07:27:58.000Z</time>
      </trkpt>
      <trkpt lat="43.04368" lon="0.67833">
        <ele>476.60000610352</ele>
        <time>2012-09-02T07:28:00.000Z</time>
      </trkpt>
      <trkpt lat="43.04366" lon="0.67845">
        <ele>475.60000610352</ele>
        <time>2012-09-02T07:28:06.000Z</time>
      </trkpt>
      <trkpt lat="43.04366" lon="0.67854">
        <ele>475.20001220703</ele>
        <time>2012-09-02T07:28:10.000Z</time>
      </trkpt>
      <trkpt lat="43.04365" lon="0.67857">
        <ele>474.79998779297</ele>
        <time>2012-09-02T07:28:14.000Z</time>
      </trkpt>
      <trkpt lat="43.04363" lon="0.67861">
        <ele>474</ele>
        <time>2012-09-02T07:28:21.000Z</time>
      </trkpt>
      <trkpt lat="43.0436" lon="0.67875">
        <ele>472.79998779297</ele>
        <time>2012-09-02T07:28:25.000Z</time>
      </trkpt>
      <trkpt lat="43.0436" lon="0.67891">
        <ele>472.39999389648</ele>
        <time>2012-09-02T07:28:29.000Z</time>
      </trkpt>
      <trkpt lat="43.04363" lon="0.67909">
        <ele>473</ele>
        <time>2012-09-02T07:28:34.000Z</time>
      </trkpt>
      <trkpt lat="43.04363" lon="0.67911">
        <ele>473</ele>
        <time>2012-09-02T07:28:35.000Z</time>
      </trkpt>
      <trkpt lat="43.04365" lon="0.67927">
        <ele>473.39999389648</ele>
        <time>2012-09-02T07:28:41.000Z</time>
      </trkpt>
      <trkpt lat="43.04367" lon="0.67935">
        <ele>473.60000610352</ele>
        <time>2012-09-02T07:28:43.000Z</time>
      </trkpt>
      <trkpt lat="43.0437" lon="0.67954">
        <ele>474.60000610352</ele>
        <time>2012-09-02T07:28:49.000Z</time>
      </trkpt>
      <trkpt lat="43.04372" lon="0.67963">
        <ele>475</ele>
        <time>2012-09-02T07:28:52.000Z</time>
      </trkpt>
      <trkpt lat="43.04376" lon="0.67971">
        <ele>476.20001220703</ele>
        <time>2012-09-02T07:28:57.000Z</time>
      </trkpt>
      <trkpt lat="43.04381" lon="0.67977">
        <ele>477.60000610352</ele>
        <time>2012-09-02T07:29:00.000Z</time>
      </trkpt>
      <trkpt lat="43.04385" lon="0.67992">
        <ele>478.39999389648</ele>
        <time>2012-09-02T07:29:06.000Z</time>
      </trkpt>
      <trkpt lat="43.04391" lon="0.68006">
        <ele>479.60000610352</ele>
        <time>2012-09-02T07:29:11.000Z</time>
      </trkpt>
      <trkpt lat="43.04394" lon="0.68015">
        <ele>480.20001220703</ele>
        <time>2012-09-02T07:29:16.000Z</time>
      </trkpt>
      <trkpt lat="43.04394" lon="0.68015">
        <ele>480.20001220703</ele>
        <time>2012-09-02T07:29:17.000Z</time>
      </trkpt>
      <trkpt lat="43.04399" lon="0.68031">
        <ele>481</ele>
        <time>2012-09-02T07:29:26.000Z</time>
      </trkpt>
      <trkpt lat="43.044" lon="0.68046">
        <ele>480.79998779297</ele>
        <time>2012-09-02T07:29:31.000Z</time>
      </trkpt>
      <trkpt lat="43.04402" lon="0.68056">
        <ele>480.79998779297</ele>
        <time>2012-09-02T07:29:36.000Z</time>
      </trkpt>
      <trkpt lat="43.04397" lon="0.68063">
        <ele>479.39999389648</ele>
        <time>2012-09-02T07:29:40.000Z</time>
      </trkpt>
      <trkpt lat="43.04393" lon="0.68087">
        <ele>478.20001220703</ele>
        <time>2012-09-02T07:29:46.000Z</time>
      </trkpt>
      <trkpt lat="43.04396" lon="0.68105">
        <ele>480.20001220703</ele>
        <time>2012-09-02T07:29:50.000Z</time>
      </trkpt>
      <trkpt lat="43.04404" lon="0.68132">
        <ele>483</ele>
        <time>2012-09-02T07:29:57.000Z</time>
      </trkpt>
      <trkpt lat="43.04401" lon="0.6815">
        <ele>483.60000610352</ele>
        <time>2012-09-02T07:30:02.000Z</time>
      </trkpt>
      <trkpt lat="43.04396" lon="0.68179">
        <ele>485.39999389648</ele>
        <time>2012-09-02T07:30:08.000Z</time>
      </trkpt>
      <trkpt lat="43.04391" lon="0.68201">
        <ele>487.39999389648</ele>
        <time>2012-09-02T07:30:14.000Z</time>
      </trkpt>
      <trkpt lat="43.04387" lon="0.68225">
        <ele>490</ele>
        <time>2012-09-02T07:30:21.000Z</time>
      </trkpt>
      <trkpt lat="43.04391" lon="0.68241">
        <ele>491.60000610352</ele>
        <time>2012-09-02T07:30:27.000Z</time>
      </trkpt>
      <trkpt lat="43.04395" lon="0.68264">
        <ele>493.39999389648</ele>
        <time>2012-09-02T07:30:36.000Z</time>
      </trkpt>
      <trkpt lat="43.04397" lon="0.68285">
        <ele>495</ele>
        <time>2012-09-02T07:30:45.000Z</time>
      </trkpt>
      <trkpt lat="43.04397" lon="0.68302">
        <ele>496.20001220703</ele>
        <time>2012-09-02T07:30:52.000Z</time>
      </trkpt>
      <trkpt lat="43.04398" lon="0.68318">
        <ele>497.39999389648</ele>
        <time>2012-09-02T07:30:59.000Z</time>
      </trkpt>
      <trkpt lat="43.04401" lon="0.6833">
        <ele>498</ele>
        <time>2012-09-02T07:31:05.000Z</time>
      </trkpt>
      <trkpt lat="43.04401" lon="0.68334">
        <ele>498.20001220703</ele>
        <time>2012-09-02T07:31:08.000Z</time>
      </trkpt>
      <trkpt lat="43.04399" lon="0.68358">
        <ele>497.79998779297</ele>
        <time>2012-09-02T07:31:46.000Z</time>
      </trkpt>
      <trkpt lat="43.04406" lon="0.68386">
        <ele>496</ele>
        <time>2012-09-02T07:31:51.000Z</time>
      </trkpt>
      <trkpt lat="43.04409" lon="0.68425">
        <ele>494.39999389648</ele>
        <time>2012-09-02T07:31:58.000Z</time>
      </trkpt>
      <trkpt lat="43.04408" lon="0.68437">
        <ele>494</ele>
        <time>2012-09-02T07:32:00.000Z</time>
      </trkpt>
      <trkpt lat="43.04397" lon="0.68471">
        <ele>493</ele>
        <time>2012-09-02T07:32:06.000Z</time>
      </trkpt>
      <trkpt lat="43.04394" lon="0.68484">
        <ele>492.39999389648</ele>
        <time>2012-09-02T07:32:08.000Z</time>
      </trkpt>
      <trkpt lat="43.04399" lon="0.68521">
        <ele>491.20001220703</ele>
        <time>2012-09-02T07:32:13.000Z</time>
      </trkpt>
      <trkpt lat="43.04402" lon="0.68531">
        <ele>491</ele>
        <time>2012-09-02T07:32:14.000Z</time>
      </trkpt>
      <trkpt lat="43.04416" lon="0.68584">
        <ele>490</ele>
        <time>2012-09-02T07:32:20.000Z</time>
      </trkpt>
      <trkpt lat="43.0442" lon="0.68608">
        <ele>490.79998779297</ele>
        <time>2012-09-02T07:32:24.000Z</time>
      </trkpt>
      <trkpt lat="43.04424" lon="0.68645">
        <ele>491.79998779297</ele>
        <time>2012-09-02T07:32:31.000Z</time>
      </trkpt>
      <trkpt lat="43.04432" lon="0.68675">
        <ele>492.20001220703</ele>
        <time>2012-09-02T07:32:36.000Z</time>
      </trkpt>
      <trkpt lat="43.04431" lon="0.68709">
        <ele>489.60000610352</ele>
        <time>2012-09-02T07:32:40.000Z</time>
      </trkpt>
      <trkpt lat="43.04415" lon="0.68757">
        <ele>485.60000610352</ele>
        <time>2012-09-02T07:32:46.000Z</time>
      </trkpt>
      <trkpt lat="43.04412" lon="0.68764">
        <ele>485.79998779297</ele>
        <time>2012-09-02T07:32:47.000Z</time>
      </trkpt>
      <trkpt lat="43.04405" lon="0.68797">
        <ele>484</ele>
        <time>2012-09-02T07:32:52.000Z</time>
      </trkpt>
      <trkpt lat="43.04396" lon="0.68824">
        <ele>484</ele>
        <time>2012-09-02T07:32:56.000Z</time>
      </trkpt>
      <trkpt lat="43.04384" lon="0.68865">
        <ele>483.20001220703</ele>
        <time>2012-09-02T07:33:02.000Z</time>
      </trkpt>
      <trkpt lat="43.04369" lon="0.689">
        <ele>484.39999389648</ele>
        <time>2012-09-02T07:33:08.000Z</time>
      </trkpt>
      <trkpt lat="43.04356" lon="0.68934">
        <ele>484.39999389648</ele>
        <time>2012-09-02T07:33:14.000Z</time>
      </trkpt>
      <trkpt lat="43.04343" lon="0.68968">
        <ele>482.60000610352</ele>
        <time>2012-09-02T07:33:19.000Z</time>
      </trkpt>
      <trkpt lat="43.04331" lon="0.68992">
        <ele>481.79998779297</ele>
        <time>2012-09-02T07:33:23.000Z</time>
      </trkpt>
      <trkpt lat="43.04304" lon="0.69034">
        <ele>481.60000610352</ele>
        <time>2012-09-02T07:33:30.000Z</time>
      </trkpt>
      <trkpt lat="43.04298" lon="0.69044">
        <ele>481.39999389648</ele>
        <time>2012-09-02T07:33:32.000Z</time>
      </trkpt>
      <trkpt lat="43.04276" lon="0.69069">
        <ele>481.60000610352</ele>
        <time>2012-09-02T07:33:38.000Z</time>
      </trkpt>
      <trkpt lat="43.04259" lon="0.69084">
        <ele>482.39999389648</ele>
        <time>2012-09-02T07:33:43.000Z</time>
      </trkpt>
      <trkpt lat="43.04242" lon="0.69091">
        <ele>484</ele>
        <time>2012-09-02T07:33:48.000Z</time>
      </trkpt>
      <trkpt lat="43.04233" lon="0.69096">
        <ele>483.79998779297</ele>
        <time>2012-09-02T07:33:50.000Z</time>
      </trkpt>
      <trkpt lat="43.04214" lon="0.69108">
        <ele>483</ele>
        <time>2012-09-02T07:33:55.000Z</time>
      </trkpt>
      <trkpt lat="43.04205" lon="0.69114">
        <ele>482.39999389648</ele>
        <time>2012-09-02T07:33:57.000Z</time>
      </trkpt>
      <trkpt lat="43.04178" lon="0.69122">
        <ele>483.39999389648</ele>
        <time>2012-09-02T07:34:02.000Z</time>
      </trkpt>
      <trkpt lat="43.04155" lon="0.69126">
        <ele>482.39999389648</ele>
        <time>2012-09-02T07:34:07.000Z</time>
      </trkpt>
      <trkpt lat="43.04123" lon="0.69133">
        <ele>477.39999389648</ele>
        <time>2012-09-02T07:34:13.000Z</time>
      </trkpt>
      <trkpt lat="43.04092" lon="0.6914">
        <ele>473.39999389648</ele>
        <time>2012-09-02T07:34:18.000Z</time>
      </trkpt>
      <trkpt lat="43.04072" lon="0.69143">
        <ele>470</ele>
        <time>2012-09-02T07:34:21.000Z</time>
      </trkpt>
      <trkpt lat="43.04044" lon="0.6915">
        <ele>464</ele>
        <time>2012-09-02T07:34:25.000Z</time>
      </trkpt>
      <trkpt lat="43.04024" lon="0.69143">
        <ele>460.79998779297</ele>
        <time>2012-09-02T07:34:29.000Z</time>
      </trkpt>
      <trkpt lat="43.04019" lon="0.6914">
        <ele>460.20001220703</ele>
        <time>2012-09-02T07:34:30.000Z</time>
      </trkpt>
      <trkpt lat="43.03986" lon="0.69124">
        <ele>454.20001220703</ele>
        <time>2012-09-02T07:34:37.000Z</time>
      </trkpt>
      <trkpt lat="43.03971" lon="0.69121">
        <ele>451.60000610352</ele>
        <time>2012-09-02T07:34:40.000Z</time>
      </trkpt>
      <trkpt lat="43.03938" lon="0.69112">
        <ele>446.20001220703</ele>
        <time>2012-09-02T07:34:47.000Z</time>
      </trkpt>
      <trkpt lat="43.03914" lon="0.69105">
        <ele>442.60000610352</ele>
        <time>2012-09-02T07:34:52.000Z</time>
      </trkpt>
      <trkpt lat="43.03896" lon="0.69098">
        <ele>441.79998779297</ele>
        <time>2012-09-02T07:34:55.000Z</time>
      </trkpt>
      <trkpt lat="43.0385" lon="0.69082">
        <ele>440</ele>
        <time>2012-09-02T07:35:02.000Z</time>
      </trkpt>
      <trkpt lat="43.03818" lon="0.69081">
        <ele>438.39999389648</ele>
        <time>2012-09-02T07:35:07.000Z</time>
      </trkpt>
      <trkpt lat="43.0377" lon="0.69087">
        <ele>435</ele>
        <time>2012-09-02T07:35:14.000Z</time>
      </trkpt>
      <trkpt lat="43.03718" lon="0.69079">
        <ele>434.79998779297</ele>
        <time>2012-09-02T07:35:22.000Z</time>
      </trkpt>
      <trkpt lat="43.03701" lon="0.69079">
        <ele>435</ele>
        <time>2012-09-02T07:35:25.000Z</time>
      </trkpt>
      <trkpt lat="43.03674" lon="0.69074">
        <ele>435.79998779297</ele>
        <time>2012-09-02T07:35:30.000Z</time>
      </trkpt>
      <trkpt lat="43.03669" lon="0.69073">
        <ele>436</ele>
        <time>2012-09-02T07:35:31.000Z</time>
      </trkpt>
      <trkpt lat="43.03635" lon="0.69072">
        <ele>435.20001220703</ele>
        <time>2012-09-02T07:35:38.000Z</time>
      </trkpt>
      <trkpt lat="43.03622" lon="0.6907">
        <ele>434.79998779297</ele>
        <time>2012-09-02T07:35:41.000Z</time>
      </trkpt>
      <trkpt lat="43.03606" lon="0.69078">
        <ele>433.79998779297</ele>
        <time>2012-09-02T07:35:45.000Z</time>
      </trkpt>
      <trkpt lat="43.03604" lon="0.69092">
        <ele>433</ele>
        <time>2012-09-02T07:35:47.000Z</time>
      </trkpt>
      <trkpt lat="43.03603" lon="0.69126">
        <ele>431.20001220703</ele>
        <time>2012-09-02T07:35:53.000Z</time>
      </trkpt>
      <trkpt lat="43.03603" lon="0.69134">
        <ele>430.79998779297</ele>
        <time>2012-09-02T07:35:55.000Z</time>
      </trkpt>
      <trkpt lat="43.03612" lon="0.69135">
        <ele>431</ele>
        <time>2012-09-02T07:35:59.000Z</time>
      </trkpt>
      <trkpt lat="43.03617" lon="0.69122">
        <ele>431.79998779297</ele>
        <time>2012-09-02T07:36:04.000Z</time>
      </trkpt>
      <trkpt lat="43.03617" lon="0.6912">
        <ele>432</ele>
        <time>2012-09-02T07:36:07.000Z</time>
      </trkpt>
      <trkpt lat="43.03619" lon="0.69123">
        <ele>431.79998779297</ele>
        <time>2012-09-02T07:42:52.000Z</time>
      </trkpt>
      <trkpt lat="43.03618" lon="0.69127">
        <ele>431.60000610352</ele>
        <time>2012-09-02T07:42:55.000Z</time>
      </trkpt>
      <trkpt lat="43.03619" lon="0.69134">
        <ele>431.39999389648</ele>
        <time>2012-09-02T07:43:00.000Z</time>
      </trkpt>
      <trkpt lat="43.03618" lon="0.69136">
        <ele>431.20001220703</ele>
        <time>2012-09-02T07:43:02.000Z</time>
      </trkpt>
      <trkpt lat="43.03608" lon="0.69144">
        <ele>430.39999389648</ele>
        <time>2012-09-02T07:43:08.000Z</time>
      </trkpt>
      <trkpt lat="43.03607" lon="0.69145">
        <ele>430.20001220703</ele>
        <time>2012-09-02T07:43:09.000Z</time>
      </trkpt>
      <trkpt lat="43.036" lon="0.69161">
        <ele>429.20001220703</ele>
        <time>2012-09-02T07:43:14.000Z</time>
      </trkpt>
      <trkpt lat="43.03598" lon="0.69191">
        <ele>428.60000610352</ele>
        <time>2012-09-02T07:43:19.000Z</time>
      </trkpt>
      <trkpt lat="43.03597" lon="0.69208">
        <ele>428.39999389648</ele>
        <time>2012-09-02T07:43:21.000Z</time>
      </trkpt>
      <trkpt lat="43.03583" lon="0.69239">
        <ele>428</ele>
        <time>2012-09-02T07:43:25.000Z</time>
      </trkpt>
      <trkpt lat="43.03564" lon="0.69243">
        <ele>426</ele>
        <time>2012-09-02T07:43:27.000Z</time>
      </trkpt>
      <trkpt lat="43.03521" lon="0.6925">
        <ele>421.20001220703</ele>
        <time>2012-09-02T07:43:31.000Z</time>
      </trkpt>
      <trkpt lat="43.03486" lon="0.69279">
        <ele>418.79998779297</ele>
        <time>2012-09-02T07:43:35.000Z</time>
      </trkpt>
      <trkpt lat="43.03445" lon="0.69322">
        <ele>419.39999389648</ele>
        <time>2012-09-02T07:43:41.000Z</time>
      </trkpt>
      <trkpt lat="43.03415" lon="0.6936">
        <ele>419.79998779297</ele>
        <time>2012-09-02T07:43:47.000Z</time>
      </trkpt>
      <trkpt lat="43.0341" lon="0.69366">
        <ele>420.20001220703</ele>
        <time>2012-09-02T07:43:48.000Z</time>
      </trkpt>
      <trkpt lat="43.034" lon="0.69392">
        <ele>420.79998779297</ele>
        <time>2012-09-02T07:43:52.000Z</time>
      </trkpt>
      <trkpt lat="43.03394" lon="0.69433">
        <ele>420.79998779297</ele>
        <time>2012-09-02T07:43:59.000Z</time>
      </trkpt>
      <trkpt lat="43.03388" lon="0.69476">
        <ele>421</ele>
        <time>2012-09-02T07:44:07.000Z</time>
      </trkpt>
      <trkpt lat="43.03383" lon="0.69519">
        <ele>420.39999389648</ele>
        <time>2012-09-02T07:44:13.000Z</time>
      </trkpt>
      <trkpt lat="43.03382" lon="0.69543">
        <ele>419.60000610352</ele>
        <time>2012-09-02T07:44:16.000Z</time>
      </trkpt>
      <trkpt lat="43.03383" lon="0.6959">
        <ele>418.20001220703</ele>
        <time>2012-09-02T07:44:22.000Z</time>
      </trkpt>
      <trkpt lat="43.03396" lon="0.6966">
        <ele>418.39999389648</ele>
        <time>2012-09-02T07:44:31.000Z</time>
      </trkpt>
      <trkpt lat="43.03411" lon="0.69738">
        <ele>419.20001220703</ele>
        <time>2012-09-02T07:44:41.000Z</time>
      </trkpt>
      <trkpt lat="43.03422" lon="0.69798">
        <ele>418.20001220703</ele>
        <time>2012-09-02T07:44:49.000Z</time>
      </trkpt>
      <trkpt lat="43.03427" lon="0.69864">
        <ele>419.20001220703</ele>
        <time>2012-09-02T07:44:58.000Z</time>
      </trkpt>
      <trkpt lat="43.03419" lon="0.69882">
        <ele>420.79998779297</ele>
        <time>2012-09-02T07:45:02.000Z</time>
      </trkpt>
      <trkpt lat="43.03415" lon="0.69883">
        <ele>421.20001220703</ele>
        <time>2012-09-02T07:45:03.000Z</time>
      </trkpt>
      <trkpt lat="43.03383" lon="0.69889">
        <ele>426.79998779297</ele>
        <time>2012-09-02T07:45:12.000Z</time>
      </trkpt>
      <trkpt lat="43.03361" lon="0.6989">
        <ele>430.79998779297</ele>
        <time>2012-09-02T07:45:20.000Z</time>
      </trkpt>
      <trkpt lat="43.03345" lon="0.69882">
        <ele>431.79998779297</ele>
        <time>2012-09-02T07:45:27.000Z</time>
      </trkpt>
      <trkpt lat="43.03323" lon="0.69872">
        <ele>432.60000610352</ele>
        <time>2012-09-02T07:45:37.000Z</time>
      </trkpt>
      <trkpt lat="43.03303" lon="0.69865">
        <ele>432.20001220703</ele>
        <time>2012-09-02T07:45:46.000Z</time>
      </trkpt>
      <trkpt lat="43.03285" lon="0.6986">
        <ele>432.20001220703</ele>
        <time>2012-09-02T07:45:54.000Z</time>
      </trkpt>
      <trkpt lat="43.03271" lon="0.69868">
        <ele>434.79998779297</ele>
        <time>2012-09-02T07:46:01.000Z</time>
      </trkpt>
      <trkpt lat="43.03257" lon="0.69883">
        <ele>439</ele>
        <time>2012-09-02T07:46:09.000Z</time>
      </trkpt>
      <trkpt lat="43.03242" lon="0.69904">
        <ele>443</ele>
        <time>2012-09-02T07:46:19.000Z</time>
      </trkpt>
      <trkpt lat="43.03232" lon="0.69921">
        <ele>445.20001220703</ele>
        <time>2012-09-02T07:46:27.000Z</time>
      </trkpt>
      <trkpt lat="43.03223" lon="0.69938">
        <ele>448.39999389648</ele>
        <time>2012-09-02T07:46:34.000Z</time>
      </trkpt>
      <trkpt lat="43.03207" lon="0.6996">
        <ele>451.60000610352</ele>
        <time>2012-09-02T07:46:45.000Z</time>
      </trkpt>
      <trkpt lat="43.03194" lon="0.69975">
        <ele>453.20001220703</ele>
        <time>2012-09-02T07:46:54.000Z</time>
      </trkpt>
      <trkpt lat="43.03175" lon="0.69995">
        <ele>454.39999389648</ele>
        <time>2012-09-02T07:47:05.000Z</time>
      </trkpt>
      <trkpt lat="43.03162" lon="0.70006">
        <ele>455.20001220703</ele>
        <time>2012-09-02T07:47:12.000Z</time>
      </trkpt>
      <trkpt lat="43.03147" lon="0.70023">
        <ele>457.79998779297</ele>
        <time>2012-09-02T07:47:21.000Z</time>
      </trkpt>
      <trkpt lat="43.03136" lon="0.70038">
        <ele>460</ele>
        <time>2012-09-02T07:47:28.000Z</time>
      </trkpt>
      <trkpt lat="43.03125" lon="0.70056">
        <ele>462.60000610352</ele>
        <time>2012-09-02T07:47:36.000Z</time>
      </trkpt>
      <trkpt lat="43.03112" lon="0.70079">
        <ele>465.39999389648</ele>
        <time>2012-09-02T07:47:46.000Z</time>
      </trkpt>
      <trkpt lat="43.03103" lon="0.70097">
        <ele>467.79998779297</ele>
        <time>2012-09-02T07:47:54.000Z</time>
      </trkpt>
      <trkpt lat="43.03092" lon="0.70116">
        <ele>469.60000610352</ele>
        <time>2012-09-02T07:48:03.000Z</time>
      </trkpt>
      <trkpt lat="43.03082" lon="0.70134">
        <ele>471</ele>
        <time>2012-09-02T07:48:12.000Z</time>
      </trkpt>
      <trkpt lat="43.0307" lon="0.70152">
        <ele>472.79998779297</ele>
        <time>2012-09-02T07:48:21.000Z</time>
      </trkpt>
      <trkpt lat="43.03061" lon="0.70165">
        <ele>473.60000610352</ele>
        <time>2012-09-02T07:48:28.000Z</time>
      </trkpt>
      <trkpt lat="43.0305" lon="0.7018">
        <ele>474</ele>
        <time>2012-09-02T07:48:36.000Z</time>
      </trkpt>
      <trkpt lat="43.03044" lon="0.70198">
        <ele>476.20001220703</ele>
        <time>2012-09-02T07:48:44.000Z</time>
      </trkpt>
      <trkpt lat="43.03038" lon="0.70211">
        <ele>477.60000610352</ele>
        <time>2012-09-02T07:48:50.000Z</time>
      </trkpt>
      <trkpt lat="43.0303" lon="0.70229">
        <ele>479.60000610352</ele>
        <time>2012-09-02T07:48:58.000Z</time>
      </trkpt>
      <trkpt lat="43.03022" lon="0.70243">
        <ele>481.20001220703</ele>
        <time>2012-09-02T07:49:05.000Z</time>
      </trkpt>
      <trkpt lat="43.03015" lon="0.70258">
        <ele>481.60000610352</ele>
        <time>2012-09-02T07:49:12.000Z</time>
      </trkpt>
      <trkpt lat="43.03004" lon="0.70275">
        <ele>481</ele>
        <time>2012-09-02T07:49:21.000Z</time>
      </trkpt>
      <trkpt lat="43.02997" lon="0.70287">
        <ele>481.60000610352</ele>
        <time>2012-09-02T07:49:28.000Z</time>
      </trkpt>
      <trkpt lat="43.02986" lon="0.70297">
        <ele>483.20001220703</ele>
        <time>2012-09-02T07:49:36.000Z</time>
      </trkpt>
      <trkpt lat="43.02975" lon="0.70304">
        <ele>484.79998779297</ele>
        <time>2012-09-02T07:49:42.000Z</time>
      </trkpt>
      <trkpt lat="43.02957" lon="0.70314">
        <ele>487.60000610352</ele>
        <time>2012-09-02T07:49:51.000Z</time>
      </trkpt>
      <trkpt lat="43.02942" lon="0.70319">
        <ele>490</ele>
        <time>2012-09-02T07:49:59.000Z</time>
      </trkpt>
      <trkpt lat="43.02924" lon="0.70324">
        <ele>492.79998779297</ele>
        <time>2012-09-02T07:50:08.000Z</time>
      </trkpt>
      <trkpt lat="43.02903" lon="0.70331">
        <ele>494.79998779297</ele>
        <time>2012-09-02T07:50:19.000Z</time>
      </trkpt>
      <trkpt lat="43.02885" lon="0.70336">
        <ele>495.79998779297</ele>
        <time>2012-09-02T07:50:29.000Z</time>
      </trkpt>
      <trkpt lat="43.02868" lon="0.70343">
        <ele>497.60000610352</ele>
        <time>2012-09-02T07:50:38.000Z</time>
      </trkpt>
      <trkpt lat="43.02852" lon="0.7035">
        <ele>500</ele>
        <time>2012-09-02T07:50:47.000Z</time>
      </trkpt>
      <trkpt lat="43.02834" lon="0.70359">
        <ele>503.39999389648</ele>
        <time>2012-09-02T07:50:57.000Z</time>
      </trkpt>
      <trkpt lat="43.02818" lon="0.70368">
        <ele>504.20001220703</ele>
        <time>2012-09-02T07:51:06.000Z</time>
      </trkpt>
      <trkpt lat="43.02801" lon="0.70373">
        <ele>503</ele>
        <time>2012-09-02T07:51:15.000Z</time>
      </trkpt>
      <trkpt lat="43.02786" lon="0.70384">
        <ele>505</ele>
        <time>2012-09-02T07:51:24.000Z</time>
      </trkpt>
      <trkpt lat="43.02771" lon="0.70397">
        <ele>507.60000610352</ele>
        <time>2012-09-02T07:51:33.000Z</time>
      </trkpt>
      <trkpt lat="43.02757" lon="0.70406">
        <ele>509</ele>
        <time>2012-09-02T07:51:42.000Z</time>
      </trkpt>
      <trkpt lat="43.02736" lon="0.70424">
        <ele>512</ele>
        <time>2012-09-02T07:51:55.000Z</time>
      </trkpt>
      <trkpt lat="43.02716" lon="0.70444">
        <ele>514.79998779297</ele>
        <time>2012-09-02T07:52:08.000Z</time>
      </trkpt>
      <trkpt lat="43.02698" lon="0.7046">
        <ele>517</ele>
        <time>2012-09-02T07:52:19.000Z</time>
      </trkpt>
      <trkpt lat="43.02679" lon="0.70478">
        <ele>519</ele>
        <time>2012-09-02T07:52:31.000Z</time>
      </trkpt>
      <trkpt lat="43.0266" lon="0.70498">
        <ele>521.40002441406</ele>
        <time>2012-09-02T07:52:43.000Z</time>
      </trkpt>
      <trkpt lat="43.02641" lon="0.70519">
        <ele>524.40002441406</ele>
        <time>2012-09-02T07:52:55.000Z</time>
      </trkpt>
      <trkpt lat="43.02626" lon="0.70534">
        <ele>526.20001220703</ele>
        <time>2012-09-02T07:53:04.000Z</time>
      </trkpt>
      <trkpt lat="43.02605" lon="0.70555">
        <ele>528.40002441406</ele>
        <time>2012-09-02T07:53:17.000Z</time>
      </trkpt>
      <trkpt lat="43.02589" lon="0.7057">
        <ele>529.40002441406</ele>
        <time>2012-09-02T07:53:27.000Z</time>
      </trkpt>
      <trkpt lat="43.02569" lon="0.70588">
        <ele>532</ele>
        <time>2012-09-02T07:53:38.000Z</time>
      </trkpt>
      <trkpt lat="43.02555" lon="0.70599">
        <ele>534</ele>
        <time>2012-09-02T07:53:46.000Z</time>
      </trkpt>
      <trkpt lat="43.02536" lon="0.70614">
        <ele>536.40002441406</ele>
        <time>2012-09-02T07:53:56.000Z</time>
      </trkpt>
      <trkpt lat="43.0252" lon="0.70626">
        <ele>537.79998779297</ele>
        <time>2012-09-02T07:54:04.000Z</time>
      </trkpt>
      <trkpt lat="43.02499" lon="0.70639">
        <ele>538.59997558594</ele>
        <time>2012-09-02T07:54:13.000Z</time>
      </trkpt>
      <trkpt lat="43.02479" lon="0.70648">
        <ele>539</ele>
        <time>2012-09-02T07:54:21.000Z</time>
      </trkpt>
      <trkpt lat="43.02453" lon="0.7066">
        <ele>538.40002441406</ele>
        <time>2012-09-02T07:54:31.000Z</time>
      </trkpt>
      <trkpt lat="43.02432" lon="0.70672">
        <ele>538</ele>
        <time>2012-09-02T07:54:39.000Z</time>
      </trkpt>
      <trkpt lat="43.02413" lon="0.70691">
        <ele>541.79998779297</ele>
        <time>2012-09-02T07:54:46.000Z</time>
      </trkpt>
      <trkpt lat="43.02395" lon="0.70706">
        <ele>548.59997558594</ele>
        <time>2012-09-02T07:54:52.000Z</time>
      </trkpt>
      <trkpt lat="43.02383" lon="0.70702">
        <ele>547.40002441406</ele>
        <time>2012-09-02T07:54:56.000Z</time>
      </trkpt>
      <trkpt lat="43.02366" lon="0.70686">
        <ele>541.79998779297</ele>
        <time>2012-09-02T07:55:02.000Z</time>
      </trkpt>
      <trkpt lat="43.02358" lon="0.70685">
        <ele>541.59997558594</ele>
        <time>2012-09-02T07:55:06.000Z</time>
      </trkpt>
      <trkpt lat="43.02351" lon="0.70682">
        <ele>540.59997558594</ele>
        <time>2012-09-02T07:55:12.000Z</time>
      </trkpt>
      <trkpt lat="43.02347" lon="0.70682">
        <ele>540.59997558594</ele>
        <time>2012-09-02T07:55:15.000Z</time>
      </trkpt>
      <trkpt lat="43.02335" lon="0.70686">
        <ele>542.79998779297</ele>
        <time>2012-09-02T07:55:23.000Z</time>
      </trkpt>
      <trkpt lat="43.02326" lon="0.70689">
        <ele>543.79998779297</ele>
        <time>2012-09-02T07:55:29.000Z</time>
      </trkpt>
      <trkpt lat="43.02319" lon="0.7069">
        <ele>544.59997558594</ele>
        <time>2012-09-02T07:55:36.000Z</time>
      </trkpt>
      <trkpt lat="43.02308" lon="0.70693">
        <ele>545.59997558594</ele>
        <time>2012-09-02T07:55:43.000Z</time>
      </trkpt>
      <trkpt lat="43.023" lon="0.70694">
        <ele>546.20001220703</ele>
        <time>2012-09-02T07:55:50.000Z</time>
      </trkpt>
      <trkpt lat="43.0229" lon="0.70696">
        <ele>546.79998779297</ele>
        <time>2012-09-02T07:55:58.000Z</time>
      </trkpt>
      <trkpt lat="43.02278" lon="0.70703">
        <ele>549.59997558594</ele>
        <time>2012-09-02T07:56:05.000Z</time>
      </trkpt>
      <trkpt lat="43.02264" lon="0.70709">
        <ele>552.40002441406</ele>
        <time>2012-09-02T07:56:12.000Z</time>
      </trkpt>
      <trkpt lat="43.02255" lon="0.70712">
        <ele>554</ele>
        <time>2012-09-02T07:56:19.000Z</time>
      </trkpt>
      <trkpt lat="43.02244" lon="0.70718">
        <ele>555.40002441406</ele>
        <time>2012-09-02T07:56:26.000Z</time>
      </trkpt>
      <trkpt lat="43.02232" lon="0.70725">
        <ele>556.59997558594</ele>
        <time>2012-09-02T07:56:34.000Z</time>
      </trkpt>
      <trkpt lat="43.02224" lon="0.7073">
        <ele>557.59997558594</ele>
        <time>2012-09-02T07:56:40.000Z</time>
      </trkpt>
      <trkpt lat="43.02218" lon="0.70734">
        <ele>558.20001220703</ele>
        <time>2012-09-02T07:56:46.000Z</time>
      </trkpt>
      <trkpt lat="43.02217" lon="0.70735">
        <ele>558.40002441406</ele>
        <time>2012-09-02T07:56:47.000Z</time>
      </trkpt>
      <trkpt lat="43.0221" lon="0.70741">
        <ele>559.79998779297</ele>
        <time>2012-09-02T07:56:54.000Z</time>
      </trkpt>
      <trkpt lat="43.02197" lon="0.70746">
        <ele>559.40002441406</ele>
        <time>2012-09-02T07:57:02.000Z</time>
      </trkpt>
      <trkpt lat="43.02186" lon="0.70751">
        <ele>559.40002441406</ele>
        <time>2012-09-02T07:57:08.000Z</time>
      </trkpt>
      <trkpt lat="43.0217" lon="0.70759">
        <ele>560.59997558594</ele>
        <time>2012-09-02T07:57:14.000Z</time>
      </trkpt>
      <trkpt lat="43.02161" lon="0.70764">
        <ele>561.20001220703</ele>
        <time>2012-09-02T07:57:19.000Z</time>
      </trkpt>
      <trkpt lat="43.02153" lon="0.7077">
        <ele>563.20001220703</ele>
        <time>2012-09-02T07:57:25.000Z</time>
      </trkpt>
      <trkpt lat="43.02141" lon="0.70781">
        <ele>567</ele>
        <time>2012-09-02T07:57:32.000Z</time>
      </trkpt>
      <trkpt lat="43.02129" lon="0.70788">
        <ele>569</ele>
        <time>2012-09-02T07:57:39.000Z</time>
      </trkpt>
      <trkpt lat="43.02119" lon="0.70793">
        <ele>570</ele>
        <time>2012-09-02T07:57:45.000Z</time>
      </trkpt>
      <trkpt lat="43.02106" lon="0.70798">
        <ele>570.59997558594</ele>
        <time>2012-09-02T07:57:52.000Z</time>
      </trkpt>
      <trkpt lat="43.02092" lon="0.70801">
        <ele>569.79998779297</ele>
        <time>2012-09-02T07:57:59.000Z</time>
      </trkpt>
      <trkpt lat="43.02077" lon="0.70804">
        <ele>569.59997558594</ele>
        <time>2012-09-02T07:58:04.000Z</time>
      </trkpt>
      <trkpt lat="43.02061" lon="0.70808">
        <ele>570.20001220703</ele>
        <time>2012-09-02T07:58:09.000Z</time>
      </trkpt>
      <trkpt lat="43.02037" lon="0.70812">
        <ele>569.59997558594</ele>
        <time>2012-09-02T07:58:16.000Z</time>
      </trkpt>
      <trkpt lat="43.02017" lon="0.70816">
        <ele>569</ele>
        <time>2012-09-02T07:58:22.000Z</time>
      </trkpt>
      <trkpt lat="43.01999" lon="0.70818">
        <ele>567.59997558594</ele>
        <time>2012-09-02T07:58:28.000Z</time>
      </trkpt>
      <trkpt lat="43.01983" lon="0.7082">
        <ele>568.79998779297</ele>
        <time>2012-09-02T07:58:33.000Z</time>
      </trkpt>
      <trkpt lat="43.01969" lon="0.70823">
        <ele>569.79998779297</ele>
        <time>2012-09-02T07:58:38.000Z</time>
      </trkpt>
      <trkpt lat="43.01952" lon="0.70827">
        <ele>571</ele>
        <time>2012-09-02T07:58:43.000Z</time>
      </trkpt>
      <trkpt lat="43.01935" lon="0.70823">
        <ele>570.20001220703</ele>
        <time>2012-09-02T07:58:49.000Z</time>
      </trkpt>
      <trkpt lat="43.01915" lon="0.70823">
        <ele>570.40002441406</ele>
        <time>2012-09-02T07:58:55.000Z</time>
      </trkpt>
      <trkpt lat="43.01902" lon="0.70821">
        <ele>570.59997558594</ele>
        <time>2012-09-02T07:59:00.000Z</time>
      </trkpt>
      <trkpt lat="43.01889" lon="0.70818">
        <ele>570.59997558594</ele>
        <time>2012-09-02T07:59:05.000Z</time>
      </trkpt>
      <trkpt lat="43.01874" lon="0.70817">
        <ele>571</ele>
        <time>2012-09-02T07:59:10.000Z</time>
      </trkpt>
      <trkpt lat="43.01859" lon="0.70817">
        <ele>571.79998779297</ele>
        <time>2012-09-02T07:59:14.000Z</time>
      </trkpt>
      <trkpt lat="43.01849" lon="0.70818">
        <ele>572.40002441406</ele>
        <time>2012-09-02T07:59:16.000Z</time>
      </trkpt>
      <trkpt lat="43.01828" lon="0.70812">
        <ele>572.59997558594</ele>
        <time>2012-09-02T07:59:21.000Z</time>
      </trkpt>
      <trkpt lat="43.01821" lon="0.70802">
        <ele>572.40002441406</ele>
        <time>2012-09-02T07:59:26.000Z</time>
      </trkpt>
      <trkpt lat="43.01818" lon="0.708">
        <ele>572.40002441406</ele>
        <time>2012-09-02T07:59:31.000Z</time>
      </trkpt>
      <trkpt lat="43.01815" lon="0.70797">
        <ele>572.40002441406</ele>
        <time>2012-09-02T07:59:35.000Z</time>
      </trkpt>
      <trkpt lat="43.0181" lon="0.70794">
        <ele>572.59997558594</ele>
        <time>2012-09-02T07:59:42.000Z</time>
      </trkpt>
      <trkpt lat="43.0181" lon="0.70792">
        <ele>572.59997558594</ele>
        <time>2012-09-02T07:59:44.000Z</time>
      </trkpt>
      <trkpt lat="43.01805" lon="0.70791">
        <ele>573</ele>
        <time>2012-09-02T07:59:49.000Z</time>
      </trkpt>
      <trkpt lat="43.01796" lon="0.7079">
        <ele>574</ele>
        <time>2012-09-02T07:59:55.000Z</time>
      </trkpt>
      <trkpt lat="43.01788" lon="0.70787">
        <ele>574.79998779297</ele>
        <time>2012-09-02T07:59:59.000Z</time>
      </trkpt>
      <trkpt lat="43.01784" lon="0.70784">
        <ele>575.20001220703</ele>
        <time>2012-09-02T08:00:02.000Z</time>
      </trkpt>
      <trkpt lat="43.01766" lon="0.7079">
        <ele>578</ele>
        <time>2012-09-02T08:00:10.000Z</time>
      </trkpt>
      <trkpt lat="43.01755" lon="0.70794">
        <ele>579.40002441406</ele>
        <time>2012-09-02T08:00:17.000Z</time>
      </trkpt>
      <trkpt lat="43.01752" lon="0.70796">
        <ele>580</ele>
        <time>2012-09-02T08:00:20.000Z</time>
      </trkpt>
      <trkpt lat="43.01735" lon="0.70795">
        <ele>580.59997558594</ele>
        <time>2012-09-02T08:00:25.000Z</time>
      </trkpt>
      <trkpt lat="43.01715" lon="0.70791">
        <ele>581</ele>
        <time>2012-09-02T08:00:29.000Z</time>
      </trkpt>
      <trkpt lat="43.01705" lon="0.70785">
        <ele>581</ele>
        <time>2012-09-02T08:00:33.000Z</time>
      </trkpt>
      <trkpt lat="43.01698" lon="0.70782">
        <ele>581</ele>
        <time>2012-09-02T08:00:38.000Z</time>
      </trkpt>
      <trkpt lat="43.01697" lon="0.70782">
        <ele>581</ele>
        <time>2012-09-02T08:00:39.000Z</time>
      </trkpt>
      <trkpt lat="43.01692" lon="0.70777">
        <ele>580.79998779297</ele>
        <time>2012-09-02T08:00:47.000Z</time>
      </trkpt>
      <trkpt lat="43.01691" lon="0.70775">
        <ele>580.79998779297</ele>
        <time>2012-09-02T08:00:49.000Z</time>
      </trkpt>
      <trkpt lat="43.01685" lon="0.70773">
        <ele>580.79998779297</ele>
        <time>2012-09-02T08:00:56.000Z</time>
      </trkpt>
      <trkpt lat="43.0168" lon="0.70772">
        <ele>581</ele>
        <time>2012-09-02T08:01:00.000Z</time>
      </trkpt>
      <trkpt lat="43.0167" lon="0.70764">
        <ele>580.79998779297</ele>
        <time>2012-09-02T08:01:10.000Z</time>
      </trkpt>
      <trkpt lat="43.01654" lon="0.70752">
        <ele>580.20001220703</ele>
        <time>2012-09-02T08:01:17.000Z</time>
      </trkpt>
      <trkpt lat="43.01645" lon="0.70744">
        <ele>580.40002441406</ele>
        <time>2012-09-02T08:01:22.000Z</time>
      </trkpt>
      <trkpt lat="43.01637" lon="0.70738">
        <ele>580.79998779297</ele>
        <time>2012-09-02T08:01:27.000Z</time>
      </trkpt>
      <trkpt lat="43.01626" lon="0.70732">
        <ele>581</ele>
        <time>2012-09-02T08:01:33.000Z</time>
      </trkpt>
      <trkpt lat="43.01618" lon="0.70726">
        <ele>581</ele>
        <time>2012-09-02T08:01:38.000Z</time>
      </trkpt>
      <trkpt lat="43.01605" lon="0.70713">
        <ele>581.20001220703</ele>
        <time>2012-09-02T08:01:43.000Z</time>
      </trkpt>
      <trkpt lat="43.01597" lon="0.70705">
        <ele>581.20001220703</ele>
        <time>2012-09-02T08:01:47.000Z</time>
      </trkpt>
      <trkpt lat="43.01587" lon="0.70695">
        <ele>581</ele>
        <time>2012-09-02T08:01:52.000Z</time>
      </trkpt>
      <trkpt lat="43.01581" lon="0.70681">
        <ele>581.20001220703</ele>
        <time>2012-09-02T08:01:57.000Z</time>
      </trkpt>
      <trkpt lat="43.01579" lon="0.70676">
        <ele>581.40002441406</ele>
        <time>2012-09-02T08:01:59.000Z</time>
      </trkpt>
      <trkpt lat="43.01568" lon="0.70655">
        <ele>582.59997558594</ele>
        <time>2012-09-02T08:02:07.000Z</time>
      </trkpt>
      <trkpt lat="43.01563" lon="0.70641">
        <ele>583</ele>
        <time>2012-09-02T08:02:13.000Z</time>
      </trkpt>
      <trkpt lat="43.01562" lon="0.70637">
        <ele>583.20001220703</ele>
        <time>2012-09-02T08:02:15.000Z</time>
      </trkpt>
      <trkpt lat="43.01558" lon="0.70625">
        <ele>583.40002441406</ele>
        <time>2012-09-02T08:02:21.000Z</time>
      </trkpt>
      <trkpt lat="43.01556" lon="0.70623">
        <ele>583.59997558594</ele>
        <time>2012-09-02T08:02:22.000Z</time>
      </trkpt>
      <trkpt lat="43.01545" lon="0.70602">
        <ele>584.59997558594</ele>
        <time>2012-09-02T08:02:31.000Z</time>
      </trkpt>
      <trkpt lat="43.01538" lon="0.70583">
        <ele>585</ele>
        <time>2012-09-02T08:02:37.000Z</time>
      </trkpt>
      <trkpt lat="43.01524" lon="0.70558">
        <ele>585.40002441406</ele>
        <time>2012-09-02T08:02:42.000Z</time>
      </trkpt>
      <trkpt lat="43.01507" lon="0.70532">
        <ele>584.59997558594</ele>
        <time>2012-09-02T08:02:47.000Z</time>
      </trkpt>
      <trkpt lat="43.0149" lon="0.70511">
        <ele>585</ele>
        <time>2012-09-02T08:02:52.000Z</time>
      </trkpt>
      <trkpt lat="43.01474" lon="0.70489">
        <ele>587.20001220703</ele>
        <time>2012-09-02T08:02:57.000Z</time>
      </trkpt>
      <trkpt lat="43.01458" lon="0.7048">
        <ele>589.79998779297</ele>
        <time>2012-09-02T08:03:02.000Z</time>
      </trkpt>
      <trkpt lat="43.01454" lon="0.7049">
        <ele>591.40002441406</ele>
        <time>2012-09-02T08:03:07.000Z</time>
      </trkpt>
      <trkpt lat="43.01456" lon="0.70495">
        <ele>591.20001220703</ele>
        <time>2012-09-02T08:03:09.000Z</time>
      </trkpt>
      <trkpt lat="43.01457" lon="0.70514">
        <ele>592.59997558594</ele>
        <time>2012-09-02T08:03:17.000Z</time>
      </trkpt>
      <trkpt lat="43.01458" lon="0.70535">
        <ele>594</ele>
        <time>2012-09-02T08:03:26.000Z</time>
      </trkpt>
      <trkpt lat="43.01459" lon="0.70556">
        <ele>595.59997558594</ele>
        <time>2012-09-02T08:03:35.000Z</time>
      </trkpt>
      <trkpt lat="43.01456" lon="0.70579">
        <ele>598.20001220703</ele>
        <time>2012-09-02T08:03:45.000Z</time>
      </trkpt>
      <trkpt lat="43.01453" lon="0.70605">
        <ele>599.40002441406</ele>
        <time>2012-09-02T08:03:55.000Z</time>
      </trkpt>
      <trkpt lat="43.01452" lon="0.70633">
        <ele>600.20001220703</ele>
        <time>2012-09-02T08:04:04.000Z</time>
      </trkpt>
      <trkpt lat="43.01452" lon="0.7066">
        <ele>600.59997558594</ele>
        <time>2012-09-02T08:04:12.000Z</time>
      </trkpt>
      <trkpt lat="43.01448" lon="0.70683">
        <ele>601.40002441406</ele>
        <time>2012-09-02T08:04:19.000Z</time>
      </trkpt>
      <trkpt lat="43.01445" lon="0.70705">
        <ele>602</ele>
        <time>2012-09-02T08:04:26.000Z</time>
      </trkpt>
      <trkpt lat="43.0144" lon="0.70722">
        <ele>603.20001220703</ele>
        <time>2012-09-02T08:04:32.000Z</time>
      </trkpt>
      <trkpt lat="43.01433" lon="0.70741">
        <ele>604.40002441406</ele>
        <time>2012-09-02T08:04:39.000Z</time>
      </trkpt>
      <trkpt lat="43.01427" lon="0.70766">
        <ele>606.40002441406</ele>
        <time>2012-09-02T08:04:47.000Z</time>
      </trkpt>
      <trkpt lat="43.01425" lon="0.70787">
        <ele>607.59997558594</ele>
        <time>2012-09-02T08:04:54.000Z</time>
      </trkpt>
      <trkpt lat="43.01431" lon="0.70803">
        <ele>607.20001220703</ele>
        <time>2012-09-02T08:05:00.000Z</time>
      </trkpt>
      <trkpt lat="43.01436" lon="0.70821">
        <ele>607</ele>
        <time>2012-09-02T08:05:07.000Z</time>
      </trkpt>
      <trkpt lat="43.0143" lon="0.7083">
        <ele>608.40002441406</ele>
        <time>2012-09-02T08:05:12.000Z</time>
      </trkpt>
      <trkpt lat="43.01422" lon="0.7084">
        <ele>610.79998779297</ele>
        <time>2012-09-02T08:05:19.000Z</time>
      </trkpt>
      <trkpt lat="43.01414" lon="0.70847">
        <ele>613.40002441406</ele>
        <time>2012-09-02T08:05:24.000Z</time>
      </trkpt>
      <trkpt lat="43.01401" lon="0.70855">
        <ele>618</ele>
        <time>2012-09-02T08:05:31.000Z</time>
      </trkpt>
      <trkpt lat="43.01385" lon="0.70862">
        <ele>622.79998779297</ele>
        <time>2012-09-02T08:05:40.000Z</time>
      </trkpt>
      <trkpt lat="43.01366" lon="0.70869">
        <ele>628</ele>
        <time>2012-09-02T08:05:50.000Z</time>
      </trkpt>
      <trkpt lat="43.01352" lon="0.70869">
        <ele>631.40002441406</ele>
        <time>2012-09-02T08:05:58.000Z</time>
      </trkpt>
      <trkpt lat="43.01336" lon="0.70861">
        <ele>635</ele>
        <time>2012-09-02T08:06:07.000Z</time>
      </trkpt>
      <trkpt lat="43.01324" lon="0.70855">
        <ele>637.79998779297</ele>
        <time>2012-09-02T08:06:13.000Z</time>
      </trkpt>
      <trkpt lat="43.01314" lon="0.70849">
        <ele>640.40002441406</ele>
        <time>2012-09-02T08:06:19.000Z</time>
      </trkpt>
      <trkpt lat="43.01313" lon="0.70847">
        <ele>640.59997558594</ele>
        <time>2012-09-02T08:06:20.000Z</time>
      </trkpt>
      <trkpt lat="43.01317" lon="0.70833">
        <ele>638.79998779297</ele>
        <time>2012-09-02T08:06:25.000Z</time>
      </trkpt>
      <trkpt lat="43.01322" lon="0.70819">
        <ele>638.40002441406</ele>
        <time>2012-09-02T08:06:31.000Z</time>
      </trkpt>
      <trkpt lat="43.01321" lon="0.70816">
        <ele>639</ele>
        <time>2012-09-02T08:06:33.000Z</time>
      </trkpt>
      <trkpt lat="43.01317" lon="0.70818">
        <ele>640.20001220703</ele>
        <time>2012-09-02T08:06:36.000Z</time>
      </trkpt>
      <trkpt lat="43.01307" lon="0.70834">
        <ele>642</ele>
        <time>2012-09-02T08:06:43.000Z</time>
      </trkpt>
      <trkpt lat="43.01294" lon="0.70842">
        <ele>645.79998779297</ele>
        <time>2012-09-02T08:06:49.000Z</time>
      </trkpt>
      <trkpt lat="43.01284" lon="0.70847">
        <ele>648.59997558594</ele>
        <time>2012-09-02T08:06:54.000Z</time>
      </trkpt>
      <trkpt lat="43.01277" lon="0.70851">
        <ele>650.79998779297</ele>
        <time>2012-09-02T08:07:00.000Z</time>
      </trkpt>
      <trkpt lat="43.01272" lon="0.70856">
        <ele>652</ele>
        <time>2012-09-02T08:07:06.000Z</time>
      </trkpt>
      <trkpt lat="43.01267" lon="0.70866">
        <ele>653</ele>
        <time>2012-09-02T08:07:12.000Z</time>
      </trkpt>
      <trkpt lat="43.01255" lon="0.70884">
        <ele>655.40002441406</ele>
        <time>2012-09-02T08:07:21.000Z</time>
      </trkpt>
      <trkpt lat="43.01244" lon="0.70889">
        <ele>656.59997558594</ele>
        <time>2012-09-02T08:07:28.000Z</time>
      </trkpt>
      <trkpt lat="43.01237" lon="0.70889">
        <ele>656.79998779297</ele>
        <time>2012-09-02T08:07:34.000Z</time>
      </trkpt>
      <trkpt lat="43.0123" lon="0.70889">
        <ele>657.20001220703</ele>
        <time>2012-09-02T08:07:40.000Z</time>
      </trkpt>
      <trkpt lat="43.01222" lon="0.70889">
        <ele>657.59997558594</ele>
        <time>2012-09-02T08:07:45.000Z</time>
      </trkpt>
      <trkpt lat="43.01213" lon="0.70889">
        <ele>658</ele>
        <time>2012-09-02T08:07:50.000Z</time>
      </trkpt>
      <trkpt lat="43.01203" lon="0.70897">
        <ele>657.40002441406</ele>
        <time>2012-09-02T08:07:57.000Z</time>
      </trkpt>
      <trkpt lat="43.01203" lon="0.709">
        <ele>657</ele>
        <time>2012-09-02T08:07:59.000Z</time>
      </trkpt>
      <trkpt lat="43.01207" lon="0.70915">
        <ele>655.20001220703</ele>
        <time>2012-09-02T08:08:08.000Z</time>
      </trkpt>
      <trkpt lat="43.012" lon="0.70924">
        <ele>656.20001220703</ele>
        <time>2012-09-02T08:08:15.000Z</time>
      </trkpt>
      <trkpt lat="43.01196" lon="0.70928">
        <ele>656.79998779297</ele>
        <time>2012-09-02T08:08:18.000Z</time>
      </trkpt>
      <trkpt lat="43.0119" lon="0.70937">
        <ele>658</ele>
        <time>2012-09-02T08:08:24.000Z</time>
      </trkpt>
      <trkpt lat="43.01183" lon="0.70945">
        <ele>659.20001220703</ele>
        <time>2012-09-02T08:08:30.000Z</time>
      </trkpt>
      <trkpt lat="43.01177" lon="0.70956">
        <ele>660.40002441406</ele>
        <time>2012-09-02T08:08:37.000Z</time>
      </trkpt>
      <trkpt lat="43.01169" lon="0.70963">
        <ele>661.20001220703</ele>
        <time>2012-09-02T08:08:43.000Z</time>
      </trkpt>
      <trkpt lat="43.01161" lon="0.7097">
        <ele>662.40002441406</ele>
        <time>2012-09-02T08:08:48.000Z</time>
      </trkpt>
      <trkpt lat="43.01152" lon="0.70988">
        <ele>665.40002441406</ele>
        <time>2012-09-02T08:08:56.000Z</time>
      </trkpt>
      <trkpt lat="43.01141" lon="0.70997">
        <ele>667.40002441406</ele>
        <time>2012-09-02T08:09:03.000Z</time>
      </trkpt>
      <trkpt lat="43.01132" lon="0.70998">
        <ele>668.20001220703</ele>
        <time>2012-09-02T08:09:09.000Z</time>
      </trkpt>
      <trkpt lat="43.01124" lon="0.70994">
        <ele>668.20001220703</ele>
        <time>2012-09-02T08:09:15.000Z</time>
      </trkpt>
      <trkpt lat="43.01109" lon="0.70986">
        <ele>668</ele>
        <time>2012-09-02T08:09:23.000Z</time>
      </trkpt>
      <trkpt lat="43.01106" lon="0.70985">
        <ele>668</ele>
        <time>2012-09-02T08:09:24.000Z</time>
      </trkpt>
      <trkpt lat="43.01089" lon="0.70975">
        <ele>667.40002441406</ele>
        <time>2012-09-02T08:09:32.000Z</time>
      </trkpt>
      <trkpt lat="43.01075" lon="0.70965">
        <ele>668.79998779297</ele>
        <time>2012-09-02T08:09:39.000Z</time>
      </trkpt>
      <trkpt lat="43.0107" lon="0.7096">
        <ele>669.59997558594</ele>
        <time>2012-09-02T08:09:42.000Z</time>
      </trkpt>
      <trkpt lat="43.01061" lon="0.7095">
        <ele>671.20001220703</ele>
        <time>2012-09-02T08:09:48.000Z</time>
      </trkpt>
      <trkpt lat="43.01057" lon="0.70947">
        <ele>671.79998779297</ele>
        <time>2012-09-02T08:09:50.000Z</time>
      </trkpt>
      <trkpt lat="43.01046" lon="0.70936">
        <ele>673.40002441406</ele>
        <time>2012-09-02T08:09:57.000Z</time>
      </trkpt>
      <trkpt lat="43.01038" lon="0.70925">
        <ele>674.59997558594</ele>
        <time>2012-09-02T08:10:04.000Z</time>
      </trkpt>
      <trkpt lat="43.01029" lon="0.70912">
        <ele>676.59997558594</ele>
        <time>2012-09-02T08:10:12.000Z</time>
      </trkpt>
      <trkpt lat="43.01021" lon="0.70902">
        <ele>679.20001220703</ele>
        <time>2012-09-02T08:10:18.000Z</time>
      </trkpt>
      <trkpt lat="43.01011" lon="0.70889">
        <ele>682.20001220703</ele>
        <time>2012-09-02T08:10:24.000Z</time>
      </trkpt>
      <trkpt lat="43.01002" lon="0.70878">
        <ele>684.20001220703</ele>
        <time>2012-09-02T08:10:29.000Z</time>
      </trkpt>
      <trkpt lat="43.00993" lon="0.70862">
        <ele>686.79998779297</ele>
        <time>2012-09-02T08:10:36.000Z</time>
      </trkpt>
      <trkpt lat="43.00986" lon="0.70848">
        <ele>688.79998779297</ele>
        <time>2012-09-02T08:10:42.000Z</time>
      </trkpt>
      <trkpt lat="43.00977" lon="0.70831">
        <ele>691.59997558594</ele>
        <time>2012-09-02T08:10:50.000Z</time>
      </trkpt>
      <trkpt lat="43.00975" lon="0.70812">
        <ele>692.79998779297</ele>
        <time>2012-09-02T08:10:58.000Z</time>
      </trkpt>
      <trkpt lat="43.00978" lon="0.70797">
        <ele>692.20001220703</ele>
        <time>2012-09-02T08:11:05.000Z</time>
      </trkpt>
      <trkpt lat="43.00975" lon="0.70782">
        <ele>693.20001220703</ele>
        <time>2012-09-02T08:11:12.000Z</time>
      </trkpt>
      <trkpt lat="43.00971" lon="0.70772">
        <ele>694.40002441406</ele>
        <time>2012-09-02T08:11:17.000Z</time>
      </trkpt>
      <trkpt lat="43.00961" lon="0.70759">
        <ele>696.40002441406</ele>
        <time>2012-09-02T08:11:24.000Z</time>
      </trkpt>
      <trkpt lat="43.00953" lon="0.70755">
        <ele>697.40002441406</ele>
        <time>2012-09-02T08:11:31.000Z</time>
      </trkpt>
      <trkpt lat="43.00952" lon="0.70753">
        <ele>697.59997558594</ele>
        <time>2012-09-02T08:11:34.000Z</time>
      </trkpt>
      <trkpt lat="43.0094" lon="0.70746">
        <ele>699.40002441406</ele>
        <time>2012-09-02T08:11:41.000Z</time>
      </trkpt>
      <trkpt lat="43.0093" lon="0.70738">
        <ele>700.79998779297</ele>
        <time>2012-09-02T08:11:48.000Z</time>
      </trkpt>
      <trkpt lat="43.00924" lon="0.70727">
        <ele>701.40002441406</ele>
        <time>2012-09-02T08:11:56.000Z</time>
      </trkpt>
      <trkpt lat="43.00916" lon="0.70716">
        <ele>702</ele>
        <time>2012-09-02T08:12:03.000Z</time>
      </trkpt>
      <trkpt lat="43.00913" lon="0.70711">
        <ele>703</ele>
        <time>2012-09-02T08:12:06.000Z</time>
      </trkpt>
      <trkpt lat="43.00901" lon="0.70694">
        <ele>707.59997558594</ele>
        <time>2012-09-02T08:12:14.000Z</time>
      </trkpt>
      <trkpt lat="43.00897" lon="0.70689">
        <ele>708.79998779297</ele>
        <time>2012-09-02T08:12:17.000Z</time>
      </trkpt>
      <trkpt lat="43.00892" lon="0.70678">
        <ele>710.40002441406</ele>
        <time>2012-09-02T08:12:22.000Z</time>
      </trkpt>
      <trkpt lat="43.00888" lon="0.70671">
        <ele>711.59997558594</ele>
        <time>2012-09-02T08:12:27.000Z</time>
      </trkpt>
      <trkpt lat="43.00884" lon="0.70682">
        <ele>713.59997558594</ele>
        <time>2012-09-02T08:12:34.000Z</time>
      </trkpt>
      <trkpt lat="43.00885" lon="0.70683">
        <ele>713.20001220703</ele>
        <time>2012-09-02T08:12:35.000Z</time>
      </trkpt>
      <trkpt lat="43.00886" lon="0.70696">
        <ele>713.59997558594</ele>
        <time>2012-09-02T08:12:42.000Z</time>
      </trkpt>
      <trkpt lat="43.00879" lon="0.70701">
        <ele>716.79998779297</ele>
        <time>2012-09-02T08:12:47.000Z</time>
      </trkpt>
      <trkpt lat="43.00873" lon="0.70692">
        <ele>718.59997558594</ele>
        <time>2012-09-02T08:12:53.000Z</time>
      </trkpt>
      <trkpt lat="43.00869" lon="0.7068">
        <ele>719.79998779297</ele>
        <time>2012-09-02T08:12:59.000Z</time>
      </trkpt>
      <trkpt lat="43.00866" lon="0.70675">
        <ele>720.59997558594</ele>
        <time>2012-09-02T08:13:02.000Z</time>
      </trkpt>
      <trkpt lat="43.00862" lon="0.70661">
        <ele>721.20001220703</ele>
        <time>2012-09-02T08:13:09.000Z</time>
      </trkpt>
      <trkpt lat="43.00858" lon="0.70642">
        <ele>721.79998779297</ele>
        <time>2012-09-02T08:13:17.000Z</time>
      </trkpt>
      <trkpt lat="43.00859" lon="0.70625">
        <ele>720.59997558594</ele>
        <time>2012-09-02T08:13:24.000Z</time>
      </trkpt>
      <trkpt lat="43.00863" lon="0.70617">
        <ele>718.40002441406</ele>
        <time>2012-09-02T08:13:29.000Z</time>
      </trkpt>
      <trkpt lat="43.00864" lon="0.70615">
        <ele>718</ele>
        <time>2012-09-02T08:13:30.000Z</time>
      </trkpt>
      <trkpt lat="43.00862" lon="0.70606">
        <ele>718.40002441406</ele>
        <time>2012-09-02T08:13:34.000Z</time>
      </trkpt>
      <trkpt lat="43.0086" lon="0.70596">
        <ele>718.20001220703</ele>
        <time>2012-09-02T08:13:38.000Z</time>
      </trkpt>
      <trkpt lat="43.00855" lon="0.7058">
        <ele>719</ele>
        <time>2012-09-02T08:13:45.000Z</time>
      </trkpt>
      <trkpt lat="43.0085" lon="0.70567">
        <ele>720.59997558594</ele>
        <time>2012-09-02T08:13:51.000Z</time>
      </trkpt>
      <trkpt lat="43.00845" lon="0.70553">
        <ele>722.20001220703</ele>
        <time>2012-09-02T08:13:58.000Z</time>
      </trkpt>
      <trkpt lat="43.00835" lon="0.70543">
        <ele>724.59997558594</ele>
        <time>2012-09-02T08:14:06.000Z</time>
      </trkpt>
      <trkpt lat="43.00824" lon="0.70537">
        <ele>728.40002441406</ele>
        <time>2012-09-02T08:14:14.000Z</time>
      </trkpt>
      <trkpt lat="43.00818" lon="0.70531">
        <ele>730.59997558594</ele>
        <time>2012-09-02T08:14:21.000Z</time>
      </trkpt>
      <trkpt lat="43.00811" lon="0.70521">
        <ele>732.79998779297</ele>
        <time>2012-09-02T08:14:29.000Z</time>
      </trkpt>
      <trkpt lat="43.00803" lon="0.70513">
        <ele>735.40002441406</ele>
        <time>2012-09-02T08:14:36.000Z</time>
      </trkpt>
      <trkpt lat="43.00796" lon="0.70507">
        <ele>737.59997558594</ele>
        <time>2012-09-02T08:14:42.000Z</time>
      </trkpt>
      <trkpt lat="43.00787" lon="0.70498">
        <ele>740.20001220703</ele>
        <time>2012-09-02T08:14:49.000Z</time>
      </trkpt>
      <trkpt lat="43.0078" lon="0.70493">
        <ele>742.79998779297</ele>
        <time>2012-09-02T08:14:54.000Z</time>
      </trkpt>
      <trkpt lat="43.00767" lon="0.70492">
        <ele>747</ele>
        <time>2012-09-02T08:15:00.000Z</time>
      </trkpt>
      <trkpt lat="43.0076" lon="0.70489">
        <ele>749.20001220703</ele>
        <time>2012-09-02T08:15:06.000Z</time>
      </trkpt>
      <trkpt lat="43.00754" lon="0.70486">
        <ele>751</ele>
        <time>2012-09-02T08:15:10.000Z</time>
      </trkpt>
      <trkpt lat="43.00753" lon="0.70474">
        <ele>751.79998779297</ele>
        <time>2012-09-02T08:15:17.000Z</time>
      </trkpt>
      <trkpt lat="43.00753" lon="0.70468">
        <ele>752</ele>
        <time>2012-09-02T08:15:22.000Z</time>
      </trkpt>
      <trkpt lat="43.00749" lon="0.7046">
        <ele>753</ele>
        <time>2012-09-02T08:15:27.000Z</time>
      </trkpt>
      <trkpt lat="43.00742" lon="0.70452">
        <ele>754.40002441406</ele>
        <time>2012-09-02T08:15:35.000Z</time>
      </trkpt>
      <trkpt lat="43.00736" lon="0.70448">
        <ele>755.40002441406</ele>
        <time>2012-09-02T08:15:42.000Z</time>
      </trkpt>
      <trkpt lat="43.00732" lon="0.70445">
        <ele>755.79998779297</ele>
        <time>2012-09-02T08:15:45.000Z</time>
      </trkpt>
      <trkpt lat="43.00726" lon="0.70443">
        <ele>756.59997558594</ele>
        <time>2012-09-02T08:15:48.000Z</time>
      </trkpt>
      <trkpt lat="43.00717" lon="0.70436">
        <ele>757.20001220703</ele>
        <time>2012-09-02T08:15:55.000Z</time>
      </trkpt>
      <trkpt lat="43.00709" lon="0.70431">
        <ele>757.79998779297</ele>
        <time>2012-09-02T08:16:01.000Z</time>
      </trkpt>
      <trkpt lat="43.00697" lon="0.70423">
        <ele>758</ele>
        <time>2012-09-02T08:16:10.000Z</time>
      </trkpt>
      <trkpt lat="43.00686" lon="0.70417">
        <ele>758</ele>
        <time>2012-09-02T08:16:17.000Z</time>
      </trkpt>
      <trkpt lat="43.00681" lon="0.70416">
        <ele>758.20001220703</ele>
        <time>2012-09-02T08:16:19.000Z</time>
      </trkpt>
      <trkpt lat="43.00664" lon="0.70404">
        <ele>759.20001220703</ele>
        <time>2012-09-02T08:16:27.000Z</time>
      </trkpt>
      <trkpt lat="43.00655" lon="0.7039">
        <ele>761.20001220703</ele>
        <time>2012-09-02T08:16:34.000Z</time>
      </trkpt>
      <trkpt lat="43.00643" lon="0.70378">
        <ele>763.40002441406</ele>
        <time>2012-09-02T08:16:42.000Z</time>
      </trkpt>
      <trkpt lat="43.00634" lon="0.70369">
        <ele>765</ele>
        <time>2012-09-02T08:16:49.000Z</time>
      </trkpt>
      <trkpt lat="43.00624" lon="0.70358">
        <ele>766.40002441406</ele>
        <time>2012-09-02T08:16:56.000Z</time>
      </trkpt>
      <trkpt lat="43.00613" lon="0.70346">
        <ele>767.40002441406</ele>
        <time>2012-09-02T08:17:03.000Z</time>
      </trkpt>
      <trkpt lat="43.00608" lon="0.70334">
        <ele>766.79998779297</ele>
        <time>2012-09-02T08:17:08.000Z</time>
      </trkpt>
      <trkpt lat="43.00602" lon="0.70321">
        <ele>767.79998779297</ele>
        <time>2012-09-02T08:17:14.000Z</time>
      </trkpt>
      <trkpt lat="43.00597" lon="0.70307">
        <ele>768.40002441406</ele>
        <time>2012-09-02T08:17:21.000Z</time>
      </trkpt>
      <trkpt lat="43.00597" lon="0.70302">
        <ele>768.20001220703</ele>
        <time>2012-09-02T08:17:23.000Z</time>
      </trkpt>
      <trkpt lat="43.00591" lon="0.70291">
        <ele>768.59997558594</ele>
        <time>2012-09-02T08:17:29.000Z</time>
      </trkpt>
      <trkpt lat="43.00583" lon="0.70284">
        <ele>769.20001220703</ele>
        <time>2012-09-02T08:17:36.000Z</time>
      </trkpt>
      <trkpt lat="43.00573" lon="0.7028">
        <ele>770.20001220703</ele>
        <time>2012-09-02T08:17:42.000Z</time>
      </trkpt>
      <trkpt lat="43.00572" lon="0.70279">
        <ele>770.40002441406</ele>
        <time>2012-09-02T08:17:43.000Z</time>
      </trkpt>
      <trkpt lat="43.00561" lon="0.70274">
        <ele>771.40002441406</ele>
        <time>2012-09-02T08:17:48.000Z</time>
      </trkpt>
      <trkpt lat="43.0055" lon="0.70265">
        <ele>771.59997558594</ele>
        <time>2012-09-02T08:17:54.000Z</time>
      </trkpt>
      <trkpt lat="43.00545" lon="0.70262">
        <ele>772</ele>
        <time>2012-09-02T08:17:57.000Z</time>
      </trkpt>
      <trkpt lat="43.00535" lon="0.70255">
        <ele>771.79998779297</ele>
        <time>2012-09-02T08:18:02.000Z</time>
      </trkpt>
      <trkpt lat="43.00524" lon="0.70249">
        <ele>772</ele>
        <time>2012-09-02T08:18:10.000Z</time>
      </trkpt>
      <trkpt lat="43.00512" lon="0.70244">
        <ele>773.20001220703</ele>
        <time>2012-09-02T08:18:17.000Z</time>
      </trkpt>
      <trkpt lat="43.00502" lon="0.70239">
        <ele>774.20001220703</ele>
        <time>2012-09-02T08:18:24.000Z</time>
      </trkpt>
      <trkpt lat="43.00493" lon="0.70234">
        <ele>775.40002441406</ele>
        <time>2012-09-02T08:18:30.000Z</time>
      </trkpt>
      <trkpt lat="43.00482" lon="0.70231">
        <ele>777</ele>
        <time>2012-09-02T08:18:37.000Z</time>
      </trkpt>
      <trkpt lat="43.00462" lon="0.7023">
        <ele>779.40002441406</ele>
        <time>2012-09-02T08:18:44.000Z</time>
      </trkpt>
      <trkpt lat="43.00453" lon="0.70231">
        <ele>780.59997558594</ele>
        <time>2012-09-02T08:18:51.000Z</time>
      </trkpt>
      <trkpt lat="43.00453" lon="0.70231">
        <ele>780.59997558594</ele>
        <time>2012-09-02T08:18:52.000Z</time>
      </trkpt>
      <trkpt lat="43.00449" lon="0.70227">
        <ele>780.79998779297</ele>
        <time>2012-09-02T08:18:56.000Z</time>
      </trkpt>
      <trkpt lat="43.00445" lon="0.70213">
        <ele>780.79998779297</ele>
        <time>2012-09-02T08:19:01.000Z</time>
      </trkpt>
      <trkpt lat="43.00443" lon="0.70188">
        <ele>779.40002441406</ele>
        <time>2012-09-02T08:19:06.000Z</time>
      </trkpt>
      <trkpt lat="43.00445" lon="0.70177">
        <ele>778.79998779297</ele>
        <time>2012-09-02T08:19:08.000Z</time>
      </trkpt>
      <trkpt lat="43.00458" lon="0.70164">
        <ele>778.20001220703</ele>
        <time>2012-09-02T08:19:12.000Z</time>
      </trkpt>
      <trkpt lat="43.00474" lon="0.7016">
        <ele>777.79998779297</ele>
        <time>2012-09-02T08:19:17.000Z</time>
      </trkpt>
      <trkpt lat="43.00485" lon="0.70157">
        <ele>777.40002441406</ele>
        <time>2012-09-02T08:19:23.000Z</time>
      </trkpt>
      <trkpt lat="43.00495" lon="0.70151">
        <ele>777</ele>
        <time>2012-09-02T08:19:29.000Z</time>
      </trkpt>
      <trkpt lat="43.00506" lon="0.70133">
        <ele>776.20001220703</ele>
        <time>2012-09-02T08:19:34.000Z</time>
      </trkpt>
      <trkpt lat="43.00508" lon="0.70127">
        <ele>776</ele>
        <time>2012-09-02T08:19:35.000Z</time>
      </trkpt>
      <trkpt lat="43.0052" lon="0.70096">
        <ele>775</ele>
        <time>2012-09-02T08:19:41.000Z</time>
      </trkpt>
      <trkpt lat="43.00532" lon="0.70069">
        <ele>772.79998779297</ele>
        <time>2012-09-02T08:19:46.000Z</time>
      </trkpt>
      <trkpt lat="43.00545" lon="0.70051">
        <ele>770.59997558594</ele>
        <time>2012-09-02T08:19:50.000Z</time>
      </trkpt>
      <trkpt lat="43.00564" lon="0.70022">
        <ele>768.20001220703</ele>
        <time>2012-09-02T08:19:56.000Z</time>
      </trkpt>
      <trkpt lat="43.00578" lon="0.69999">
        <ele>766.79998779297</ele>
        <time>2012-09-02T08:20:00.000Z</time>
      </trkpt>
      <trkpt lat="43.00593" lon="0.69972">
        <ele>764.20001220703</ele>
        <time>2012-09-02T08:20:06.000Z</time>
      </trkpt>
      <trkpt lat="43.00596" lon="0.69964">
        <ele>763.40002441406</ele>
        <time>2012-09-02T08:20:08.000Z</time>
      </trkpt>
      <trkpt lat="43.00599" lon="0.69942">
        <ele>761.20001220703</ele>
        <time>2012-09-02T08:20:13.000Z</time>
      </trkpt>
      <trkpt lat="43.00601" lon="0.69937">
        <ele>760.59997558594</ele>
        <time>2012-09-02T08:20:14.000Z</time>
      </trkpt>
      <trkpt lat="43.00598" lon="0.69907">
        <ele>757</ele>
        <time>2012-09-02T08:20:19.000Z</time>
      </trkpt>
      <trkpt lat="43.00592" lon="0.69881">
        <ele>753.20001220703</ele>
        <time>2012-09-02T08:20:23.000Z</time>
      </trkpt>
      <trkpt lat="43.00589" lon="0.69875">
        <ele>752.20001220703</ele>
        <time>2012-09-02T08:20:24.000Z</time>
      </trkpt>
      <trkpt lat="43.00586" lon="0.69839">
        <ele>746.79998779297</ele>
        <time>2012-09-02T08:20:30.000Z</time>
      </trkpt>
      <trkpt lat="43.00592" lon="0.69814">
        <ele>743.20001220703</ele>
        <time>2012-09-02T08:20:34.000Z</time>
      </trkpt>
      <trkpt lat="43.00608" lon="0.69786">
        <ele>739.40002441406</ele>
        <time>2012-09-02T08:20:39.000Z</time>
      </trkpt>
      <trkpt lat="43.00618" lon="0.69767">
        <ele>737.20001220703</ele>
        <time>2012-09-02T08:20:42.000Z</time>
      </trkpt>
      <trkpt lat="43.00623" lon="0.69738">
        <ele>734.59997558594</ele>
        <time>2012-09-02T08:20:45.000Z</time>
      </trkpt>
      <trkpt lat="43.00605" lon="0.69714">
        <ele>732.20001220703</ele>
        <time>2012-09-02T08:20:49.000Z</time>
      </trkpt>
      <trkpt lat="43.00585" lon="0.69706">
        <ele>730.40002441406</ele>
        <time>2012-09-02T08:20:52.000Z</time>
      </trkpt>
      <trkpt lat="43.00581" lon="0.697">
        <ele>729.79998779297</ele>
        <time>2012-09-02T08:20:53.000Z</time>
      </trkpt>
      <trkpt lat="43.00568" lon="0.69673">
        <ele>727.59997558594</ele>
        <time>2012-09-02T08:20:58.000Z</time>
      </trkpt>
      <trkpt lat="43.00564" lon="0.69648">
        <ele>724.59997558594</ele>
        <time>2012-09-02T08:21:03.000Z</time>
      </trkpt>
      <trkpt lat="43.00564" lon="0.69626">
        <ele>721.59997558594</ele>
        <time>2012-09-02T08:21:09.000Z</time>
      </trkpt>
      <trkpt lat="43.00564" lon="0.6961">
        <ele>719.40002441406</ele>
        <time>2012-09-02T08:21:14.000Z</time>
      </trkpt>
      <trkpt lat="43.00565" lon="0.69597">
        <ele>717.59997558594</ele>
        <time>2012-09-02T08:21:19.000Z</time>
      </trkpt>
      <trkpt lat="43.00564" lon="0.69588">
        <ele>716.40002441406</ele>
        <time>2012-09-02T08:21:25.000Z</time>
      </trkpt>
      <trkpt lat="43.00565" lon="0.69586">
        <ele>716.20001220703</ele>
        <time>2012-09-02T08:21:35.000Z</time>
      </trkpt>
      <trkpt lat="43.00566" lon="0.69583">
        <ele>715.40002441406</ele>
        <time>2012-09-02T08:21:39.000Z</time>
      </trkpt>
      <trkpt lat="43.00567" lon="0.69577">
        <ele>713.79998779297</ele>
        <time>2012-09-02T08:21:44.000Z</time>
      </trkpt>
      <trkpt lat="43.0057" lon="0.69571">
        <ele>712.40002441406</ele>
        <time>2012-09-02T08:21:49.000Z</time>
      </trkpt>
      <trkpt lat="43.00569" lon="0.69552">
        <ele>708.40002441406</ele>
        <time>2012-09-02T08:21:55.000Z</time>
      </trkpt>
      <trkpt lat="43.00571" lon="0.69523">
        <ele>701.79998779297</ele>
        <time>2012-09-02T08:22:00.000Z</time>
      </trkpt>
      <trkpt lat="43.00563" lon="0.69495">
        <ele>697.20001220703</ele>
        <time>2012-09-02T08:22:05.000Z</time>
      </trkpt>
      <trkpt lat="43.00555" lon="0.69482">
        <ele>696</ele>
        <time>2012-09-02T08:22:07.000Z</time>
      </trkpt>
      <trkpt lat="43.00539" lon="0.69455">
        <ele>693.79998779297</ele>
        <time>2012-09-02T08:22:11.000Z</time>
      </trkpt>
      <trkpt lat="43.00526" lon="0.69421">
        <ele>690.40002441406</ele>
        <time>2012-09-02T08:22:16.000Z</time>
      </trkpt>
      <trkpt lat="43.00527" lon="0.69395">
        <ele>685.40002441406</ele>
        <time>2012-09-02T08:22:19.000Z</time>
      </trkpt>
      <trkpt lat="43.00532" lon="0.69368">
        <ele>680.20001220703</ele>
        <time>2012-09-02T08:22:22.000Z</time>
      </trkpt>
      <trkpt lat="43.00534" lon="0.69341">
        <ele>675.40002441406</ele>
        <time>2012-09-02T08:22:27.000Z</time>
      </trkpt>
      <trkpt lat="43.00559" lon="0.69307">
        <ele>668.79998779297</ele>
        <time>2012-09-02T08:22:35.000Z</time>
      </trkpt>
      <trkpt lat="43.0056" lon="0.69302">
        <ele>668</ele>
        <time>2012-09-02T08:22:38.000Z</time>
      </trkpt>
      <trkpt lat="43.0056" lon="0.69301">
        <ele>667.59997558594</ele>
        <time>2012-09-02T08:22:40.000Z</time>
      </trkpt>
      <trkpt lat="43.00564" lon="0.69292">
        <ele>666</ele>
        <time>2012-09-02T08:22:49.000Z</time>
      </trkpt>
      <trkpt lat="43.00565" lon="0.69291">
        <ele>665.79998779297</ele>
        <time>2012-09-02T08:22:50.000Z</time>
      </trkpt>
      <trkpt lat="43.00565" lon="0.69287">
        <ele>665</ele>
        <time>2012-09-02T08:22:53.000Z</time>
      </trkpt>
      <trkpt lat="43.00563" lon="0.69281">
        <ele>663.20001220703</ele>
        <time>2012-09-02T08:22:59.000Z</time>
      </trkpt>
      <trkpt lat="43.00555" lon="0.69281">
        <ele>662.20001220703</ele>
        <time>2012-09-02T08:23:08.000Z</time>
      </trkpt>
      <trkpt lat="43.00554" lon="0.69281">
        <ele>662</ele>
        <time>2012-09-02T08:23:11.000Z</time>
      </trkpt>
      <trkpt lat="43.0055" lon="0.69279">
        <ele>661</ele>
        <time>2012-09-02T08:23:16.000Z</time>
      </trkpt>
      <trkpt lat="43.00542" lon="0.69278">
        <ele>659.59997558594</ele>
        <time>2012-09-02T08:23:20.000Z</time>
      </trkpt>
      <trkpt lat="43.00531" lon="0.69274">
        <ele>656.79998779297</ele>
        <time>2012-09-02T08:23:25.000Z</time>
      </trkpt>
      <trkpt lat="43.00519" lon="0.69273">
        <ele>655</ele>
        <time>2012-09-02T08:23:29.000Z</time>
      </trkpt>
      <trkpt lat="43.00517" lon="0.69274">
        <ele>655</ele>
        <time>2012-09-02T08:23:30.000Z</time>
      </trkpt>
      <trkpt lat="43.00503" lon="0.69269">
        <ele>651.20001220703</ele>
        <time>2012-09-02T08:23:37.000Z</time>
      </trkpt>
      <trkpt lat="43.0049" lon="0.69269">
        <ele>649.59997558594</ele>
        <time>2012-09-02T08:23:42.000Z</time>
      </trkpt>
      <trkpt lat="43.00482" lon="0.69266">
        <ele>647.40002441406</ele>
        <time>2012-09-02T08:23:47.000Z</time>
      </trkpt>
      <trkpt lat="43.00468" lon="0.69262">
        <ele>644.59997558594</ele>
        <time>2012-09-02T08:23:53.000Z</time>
      </trkpt>
      <trkpt lat="43.00461" lon="0.69261">
        <ele>643.40002441406</ele>
        <time>2012-09-02T08:23:59.000Z</time>
      </trkpt>
      <trkpt lat="43.00454" lon="0.69261">
        <ele>642.59997558594</ele>
        <time>2012-09-02T08:24:03.000Z</time>
      </trkpt>
      <trkpt lat="43.00442" lon="0.69257">
        <ele>639.79998779297</ele>
        <time>2012-09-02T08:24:08.000Z</time>
      </trkpt>
      <trkpt lat="43.00441" lon="0.69258">
        <ele>640.20001220703</ele>
        <time>2012-09-02T08:24:11.000Z</time>
      </trkpt>
      <trkpt lat="43.00439" lon="0.69258">
        <ele>639.59997558594</ele>
        <time>2012-09-02T08:24:19.000Z</time>
      </trkpt>
      <trkpt lat="43.00437" lon="0.69258">
        <ele>639.40002441406</ele>
        <time>2012-09-02T08:24:22.000Z</time>
      </trkpt>
      <trkpt lat="43.00425" lon="0.69254">
        <ele>636.59997558594</ele>
        <time>2012-09-02T08:24:28.000Z</time>
      </trkpt>
      <trkpt lat="43.00407" lon="0.6925">
        <ele>632.59997558594</ele>
        <time>2012-09-02T08:24:33.000Z</time>
      </trkpt>
      <trkpt lat="43.00393" lon="0.69248">
        <ele>629.59997558594</ele>
        <time>2012-09-02T08:24:38.000Z</time>
      </trkpt>
      <trkpt lat="43.00383" lon="0.69242">
        <ele>626</ele>
        <time>2012-09-02T08:24:44.000Z</time>
      </trkpt>
      <trkpt lat="43.00379" lon="0.69241">
        <ele>625.20001220703</ele>
        <time>2012-09-02T08:24:48.000Z</time>
      </trkpt>
      <trkpt lat="43.00375" lon="0.69237">
        <ele>622.79998779297</ele>
        <time>2012-09-02T08:24:54.000Z</time>
      </trkpt>
      <trkpt lat="43.00382" lon="0.69228">
        <ele>621.20001220703</ele>
        <time>2012-09-02T08:25:00.000Z</time>
      </trkpt>
      <trkpt lat="43.00397" lon="0.69216">
        <ele>619</ele>
        <time>2012-09-02T08:25:06.000Z</time>
      </trkpt>
      <trkpt lat="43.00411" lon="0.692">
        <ele>615.40002441406</ele>
        <time>2012-09-02T08:25:12.000Z</time>
      </trkpt>
      <trkpt lat="43.00424" lon="0.69188">
        <ele>612.40002441406</ele>
        <time>2012-09-02T08:25:16.000Z</time>
      </trkpt>
      <trkpt lat="43.00437" lon="0.69178">
        <ele>610.20001220703</ele>
        <time>2012-09-02T08:25:19.000Z</time>
      </trkpt>
      <trkpt lat="43.00464" lon="0.69164">
        <ele>607.59997558594</ele>
        <time>2012-09-02T08:25:25.000Z</time>
      </trkpt>
      <trkpt lat="43.00477" lon="0.69151">
        <ele>604.40002441406</ele>
        <time>2012-09-02T08:25:30.000Z</time>
      </trkpt>
      <trkpt lat="43.00488" lon="0.69139">
        <ele>600.79998779297</ele>
        <time>2012-09-02T08:25:35.000Z</time>
      </trkpt>
      <trkpt lat="43.00499" lon="0.69126">
        <ele>596.59997558594</ele>
        <time>2012-09-02T08:25:43.000Z</time>
      </trkpt>
      <trkpt lat="43.00507" lon="0.69111">
        <ele>592.40002441406</ele>
        <time>2012-09-02T08:25:49.000Z</time>
      </trkpt>
      <trkpt lat="43.00512" lon="0.69103">
        <ele>590</ele>
        <time>2012-09-02T08:25:55.000Z</time>
      </trkpt>
      <trkpt lat="43.00512" lon="0.69103">
        <ele>589.79998779297</ele>
        <time>2012-09-02T08:25:57.000Z</time>
      </trkpt>
      <trkpt lat="43.00516" lon="0.69097">
        <ele>588</ele>
        <time>2012-09-02T08:26:04.000Z</time>
      </trkpt>
      <trkpt lat="43.00518" lon="0.69092">
        <ele>586.40002441406</ele>
        <time>2012-09-02T08:26:10.000Z</time>
      </trkpt>
      <trkpt lat="43.0052" lon="0.69089">
        <ele>585.59997558594</ele>
        <time>2012-09-02T08:26:16.000Z</time>
      </trkpt>
      <trkpt lat="43.00525" lon="0.69084">
        <ele>584.40002441406</ele>
        <time>2012-09-02T08:26:23.000Z</time>
      </trkpt>
      <trkpt lat="43.0053" lon="0.69081">
        <ele>583.59997558594</ele>
        <time>2012-09-02T08:26:30.000Z</time>
      </trkpt>
      <trkpt lat="43.00533" lon="0.69078">
        <ele>583</ele>
        <time>2012-09-02T08:26:34.000Z</time>
      </trkpt>
      <trkpt lat="43.00537" lon="0.69071">
        <ele>581</ele>
        <time>2012-09-02T08:26:39.000Z</time>
      </trkpt>
      <trkpt lat="43.00542" lon="0.69065">
        <ele>579.40002441406</ele>
        <time>2012-09-02T08:26:45.000Z</time>
      </trkpt>
      <trkpt lat="43.00548" lon="0.69059">
        <ele>577.79998779297</ele>
        <time>2012-09-02T08:26:51.000Z</time>
      </trkpt>
      <trkpt lat="43.00555" lon="0.69053">
        <ele>575.79998779297</ele>
        <time>2012-09-02T08:26:56.000Z</time>
      </trkpt>
      <trkpt lat="43.00559" lon="0.69046">
        <ele>573.59997558594</ele>
        <time>2012-09-02T08:27:00.000Z</time>
      </trkpt>
      <trkpt lat="43.00566" lon="0.69034">
        <ele>569.20001220703</ele>
        <time>2012-09-02T08:27:06.000Z</time>
      </trkpt>
      <trkpt lat="43.00568" lon="0.69032">
        <ele>568.59997558594</ele>
        <time>2012-09-02T08:27:10.000Z</time>
      </trkpt>
      <trkpt lat="43.00573" lon="0.69028">
        <ele>567.20001220703</ele>
        <time>2012-09-02T08:27:15.000Z</time>
      </trkpt>
      <trkpt lat="43.00574" lon="0.69023">
        <ele>565.40002441406</ele>
        <time>2012-09-02T08:27:20.000Z</time>
      </trkpt>
      <trkpt lat="43.00581" lon="0.69016">
        <ele>562.79998779297</ele>
        <time>2012-09-02T08:27:28.000Z</time>
      </trkpt>
      <trkpt lat="43.00583" lon="0.69015">
        <ele>562.20001220703</ele>
        <time>2012-09-02T08:27:31.000Z</time>
      </trkpt>
      <trkpt lat="43.00586" lon="0.69013">
        <ele>561.40002441406</ele>
        <time>2012-09-02T08:27:35.000Z</time>
      </trkpt>
      <trkpt lat="43.00588" lon="0.69008">
        <ele>559.40002441406</ele>
        <time>2012-09-02T08:27:39.000Z</time>
      </trkpt>
      <trkpt lat="43.00594" lon="0.69002">
        <ele>557.20001220703</ele>
        <time>2012-09-02T08:27:47.000Z</time>
      </trkpt>
      <trkpt lat="43.00598" lon="0.68997">
        <ele>555.59997558594</ele>
        <time>2012-09-02T08:27:52.000Z</time>
      </trkpt>
      <trkpt lat="43.006" lon="0.68996">
        <ele>555.20001220703</ele>
        <time>2012-09-02T08:27:56.000Z</time>
      </trkpt>
      <trkpt lat="43.00602" lon="0.68994">
        <ele>555</ele>
        <time>2012-09-02T08:28:03.000Z</time>
      </trkpt>
      <trkpt lat="43.00607" lon="0.68988">
        <ele>553.59997558594</ele>
        <time>2012-09-02T08:28:11.000Z</time>
      </trkpt>
      <trkpt lat="43.00609" lon="0.68984">
        <ele>552.59997558594</ele>
        <time>2012-09-02T08:28:16.000Z</time>
      </trkpt>
      <trkpt lat="43.00613" lon="0.68978">
        <ele>551.20001220703</ele>
        <time>2012-09-02T08:28:19.000Z</time>
      </trkpt>
      <trkpt lat="43.00624" lon="0.6896">
        <ele>547</ele>
        <time>2012-09-02T08:28:24.000Z</time>
      </trkpt>
      <trkpt lat="43.00628" lon="0.68946">
        <ele>543.40002441406</ele>
        <time>2012-09-02T08:28:28.000Z</time>
      </trkpt>
      <trkpt lat="43.0063" lon="0.68943">
        <ele>542.79998779297</ele>
        <time>2012-09-02T08:28:34.000Z</time>
      </trkpt>
      <trkpt lat="43.0063" lon="0.68945">
        <ele>543.40002441406</ele>
        <time>2012-09-02T08:30:32.000Z</time>
      </trkpt>
      <trkpt lat="43.00639" lon="0.68939">
        <ele>542</ele>
        <time>2012-09-02T08:32:07.000Z</time>
      </trkpt>
      <trkpt lat="43.00655" lon="0.68936">
        <ele>541.59997558594</ele>
        <time>2012-09-02T08:32:12.000Z</time>
      </trkpt>
      <trkpt lat="43.00672" lon="0.68934">
        <ele>541.40002441406</ele>
        <time>2012-09-02T08:32:18.000Z</time>
      </trkpt>
      <trkpt lat="43.00674" lon="0.68932">
        <ele>541</ele>
        <time>2012-09-02T08:32:19.000Z</time>
      </trkpt>
      <trkpt lat="43.00679" lon="0.68912">
        <ele>536.79998779297</ele>
        <time>2012-09-02T08:32:23.000Z</time>
      </trkpt>
      <trkpt lat="43.00677" lon="0.68884">
        <ele>533.40002441406</ele>
        <time>2012-09-02T08:32:27.000Z</time>
      </trkpt>
      <trkpt lat="43.00661" lon="0.68836">
        <ele>528.20001220703</ele>
        <time>2012-09-02T08:32:32.000Z</time>
      </trkpt>
      <trkpt lat="43.00653" lon="0.68798">
        <ele>526.20001220703</ele>
        <time>2012-09-02T08:32:36.000Z</time>
      </trkpt>
      <trkpt lat="43.00654" lon="0.68785">
        <ele>525.59997558594</ele>
        <time>2012-09-02T08:32:40.000Z</time>
      </trkpt>
      <trkpt lat="43.00657" lon="0.68787">
        <ele>525.79998779297</ele>
        <time>2012-09-02T08:32:41.000Z</time>
      </trkpt>
      <trkpt lat="43.00673" lon="0.68792">
        <ele>525.59997558594</ele>
        <time>2012-09-02T08:32:44.000Z</time>
      </trkpt>
      <trkpt lat="43.00689" lon="0.6879">
        <ele>524.40002441406</ele>
        <time>2012-09-02T08:32:47.000Z</time>
      </trkpt>
      <trkpt lat="43.00699" lon="0.68789">
        <ele>523.59997558594</ele>
        <time>2012-09-02T08:32:49.000Z</time>
      </trkpt>
      <trkpt lat="43.00723" lon="0.68791">
        <ele>522.20001220703</ele>
        <time>2012-09-02T08:32:54.000Z</time>
      </trkpt>
      <trkpt lat="43.00747" lon="0.68808">
        <ele>522</ele>
        <time>2012-09-02T08:32:59.000Z</time>
      </trkpt>
      <trkpt lat="43.00768" lon="0.6883">
        <ele>521.79998779297</ele>
        <time>2012-09-02T08:33:03.000Z</time>
      </trkpt>
      <trkpt lat="43.00795" lon="0.68836">
        <ele>519.40002441406</ele>
        <time>2012-09-02T08:33:07.000Z</time>
      </trkpt>
      <trkpt lat="43.00802" lon="0.68831">
        <ele>518.20001220703</ele>
        <time>2012-09-02T08:33:08.000Z</time>
      </trkpt>
      <trkpt lat="43.00823" lon="0.68816">
        <ele>515.79998779297</ele>
        <time>2012-09-02T08:33:11.000Z</time>
      </trkpt>
      <trkpt lat="43.00852" lon="0.68806">
        <ele>515.59997558594</ele>
        <time>2012-09-02T08:33:15.000Z</time>
      </trkpt>
      <trkpt lat="43.00881" lon="0.68804">
        <ele>517.20001220703</ele>
        <time>2012-09-02T08:33:19.000Z</time>
      </trkpt>
      <trkpt lat="43.00904" lon="0.68785">
        <ele>517.59997558594</ele>
        <time>2012-09-02T08:33:23.000Z</time>
      </trkpt>
      <trkpt lat="43.0091" lon="0.68769">
        <ele>517.40002441406</ele>
        <time>2012-09-02T08:33:25.000Z</time>
      </trkpt>
      <trkpt lat="43.00924" lon="0.68715">
        <ele>517.79998779297</ele>
        <time>2012-09-02T08:33:32.000Z</time>
      </trkpt>
      <trkpt lat="43.0094" lon="0.68666">
        <ele>520</ele>
        <time>2012-09-02T08:33:39.000Z</time>
      </trkpt>
      <trkpt lat="43.00948" lon="0.68611">
        <ele>520.20001220703</ele>
        <time>2012-09-02T08:33:47.000Z</time>
      </trkpt>
      <trkpt lat="43.00961" lon="0.68537">
        <ele>521.20001220703</ele>
        <time>2012-09-02T08:33:58.000Z</time>
      </trkpt>
      <trkpt lat="43.00978" lon="0.68493">
        <ele>522.20001220703</ele>
        <time>2012-09-02T08:34:05.000Z</time>
      </trkpt>
      <trkpt lat="43.01009" lon="0.68438">
        <ele>520.79998779297</ele>
        <time>2012-09-02T08:34:15.000Z</time>
      </trkpt>
      <trkpt lat="43.01039" lon="0.6841">
        <ele>522.20001220703</ele>
        <time>2012-09-02T08:34:21.000Z</time>
      </trkpt>
      <trkpt lat="43.01076" lon="0.68388">
        <ele>528.79998779297</ele>
        <time>2012-09-02T08:34:27.000Z</time>
      </trkpt>
      <trkpt lat="43.01096" lon="0.68371">
        <ele>531.59997558594</ele>
        <time>2012-09-02T08:34:31.000Z</time>
      </trkpt>
      <trkpt lat="43.0112" lon="0.68362">
        <ele>532.79998779297</ele>
        <time>2012-09-02T08:34:36.000Z</time>
      </trkpt>
      <trkpt lat="43.01154" lon="0.68364">
        <ele>533</ele>
        <time>2012-09-02T08:34:42.000Z</time>
      </trkpt>
      <trkpt lat="43.0117" lon="0.68363">
        <ele>533.20001220703</ele>
        <time>2012-09-02T08:34:44.000Z</time>
      </trkpt>
      <trkpt lat="43.01205" lon="0.68352">
        <ele>532</ele>
        <time>2012-09-02T08:34:48.000Z</time>
      </trkpt>
      <trkpt lat="43.0123" lon="0.68334">
        <ele>527.59997558594</ele>
        <time>2012-09-02T08:34:51.000Z</time>
      </trkpt>
      <trkpt lat="43.01277" lon="0.68314">
        <ele>526</ele>
        <time>2012-09-02T08:34:57.000Z</time>
      </trkpt>
      <trkpt lat="43.01326" lon="0.68299">
        <ele>519.59997558594</ele>
        <time>2012-09-02T08:35:02.000Z</time>
      </trkpt>
      <trkpt lat="43.01356" lon="0.68288">
        <ele>513.79998779297</ele>
        <time>2012-09-02T08:35:06.000Z</time>
      </trkpt>
      <trkpt lat="43.01377" lon="0.68277">
        <ele>508.79998779297</ele>
        <time>2012-09-02T08:35:10.000Z</time>
      </trkpt>
      <trkpt lat="43.01372" lon="0.68266">
        <ele>509.20001220703</ele>
        <time>2012-09-02T08:35:13.000Z</time>
      </trkpt>
      <trkpt lat="43.01371" lon="0.68247">
        <ele>509.60000610352</ele>
        <time>2012-09-02T08:35:18.000Z</time>
      </trkpt>
      <trkpt lat="43.01378" lon="0.68228">
        <ele>514.20001220703</ele>
        <time>2012-09-02T08:35:23.000Z</time>
      </trkpt>
      <trkpt lat="43.01385" lon="0.68202">
        <ele>520.20001220703</ele>
        <time>2012-09-02T08:35:30.000Z</time>
      </trkpt>
      <trkpt lat="43.01385" lon="0.68189">
        <ele>524.59997558594</ele>
        <time>2012-09-02T08:35:33.000Z</time>
      </trkpt>
      <trkpt lat="43.01406" lon="0.68171">
        <ele>519.79998779297</ele>
        <time>2012-09-02T08:35:40.000Z</time>
      </trkpt>
      <trkpt lat="43.01425" lon="0.6815">
        <ele>517.40002441406</ele>
        <time>2012-09-02T08:35:47.000Z</time>
      </trkpt>
      <trkpt lat="43.01439" lon="0.6814">
        <ele>513.79998779297</ele>
        <time>2012-09-02T08:35:52.000Z</time>
      </trkpt>
      <trkpt lat="43.0144" lon="0.68127">
        <ele>515.79998779297</ele>
        <time>2012-09-02T08:35:56.000Z</time>
      </trkpt>
      <trkpt lat="43.01439" lon="0.68103">
        <ele>521.59997558594</ele>
        <time>2012-09-02T08:36:02.000Z</time>
      </trkpt>
      <trkpt lat="43.01445" lon="0.68089">
        <ele>520.79998779297</ele>
        <time>2012-09-02T08:36:07.000Z</time>
      </trkpt>
      <trkpt lat="43.01449" lon="0.68062">
        <ele>521.59997558594</ele>
        <time>2012-09-02T08:36:15.000Z</time>
      </trkpt>
      <trkpt lat="43.01451" lon="0.68056">
        <ele>521</ele>
        <time>2012-09-02T08:36:17.000Z</time>
      </trkpt>
      <trkpt lat="43.01446" lon="0.68037">
        <ele>526.40002441406</ele>
        <time>2012-09-02T08:36:23.000Z</time>
      </trkpt>
      <trkpt lat="43.01444" lon="0.68015">
        <ele>529.79998779297</ele>
        <time>2012-09-02T08:36:30.000Z</time>
      </trkpt>
      <trkpt lat="43.01445" lon="0.68011">
        <ele>529.59997558594</ele>
        <time>2012-09-02T08:36:31.000Z</time>
      </trkpt>
      <trkpt lat="43.01443" lon="0.67995">
        <ele>532.59997558594</ele>
        <time>2012-09-02T08:36:36.000Z</time>
      </trkpt>
      <trkpt lat="43.01444" lon="0.67981">
        <ele>533.79998779297</ele>
        <time>2012-09-02T08:36:41.000Z</time>
      </trkpt>
      <trkpt lat="43.01445" lon="0.67968">
        <ele>534.40002441406</ele>
        <time>2012-09-02T08:36:45.000Z</time>
      </trkpt>
      <trkpt lat="43.01444" lon="0.67961">
        <ele>536</ele>
        <time>2012-09-02T08:36:47.000Z</time>
      </trkpt>
      <trkpt lat="43.01441" lon="0.67939">
        <ele>540.20001220703</ele>
        <time>2012-09-02T08:36:54.000Z</time>
      </trkpt>
      <trkpt lat="43.01442" lon="0.67921">
        <ele>542.20001220703</ele>
        <time>2012-09-02T08:36:59.000Z</time>
      </trkpt>
      <trkpt lat="43.01439" lon="0.67909">
        <ele>545</ele>
        <time>2012-09-02T08:37:02.000Z</time>
      </trkpt>
      <trkpt lat="43.01435" lon="0.6789">
        <ele>550</ele>
        <time>2012-09-02T08:37:08.000Z</time>
      </trkpt>
      <trkpt lat="43.01434" lon="0.6787">
        <ele>553.40002441406</ele>
        <time>2012-09-02T08:37:14.000Z</time>
      </trkpt>
      <trkpt lat="43.0144" lon="0.67848">
        <ele>554.20001220703</ele>
        <time>2012-09-02T08:37:21.000Z</time>
      </trkpt>
      <trkpt lat="43.01441" lon="0.67833">
        <ele>556</ele>
        <time>2012-09-02T08:37:26.000Z</time>
      </trkpt>
      <trkpt lat="43.01445" lon="0.67823">
        <ele>557.59997558594</ele>
        <time>2012-09-02T08:37:30.000Z</time>
      </trkpt>
      <trkpt lat="43.01453" lon="0.6781">
        <ele>558.79998779297</ele>
        <time>2012-09-02T08:37:35.000Z</time>
      </trkpt>
      <trkpt lat="43.01462" lon="0.67796">
        <ele>560.20001220703</ele>
        <time>2012-09-02T08:37:41.000Z</time>
      </trkpt>
      <trkpt lat="43.01461" lon="0.67794">
        <ele>561.40002441406</ele>
        <time>2012-09-02T08:37:42.000Z</time>
      </trkpt>
      <trkpt lat="43.01457" lon="0.67784">
        <ele>566</ele>
        <time>2012-09-02T08:37:48.000Z</time>
      </trkpt>
      <trkpt lat="43.0146" lon="0.67781">
        <ele>565.79998779297</ele>
        <time>2012-09-02T08:37:54.000Z</time>
      </trkpt>
      <trkpt lat="43.01469" lon="0.67782">
        <ele>563</ele>
        <time>2012-09-02T08:37:57.000Z</time>
      </trkpt>
      <trkpt lat="43.01491" lon="0.67785">
        <ele>555.20001220703</ele>
        <time>2012-09-02T08:38:04.000Z</time>
      </trkpt>
      <trkpt lat="43.015" lon="0.67783">
        <ele>553.40002441406</ele>
        <time>2012-09-02T08:38:09.000Z</time>
      </trkpt>
      <trkpt lat="43.01517" lon="0.6778">
        <ele>551</ele>
        <time>2012-09-02T08:38:15.000Z</time>
      </trkpt>
      <trkpt lat="43.01538" lon="0.67777">
        <ele>547.40002441406</ele>
        <time>2012-09-02T08:38:21.000Z</time>
      </trkpt>
      <trkpt lat="43.0155" lon="0.67769">
        <ele>547.59997558594</ele>
        <time>2012-09-02T08:38:27.000Z</time>
      </trkpt>
      <trkpt lat="43.01563" lon="0.67758">
        <ele>549</ele>
        <time>2012-09-02T08:38:33.000Z</time>
      </trkpt>
      <trkpt lat="43.0157" lon="0.6775">
        <ele>550.20001220703</ele>
        <time>2012-09-02T08:38:37.000Z</time>
      </trkpt>
      <trkpt lat="43.01576" lon="0.67738">
        <ele>553.20001220703</ele>
        <time>2012-09-02T08:38:43.000Z</time>
      </trkpt>
      <trkpt lat="43.01587" lon="0.67731">
        <ele>553</ele>
        <time>2012-09-02T08:38:48.000Z</time>
      </trkpt>
      <trkpt lat="43.0159" lon="0.67726">
        <ele>554</ele>
        <time>2012-09-02T08:38:50.000Z</time>
      </trkpt>
      <trkpt lat="43.01596" lon="0.67711">
        <ele>557.40002441406</ele>
        <time>2012-09-02T08:38:56.000Z</time>
      </trkpt>
      <trkpt lat="43.01599" lon="0.67705">
        <ele>558.59997558594</ele>
        <time>2012-09-02T08:38:58.000Z</time>
      </trkpt>
      <trkpt lat="43.01612" lon="0.67688">
        <ele>560</ele>
        <time>2012-09-02T08:39:05.000Z</time>
      </trkpt>
      <trkpt lat="43.01623" lon="0.67674">
        <ele>560.79998779297</ele>
        <time>2012-09-02T08:39:11.000Z</time>
      </trkpt>
      <trkpt lat="43.0163" lon="0.6767">
        <ele>559.59997558594</ele>
        <time>2012-09-02T08:39:14.000Z</time>
      </trkpt>
      <trkpt lat="43.01631" lon="0.67654">
        <ele>565.20001220703</ele>
        <time>2012-09-02T08:39:20.000Z</time>
      </trkpt>
      <trkpt lat="43.0164" lon="0.67637">
        <ele>567</ele>
        <time>2012-09-02T08:39:27.000Z</time>
      </trkpt>
      <trkpt lat="43.01648" lon="0.67624">
        <ele>567.79998779297</ele>
        <time>2012-09-02T08:39:34.000Z</time>
      </trkpt>
      <trkpt lat="43.01656" lon="0.67616">
        <ele>566.40002441406</ele>
        <time>2012-09-02T08:39:39.000Z</time>
      </trkpt>
      <trkpt lat="43.01664" lon="0.67606">
        <ele>565.79998779297</ele>
        <time>2012-09-02T08:39:44.000Z</time>
      </trkpt>
      <trkpt lat="43.01672" lon="0.67595">
        <ele>566.20001220703</ele>
        <time>2012-09-02T08:39:50.000Z</time>
      </trkpt>
      <trkpt lat="43.01673" lon="0.67592">
        <ele>566.79998779297</ele>
        <time>2012-09-02T08:39:51.000Z</time>
      </trkpt>
      <trkpt lat="43.01679" lon="0.67577">
        <ele>570.40002441406</ele>
        <time>2012-09-02T08:39:57.000Z</time>
      </trkpt>
      <trkpt lat="43.01687" lon="0.67569">
        <ele>571.20001220703</ele>
        <time>2012-09-02T08:40:01.000Z</time>
      </trkpt>
      <trkpt lat="43.01702" lon="0.67562">
        <ele>570.59997558594</ele>
        <time>2012-09-02T08:40:05.000Z</time>
      </trkpt>
      <trkpt lat="43.01704" lon="0.6755">
        <ele>575</ele>
        <time>2012-09-02T08:40:09.000Z</time>
      </trkpt>
      <trkpt lat="43.01707" lon="0.6754">
        <ele>578.79998779297</ele>
        <time>2012-09-02T08:40:14.000Z</time>
      </trkpt>
      <trkpt lat="43.01713" lon="0.67532">
        <ele>581</ele>
        <time>2012-09-02T08:40:19.000Z</time>
      </trkpt>
      <trkpt lat="43.01718" lon="0.67524">
        <ele>583.59997558594</ele>
        <time>2012-09-02T08:40:25.000Z</time>
      </trkpt>
      <trkpt lat="43.01732" lon="0.67522">
        <ele>581.40002441406</ele>
        <time>2012-09-02T08:40:30.000Z</time>
      </trkpt>
      <trkpt lat="43.01748" lon="0.67519">
        <ele>579.40002441406</ele>
        <time>2012-09-02T08:40:35.000Z</time>
      </trkpt>
      <trkpt lat="43.01765" lon="0.67514">
        <ele>581.20001220703</ele>
        <time>2012-09-02T08:40:40.000Z</time>
      </trkpt>
      <trkpt lat="43.01779" lon="0.67509">
        <ele>583.40002441406</ele>
        <time>2012-09-02T08:40:46.000Z</time>
      </trkpt>
      <trkpt lat="43.01793" lon="0.6751">
        <ele>583</ele>
        <time>2012-09-02T08:40:52.000Z</time>
      </trkpt>
      <trkpt lat="43.01804" lon="0.67517">
        <ele>580</ele>
        <time>2012-09-02T08:40:59.000Z</time>
      </trkpt>
      <trkpt lat="43.01817" lon="0.67526">
        <ele>576.40002441406</ele>
        <time>2012-09-02T08:41:06.000Z</time>
      </trkpt>
      <trkpt lat="43.01837" lon="0.67538">
        <ele>571.40002441406</ele>
        <time>2012-09-02T08:41:13.000Z</time>
      </trkpt>
      <trkpt lat="43.01857" lon="0.67546">
        <ele>566.40002441406</ele>
        <time>2012-09-02T08:41:19.000Z</time>
      </trkpt>
      <trkpt lat="43.01871" lon="0.67548">
        <ele>564.79998779297</ele>
        <time>2012-09-02T08:41:24.000Z</time>
      </trkpt>
      <trkpt lat="43.01885" lon="0.67546">
        <ele>564</ele>
        <time>2012-09-02T08:41:30.000Z</time>
      </trkpt>
      <trkpt lat="43.01898" lon="0.67536">
        <ele>565.20001220703</ele>
        <time>2012-09-02T08:41:36.000Z</time>
      </trkpt>
      <trkpt lat="43.01898" lon="0.67517">
        <ele>569.20001220703</ele>
        <time>2012-09-02T08:41:41.000Z</time>
      </trkpt>
      <trkpt lat="43.01895" lon="0.67495">
        <ele>574</ele>
        <time>2012-09-02T08:41:47.000Z</time>
      </trkpt>
      <trkpt lat="43.01891" lon="0.67476">
        <ele>575.79998779297</ele>
        <time>2012-09-02T08:41:52.000Z</time>
      </trkpt>
      <trkpt lat="43.0189" lon="0.67453">
        <ele>577.79998779297</ele>
        <time>2012-09-02T08:41:58.000Z</time>
      </trkpt>
      <trkpt lat="43.01885" lon="0.67426">
        <ele>581</ele>
        <time>2012-09-02T08:42:06.000Z</time>
      </trkpt>
      <trkpt lat="43.01877" lon="0.674">
        <ele>583</ele>
        <time>2012-09-02T08:42:14.000Z</time>
      </trkpt>
      <trkpt lat="43.01866" lon="0.67377">
        <ele>585</ele>
        <time>2012-09-02T08:42:22.000Z</time>
      </trkpt>
      <trkpt lat="43.01856" lon="0.67355">
        <ele>587.20001220703</ele>
        <time>2012-09-02T08:42:30.000Z</time>
      </trkpt>
      <trkpt lat="43.01845" lon="0.67334">
        <ele>590</ele>
        <time>2012-09-02T08:42:38.000Z</time>
      </trkpt>
      <trkpt lat="43.01835" lon="0.67312">
        <ele>590.40002441406</ele>
        <time>2012-09-02T08:42:46.000Z</time>
      </trkpt>
      <trkpt lat="43.01825" lon="0.67292">
        <ele>589.79998779297</ele>
        <time>2012-09-02T08:42:53.000Z</time>
      </trkpt>
      <trkpt lat="43.01817" lon="0.67273">
        <ele>588.79998779297</ele>
        <time>2012-09-02T08:43:00.000Z</time>
      </trkpt>
      <trkpt lat="43.01808" lon="0.6725">
        <ele>587.79998779297</ele>
        <time>2012-09-02T08:43:08.000Z</time>
      </trkpt>
      <trkpt lat="43.01796" lon="0.67225">
        <ele>585.79998779297</ele>
        <time>2012-09-02T08:43:16.000Z</time>
      </trkpt>
      <trkpt lat="43.01781" lon="0.67217">
        <ele>589.59997558594</ele>
        <time>2012-09-02T08:43:22.000Z</time>
      </trkpt>
      <trkpt lat="43.01765" lon="0.6721">
        <ele>594.20001220703</ele>
        <time>2012-09-02T08:43:28.000Z</time>
      </trkpt>
      <trkpt lat="43.01753" lon="0.67199">
        <ele>595.79998779297</ele>
        <time>2012-09-02T08:43:33.000Z</time>
      </trkpt>
      <trkpt lat="43.0174" lon="0.67171">
        <ele>591.59997558594</ele>
        <time>2012-09-02T08:43:41.000Z</time>
      </trkpt>
      <trkpt lat="43.01722" lon="0.67153">
        <ele>590.40002441406</ele>
        <time>2012-09-02T08:43:48.000Z</time>
      </trkpt>
      <trkpt lat="43.01698" lon="0.67139">
        <ele>592.40002441406</ele>
        <time>2012-09-02T08:43:56.000Z</time>
      </trkpt>
      <trkpt lat="43.01679" lon="0.67128">
        <ele>595</ele>
        <time>2012-09-02T08:44:03.000Z</time>
      </trkpt>
      <trkpt lat="43.01652" lon="0.67113">
        <ele>599.79998779297</ele>
        <time>2012-09-02T08:44:13.000Z</time>
      </trkpt>
      <trkpt lat="43.01629" lon="0.67097">
        <ele>603.40002441406</ele>
        <time>2012-09-02T08:44:22.000Z</time>
      </trkpt>
      <trkpt lat="43.01608" lon="0.67077">
        <ele>605.59997558594</ele>
        <time>2012-09-02T08:44:31.000Z</time>
      </trkpt>
      <trkpt lat="43.01593" lon="0.67063">
        <ele>607</ele>
        <time>2012-09-02T08:44:37.000Z</time>
      </trkpt>
      <trkpt lat="43.0158" lon="0.6705">
        <ele>608.79998779297</ele>
        <time>2012-09-02T08:44:43.000Z</time>
      </trkpt>
      <trkpt lat="43.01566" lon="0.67033">
        <ele>610.20001220703</ele>
        <time>2012-09-02T08:44:50.000Z</time>
      </trkpt>
      <trkpt lat="43.01548" lon="0.67012">
        <ele>613.40002441406</ele>
        <time>2012-09-02T08:44:58.000Z</time>
      </trkpt>
      <trkpt lat="43.01536" lon="0.66995">
        <ele>615</ele>
        <time>2012-09-02T08:45:04.000Z</time>
      </trkpt>
      <trkpt lat="43.01528" lon="0.66978">
        <ele>614.59997558594</ele>
        <time>2012-09-02T08:45:09.000Z</time>
      </trkpt>
      <trkpt lat="43.01524" lon="0.6696">
        <ele>612.20001220703</ele>
        <time>2012-09-02T08:45:14.000Z</time>
      </trkpt>
      <trkpt lat="43.01519" lon="0.66943">
        <ele>610</ele>
        <time>2012-09-02T08:45:19.000Z</time>
      </trkpt>
      <trkpt lat="43.01509" lon="0.66922">
        <ele>609</ele>
        <time>2012-09-02T08:45:26.000Z</time>
      </trkpt>
      <trkpt lat="43.01496" lon="0.66905">
        <ele>610.20001220703</ele>
        <time>2012-09-02T08:45:33.000Z</time>
      </trkpt>
      <trkpt lat="43.0148" lon="0.66887">
        <ele>611</ele>
        <time>2012-09-02T08:45:41.000Z</time>
      </trkpt>
      <trkpt lat="43.01463" lon="0.66872">
        <ele>611.79998779297</ele>
        <time>2012-09-02T08:45:49.000Z</time>
      </trkpt>
      <trkpt lat="43.0144" lon="0.66855">
        <ele>613.20001220703</ele>
        <time>2012-09-02T08:46:00.000Z</time>
      </trkpt>
      <trkpt lat="43.01422" lon="0.66844">
        <ele>614.79998779297</ele>
        <time>2012-09-02T08:46:08.000Z</time>
      </trkpt>
      <trkpt lat="43.014" lon="0.66831">
        <ele>615.79998779297</ele>
        <time>2012-09-02T08:46:17.000Z</time>
      </trkpt>
      <trkpt lat="43.01381" lon="0.66821">
        <ele>617</ele>
        <time>2012-09-02T08:46:25.000Z</time>
      </trkpt>
      <trkpt lat="43.01356" lon="0.66811">
        <ele>620</ele>
        <time>2012-09-02T08:46:34.000Z</time>
      </trkpt>
      <trkpt lat="43.01337" lon="0.66804">
        <ele>621.79998779297</ele>
        <time>2012-09-02T08:46:42.000Z</time>
      </trkpt>
      <trkpt lat="43.01319" lon="0.66794">
        <ele>623</ele>
        <time>2012-09-02T08:46:50.000Z</time>
      </trkpt>
      <trkpt lat="43.01301" lon="0.66788">
        <ele>625.79998779297</ele>
        <time>2012-09-02T08:46:57.000Z</time>
      </trkpt>
      <trkpt lat="43.01281" lon="0.66784">
        <ele>630</ele>
        <time>2012-09-02T08:47:05.000Z</time>
      </trkpt>
      <trkpt lat="43.01264" lon="0.66781">
        <ele>634</ele>
        <time>2012-09-02T08:47:12.000Z</time>
      </trkpt>
      <trkpt lat="43.01244" lon="0.66774">
        <ele>639.40002441406</ele>
        <time>2012-09-02T08:47:19.000Z</time>
      </trkpt>
      <trkpt lat="43.01222" lon="0.66762">
        <ele>649</ele>
        <time>2012-09-02T08:47:26.000Z</time>
      </trkpt>
      <trkpt lat="43.0122" lon="0.66749">
        <ele>648</ele>
        <time>2012-09-02T08:47:29.000Z</time>
      </trkpt>
      <trkpt lat="43.01235" lon="0.6674">
        <ele>639.59997558594</ele>
        <time>2012-09-02T08:47:33.000Z</time>
      </trkpt>
      <trkpt lat="43.0125" lon="0.66733">
        <ele>630.59997558594</ele>
        <time>2012-09-02T08:47:37.000Z</time>
      </trkpt>
      <trkpt lat="43.01252" lon="0.66718">
        <ele>630.79998779297</ele>
        <time>2012-09-02T08:47:41.000Z</time>
      </trkpt>
      <trkpt lat="43.01256" lon="0.66696">
        <ele>631</ele>
        <time>2012-09-02T08:47:46.000Z</time>
      </trkpt>
      <trkpt lat="43.01264" lon="0.6666">
        <ele>628.79998779297</ele>
        <time>2012-09-02T08:47:54.000Z</time>
      </trkpt>
      <trkpt lat="43.01264" lon="0.66626">
        <ele>628.59997558594</ele>
        <time>2012-09-02T08:48:01.000Z</time>
      </trkpt>
      <trkpt lat="43.0126" lon="0.66602">
        <ele>630.20001220703</ele>
        <time>2012-09-02T08:48:06.000Z</time>
      </trkpt>
      <trkpt lat="43.01255" lon="0.66582">
        <ele>632.40002441406</ele>
        <time>2012-09-02T08:48:11.000Z</time>
      </trkpt>
      <trkpt lat="43.01245" lon="0.6656">
        <ele>636</ele>
        <time>2012-09-02T08:48:18.000Z</time>
      </trkpt>
      <trkpt lat="43.01243" lon="0.6654">
        <ele>634.79998779297</ele>
        <time>2012-09-02T08:48:24.000Z</time>
      </trkpt>
      <trkpt lat="43.01241" lon="0.66534">
        <ele>635.20001220703</ele>
        <time>2012-09-02T08:48:26.000Z</time>
      </trkpt>
      <trkpt lat="43.01229" lon="0.66513">
        <ele>640.40002441406</ele>
        <time>2012-09-02T08:48:34.000Z</time>
      </trkpt>
      <trkpt lat="43.01222" lon="0.66496">
        <ele>642.79998779297</ele>
        <time>2012-09-02T08:48:41.000Z</time>
      </trkpt>
      <trkpt lat="43.01214" lon="0.66477">
        <ele>643.79998779297</ele>
        <time>2012-09-02T08:48:50.000Z</time>
      </trkpt>
      <trkpt lat="43.01207" lon="0.66456">
        <ele>643.79998779297</ele>
        <time>2012-09-02T08:48:59.000Z</time>
      </trkpt>
      <trkpt lat="43.01198" lon="0.66433">
        <ele>644</ele>
        <time>2012-09-02T08:49:08.000Z</time>
      </trkpt>
      <trkpt lat="43.01189" lon="0.66415">
        <ele>644.40002441406</ele>
        <time>2012-09-02T08:49:16.000Z</time>
      </trkpt>
      <trkpt lat="43.01177" lon="0.66395">
        <ele>645.79998779297</ele>
        <time>2012-09-02T08:49:25.000Z</time>
      </trkpt>
      <trkpt lat="43.01166" lon="0.66374">
        <ele>646.59997558594</ele>
        <time>2012-09-02T08:49:34.000Z</time>
      </trkpt>
      <trkpt lat="43.01154" lon="0.66356">
        <ele>649</ele>
        <time>2012-09-02T08:49:43.000Z</time>
      </trkpt>
      <trkpt lat="43.01142" lon="0.66339">
        <ele>650.20001220703</ele>
        <time>2012-09-02T08:49:52.000Z</time>
      </trkpt>
      <trkpt lat="43.01128" lon="0.66322">
        <ele>651.59997558594</ele>
        <time>2012-09-02T08:50:01.000Z</time>
      </trkpt>
      <trkpt lat="43.01115" lon="0.66308">
        <ele>653</ele>
        <time>2012-09-02T08:50:10.000Z</time>
      </trkpt>
      <trkpt lat="43.01103" lon="0.66296">
        <ele>654.40002441406</ele>
        <time>2012-09-02T08:50:18.000Z</time>
      </trkpt>
      <trkpt lat="43.0109" lon="0.66286">
        <ele>656.59997558594</ele>
        <time>2012-09-02T08:50:26.000Z</time>
      </trkpt>
      <trkpt lat="43.01077" lon="0.66277">
        <ele>659</ele>
        <time>2012-09-02T08:50:34.000Z</time>
      </trkpt>
      <trkpt lat="43.01064" lon="0.6627">
        <ele>661.79998779297</ele>
        <time>2012-09-02T08:50:41.000Z</time>
      </trkpt>
      <trkpt lat="43.01052" lon="0.66263">
        <ele>664.20001220703</ele>
        <time>2012-09-02T08:50:49.000Z</time>
      </trkpt>
      <trkpt lat="43.01039" lon="0.66257">
        <ele>667.40002441406</ele>
        <time>2012-09-02T08:50:56.000Z</time>
      </trkpt>
      <trkpt lat="43.01024" lon="0.66248">
        <ele>670.79998779297</ele>
        <time>2012-09-02T08:51:05.000Z</time>
      </trkpt>
      <trkpt lat="43.01009" lon="0.66244">
        <ele>676.40002441406</ele>
        <time>2012-09-02T08:51:13.000Z</time>
      </trkpt>
      <trkpt lat="43.00997" lon="0.66235">
        <ele>680.40002441406</ele>
        <time>2012-09-02T08:51:20.000Z</time>
      </trkpt>
      <trkpt lat="43.00991" lon="0.66219">
        <ele>681.40002441406</ele>
        <time>2012-09-02T08:51:27.000Z</time>
      </trkpt>
      <trkpt lat="43.00986" lon="0.66208">
        <ele>682.20001220703</ele>
        <time>2012-09-02T08:51:32.000Z</time>
      </trkpt>
      <trkpt lat="43.00981" lon="0.66196">
        <ele>683.59997558594</ele>
        <time>2012-09-02T08:51:37.000Z</time>
      </trkpt>
      <trkpt lat="43.00974" lon="0.66176">
        <ele>685.20001220703</ele>
        <time>2012-09-02T08:51:45.000Z</time>
      </trkpt>
      <trkpt lat="43.00969" lon="0.66155">
        <ele>685</ele>
        <time>2012-09-02T08:51:54.000Z</time>
      </trkpt>
      <trkpt lat="43.00963" lon="0.66139">
        <ele>685.79998779297</ele>
        <time>2012-09-02T08:52:01.000Z</time>
      </trkpt>
      <trkpt lat="43.00955" lon="0.6612">
        <ele>686.59997558594</ele>
        <time>2012-09-02T08:52:09.000Z</time>
      </trkpt>
      <trkpt lat="43.00942" lon="0.66101">
        <ele>690.40002441406</ele>
        <time>2012-09-02T08:52:19.000Z</time>
      </trkpt>
      <trkpt lat="43.0093" lon="0.66082">
        <ele>692.79998779297</ele>
        <time>2012-09-02T08:52:29.000Z</time>
      </trkpt>
      <trkpt lat="43.00922" lon="0.66068">
        <ele>694</ele>
        <time>2012-09-02T08:52:37.000Z</time>
      </trkpt>
      <trkpt lat="43.00913" lon="0.66054">
        <ele>695.20001220703</ele>
        <time>2012-09-02T08:52:45.000Z</time>
      </trkpt>
      <trkpt lat="43.00902" lon="0.66036">
        <ele>696.59997558594</ele>
        <time>2012-09-02T08:52:55.000Z</time>
      </trkpt>
      <trkpt lat="43.00888" lon="0.66015">
        <ele>698.40002441406</ele>
        <time>2012-09-02T08:53:06.000Z</time>
      </trkpt>
      <trkpt lat="43.00876" lon="0.66001">
        <ele>700.59997558594</ele>
        <time>2012-09-02T08:53:15.000Z</time>
      </trkpt>
      <trkpt lat="43.00865" lon="0.65989">
        <ele>702.20001220703</ele>
        <time>2012-09-02T08:53:23.000Z</time>
      </trkpt>
      <trkpt lat="43.00855" lon="0.65975">
        <ele>702.20001220703</ele>
        <time>2012-09-02T08:53:31.000Z</time>
      </trkpt>
      <trkpt lat="43.00841" lon="0.65964">
        <ele>704.79998779297</ele>
        <time>2012-09-02T08:53:40.000Z</time>
      </trkpt>
      <trkpt lat="43.00823" lon="0.65951">
        <ele>706</ele>
        <time>2012-09-02T08:53:51.000Z</time>
      </trkpt>
      <trkpt lat="43.0081" lon="0.6594">
        <ele>705.40002441406</ele>
        <time>2012-09-02T08:53:59.000Z</time>
      </trkpt>
      <trkpt lat="43.00795" lon="0.65929">
        <ele>705.20001220703</ele>
        <time>2012-09-02T08:54:08.000Z</time>
      </trkpt>
      <trkpt lat="43.0078" lon="0.65922">
        <ele>706.40002441406</ele>
        <time>2012-09-02T08:54:17.000Z</time>
      </trkpt>
      <trkpt lat="43.00762" lon="0.65917">
        <ele>709.20001220703</ele>
        <time>2012-09-02T08:54:26.000Z</time>
      </trkpt>
      <trkpt lat="43.00741" lon="0.65909">
        <ele>712.79998779297</ele>
        <time>2012-09-02T08:54:35.000Z</time>
      </trkpt>
      <trkpt lat="43.0072" lon="0.659">
        <ele>715.40002441406</ele>
        <time>2012-09-02T08:54:43.000Z</time>
      </trkpt>
      <trkpt lat="43.00705" lon="0.65895">
        <ele>717.79998779297</ele>
        <time>2012-09-02T08:54:50.000Z</time>
      </trkpt>
      <trkpt lat="43.00691" lon="0.65887">
        <ele>718.79998779297</ele>
        <time>2012-09-02T08:54:58.000Z</time>
      </trkpt>
      <trkpt lat="43.00671" lon="0.65882">
        <ele>722.59997558594</ele>
        <time>2012-09-02T08:55:09.000Z</time>
      </trkpt>
      <trkpt lat="43.00651" lon="0.65873">
        <ele>727.40002441406</ele>
        <time>2012-09-02T08:55:20.000Z</time>
      </trkpt>
      <trkpt lat="43.00634" lon="0.65865">
        <ele>732.59997558594</ele>
        <time>2012-09-02T08:55:29.000Z</time>
      </trkpt>
      <trkpt lat="43.00615" lon="0.65853">
        <ele>737.20001220703</ele>
        <time>2012-09-02T08:55:39.000Z</time>
      </trkpt>
      <trkpt lat="43.00598" lon="0.65843">
        <ele>741.20001220703</ele>
        <time>2012-09-02T08:55:47.000Z</time>
      </trkpt>
      <trkpt lat="43.00583" lon="0.65829">
        <ele>744.20001220703</ele>
        <time>2012-09-02T08:55:55.000Z</time>
      </trkpt>
      <trkpt lat="43.00572" lon="0.65814">
        <ele>746.59997558594</ele>
        <time>2012-09-02T08:56:02.000Z</time>
      </trkpt>
      <trkpt lat="43.00563" lon="0.65788">
        <ele>746.20001220703</ele>
        <time>2012-09-02T08:56:12.000Z</time>
      </trkpt>
      <trkpt lat="43.00555" lon="0.65766">
        <ele>745.79998779297</ele>
        <time>2012-09-02T08:56:20.000Z</time>
      </trkpt>
      <trkpt lat="43.00547" lon="0.65743">
        <ele>746</ele>
        <time>2012-09-02T08:56:29.000Z</time>
      </trkpt>
      <trkpt lat="43.00537" lon="0.65721">
        <ele>748.20001220703</ele>
        <time>2012-09-02T08:56:37.000Z</time>
      </trkpt>
      <trkpt lat="43.00528" lon="0.65701">
        <ele>749.59997558594</ele>
        <time>2012-09-02T08:56:45.000Z</time>
      </trkpt>
      <trkpt lat="43.00517" lon="0.65681">
        <ele>752.40002441406</ele>
        <time>2012-09-02T08:56:53.000Z</time>
      </trkpt>
      <trkpt lat="43.00512" lon="0.65663">
        <ele>751.59997558594</ele>
        <time>2012-09-02T08:57:00.000Z</time>
      </trkpt>
      <trkpt lat="43.00506" lon="0.65646">
        <ele>749.59997558594</ele>
        <time>2012-09-02T08:57:07.000Z</time>
      </trkpt>
      <trkpt lat="43.00495" lon="0.65618">
        <ele>748</ele>
        <time>2012-09-02T08:57:18.000Z</time>
      </trkpt>
      <trkpt lat="43.00484" lon="0.65593">
        <ele>748.40002441406</ele>
        <time>2012-09-02T08:57:28.000Z</time>
      </trkpt>
      <trkpt lat="43.00474" lon="0.65566">
        <ele>749.79998779297</ele>
        <time>2012-09-02T08:57:38.000Z</time>
      </trkpt>
      <trkpt lat="43.00462" lon="0.65541">
        <ele>754.20001220703</ele>
        <time>2012-09-02T08:57:47.000Z</time>
      </trkpt>
      <trkpt lat="43.00452" lon="0.65518">
        <ele>756.59997558594</ele>
        <time>2012-09-02T08:57:55.000Z</time>
      </trkpt>
      <trkpt lat="43.00441" lon="0.65496">
        <ele>760.20001220703</ele>
        <time>2012-09-02T08:58:03.000Z</time>
      </trkpt>
      <trkpt lat="43.00432" lon="0.65466">
        <ele>762.20001220703</ele>
        <time>2012-09-02T08:58:13.000Z</time>
      </trkpt>
      <trkpt lat="43.00423" lon="0.65443">
        <ele>764.20001220703</ele>
        <time>2012-09-02T08:58:21.000Z</time>
      </trkpt>
      <trkpt lat="43.00415" lon="0.6542">
        <ele>766</ele>
        <time>2012-09-02T08:58:29.000Z</time>
      </trkpt>
      <trkpt lat="43.0041" lon="0.65388">
        <ele>764</ele>
        <time>2012-09-02T08:58:40.000Z</time>
      </trkpt>
      <trkpt lat="43.00408" lon="0.65363">
        <ele>761.20001220703</ele>
        <time>2012-09-02T08:58:48.000Z</time>
      </trkpt>
      <trkpt lat="43.004" lon="0.65343">
        <ele>763.40002441406</ele>
        <time>2012-09-02T08:58:55.000Z</time>
      </trkpt>
      <trkpt lat="43.00392" lon="0.65321">
        <ele>765.79998779297</ele>
        <time>2012-09-02T08:59:03.000Z</time>
      </trkpt>
      <trkpt lat="43.00384" lon="0.65303">
        <ele>769</ele>
        <time>2012-09-02T08:59:10.000Z</time>
      </trkpt>
      <trkpt lat="43.00373" lon="0.65278">
        <ele>774.40002441406</ele>
        <time>2012-09-02T08:59:19.000Z</time>
      </trkpt>
      <trkpt lat="43.00365" lon="0.65258">
        <ele>777.59997558594</ele>
        <time>2012-09-02T08:59:26.000Z</time>
      </trkpt>
      <trkpt lat="43.00363" lon="0.65245">
        <ele>777.59997558594</ele>
        <time>2012-09-02T08:59:32.000Z</time>
      </trkpt>
      <trkpt lat="43.00363" lon="0.65227">
        <ele>776.20001220703</ele>
        <time>2012-09-02T08:59:39.000Z</time>
      </trkpt>
      <trkpt lat="43.00357" lon="0.65205">
        <ele>777.79998779297</ele>
        <time>2012-09-02T08:59:48.000Z</time>
      </trkpt>
      <trkpt lat="43.00346" lon="0.65185">
        <ele>783.40002441406</ele>
        <time>2012-09-02T08:59:55.000Z</time>
      </trkpt>
      <trkpt lat="43.00336" lon="0.65161">
        <ele>787.20001220703</ele>
        <time>2012-09-02T09:00:03.000Z</time>
      </trkpt>
      <trkpt lat="43.00333" lon="0.65147">
        <ele>788.20001220703</ele>
        <time>2012-09-02T09:00:10.000Z</time>
      </trkpt>
      <trkpt lat="43.00333" lon="0.65135">
        <ele>787.79998779297</ele>
        <time>2012-09-02T09:00:15.000Z</time>
      </trkpt>
      <trkpt lat="43.00331" lon="0.65114">
        <ele>787.59997558594</ele>
        <time>2012-09-02T09:00:21.000Z</time>
      </trkpt>
      <trkpt lat="43.00331" lon="0.65092">
        <ele>786.79998779297</ele>
        <time>2012-09-02T09:00:28.000Z</time>
      </trkpt>
      <trkpt lat="43.00322" lon="0.65072">
        <ele>792.59997558594</ele>
        <time>2012-09-02T09:00:35.000Z</time>
      </trkpt>
      <trkpt lat="43.00317" lon="0.65045">
        <ele>796.20001220703</ele>
        <time>2012-09-02T09:00:43.000Z</time>
      </trkpt>
      <trkpt lat="43.00308" lon="0.65031">
        <ele>801.40002441406</ele>
        <time>2012-09-02T09:00:48.000Z</time>
      </trkpt>
      <trkpt lat="43.00308" lon="0.65019">
        <ele>802</ele>
        <time>2012-09-02T09:00:52.000Z</time>
      </trkpt>
      <trkpt lat="43.00307" lon="0.64994">
        <ele>803.79998779297</ele>
        <time>2012-09-02T09:01:00.000Z</time>
      </trkpt>
      <trkpt lat="43.00313" lon="0.6497">
        <ele>804.79998779297</ele>
        <time>2012-09-02T09:01:08.000Z</time>
      </trkpt>
      <trkpt lat="43.00316" lon="0.64951">
        <ele>806.40002441406</ele>
        <time>2012-09-02T09:01:15.000Z</time>
      </trkpt>
      <trkpt lat="43.00321" lon="0.6493">
        <ele>808.20001220703</ele>
        <time>2012-09-02T09:01:22.000Z</time>
      </trkpt>
      <trkpt lat="43.00327" lon="0.64917">
        <ele>808.20001220703</ele>
        <time>2012-09-02T09:01:27.000Z</time>
      </trkpt>
      <trkpt lat="43.00346" lon="0.64911">
        <ele>807.59997558594</ele>
        <time>2012-09-02T09:01:34.000Z</time>
      </trkpt>
      <trkpt lat="43.00354" lon="0.64903">
        <ele>810</ele>
        <time>2012-09-02T09:01:41.000Z</time>
      </trkpt>
      <trkpt lat="43.00344" lon="0.64895">
        <ele>813.40002441406</ele>
        <time>2012-09-02T09:01:46.000Z</time>
      </trkpt>
      <trkpt lat="43.00338" lon="0.64894">
        <ele>813.79998779297</ele>
        <time>2012-09-02T09:01:48.000Z</time>
      </trkpt>
      <trkpt lat="43.00311" lon="0.64891">
        <ele>820.59997558594</ele>
        <time>2012-09-02T09:01:57.000Z</time>
      </trkpt>
      <trkpt lat="43.00309" lon="0.64893">
        <ele>820.79998779297</ele>
        <time>2012-09-02T09:02:00.000Z</time>
      </trkpt>
      <trkpt lat="43.00306" lon="0.64901">
        <ele>819.59997558594</ele>
        <time>2012-09-02T09:02:05.000Z</time>
      </trkpt>
      <trkpt lat="43.00297" lon="0.64913">
        <ele>819.59997558594</ele>
        <time>2012-09-02T09:02:10.000Z</time>
      </trkpt>
      <trkpt lat="43.00293" lon="0.64934">
        <ele>817.59997558594</ele>
        <time>2012-09-02T09:02:17.000Z</time>
      </trkpt>
      <trkpt lat="43.00294" lon="0.64953">
        <ele>815.40002441406</ele>
        <time>2012-09-02T09:02:22.000Z</time>
      </trkpt>
      <trkpt lat="43.00291" lon="0.64972">
        <ele>814</ele>
        <time>2012-09-02T09:02:28.000Z</time>
      </trkpt>
      <trkpt lat="43.00289" lon="0.64992">
        <ele>812.79998779297</ele>
        <time>2012-09-02T09:02:35.000Z</time>
      </trkpt>
      <trkpt lat="43.00282" lon="0.65009">
        <ele>815</ele>
        <time>2012-09-02T09:02:42.000Z</time>
      </trkpt>
      <trkpt lat="43.00277" lon="0.65016">
        <ele>818</ele>
        <time>2012-09-02T09:02:46.000Z</time>
      </trkpt>
      <trkpt lat="43.00273" lon="0.65025">
        <ele>820.40002441406</ele>
        <time>2012-09-02T09:02:51.000Z</time>
      </trkpt>
      <trkpt lat="43.00271" lon="0.65029">
        <ele>821.40002441406</ele>
        <time>2012-09-02T09:02:53.000Z</time>
      </trkpt>
      <trkpt lat="43.00266" lon="0.6505">
        <ele>824.40002441406</ele>
        <time>2012-09-02T09:03:01.000Z</time>
      </trkpt>
      <trkpt lat="43.00265" lon="0.65064">
        <ele>825.40002441406</ele>
        <time>2012-09-02T09:03:06.000Z</time>
      </trkpt>
      <trkpt lat="43.00262" lon="0.65079">
        <ele>827.59997558594</ele>
        <time>2012-09-02T09:03:12.000Z</time>
      </trkpt>
      <trkpt lat="43.00259" lon="0.65093">
        <ele>829</ele>
        <time>2012-09-02T09:03:18.000Z</time>
      </trkpt>
      <trkpt lat="43.00254" lon="0.65116">
        <ele>831.59997558594</ele>
        <time>2012-09-02T09:03:26.000Z</time>
      </trkpt>
      <trkpt lat="43.00246" lon="0.65132">
        <ele>834.40002441406</ele>
        <time>2012-09-02T09:03:33.000Z</time>
      </trkpt>
      <trkpt lat="43.0024" lon="0.65153">
        <ele>835</ele>
        <time>2012-09-02T09:03:41.000Z</time>
      </trkpt>
      <trkpt lat="43.00239" lon="0.65166">
        <ele>835</ele>
        <time>2012-09-02T09:03:46.000Z</time>
      </trkpt>
      <trkpt lat="43.00237" lon="0.65191">
        <ele>837.79998779297</ele>
        <time>2012-09-02T09:03:54.000Z</time>
      </trkpt>
      <trkpt lat="43.00235" lon="0.65212">
        <ele>840.40002441406</ele>
        <time>2012-09-02T09:04:02.000Z</time>
      </trkpt>
      <trkpt lat="43.00235" lon="0.65233">
        <ele>842.40002441406</ele>
        <time>2012-09-02T09:04:10.000Z</time>
      </trkpt>
      <trkpt lat="43.00241" lon="0.65251">
        <ele>843</ele>
        <time>2012-09-02T09:04:17.000Z</time>
      </trkpt>
      <trkpt lat="43.00247" lon="0.65265">
        <ele>844</ele>
        <time>2012-09-02T09:04:25.000Z</time>
      </trkpt>
      <trkpt lat="43.00255" lon="0.65278">
        <ele>842.79998779297</ele>
        <time>2012-09-02T09:04:32.000Z</time>
      </trkpt>
      <trkpt lat="43.00265" lon="0.65296">
        <ele>841</ele>
        <time>2012-09-02T09:04:40.000Z</time>
      </trkpt>
      <trkpt lat="43.00271" lon="0.65312">
        <ele>840.20001220703</ele>
        <time>2012-09-02T09:04:47.000Z</time>
      </trkpt>
      <trkpt lat="43.00274" lon="0.65329">
        <ele>841</ele>
        <time>2012-09-02T09:04:53.000Z</time>
      </trkpt>
      <trkpt lat="43.00274" lon="0.65344">
        <ele>844.79998779297</ele>
        <time>2012-09-02T09:05:00.000Z</time>
      </trkpt>
      <trkpt lat="43.00265" lon="0.65347">
        <ele>849.79998779297</ele>
        <time>2012-09-02T09:05:06.000Z</time>
      </trkpt>
      <trkpt lat="43.00261" lon="0.65344">
        <ele>851</ele>
        <time>2012-09-02T09:05:08.000Z</time>
      </trkpt>
      <trkpt lat="43.00252" lon="0.65329">
        <ele>852.20001220703</ele>
        <time>2012-09-02T09:05:16.000Z</time>
      </trkpt>
      <trkpt lat="43.00231" lon="0.65317">
        <ele>855.59997558594</ele>
        <time>2012-09-02T09:05:25.000Z</time>
      </trkpt>
      <trkpt lat="43.00214" lon="0.65311">
        <ele>858.59997558594</ele>
        <time>2012-09-02T09:05:34.000Z</time>
      </trkpt>
      <trkpt lat="43.00204" lon="0.65309">
        <ele>860.59997558594</ele>
        <time>2012-09-02T09:05:42.000Z</time>
      </trkpt>
      <trkpt lat="43.00192" lon="0.65304">
        <ele>862.20001220703</ele>
        <time>2012-09-02T09:05:49.000Z</time>
      </trkpt>
      <trkpt lat="43.0018" lon="0.65296">
        <ele>863.59997558594</ele>
        <time>2012-09-02T09:05:57.000Z</time>
      </trkpt>
      <trkpt lat="43.00168" lon="0.65286">
        <ele>864.20001220703</ele>
        <time>2012-09-02T09:06:05.000Z</time>
      </trkpt>
      <trkpt lat="43.00164" lon="0.65274">
        <ele>863.20001220703</ele>
        <time>2012-09-02T09:06:12.000Z</time>
      </trkpt>
      <trkpt lat="43.00157" lon="0.65258">
        <ele>863</ele>
        <time>2012-09-02T09:06:19.000Z</time>
      </trkpt>
      <trkpt lat="43.00147" lon="0.65244">
        <ele>865</ele>
        <time>2012-09-02T09:06:25.000Z</time>
      </trkpt>
      <trkpt lat="43.00136" lon="0.65229">
        <ele>867.79998779297</ele>
        <time>2012-09-02T09:06:31.000Z</time>
      </trkpt>
      <trkpt lat="43.00116" lon="0.65206">
        <ele>872.59997558594</ele>
        <time>2012-09-02T09:06:40.000Z</time>
      </trkpt>
      <trkpt lat="43.00102" lon="0.65187">
        <ele>874.79998779297</ele>
        <time>2012-09-02T09:06:48.000Z</time>
      </trkpt>
      <trkpt lat="43.00098" lon="0.65174">
        <ele>874.59997558594</ele>
        <time>2012-09-02T09:06:53.000Z</time>
      </trkpt>
      <trkpt lat="43.0009" lon="0.65149">
        <ele>876.20001220703</ele>
        <time>2012-09-02T09:06:59.000Z</time>
      </trkpt>
      <trkpt lat="43.00086" lon="0.65131">
        <ele>877.59997558594</ele>
        <time>2012-09-02T09:07:05.000Z</time>
      </trkpt>
      <trkpt lat="43.00082" lon="0.65106">
        <ele>879</ele>
        <time>2012-09-02T09:07:13.000Z</time>
      </trkpt>
      <trkpt lat="43.00078" lon="0.65081">
        <ele>880</ele>
        <time>2012-09-02T09:07:20.000Z</time>
      </trkpt>
      <trkpt lat="43.00077" lon="0.65055">
        <ele>882.40002441406</ele>
        <time>2012-09-02T09:07:27.000Z</time>
      </trkpt>
      <trkpt lat="43.00081" lon="0.65033">
        <ele>884.20001220703</ele>
        <time>2012-09-02T09:07:34.000Z</time>
      </trkpt>
      <trkpt lat="43.00086" lon="0.65011">
        <ele>885</ele>
        <time>2012-09-02T09:07:41.000Z</time>
      </trkpt>
      <trkpt lat="43.00089" lon="0.64994">
        <ele>886</ele>
        <time>2012-09-02T09:07:47.000Z</time>
      </trkpt>
      <trkpt lat="43.00093" lon="0.64981">
        <ele>885.59997558594</ele>
        <time>2012-09-02T09:07:53.000Z</time>
      </trkpt>
      <trkpt lat="43.00102" lon="0.64968">
        <ele>883.79998779297</ele>
        <time>2012-09-02T09:07:59.000Z</time>
      </trkpt>
      <trkpt lat="43.00114" lon="0.64948">
        <ele>880.79998779297</ele>
        <time>2012-09-02T09:08:06.000Z</time>
      </trkpt>
      <trkpt lat="43.00115" lon="0.64928">
        <ele>881.40002441406</ele>
        <time>2012-09-02T09:08:13.000Z</time>
      </trkpt>
      <trkpt lat="43.00114" lon="0.64925">
        <ele>881.79998779297</ele>
        <time>2012-09-02T09:08:14.000Z</time>
      </trkpt>
      <trkpt lat="43.00118" lon="0.64921">
        <ele>880.79998779297</ele>
        <time>2012-09-02T09:08:16.000Z</time>
      </trkpt>
      <trkpt lat="43.00108" lon="0.64902">
        <ele>884.79998779297</ele>
        <time>2012-09-02T09:08:23.000Z</time>
      </trkpt>
      <trkpt lat="43.00102" lon="0.64887">
        <ele>887</ele>
        <time>2012-09-02T09:08:29.000Z</time>
      </trkpt>
      <trkpt lat="43.00098" lon="0.64864">
        <ele>888.20001220703</ele>
        <time>2012-09-02T09:08:37.000Z</time>
      </trkpt>
      <trkpt lat="43.0009" lon="0.64841">
        <ele>891.40002441406</ele>
        <time>2012-09-02T09:08:45.000Z</time>
      </trkpt>
      <trkpt lat="43.00087" lon="0.64819">
        <ele>890</ele>
        <time>2012-09-02T09:08:52.000Z</time>
      </trkpt>
      <trkpt lat="43.00086" lon="0.64798">
        <ele>887.20001220703</ele>
        <time>2012-09-02T09:08:59.000Z</time>
      </trkpt>
      <trkpt lat="43.00085" lon="0.64786">
        <ele>885.59997558594</ele>
        <time>2012-09-02T09:09:04.000Z</time>
      </trkpt>
      <trkpt lat="43.00082" lon="0.64767">
        <ele>883.40002441406</ele>
        <time>2012-09-02T09:09:12.000Z</time>
      </trkpt>
      <trkpt lat="43.00076" lon="0.64749">
        <ele>882.79998779297</ele>
        <time>2012-09-02T09:09:20.000Z</time>
      </trkpt>
      <trkpt lat="43.00063" lon="0.64733">
        <ele>885.20001220703</ele>
        <time>2012-09-02T09:09:28.000Z</time>
      </trkpt>
      <trkpt lat="43.0004" lon="0.64714">
        <ele>890</ele>
        <time>2012-09-02T09:09:39.000Z</time>
      </trkpt>
      <trkpt lat="43.00026" lon="0.64697">
        <ele>891.40002441406</ele>
        <time>2012-09-02T09:09:49.000Z</time>
      </trkpt>
      <trkpt lat="43.00019" lon="0.6468">
        <ele>890.20001220703</ele>
        <time>2012-09-02T09:09:56.000Z</time>
      </trkpt>
      <trkpt lat="43.00009" lon="0.64661">
        <ele>889.59997558594</ele>
        <time>2012-09-02T09:10:04.000Z</time>
      </trkpt>
      <trkpt lat="43.00001" lon="0.64647">
        <ele>890.40002441406</ele>
        <time>2012-09-02T09:10:10.000Z</time>
      </trkpt>
      <trkpt lat="42.99996" lon="0.64647">
        <ele>890.59997558594</ele>
        <time>2012-09-02T09:10:15.000Z</time>
      </trkpt>
      <trkpt lat="42.99995" lon="0.6465">
        <ele>891</ele>
        <time>2012-09-02T09:10:17.000Z</time>
      </trkpt>
      <trkpt lat="42.99999" lon="0.64661">
        <ele>892.40002441406</ele>
        <time>2012-09-02T09:10:23.000Z</time>
      </trkpt>
      <trkpt lat="43.00003" lon="0.64684">
        <ele>896</ele>
        <time>2012-09-02T09:10:32.000Z</time>
      </trkpt>
      <trkpt lat="43.00006" lon="0.64698">
        <ele>898.59997558594</ele>
        <time>2012-09-02T09:10:38.000Z</time>
      </trkpt>
      <trkpt lat="43.00017" lon="0.64713">
        <ele>898</ele>
        <time>2012-09-02T09:10:44.000Z</time>
      </trkpt>
      <trkpt lat="43.00024" lon="0.64726">
        <ele>898.20001220703</ele>
        <time>2012-09-02T09:10:50.000Z</time>
      </trkpt>
      <trkpt lat="43.00023" lon="0.64736">
        <ele>900.79998779297</ele>
        <time>2012-09-02T09:10:57.000Z</time>
      </trkpt>
      <trkpt lat="43.00032" lon="0.64753">
        <ele>900.59997558594</ele>
        <time>2012-09-02T09:11:05.000Z</time>
      </trkpt>
      <trkpt lat="43.00035" lon="0.64766">
        <ele>901</ele>
        <time>2012-09-02T09:11:11.000Z</time>
      </trkpt>
      <trkpt lat="43.00035" lon="0.64774">
        <ele>902</ele>
        <time>2012-09-02T09:11:14.000Z</time>
      </trkpt>
      <trkpt lat="43.00029" lon="0.64794">
        <ele>906</ele>
        <time>2012-09-02T09:11:22.000Z</time>
      </trkpt>
      <trkpt lat="43.0002" lon="0.6481">
        <ele>910.79998779297</ele>
        <time>2012-09-02T09:11:28.000Z</time>
      </trkpt>
      <trkpt lat="43.00015" lon="0.64813">
        <ele>912.59997558594</ele>
        <time>2012-09-02T09:11:30.000Z</time>
      </trkpt>
      <trkpt lat="43.00013" lon="0.64819">
        <ele>913.79998779297</ele>
        <time>2012-09-02T09:11:35.000Z</time>
      </trkpt>
      <trkpt lat="43.00008" lon="0.64834">
        <ele>916.40002441406</ele>
        <time>2012-09-02T09:13:11.000Z</time>
      </trkpt>
      <trkpt lat="43.00003" lon="0.64844">
        <ele>916.79998779297</ele>
        <time>2012-09-02T09:13:14.000Z</time>
      </trkpt>
      <trkpt lat="42.99992" lon="0.64867">
        <ele>914</ele>
        <time>2012-09-02T09:13:18.000Z</time>
      </trkpt>
      <trkpt lat="42.99977" lon="0.649">
        <ele>909.40002441406</ele>
        <time>2012-09-02T09:13:23.000Z</time>
      </trkpt>
      <trkpt lat="42.99969" lon="0.64912">
        <ele>907.59997558594</ele>
        <time>2012-09-02T09:13:25.000Z</time>
      </trkpt>
      <trkpt lat="42.99946" lon="0.64949">
        <ele>898</ele>
        <time>2012-09-02T09:13:31.000Z</time>
      </trkpt>
      <trkpt lat="42.99942" lon="0.64952">
        <ele>897</ele>
        <time>2012-09-02T09:13:32.000Z</time>
      </trkpt>
      <trkpt lat="42.99924" lon="0.64955">
        <ele>894.59997558594</ele>
        <time>2012-09-02T09:13:36.000Z</time>
      </trkpt>
      <trkpt lat="42.999" lon="0.64949">
        <ele>895.59997558594</ele>
        <time>2012-09-02T09:13:41.000Z</time>
      </trkpt>
      <trkpt lat="42.99881" lon="0.64938">
        <ele>898</ele>
        <time>2012-09-02T09:13:45.000Z</time>
      </trkpt>
      <trkpt lat="42.99876" lon="0.64938">
        <ele>898</ele>
        <time>2012-09-02T09:13:46.000Z</time>
      </trkpt>
      <trkpt lat="42.9985" lon="0.64945">
        <ele>894.40002441406</ele>
        <time>2012-09-02T09:13:51.000Z</time>
      </trkpt>
      <trkpt lat="42.99831" lon="0.6496">
        <ele>889</ele>
        <time>2012-09-02T09:13:56.000Z</time>
      </trkpt>
      <trkpt lat="42.9981" lon="0.64973">
        <ele>885.79998779297</ele>
        <time>2012-09-02T09:14:01.000Z</time>
      </trkpt>
      <trkpt lat="42.99787" lon="0.64989">
        <ele>882.40002441406</ele>
        <time>2012-09-02T09:14:06.000Z</time>
      </trkpt>
      <trkpt lat="42.99761" lon="0.65007">
        <ele>880.79998779297</ele>
        <time>2012-09-02T09:14:11.000Z</time>
      </trkpt>
      <trkpt lat="42.99742" lon="0.65045">
        <ele>877.40002441406</ele>
        <time>2012-09-02T09:14:17.000Z</time>
      </trkpt>
      <trkpt lat="42.99738" lon="0.65059">
        <ele>875.59997558594</ele>
        <time>2012-09-02T09:14:19.000Z</time>
      </trkpt>
      <trkpt lat="42.99738" lon="0.65087">
        <ele>873.79998779297</ele>
        <time>2012-09-02T09:14:23.000Z</time>
      </trkpt>
      <trkpt lat="42.99748" lon="0.65099">
        <ele>875.79998779297</ele>
        <time>2012-09-02T09:14:26.000Z</time>
      </trkpt>
      <trkpt lat="42.99753" lon="0.65114">
        <ele>876.20001220703</ele>
        <time>2012-09-02T09:14:30.000Z</time>
      </trkpt>
      <trkpt lat="42.99753" lon="0.65119">
        <ele>876.40002441406</ele>
        <time>2012-09-02T09:14:31.000Z</time>
      </trkpt>
      <trkpt lat="42.99754" lon="0.65149">
        <ele>876.79998779297</ele>
        <time>2012-09-02T09:14:37.000Z</time>
      </trkpt>
      <trkpt lat="42.99756" lon="0.65154">
        <ele>877</ele>
        <time>2012-09-02T09:14:38.000Z</time>
      </trkpt>
      <trkpt lat="42.99774" lon="0.65172">
        <ele>877.40002441406</ele>
        <time>2012-09-02T09:14:43.000Z</time>
      </trkpt>
      <trkpt lat="42.99777" lon="0.65176">
        <ele>877.20001220703</ele>
        <time>2012-09-02T09:14:44.000Z</time>
      </trkpt>
      <trkpt lat="42.99784" lon="0.65193">
        <ele>876.79998779297</ele>
        <time>2012-09-02T09:14:47.000Z</time>
      </trkpt>
      <trkpt lat="42.99769" lon="0.65206">
        <ele>875.20001220703</ele>
        <time>2012-09-02T09:14:51.000Z</time>
      </trkpt>
      <trkpt lat="42.99745" lon="0.65211">
        <ele>872.79998779297</ele>
        <time>2012-09-02T09:14:55.000Z</time>
      </trkpt>
      <trkpt lat="42.99741" lon="0.65211">
        <ele>872</ele>
        <time>2012-09-02T09:14:56.000Z</time>
      </trkpt>
      <trkpt lat="42.99727" lon="0.65207">
        <ele>870.59997558594</ele>
        <time>2012-09-02T09:14:58.000Z</time>
      </trkpt>
      <trkpt lat="42.99702" lon="0.65204">
        <ele>867.20001220703</ele>
        <time>2012-09-02T09:15:01.000Z</time>
      </trkpt>
      <trkpt lat="42.99663" lon="0.65225">
        <ele>862.20001220703</ele>
        <time>2012-09-02T09:15:05.000Z</time>
      </trkpt>
      <trkpt lat="42.99638" lon="0.65248">
        <ele>857.20001220703</ele>
        <time>2012-09-02T09:15:09.000Z</time>
      </trkpt>
      <trkpt lat="42.99618" lon="0.65272">
        <ele>850</ele>
        <time>2012-09-02T09:15:13.000Z</time>
      </trkpt>
      <trkpt lat="42.99615" lon="0.65278">
        <ele>848.40002441406</ele>
        <time>2012-09-02T09:15:14.000Z</time>
      </trkpt>
      <trkpt lat="42.99606" lon="0.65299">
        <ele>844</ele>
        <time>2012-09-02T09:15:17.000Z</time>
      </trkpt>
      <trkpt lat="42.99609" lon="0.65329">
        <ele>840.79998779297</ele>
        <time>2012-09-02T09:15:22.000Z</time>
      </trkpt>
      <trkpt lat="42.99621" lon="0.65351">
        <ele>838</ele>
        <time>2012-09-02T09:15:26.000Z</time>
      </trkpt>
      <trkpt lat="42.99628" lon="0.65373">
        <ele>833.40002441406</ele>
        <time>2012-09-02T09:15:29.000Z</time>
      </trkpt>
      <trkpt lat="42.9963" lon="0.65393">
        <ele>828.40002441406</ele>
        <time>2012-09-02T09:15:32.000Z</time>
      </trkpt>
      <trkpt lat="42.99612" lon="0.65413">
        <ele>822</ele>
        <time>2012-09-02T09:15:37.000Z</time>
      </trkpt>
      <trkpt lat="42.99608" lon="0.65414">
        <ele>821.40002441406</ele>
        <time>2012-09-02T09:15:38.000Z</time>
      </trkpt>
      <trkpt lat="42.99591" lon="0.65411">
        <ele>820.79998779297</ele>
        <time>2012-09-02T09:15:41.000Z</time>
      </trkpt>
      <trkpt lat="42.99563" lon="0.6542">
        <ele>815</ele>
        <time>2012-09-02T09:15:46.000Z</time>
      </trkpt>
      <trkpt lat="42.99559" lon="0.65426">
        <ele>813.79998779297</ele>
        <time>2012-09-02T09:15:49.000Z</time>
      </trkpt>
      <trkpt lat="42.99562" lon="0.65431">
        <ele>813.59997558594</ele>
        <time>2012-09-02T09:15:53.000Z</time>
      </trkpt>
      <trkpt lat="42.99564" lon="0.65428">
        <ele>814.40002441406</ele>
        <time>2012-09-02T09:15:58.000Z</time>
      </trkpt>
      <trkpt lat="42.99575" lon="0.65433">
        <ele>815</ele>
        <time>2012-09-02T09:16:15.000Z</time>
      </trkpt>
      <trkpt lat="42.99588" lon="0.65434">
        <ele>816.40002441406</ele>
        <time>2012-09-02T09:16:21.000Z</time>
      </trkpt>
      <trkpt lat="42.99602" lon="0.65437">
        <ele>816.79998779297</ele>
        <time>2012-09-02T09:16:27.000Z</time>
      </trkpt>
      <trkpt lat="42.99621" lon="0.65444">
        <ele>816.59997558594</ele>
        <time>2012-09-02T09:16:35.000Z</time>
      </trkpt>
      <trkpt lat="42.99636" lon="0.65444">
        <ele>817.59997558594</ele>
        <time>2012-09-02T09:16:42.000Z</time>
      </trkpt>
      <trkpt lat="42.9966" lon="0.65441">
        <ele>819.59997558594</ele>
        <time>2012-09-02T09:16:50.000Z</time>
      </trkpt>
      <trkpt lat="42.99676" lon="0.65439">
        <ele>821.40002441406</ele>
        <time>2012-09-02T09:16:55.000Z</time>
      </trkpt>
      <trkpt lat="42.99699" lon="0.65437">
        <ele>824</ele>
        <time>2012-09-02T09:17:01.000Z</time>
      </trkpt>
      <trkpt lat="42.99712" lon="0.65436">
        <ele>825.59997558594</ele>
        <time>2012-09-02T09:17:04.000Z</time>
      </trkpt>
      <trkpt lat="42.99733" lon="0.65445">
        <ele>826.20001220703</ele>
        <time>2012-09-02T09:17:09.000Z</time>
      </trkpt>
      <trkpt lat="42.9974" lon="0.65451">
        <ele>826</ele>
        <time>2012-09-02T09:17:11.000Z</time>
      </trkpt>
      <trkpt lat="42.99757" lon="0.65477">
        <ele>825</ele>
        <time>2012-09-02T09:17:17.000Z</time>
      </trkpt>
      <trkpt lat="42.99763" lon="0.65506">
        <ele>823.20001220703</ele>
        <time>2012-09-02T09:17:23.000Z</time>
      </trkpt>
      <trkpt lat="42.9976" lon="0.65544">
        <ele>820</ele>
        <time>2012-09-02T09:17:30.000Z</time>
      </trkpt>
      <trkpt lat="42.9976" lon="0.65568">
        <ele>818.59997558594</ele>
        <time>2012-09-02T09:17:36.000Z</time>
      </trkpt>
      <trkpt lat="42.9976" lon="0.65571">
        <ele>818.40002441406</ele>
        <time>2012-09-02T09:17:37.000Z</time>
      </trkpt>
      <trkpt lat="42.99748" lon="0.65578">
        <ele>816</ele>
        <time>2012-09-02T09:17:42.000Z</time>
      </trkpt>
      <trkpt lat="42.99746" lon="0.65592">
        <ele>814.59997558594</ele>
        <time>2012-09-02T09:17:46.000Z</time>
      </trkpt>
      <trkpt lat="42.99756" lon="0.65632">
        <ele>812.59997558594</ele>
        <time>2012-09-02T09:17:53.000Z</time>
      </trkpt>
      <trkpt lat="42.99758" lon="0.65649">
        <ele>811.20001220703</ele>
        <time>2012-09-02T09:17:56.000Z</time>
      </trkpt>
      <trkpt lat="42.99756" lon="0.65666">
        <ele>809.40002441406</ele>
        <time>2012-09-02T09:17:59.000Z</time>
      </trkpt>
      <trkpt lat="42.99754" lon="0.65673">
        <ele>808.79998779297</ele>
        <time>2012-09-02T09:18:00.000Z</time>
      </trkpt>
      <trkpt lat="42.99732" lon="0.65703">
        <ele>805.40002441406</ele>
        <time>2012-09-02T09:18:06.000Z</time>
      </trkpt>
      <trkpt lat="42.99713" lon="0.65721">
        <ele>803</ele>
        <time>2012-09-02T09:18:11.000Z</time>
      </trkpt>
      <trkpt lat="42.99701" lon="0.6573">
        <ele>801.59997558594</ele>
        <time>2012-09-02T09:18:15.000Z</time>
      </trkpt>
      <trkpt lat="42.99699" lon="0.65731">
        <ele>801.59997558594</ele>
        <time>2012-09-02T09:18:16.000Z</time>
      </trkpt>
      <trkpt lat="42.99688" lon="0.65724">
        <ele>801</ele>
        <time>2012-09-02T09:18:22.000Z</time>
      </trkpt>
      <trkpt lat="42.99675" lon="0.65709">
        <ele>800.20001220703</ele>
        <time>2012-09-02T09:18:28.000Z</time>
      </trkpt>
      <trkpt lat="42.99674" lon="0.65708">
        <ele>800.20001220703</ele>
        <time>2012-09-02T09:18:31.000Z</time>
      </trkpt>
      <trkpt lat="42.99673" lon="0.65702">
        <ele>800.20001220703</ele>
        <time>2012-09-02T09:18:40.000Z</time>
      </trkpt>
      <trkpt lat="42.9967" lon="0.65699">
        <ele>800</ele>
        <time>2012-09-02T09:18:47.000Z</time>
      </trkpt>
      <trkpt lat="42.99669" lon="0.657">
        <ele>799.79998779297</ele>
        <time>2012-09-02T09:18:50.000Z</time>
      </trkpt>
      <trkpt lat="42.99651" lon="0.65721">
        <ele>798.40002441406</ele>
        <time>2012-09-02T09:18:58.000Z</time>
      </trkpt>
      <trkpt lat="42.99644" lon="0.65735">
        <ele>797.40002441406</ele>
        <time>2012-09-02T09:19:03.000Z</time>
      </trkpt>
      <trkpt lat="42.99639" lon="0.65748">
        <ele>796.79998779297</ele>
        <time>2012-09-02T09:19:07.000Z</time>
      </trkpt>
      <trkpt lat="42.99628" lon="0.65769">
        <ele>794</ele>
        <time>2012-09-02T09:19:11.000Z</time>
      </trkpt>
      <trkpt lat="42.99625" lon="0.65774">
        <ele>793.20001220703</ele>
        <time>2012-09-02T09:19:12.000Z</time>
      </trkpt>
      <trkpt lat="42.99607" lon="0.65787">
        <ele>789.40002441406</ele>
        <time>2012-09-02T09:19:16.000Z</time>
      </trkpt>
      <trkpt lat="42.9959" lon="0.65803">
        <ele>784.79998779297</ele>
        <time>2012-09-02T09:19:21.000Z</time>
      </trkpt>
      <trkpt lat="42.99568" lon="0.65813">
        <ele>782.40002441406</ele>
        <time>2012-09-02T09:19:27.000Z</time>
      </trkpt>
      <trkpt lat="42.99553" lon="0.65819">
        <ele>782</ele>
        <time>2012-09-02T09:19:31.000Z</time>
      </trkpt>
      <trkpt lat="42.99546" lon="0.6582">
        <ele>782</ele>
        <time>2012-09-02T09:19:35.000Z</time>
      </trkpt>
      <trkpt lat="42.99545" lon="0.65821">
        <ele>781.79998779297</ele>
        <time>2012-09-02T09:19:36.000Z</time>
      </trkpt>
      <trkpt lat="42.99536" lon="0.65828">
        <ele>781</ele>
        <time>2012-09-02T09:19:43.000Z</time>
      </trkpt>
      <trkpt lat="42.99533" lon="0.65842">
        <ele>778.59997558594</ele>
        <time>2012-09-02T09:19:47.000Z</time>
      </trkpt>
      <trkpt lat="42.99534" lon="0.65845">
        <ele>778</ele>
        <time>2012-09-02T09:19:48.000Z</time>
      </trkpt>
      <trkpt lat="42.99541" lon="0.65863">
        <ele>774.20001220703</ele>
        <time>2012-09-02T09:19:53.000Z</time>
      </trkpt>
      <trkpt lat="42.99543" lon="0.65867">
        <ele>773.20001220703</ele>
        <time>2012-09-02T09:19:54.000Z</time>
      </trkpt>
      <trkpt lat="42.9955" lon="0.65879">
        <ele>770.40002441406</ele>
        <time>2012-09-02T09:19:59.000Z</time>
      </trkpt>
      <trkpt lat="42.99557" lon="0.65889">
        <ele>767.79998779297</ele>
        <time>2012-09-02T09:20:04.000Z</time>
      </trkpt>
      <trkpt lat="42.99568" lon="0.65902">
        <ele>764</ele>
        <time>2012-09-02T09:20:09.000Z</time>
      </trkpt>
      <trkpt lat="42.99579" lon="0.65906">
        <ele>762</ele>
        <time>2012-09-02T09:20:15.000Z</time>
      </trkpt>
      <trkpt lat="42.9958" lon="0.65907">
        <ele>761.79998779297</ele>
        <time>2012-09-02T09:20:16.000Z</time>
      </trkpt>
      <trkpt lat="42.99578" lon="0.65913">
        <ele>760.40002441406</ele>
        <time>2012-09-02T09:20:25.000Z</time>
      </trkpt>
      <trkpt lat="42.99575" lon="0.65916">
        <ele>760</ele>
        <time>2012-09-02T09:20:31.000Z</time>
      </trkpt>
      <trkpt lat="42.99567" lon="0.65925">
        <ele>759</ele>
        <time>2012-09-02T09:20:38.000Z</time>
      </trkpt>
      <trkpt lat="42.99555" lon="0.65939">
        <ele>757.79998779297</ele>
        <time>2012-09-02T09:20:43.000Z</time>
      </trkpt>
      <trkpt lat="42.99554" lon="0.65941">
        <ele>757.59997558594</ele>
        <time>2012-09-02T09:20:44.000Z</time>
      </trkpt>
      <trkpt lat="42.99553" lon="0.65949">
        <ele>756.20001220703</ele>
        <time>2012-09-02T09:20:48.000Z</time>
      </trkpt>
      <trkpt lat="42.99547" lon="0.65964">
        <ele>754.40002441406</ele>
        <time>2012-09-02T09:20:54.000Z</time>
      </trkpt>
      <trkpt lat="42.9954" lon="0.65982">
        <ele>753</ele>
        <time>2012-09-02T09:21:00.000Z</time>
      </trkpt>
      <trkpt lat="42.99534" lon="0.65989">
        <ele>753.40002441406</ele>
        <time>2012-09-02T09:21:04.000Z</time>
      </trkpt>
      <trkpt lat="42.99533" lon="0.6599">
        <ele>753.20001220703</ele>
        <time>2012-09-02T09:21:05.000Z</time>
      </trkpt>
      <trkpt lat="42.99538" lon="0.66007">
        <ele>749.59997558594</ele>
        <time>2012-09-02T09:21:43.000Z</time>
      </trkpt>
      <trkpt lat="42.99535" lon="0.66012">
        <ele>749.79998779297</ele>
        <time>2012-09-02T09:21:50.000Z</time>
      </trkpt>
      <trkpt lat="42.99533" lon="0.66017">
        <ele>749.79998779297</ele>
        <time>2012-09-02T09:21:57.000Z</time>
      </trkpt>
      <trkpt lat="42.99534" lon="0.66022">
        <ele>749</ele>
        <time>2012-09-02T09:22:01.000Z</time>
      </trkpt>
      <trkpt lat="42.99537" lon="0.66035">
        <ele>746.40002441406</ele>
        <time>2012-09-02T09:22:06.000Z</time>
      </trkpt>
      <trkpt lat="42.99537" lon="0.66042">
        <ele>745.59997558594</ele>
        <time>2012-09-02T09:22:08.000Z</time>
      </trkpt>
      <trkpt lat="42.99541" lon="0.66047">
        <ele>743.59997558594</ele>
        <time>2012-09-02T09:22:12.000Z</time>
      </trkpt>
      <trkpt lat="42.99541" lon="0.66068">
        <ele>740.79998779297</ele>
        <time>2012-09-02T09:22:23.000Z</time>
      </trkpt>
      <trkpt lat="42.99541" lon="0.66081">
        <ele>739</ele>
        <time>2012-09-02T09:22:28.000Z</time>
      </trkpt>
      <trkpt lat="42.99545" lon="0.66098">
        <ele>736.40002441406</ele>
        <time>2012-09-02T09:22:32.000Z</time>
      </trkpt>
      <trkpt lat="42.99553" lon="0.6612">
        <ele>732.40002441406</ele>
        <time>2012-09-02T09:22:37.000Z</time>
      </trkpt>
      <trkpt lat="42.99563" lon="0.66133">
        <ele>728.20001220703</ele>
        <time>2012-09-02T09:22:42.000Z</time>
      </trkpt>
      <trkpt lat="42.99572" lon="0.66146">
        <ele>724</ele>
        <time>2012-09-02T09:22:48.000Z</time>
      </trkpt>
      <trkpt lat="42.99577" lon="0.66148">
        <ele>722.20001220703</ele>
        <time>2012-09-02T09:22:52.000Z</time>
      </trkpt>
      <trkpt lat="42.99578" lon="0.66157">
        <ele>721.59997558594</ele>
        <time>2012-09-02T09:23:17.000Z</time>
      </trkpt>
      <trkpt lat="42.9959" lon="0.66167">
        <ele>718.40002441406</ele>
        <time>2012-09-02T09:23:23.000Z</time>
      </trkpt>
      <trkpt lat="42.99605" lon="0.6618">
        <ele>716.79998779297</ele>
        <time>2012-09-02T09:23:28.000Z</time>
      </trkpt>
      <trkpt lat="42.99619" lon="0.66195">
        <ele>714.59997558594</ele>
        <time>2012-09-02T09:23:34.000Z</time>
      </trkpt>
      <trkpt lat="42.99635" lon="0.66212">
        <ele>711</ele>
        <time>2012-09-02T09:23:39.000Z</time>
      </trkpt>
      <trkpt lat="42.99642" lon="0.66221">
        <ele>709</ele>
        <time>2012-09-02T09:23:44.000Z</time>
      </trkpt>
      <trkpt lat="42.99644" lon="0.66222">
        <ele>708.59997558594</ele>
        <time>2012-09-02T09:23:46.000Z</time>
      </trkpt>
      <trkpt lat="42.9965" lon="0.66239">
        <ele>705.59997558594</ele>
        <time>2012-09-02T09:24:23.000Z</time>
      </trkpt>
      <trkpt lat="42.99654" lon="0.66243">
        <ele>704.40002441406</ele>
        <time>2012-09-02T09:24:27.000Z</time>
      </trkpt>
      <trkpt lat="42.99662" lon="0.66251">
        <ele>702</ele>
        <time>2012-09-02T09:24:33.000Z</time>
      </trkpt>
      <trkpt lat="42.99667" lon="0.66264">
        <ele>700.59997558594</ele>
        <time>2012-09-02T09:24:39.000Z</time>
      </trkpt>
      <trkpt lat="42.99668" lon="0.66275">
        <ele>700.59997558594</ele>
        <time>2012-09-02T09:24:43.000Z</time>
      </trkpt>
      <trkpt lat="42.99681" lon="0.66299">
        <ele>701</ele>
        <time>2012-09-02T09:24:48.000Z</time>
      </trkpt>
      <trkpt lat="42.99698" lon="0.66322">
        <ele>700</ele>
        <time>2012-09-02T09:24:53.000Z</time>
      </trkpt>
      <trkpt lat="42.99704" lon="0.66333">
        <ele>699</ele>
        <time>2012-09-02T09:24:56.000Z</time>
      </trkpt>
      <trkpt lat="42.99705" lon="0.66347">
        <ele>696.20001220703</ele>
        <time>2012-09-02T09:25:01.000Z</time>
      </trkpt>
      <trkpt lat="42.99706" lon="0.66348">
        <ele>696</ele>
        <time>2012-09-02T09:25:02.000Z</time>
      </trkpt>
      <trkpt lat="42.99708" lon="0.66361">
        <ele>693.20001220703</ele>
        <time>2012-09-02T09:25:16.000Z</time>
      </trkpt>
      <trkpt lat="42.99707" lon="0.66361">
        <ele>693.20001220703</ele>
        <time>2012-09-02T09:25:22.000Z</time>
      </trkpt>
      <trkpt lat="42.99707" lon="0.66362">
        <ele>693</ele>
        <time>2012-09-02T09:25:25.000Z</time>
      </trkpt>
      <trkpt lat="42.99705" lon="0.66369">
        <ele>691.59997558594</ele>
        <time>2012-09-02T09:25:31.000Z</time>
      </trkpt>
      <trkpt lat="42.99704" lon="0.66376">
        <ele>690.40002441406</ele>
        <time>2012-09-02T09:25:36.000Z</time>
      </trkpt>
      <trkpt lat="42.99706" lon="0.66379">
        <ele>689.40002441406</ele>
        <time>2012-09-02T09:25:41.000Z</time>
      </trkpt>
      <trkpt lat="42.99704" lon="0.66383">
        <ele>688.79998779297</ele>
        <time>2012-09-02T09:25:47.000Z</time>
      </trkpt>
      <trkpt lat="42.99704" lon="0.66388">
        <ele>687.79998779297</ele>
        <time>2012-09-02T09:25:53.000Z</time>
      </trkpt>
      <trkpt lat="42.99704" lon="0.6639">
        <ele>687.40002441406</ele>
        <time>2012-09-02T09:25:55.000Z</time>
      </trkpt>
      <trkpt lat="42.99704" lon="0.66393">
        <ele>686.79998779297</ele>
        <time>2012-09-02T09:25:59.000Z</time>
      </trkpt>
      <trkpt lat="42.99703" lon="0.66399">
        <ele>685.59997558594</ele>
        <time>2012-09-02T09:26:14.000Z</time>
      </trkpt>
      <trkpt lat="42.99704" lon="0.66414">
        <ele>682.59997558594</ele>
        <time>2012-09-02T09:26:21.000Z</time>
      </trkpt>
      <trkpt lat="42.99702" lon="0.66422">
        <ele>680.59997558594</ele>
        <time>2012-09-02T09:26:24.000Z</time>
      </trkpt>
      <trkpt lat="42.99695" lon="0.66443">
        <ele>675</ele>
        <time>2012-09-02T09:26:31.000Z</time>
      </trkpt>
      <trkpt lat="42.99704" lon="0.66451">
        <ele>671.79998779297</ele>
        <time>2012-09-02T09:26:38.000Z</time>
      </trkpt>
      <trkpt lat="42.99706" lon="0.66463">
        <ele>668</ele>
        <time>2012-09-02T09:26:43.000Z</time>
      </trkpt>
      <trkpt lat="42.99705" lon="0.66466">
        <ele>667.20001220703</ele>
        <time>2012-09-02T09:26:44.000Z</time>
      </trkpt>
      <trkpt lat="42.99705" lon="0.66472">
        <ele>665.59997558594</ele>
        <time>2012-09-02T09:26:46.000Z</time>
      </trkpt>
      <trkpt lat="42.99704" lon="0.6648">
        <ele>663.20001220703</ele>
        <time>2012-09-02T09:26:51.000Z</time>
      </trkpt>
      <trkpt lat="42.99708" lon="0.66488">
        <ele>660.59997558594</ele>
        <time>2012-09-02T09:27:06.000Z</time>
      </trkpt>
      <trkpt lat="42.99708" lon="0.66493">
        <ele>659.20001220703</ele>
        <time>2012-09-02T09:27:10.000Z</time>
      </trkpt>
      <trkpt lat="42.99714" lon="0.66495">
        <ele>658</ele>
        <time>2012-09-02T09:27:32.000Z</time>
      </trkpt>
      <trkpt lat="42.99716" lon="0.66496">
        <ele>657.40002441406</ele>
        <time>2012-09-02T09:27:33.000Z</time>
      </trkpt>
      <trkpt lat="42.99723" lon="0.66496">
        <ele>656.40002441406</ele>
        <time>2012-09-02T09:27:38.000Z</time>
      </trkpt>
      <trkpt lat="42.99727" lon="0.66495">
        <ele>656.20001220703</ele>
        <time>2012-09-02T09:27:42.000Z</time>
      </trkpt>
      <trkpt lat="42.9973" lon="0.66495">
        <ele>656</ele>
        <time>2012-09-02T09:27:44.000Z</time>
      </trkpt>
      <trkpt lat="42.99741" lon="0.66505">
        <ele>651.59997558594</ele>
        <time>2012-09-02T09:27:49.000Z</time>
      </trkpt>
      <trkpt lat="42.99745" lon="0.66533">
        <ele>643.20001220703</ele>
        <time>2012-09-02T09:27:54.000Z</time>
      </trkpt>
      <trkpt lat="42.99754" lon="0.66566">
        <ele>634.79998779297</ele>
        <time>2012-09-02T09:28:00.000Z</time>
      </trkpt>
      <trkpt lat="42.99755" lon="0.66583">
        <ele>630.59997558594</ele>
        <time>2012-09-02T09:28:05.000Z</time>
      </trkpt>
      <trkpt lat="42.99755" lon="0.66602">
        <ele>625.59997558594</ele>
        <time>2012-09-02T09:28:11.000Z</time>
      </trkpt>
      <trkpt lat="42.9976" lon="0.66618">
        <ele>622.79998779297</ele>
        <time>2012-09-02T09:28:18.000Z</time>
      </trkpt>
      <trkpt lat="42.99764" lon="0.66635">
        <ele>619.20001220703</ele>
        <time>2012-09-02T09:28:23.000Z</time>
      </trkpt>
      <trkpt lat="42.99767" lon="0.6664">
        <ele>618.79998779297</ele>
        <time>2012-09-02T09:28:25.000Z</time>
      </trkpt>
      <trkpt lat="42.99773" lon="0.66659">
        <ele>615.59997558594</ele>
        <time>2012-09-02T09:28:32.000Z</time>
      </trkpt>
      <trkpt lat="42.99782" lon="0.66671">
        <ele>615</ele>
        <time>2012-09-02T09:28:37.000Z</time>
      </trkpt>
      <trkpt lat="42.99787" lon="0.66689">
        <ele>611.20001220703</ele>
        <time>2012-09-02T09:28:43.000Z</time>
      </trkpt>
      <trkpt lat="42.99788" lon="0.66691">
        <ele>610.79998779297</ele>
        <time>2012-09-02T09:28:44.000Z</time>
      </trkpt>
      <trkpt lat="42.99792" lon="0.66706">
        <ele>607.59997558594</ele>
        <time>2012-09-02T09:28:50.000Z</time>
      </trkpt>
      <trkpt lat="42.99794" lon="0.66722">
        <ele>603.59997558594</ele>
        <time>2012-09-02T09:28:54.000Z</time>
      </trkpt>
      <trkpt lat="42.99797" lon="0.66742">
        <ele>598.40002441406</ele>
        <time>2012-09-02T09:28:59.000Z</time>
      </trkpt>
      <trkpt lat="42.99799" lon="0.6676">
        <ele>594.40002441406</ele>
        <time>2012-09-02T09:29:05.000Z</time>
      </trkpt>
      <trkpt lat="42.99802" lon="0.66777">
        <ele>591.40002441406</ele>
        <time>2012-09-02T09:29:11.000Z</time>
      </trkpt>
      <trkpt lat="42.99805" lon="0.66783">
        <ele>590.79998779297</ele>
        <time>2012-09-02T09:29:13.000Z</time>
      </trkpt>
      <trkpt lat="42.99808" lon="0.66801">
        <ele>587.59997558594</ele>
        <time>2012-09-02T09:29:19.000Z</time>
      </trkpt>
      <trkpt lat="42.99808" lon="0.66815">
        <ele>584.40002441406</ele>
        <time>2012-09-02T09:29:24.000Z</time>
      </trkpt>
      <trkpt lat="42.99808" lon="0.66818">
        <ele>583.79998779297</ele>
        <time>2012-09-02T09:29:25.000Z</time>
      </trkpt>
      <trkpt lat="42.99816" lon="0.66833">
        <ele>582.40002441406</ele>
        <time>2012-09-02T09:29:31.000Z</time>
      </trkpt>
      <trkpt lat="42.99817" lon="0.66837">
        <ele>581.79998779297</ele>
        <time>2012-09-02T09:29:32.000Z</time>
      </trkpt>
      <trkpt lat="42.99822" lon="0.66857">
        <ele>579.40002441406</ele>
        <time>2012-09-02T09:29:37.000Z</time>
      </trkpt>
      <trkpt lat="42.99827" lon="0.66875">
        <ele>577</ele>
        <time>2012-09-02T09:29:43.000Z</time>
      </trkpt>
      <trkpt lat="42.99829" lon="0.66886">
        <ele>575.20001220703</ele>
        <time>2012-09-02T09:29:47.000Z</time>
      </trkpt>
      <trkpt lat="42.99837" lon="0.66901">
        <ele>574</ele>
        <time>2012-09-02T09:29:53.000Z</time>
      </trkpt>
      <trkpt lat="42.9984" lon="0.66913">
        <ele>572.20001220703</ele>
        <time>2012-09-02T09:29:56.000Z</time>
      </trkpt>
      <trkpt lat="42.9984" lon="0.66935">
        <ele>568</ele>
        <time>2012-09-02T09:30:01.000Z</time>
      </trkpt>
      <trkpt lat="42.99849" lon="0.66953">
        <ele>566.40002441406</ele>
        <time>2012-09-02T09:30:06.000Z</time>
      </trkpt>
      <trkpt lat="42.99867" lon="0.66971">
        <ele>566.59997558594</ele>
        <time>2012-09-02T09:30:12.000Z</time>
      </trkpt>
      <trkpt lat="42.9988" lon="0.66987">
        <ele>566</ele>
        <time>2012-09-02T09:30:17.000Z</time>
      </trkpt>
      <trkpt lat="42.99886" lon="0.66994">
        <ele>565.79998779297</ele>
        <time>2012-09-02T09:30:19.000Z</time>
      </trkpt>
      <trkpt lat="42.99892" lon="0.67011">
        <ele>563.59997558594</ele>
        <time>2012-09-02T09:30:25.000Z</time>
      </trkpt>
      <trkpt lat="42.99894" lon="0.67014">
        <ele>563.20001220703</ele>
        <time>2012-09-02T09:30:26.000Z</time>
      </trkpt>
      <trkpt lat="42.99896" lon="0.67037">
        <ele>558.79998779297</ele>
        <time>2012-09-02T09:30:31.000Z</time>
      </trkpt>
      <trkpt lat="42.999" lon="0.67052">
        <ele>556.40002441406</ele>
        <time>2012-09-02T09:30:34.000Z</time>
      </trkpt>
      <trkpt lat="42.99915" lon="0.67078">
        <ele>552.79998779297</ele>
        <time>2012-09-02T09:30:39.000Z</time>
      </trkpt>
      <trkpt lat="42.99923" lon="0.67094">
        <ele>552.20001220703</ele>
        <time>2012-09-02T09:30:43.000Z</time>
      </trkpt>
      <trkpt lat="42.99923" lon="0.67094">
        <ele>552.40002441406</ele>
        <time>2012-09-02T09:30:45.000Z</time>
      </trkpt>
      <trkpt lat="42.99925" lon="0.67098">
        <ele>552.40002441406</ele>
        <time>2012-09-02T09:30:57.000Z</time>
      </trkpt>
      <trkpt lat="42.99935" lon="0.67111">
        <ele>552.79998779297</ele>
        <time>2012-09-02T09:31:02.000Z</time>
      </trkpt>
      <trkpt lat="42.99954" lon="0.67126">
        <ele>554.20001220703</ele>
        <time>2012-09-02T09:31:08.000Z</time>
      </trkpt>
      <trkpt lat="42.99962" lon="0.67136">
        <ele>553.79998779297</ele>
        <time>2012-09-02T09:31:11.000Z</time>
      </trkpt>
      <trkpt lat="42.99961" lon="0.67161">
        <ele>550</ele>
        <time>2012-09-02T09:31:15.000Z</time>
      </trkpt>
      <trkpt lat="42.99963" lon="0.67181">
        <ele>547.79998779297</ele>
        <time>2012-09-02T09:31:18.000Z</time>
      </trkpt>
      <trkpt lat="42.99959" lon="0.67197">
        <ele>545.79998779297</ele>
        <time>2012-09-02T09:31:22.000Z</time>
      </trkpt>
      <trkpt lat="42.99956" lon="0.67199">
        <ele>545.40002441406</ele>
        <time>2012-09-02T09:31:23.000Z</time>
      </trkpt>
      <trkpt lat="42.99944" lon="0.67206">
        <ele>543.79998779297</ele>
        <time>2012-09-02T09:31:28.000Z</time>
      </trkpt>
      <trkpt lat="42.99944" lon="0.67207">
        <ele>543.59997558594</ele>
        <time>2012-09-02T09:31:30.000Z</time>
      </trkpt>
      <trkpt lat="42.99932" lon="0.67215">
        <ele>542</ele>
        <time>2012-09-02T09:32:36.000Z</time>
      </trkpt>
      <trkpt lat="42.99929" lon="0.67218">
        <ele>541.40002441406</ele>
        <time>2012-09-02T09:32:37.000Z</time>
      </trkpt>
      <trkpt lat="42.99911" lon="0.67245">
        <ele>538</ele>
        <time>2012-09-02T09:32:44.000Z</time>
      </trkpt>
      <trkpt lat="42.99905" lon="0.67256">
        <ele>537.20001220703</ele>
        <time>2012-09-02T09:32:46.000Z</time>
      </trkpt>
      <trkpt lat="42.99885" lon="0.67272">
        <ele>535.79998779297</ele>
        <time>2012-09-02T09:32:50.000Z</time>
      </trkpt>
      <trkpt lat="42.99848" lon="0.67285">
        <ele>534</ele>
        <time>2012-09-02T09:32:56.000Z</time>
      </trkpt>
      <trkpt lat="42.99834" lon="0.67291">
        <ele>533.59997558594</ele>
        <time>2012-09-02T09:33:00.000Z</time>
      </trkpt>
      <trkpt lat="42.99826" lon="0.67293">
        <ele>533.59997558594</ele>
        <time>2012-09-02T09:33:06.000Z</time>
      </trkpt>
      <trkpt lat="42.99817" lon="0.67296">
        <ele>533.59997558594</ele>
        <time>2012-09-02T09:41:38.000Z</time>
      </trkpt>
      <trkpt lat="42.99807" lon="0.673">
        <ele>533.79998779297</ele>
        <time>2012-09-02T09:41:43.000Z</time>
      </trkpt>
      <trkpt lat="42.99793" lon="0.67307">
        <ele>533.79998779297</ele>
        <time>2012-09-02T09:41:50.000Z</time>
      </trkpt>
      <trkpt lat="42.99771" lon="0.67319">
        <ele>534</ele>
        <time>2012-09-02T09:41:58.000Z</time>
      </trkpt>
      <trkpt lat="42.99748" lon="0.67332">
        <ele>534</ele>
        <time>2012-09-02T09:42:05.000Z</time>
      </trkpt>
      <trkpt lat="42.9973" lon="0.67342">
        <ele>534.59997558594</ele>
        <time>2012-09-02T09:42:11.000Z</time>
      </trkpt>
      <trkpt lat="42.99709" lon="0.6736">
        <ele>535</ele>
        <time>2012-09-02T09:42:18.000Z</time>
      </trkpt>
      <trkpt lat="42.99689" lon="0.67382">
        <ele>535.59997558594</ele>
        <time>2012-09-02T09:42:25.000Z</time>
      </trkpt>
      <trkpt lat="42.99667" lon="0.6741">
        <ele>537</ele>
        <time>2012-09-02T09:42:33.000Z</time>
      </trkpt>
      <trkpt lat="42.99642" lon="0.67437">
        <ele>539.20001220703</ele>
        <time>2012-09-02T09:42:41.000Z</time>
      </trkpt>
      <trkpt lat="42.99618" lon="0.67462">
        <ele>543</ele>
        <time>2012-09-02T09:42:49.000Z</time>
      </trkpt>
      <trkpt lat="42.99604" lon="0.67461">
        <ele>544.79998779297</ele>
        <time>2012-09-02T09:42:53.000Z</time>
      </trkpt>
      <trkpt lat="42.99591" lon="0.67447">
        <ele>544.79998779297</ele>
        <time>2012-09-02T09:42:58.000Z</time>
      </trkpt>
      <trkpt lat="42.99576" lon="0.67426">
        <ele>544.20001220703</ele>
        <time>2012-09-02T09:43:05.000Z</time>
      </trkpt>
      <trkpt lat="42.99566" lon="0.67416">
        <ele>544</ele>
        <time>2012-09-02T09:43:11.000Z</time>
      </trkpt>
      <trkpt lat="42.99556" lon="0.6741">
        <ele>545</ele>
        <time>2012-09-02T09:43:17.000Z</time>
      </trkpt>
      <trkpt lat="42.99549" lon="0.67405">
        <ele>545.59997558594</ele>
        <time>2012-09-02T09:43:21.000Z</time>
      </trkpt>
      <trkpt lat="42.99535" lon="0.67399">
        <ele>546.59997558594</ele>
        <time>2012-09-02T09:43:29.000Z</time>
      </trkpt>
      <trkpt lat="42.99525" lon="0.67391">
        <ele>547</ele>
        <time>2012-09-02T09:43:37.000Z</time>
      </trkpt>
      <trkpt lat="42.99515" lon="0.67384">
        <ele>547.20001220703</ele>
        <time>2012-09-02T09:43:44.000Z</time>
      </trkpt>
      <trkpt lat="42.99513" lon="0.67384">
        <ele>547.40002441406</ele>
        <time>2012-09-02T09:43:45.000Z</time>
      </trkpt>
      <trkpt lat="42.995" lon="0.67385">
        <ele>548.59997558594</ele>
        <time>2012-09-02T09:43:52.000Z</time>
      </trkpt>
      <trkpt lat="42.99487" lon="0.67384">
        <ele>551.20001220703</ele>
        <time>2012-09-02T09:43:58.000Z</time>
      </trkpt>
      <trkpt lat="42.99472" lon="0.67383">
        <ele>554</ele>
        <time>2012-09-02T09:44:05.000Z</time>
      </trkpt>
      <trkpt lat="42.99462" lon="0.6738">
        <ele>555.59997558594</ele>
        <time>2012-09-02T09:44:12.000Z</time>
      </trkpt>
      <trkpt lat="42.99458" lon="0.67376">
        <ele>556</ele>
        <time>2012-09-02T09:44:18.000Z</time>
      </trkpt>
      <trkpt lat="42.99449" lon="0.67376">
        <ele>557.59997558594</ele>
        <time>2012-09-02T09:44:25.000Z</time>
      </trkpt>
      <trkpt lat="42.99447" lon="0.67376">
        <ele>558.20001220703</ele>
        <time>2012-09-02T09:44:27.000Z</time>
      </trkpt>
      <trkpt lat="42.99443" lon="0.67375">
        <ele>558.79998779297</ele>
        <time>2012-09-02T09:44:34.000Z</time>
      </trkpt>
      <trkpt lat="42.99433" lon="0.67379">
        <ele>561.40002441406</ele>
        <time>2012-09-02T09:44:46.000Z</time>
      </trkpt>
      <trkpt lat="42.99432" lon="0.67379">
        <ele>561.59997558594</ele>
        <time>2012-09-02T09:44:47.000Z</time>
      </trkpt>
      <trkpt lat="42.99423" lon="0.67381">
        <ele>563.59997558594</ele>
        <time>2012-09-02T09:44:57.000Z</time>
      </trkpt>
      <trkpt lat="42.99412" lon="0.67381">
        <ele>565.79998779297</ele>
        <time>2012-09-02T09:45:03.000Z</time>
      </trkpt>
      <trkpt lat="42.99397" lon="0.67383">
        <ele>569.59997558594</ele>
        <time>2012-09-02T09:45:10.000Z</time>
      </trkpt>
      <trkpt lat="42.99383" lon="0.67385">
        <ele>573</ele>
        <time>2012-09-02T09:45:17.000Z</time>
      </trkpt>
      <trkpt lat="42.99368" lon="0.67385">
        <ele>576</ele>
        <time>2012-09-02T09:45:25.000Z</time>
      </trkpt>
      <trkpt lat="42.99366" lon="0.67387">
        <ele>576.79998779297</ele>
        <time>2012-09-02T09:45:28.000Z</time>
      </trkpt>
      <trkpt lat="42.99359" lon="0.67389">
        <ele>578.40002441406</ele>
        <time>2012-09-02T09:45:32.000Z</time>
      </trkpt>
      <trkpt lat="42.9935" lon="0.67391">
        <ele>580.59997558594</ele>
        <time>2012-09-02T09:45:38.000Z</time>
      </trkpt>
      <trkpt lat="42.99346" lon="0.67392">
        <ele>581.59997558594</ele>
        <time>2012-09-02T09:45:41.000Z</time>
      </trkpt>
      <trkpt lat="42.99337" lon="0.67395">
        <ele>583.59997558594</ele>
        <time>2012-09-02T09:45:47.000Z</time>
      </trkpt>
      <trkpt lat="42.99327" lon="0.67397">
        <ele>586</ele>
        <time>2012-09-02T09:45:54.000Z</time>
      </trkpt>
      <trkpt lat="42.99321" lon="0.67398">
        <ele>587.40002441406</ele>
        <time>2012-09-02T09:45:58.000Z</time>
      </trkpt>
      <trkpt lat="42.99321" lon="0.67399">
        <ele>587.59997558594</ele>
        <time>2012-09-02T09:45:59.000Z</time>
      </trkpt>
      <trkpt lat="42.99312" lon="0.67405">
        <ele>589.79998779297</ele>
        <time>2012-09-02T09:46:05.000Z</time>
      </trkpt>
      <trkpt lat="42.99311" lon="0.67405">
        <ele>590.20001220703</ele>
        <time>2012-09-02T09:46:06.000Z</time>
      </trkpt>
      <trkpt lat="42.99298" lon="0.67412">
        <ele>593.20001220703</ele>
        <time>2012-09-02T09:46:12.000Z</time>
      </trkpt>
      <trkpt lat="42.99292" lon="0.67415">
        <ele>594.40002441406</ele>
        <time>2012-09-02T09:46:17.000Z</time>
      </trkpt>
      <trkpt lat="42.99287" lon="0.67417">
        <ele>595.79998779297</ele>
        <time>2012-09-02T09:46:23.000Z</time>
      </trkpt>
      <trkpt lat="42.99286" lon="0.67418">
        <ele>596.20001220703</ele>
        <time>2012-09-02T09:46:27.000Z</time>
      </trkpt>
      <trkpt lat="42.99284" lon="0.67419">
        <ele>597</ele>
        <time>2012-09-02T09:46:34.000Z</time>
      </trkpt>
      <trkpt lat="42.9927" lon="0.6742">
        <ele>600.20001220703</ele>
        <time>2012-09-02T09:46:57.000Z</time>
      </trkpt>
      <trkpt lat="42.99272" lon="0.67422">
        <ele>600.59997558594</ele>
        <time>2012-09-02T09:47:01.000Z</time>
      </trkpt>
      <trkpt lat="42.99268" lon="0.67427">
        <ele>603</ele>
        <time>2012-09-02T09:47:09.000Z</time>
      </trkpt>
      <trkpt lat="42.99265" lon="0.67426">
        <ele>603.59997558594</ele>
        <time>2012-09-02T09:47:18.000Z</time>
      </trkpt>
      <trkpt lat="42.99257" lon="0.67424">
        <ele>604.20001220703</ele>
        <time>2012-09-02T09:47:27.000Z</time>
      </trkpt>
      <trkpt lat="42.99253" lon="0.67421">
        <ele>604</ele>
        <time>2012-09-02T09:47:34.000Z</time>
      </trkpt>
      <trkpt lat="42.99253" lon="0.6742">
        <ele>603.59997558594</ele>
        <time>2012-09-02T09:47:36.000Z</time>
      </trkpt>
      <trkpt lat="42.99249" lon="0.67425">
        <ele>606.20001220703</ele>
        <time>2012-09-02T09:47:43.000Z</time>
      </trkpt>
      <trkpt lat="42.99248" lon="0.67426">
        <ele>606.40002441406</ele>
        <time>2012-09-02T09:47:49.000Z</time>
      </trkpt>
      <trkpt lat="42.9924" lon="0.67432">
        <ele>609.79998779297</ele>
        <time>2012-09-02T09:47:56.000Z</time>
      </trkpt>
      <trkpt lat="42.99232" lon="0.67433">
        <ele>611</ele>
        <time>2012-09-02T09:48:02.000Z</time>
      </trkpt>
      <trkpt lat="42.99229" lon="0.67422">
        <ele>608.20001220703</ele>
        <time>2012-09-02T09:48:09.000Z</time>
      </trkpt>
      <trkpt lat="42.9923" lon="0.67411">
        <ele>607.20001220703</ele>
        <time>2012-09-02T09:48:15.000Z</time>
      </trkpt>
      <trkpt lat="42.99235" lon="0.67401">
        <ele>607</ele>
        <time>2012-09-02T09:48:21.000Z</time>
      </trkpt>
      <trkpt lat="42.99236" lon="0.67395">
        <ele>607.59997558594</ele>
        <time>2012-09-02T09:48:26.000Z</time>
      </trkpt>
      <trkpt lat="42.99234" lon="0.67395">
        <ele>607.79998779297</ele>
        <time>2012-09-02T09:48:28.000Z</time>
      </trkpt>
      <trkpt lat="42.99227" lon="0.67395">
        <ele>609.40002441406</ele>
        <time>2012-09-02T09:48:32.000Z</time>
      </trkpt>
      <trkpt lat="42.9922" lon="0.67404">
        <ele>609.79998779297</ele>
        <time>2012-09-02T09:48:38.000Z</time>
      </trkpt>
      <trkpt lat="42.9922" lon="0.67406">
        <ele>609.79998779297</ele>
        <time>2012-09-02T09:48:39.000Z</time>
      </trkpt>
      <trkpt lat="42.99212" lon="0.67419">
        <ele>610.40002441406</ele>
        <time>2012-09-02T09:48:47.000Z</time>
      </trkpt>
      <trkpt lat="42.99212" lon="0.67424">
        <ele>611.59997558594</ele>
        <time>2012-09-02T09:48:50.000Z</time>
      </trkpt>
      <trkpt lat="42.9921" lon="0.67429">
        <ele>613</ele>
        <time>2012-09-02T09:48:55.000Z</time>
      </trkpt>
      <trkpt lat="42.99205" lon="0.67434">
        <ele>614.79998779297</ele>
        <time>2012-09-02T09:49:04.000Z</time>
      </trkpt>
      <trkpt lat="42.99201" lon="0.67438">
        <ele>616.20001220703</ele>
        <time>2012-09-02T09:49:11.000Z</time>
      </trkpt>
      <trkpt lat="42.99197" lon="0.67442">
        <ele>617.20001220703</ele>
        <time>2012-09-02T09:49:16.000Z</time>
      </trkpt>
      <trkpt lat="42.9919" lon="0.67448">
        <ele>618.79998779297</ele>
        <time>2012-09-02T09:49:23.000Z</time>
      </trkpt>
      <trkpt lat="42.99186" lon="0.67448">
        <ele>619.20001220703</ele>
        <time>2012-09-02T09:49:28.000Z</time>
      </trkpt>
      <trkpt lat="42.99185" lon="0.67448">
        <ele>619.20001220703</ele>
        <time>2012-09-02T09:49:30.000Z</time>
      </trkpt>
      <trkpt lat="42.99181" lon="0.67445">
        <ele>619.20001220703</ele>
        <time>2012-09-02T09:49:37.000Z</time>
      </trkpt>
      <trkpt lat="42.9917" lon="0.67442">
        <ele>619.79998779297</ele>
        <time>2012-09-02T09:49:44.000Z</time>
      </trkpt>
      <trkpt lat="42.99166" lon="0.67444">
        <ele>620.20001220703</ele>
        <time>2012-09-02T09:49:49.000Z</time>
      </trkpt>
      <trkpt lat="42.99161" lon="0.67441">
        <ele>619.20001220703</ele>
        <time>2012-09-02T09:50:05.000Z</time>
      </trkpt>
      <trkpt lat="42.9916" lon="0.67441">
        <ele>619</ele>
        <time>2012-09-02T09:50:08.000Z</time>
      </trkpt>
      <trkpt lat="42.99157" lon="0.67439">
        <ele>618.59997558594</ele>
        <time>2012-09-02T09:50:13.000Z</time>
      </trkpt>
      <trkpt lat="42.99155" lon="0.67439">
        <ele>618.40002441406</ele>
        <time>2012-09-02T09:50:20.000Z</time>
      </trkpt>
      <trkpt lat="42.99157" lon="0.6744">
        <ele>618.59997558594</ele>
        <time>2012-09-02T09:50:28.000Z</time>
      </trkpt>
      <trkpt lat="42.9914" lon="0.67438">
        <ele>616.40002441406</ele>
        <time>2012-09-02T09:50:57.000Z</time>
      </trkpt>
      <trkpt lat="42.99122" lon="0.67434">
        <ele>614</ele>
        <time>2012-09-02T09:51:02.000Z</time>
      </trkpt>
      <trkpt lat="42.99097" lon="0.67426">
        <ele>611.40002441406</ele>
        <time>2012-09-02T09:51:06.000Z</time>
      </trkpt>
      <trkpt lat="42.99065" lon="0.67419">
        <ele>608.79998779297</ele>
        <time>2012-09-02T09:51:10.000Z</time>
      </trkpt>
      <trkpt lat="42.99033" lon="0.67396">
        <ele>609.20001220703</ele>
        <time>2012-09-02T09:51:14.000Z</time>
      </trkpt>
      <trkpt lat="42.99027" lon="0.67385">
        <ele>610</ele>
        <time>2012-09-02T09:51:15.000Z</time>
      </trkpt>
      <trkpt lat="42.99" lon="0.67324">
        <ele>611.59997558594</ele>
        <time>2012-09-02T09:51:21.000Z</time>
      </trkpt>
      <trkpt lat="42.98969" lon="0.67264">
        <ele>617.20001220703</ele>
        <time>2012-09-02T09:51:28.000Z</time>
      </trkpt>
      <trkpt lat="42.98946" lon="0.67233">
        <ele>619</ele>
        <time>2012-09-02T09:51:33.000Z</time>
      </trkpt>
      <trkpt lat="42.9893" lon="0.67219">
        <ele>619.20001220703</ele>
        <time>2012-09-02T09:51:36.000Z</time>
      </trkpt>
      <trkpt lat="42.98903" lon="0.67204">
        <ele>618.40002441406</ele>
        <time>2012-09-02T09:51:41.000Z</time>
      </trkpt>
      <trkpt lat="42.98878" lon="0.67205">
        <ele>615.79998779297</ele>
        <time>2012-09-02T09:51:45.000Z</time>
      </trkpt>
      <trkpt lat="42.98808" lon="0.67221">
        <ele>608.40002441406</ele>
        <time>2012-09-02T09:51:56.000Z</time>
      </trkpt>
      <trkpt lat="42.98753" lon="0.6723">
        <ele>608.40002441406</ele>
        <time>2012-09-02T09:52:05.000Z</time>
      </trkpt>
      <trkpt lat="42.9872" lon="0.67233">
        <ele>606.79998779297</ele>
        <time>2012-09-02T09:52:11.000Z</time>
      </trkpt>
      <trkpt lat="42.98679" lon="0.67241">
        <ele>604.79998779297</ele>
        <time>2012-09-02T09:52:19.000Z</time>
      </trkpt>
      <trkpt lat="42.98634" lon="0.67251">
        <ele>602.79998779297</ele>
        <time>2012-09-02T09:52:27.000Z</time>
      </trkpt>
      <trkpt lat="42.98616" lon="0.67254">
        <ele>602.20001220703</ele>
        <time>2012-09-02T09:52:30.000Z</time>
      </trkpt>
      <trkpt lat="42.9858" lon="0.67246">
        <ele>601</ele>
        <time>2012-09-02T09:52:36.000Z</time>
      </trkpt>
      <trkpt lat="42.9852" lon="0.67225">
        <ele>601.59997558594</ele>
        <time>2012-09-02T09:52:46.000Z</time>
      </trkpt>
      <trkpt lat="42.98477" lon="0.67204">
        <ele>600.59997558594</ele>
        <time>2012-09-02T09:52:54.000Z</time>
      </trkpt>
      <trkpt lat="42.98459" lon="0.67205">
        <ele>599.59997558594</ele>
        <time>2012-09-02T09:52:58.000Z</time>
      </trkpt>
      <trkpt lat="42.98455" lon="0.67215">
        <ele>599.20001220703</ele>
        <time>2012-09-02T09:53:00.000Z</time>
      </trkpt>
      <trkpt lat="42.98447" lon="0.67265">
        <ele>599</ele>
        <time>2012-09-02T09:53:10.000Z</time>
      </trkpt>
      <trkpt lat="42.98442" lon="0.67301">
        <ele>600.20001220703</ele>
        <time>2012-09-02T09:53:18.000Z</time>
      </trkpt>
      <trkpt lat="42.9844" lon="0.6735">
        <ele>602.79998779297</ele>
        <time>2012-09-02T09:53:30.000Z</time>
      </trkpt>
      <trkpt lat="42.98438" lon="0.67383">
        <ele>605.59997558594</ele>
        <time>2012-09-02T09:53:39.000Z</time>
      </trkpt>
      <trkpt lat="42.98436" lon="0.67412">
        <ele>608.20001220703</ele>
        <time>2012-09-02T09:53:48.000Z</time>
      </trkpt>
      <trkpt lat="42.98434" lon="0.67443">
        <ele>611.40002441406</ele>
        <time>2012-09-02T09:53:58.000Z</time>
      </trkpt>
      <trkpt lat="42.98435" lon="0.67475">
        <ele>614.79998779297</ele>
        <time>2012-09-02T09:54:10.000Z</time>
      </trkpt>
      <trkpt lat="42.98435" lon="0.67506">
        <ele>618.20001220703</ele>
        <time>2012-09-02T09:54:22.000Z</time>
      </trkpt>
      <trkpt lat="42.9843" lon="0.6753">
        <ele>620.79998779297</ele>
        <time>2012-09-02T09:54:31.000Z</time>
      </trkpt>
      <trkpt lat="42.98425" lon="0.67547">
        <ele>622.79998779297</ele>
        <time>2012-09-02T09:54:37.000Z</time>
      </trkpt>
      <trkpt lat="42.9842" lon="0.67564">
        <ele>624.79998779297</ele>
        <time>2012-09-02T09:54:44.000Z</time>
      </trkpt>
      <trkpt lat="42.98418" lon="0.67575">
        <ele>626</ele>
        <time>2012-09-02T09:54:50.000Z</time>
      </trkpt>
      <trkpt lat="42.98415" lon="0.67586">
        <ele>627.59997558594</ele>
        <time>2012-09-02T09:54:56.000Z</time>
      </trkpt>
      <trkpt lat="42.98413" lon="0.67599">
        <ele>629.59997558594</ele>
        <time>2012-09-02T09:55:03.000Z</time>
      </trkpt>
      <trkpt lat="42.98412" lon="0.67612">
        <ele>631.20001220703</ele>
        <time>2012-09-02T09:55:09.000Z</time>
      </trkpt>
      <trkpt lat="42.9841" lon="0.67628">
        <ele>633.59997558594</ele>
        <time>2012-09-02T09:55:18.000Z</time>
      </trkpt>
      <trkpt lat="42.9841" lon="0.67633">
        <ele>634.20001220703</ele>
        <time>2012-09-02T09:55:21.000Z</time>
      </trkpt>
      <trkpt lat="42.98408" lon="0.67647">
        <ele>636.20001220703</ele>
        <time>2012-09-02T09:55:29.000Z</time>
      </trkpt>
      <trkpt lat="42.98405" lon="0.67656">
        <ele>638</ele>
        <time>2012-09-02T09:55:34.000Z</time>
      </trkpt>
      <trkpt lat="42.98398" lon="0.67668">
        <ele>640.59997558594</ele>
        <time>2012-09-02T09:55:43.000Z</time>
      </trkpt>
      <trkpt lat="42.98394" lon="0.6768">
        <ele>642.20001220703</ele>
        <time>2012-09-02T09:55:52.000Z</time>
      </trkpt>
      <trkpt lat="42.98389" lon="0.67688">
        <ele>643.79998779297</ele>
        <time>2012-09-02T09:55:59.000Z</time>
      </trkpt>
      <trkpt lat="42.98386" lon="0.67696">
        <ele>645.20001220703</ele>
        <time>2012-09-02T09:56:05.000Z</time>
      </trkpt>
      <trkpt lat="42.98381" lon="0.67702">
        <ele>646.79998779297</ele>
        <time>2012-09-02T09:56:11.000Z</time>
      </trkpt>
      <trkpt lat="42.98375" lon="0.67713">
        <ele>649.20001220703</ele>
        <time>2012-09-02T09:56:19.000Z</time>
      </trkpt>
      <trkpt lat="42.98372" lon="0.67724">
        <ele>651</ele>
        <time>2012-09-02T09:56:27.000Z</time>
      </trkpt>
      <trkpt lat="42.98366" lon="0.67735">
        <ele>653.79998779297</ele>
        <time>2012-09-02T09:56:35.000Z</time>
      </trkpt>
      <trkpt lat="42.98363" lon="0.67749">
        <ele>656.20001220703</ele>
        <time>2012-09-02T09:56:43.000Z</time>
      </trkpt>
      <trkpt lat="42.98367" lon="0.67762">
        <ele>657</ele>
        <time>2012-09-02T09:56:50.000Z</time>
      </trkpt>
      <trkpt lat="42.98375" lon="0.67773">
        <ele>657</ele>
        <time>2012-09-02T09:56:58.000Z</time>
      </trkpt>
      <trkpt lat="42.98378" lon="0.67779">
        <ele>657.20001220703</ele>
        <time>2012-09-02T09:57:04.000Z</time>
      </trkpt>
      <trkpt lat="42.98385" lon="0.67788">
        <ele>657.20001220703</ele>
        <time>2012-09-02T09:57:10.000Z</time>
      </trkpt>
      <trkpt lat="42.98393" lon="0.67798">
        <ele>657.20001220703</ele>
        <time>2012-09-02T09:57:17.000Z</time>
      </trkpt>
      <trkpt lat="42.98397" lon="0.67805">
        <ele>657.59997558594</ele>
        <time>2012-09-02T09:57:21.000Z</time>
      </trkpt>
      <trkpt lat="42.98404" lon="0.67813">
        <ele>657.59997558594</ele>
        <time>2012-09-02T09:57:27.000Z</time>
      </trkpt>
      <trkpt lat="42.98414" lon="0.67825">
        <ele>657.59997558594</ele>
        <time>2012-09-02T09:57:34.000Z</time>
      </trkpt>
      <trkpt lat="42.98417" lon="0.67828">
        <ele>657.79998779297</ele>
        <time>2012-09-02T09:57:36.000Z</time>
      </trkpt>
      <trkpt lat="42.98418" lon="0.67832">
        <ele>658.59997558594</ele>
        <time>2012-09-02T09:57:38.000Z</time>
      </trkpt>
      <trkpt lat="42.98421" lon="0.67837">
        <ele>659.40002441406</ele>
        <time>2012-09-02T09:57:41.000Z</time>
      </trkpt>
      <trkpt lat="42.98422" lon="0.6784">
        <ele>659.79998779297</ele>
        <time>2012-09-02T09:57:43.000Z</time>
      </trkpt>
      <trkpt lat="42.98428" lon="0.67847">
        <ele>660.79998779297</ele>
        <time>2012-09-02T09:57:48.000Z</time>
      </trkpt>
      <trkpt lat="42.98436" lon="0.67857">
        <ele>662</ele>
        <time>2012-09-02T09:57:54.000Z</time>
      </trkpt>
      <trkpt lat="42.98445" lon="0.67867">
        <ele>662.79998779297</ele>
        <time>2012-09-02T09:58:00.000Z</time>
      </trkpt>
      <trkpt lat="42.98448" lon="0.67874">
        <ele>664.40002441406</ele>
        <time>2012-09-02T09:58:04.000Z</time>
      </trkpt>
      <trkpt lat="42.98456" lon="0.67884">
        <ele>665.59997558594</ele>
        <time>2012-09-02T09:58:10.000Z</time>
      </trkpt>
      <trkpt lat="42.98465" lon="0.67894">
        <ele>666.59997558594</ele>
        <time>2012-09-02T09:58:18.000Z</time>
      </trkpt>
      <trkpt lat="42.98474" lon="0.67904">
        <ele>667.40002441406</ele>
        <time>2012-09-02T09:58:25.000Z</time>
      </trkpt>
      <trkpt lat="42.98483" lon="0.67916">
        <ele>668.79998779297</ele>
        <time>2012-09-02T09:58:32.000Z</time>
      </trkpt>
      <trkpt lat="42.98492" lon="0.67928">
        <ele>670.40002441406</ele>
        <time>2012-09-02T09:58:38.000Z</time>
      </trkpt>
      <trkpt lat="42.98496" lon="0.6794">
        <ele>672.40002441406</ele>
        <time>2012-09-02T09:58:44.000Z</time>
      </trkpt>
      <trkpt lat="42.98503" lon="0.67954">
        <ele>674.59997558594</ele>
        <time>2012-09-02T09:58:51.000Z</time>
      </trkpt>
      <trkpt lat="42.98507" lon="0.67967">
        <ele>677</ele>
        <time>2012-09-02T09:58:57.000Z</time>
      </trkpt>
      <trkpt lat="42.98512" lon="0.67982">
        <ele>679.79998779297</ele>
        <time>2012-09-02T09:59:04.000Z</time>
      </trkpt>
      <trkpt lat="42.98512" lon="0.67984">
        <ele>680.20001220703</ele>
        <time>2012-09-02T09:59:05.000Z</time>
      </trkpt>
      <trkpt lat="42.98517" lon="0.67994">
        <ele>681.59997558594</ele>
        <time>2012-09-02T09:59:11.000Z</time>
      </trkpt>
      <trkpt lat="42.98521" lon="0.67999">
        <ele>682</ele>
        <time>2012-09-02T09:59:14.000Z</time>
      </trkpt>
      <trkpt lat="42.98526" lon="0.68009">
        <ele>683.59997558594</ele>
        <time>2012-09-02T09:59:20.000Z</time>
      </trkpt>
      <trkpt lat="42.98531" lon="0.68015">
        <ele>684</ele>
        <time>2012-09-02T09:59:24.000Z</time>
      </trkpt>
      <trkpt lat="42.9854" lon="0.68026">
        <ele>684.79998779297</ele>
        <time>2012-09-02T09:59:30.000Z</time>
      </trkpt>
      <trkpt lat="42.98549" lon="0.68039">
        <ele>685.40002441406</ele>
        <time>2012-09-02T09:59:37.000Z</time>
      </trkpt>
      <trkpt lat="42.98549" lon="0.6804">
        <ele>685.40002441406</ele>
        <time>2012-09-02T09:59:38.000Z</time>
      </trkpt>
      <trkpt lat="42.98562" lon="0.6805">
        <ele>684</ele>
        <time>2012-09-02T09:59:46.000Z</time>
      </trkpt>
      <trkpt lat="42.98571" lon="0.68057">
        <ele>682.79998779297</ele>
        <time>2012-09-02T09:59:51.000Z</time>
      </trkpt>
      <trkpt lat="42.98586" lon="0.68069">
        <ele>680.59997558594</ele>
        <time>2012-09-02T09:59:59.000Z</time>
      </trkpt>
      <trkpt lat="42.98598" lon="0.68077">
        <ele>680</ele>
        <time>2012-09-02T10:00:06.000Z</time>
      </trkpt>
      <trkpt lat="42.98609" lon="0.68086">
        <ele>679.79998779297</ele>
        <time>2012-09-02T10:00:13.000Z</time>
      </trkpt>
      <trkpt lat="42.98618" lon="0.68101">
        <ele>681.59997558594</ele>
        <time>2012-09-02T10:00:20.000Z</time>
      </trkpt>
      <trkpt lat="42.98627" lon="0.68119">
        <ele>683.59997558594</ele>
        <time>2012-09-02T10:00:28.000Z</time>
      </trkpt>
      <trkpt lat="42.98632" lon="0.68132">
        <ele>685</ele>
        <time>2012-09-02T10:00:34.000Z</time>
      </trkpt>
      <trkpt lat="42.98638" lon="0.68144">
        <ele>686.40002441406</ele>
        <time>2012-09-02T10:00:39.000Z</time>
      </trkpt>
      <trkpt lat="42.98643" lon="0.68158">
        <ele>688</ele>
        <time>2012-09-02T10:00:45.000Z</time>
      </trkpt>
      <trkpt lat="42.98647" lon="0.68173">
        <ele>689.59997558594</ele>
        <time>2012-09-02T10:00:52.000Z</time>
      </trkpt>
      <trkpt lat="42.98653" lon="0.68189">
        <ele>691.20001220703</ele>
        <time>2012-09-02T10:00:59.000Z</time>
      </trkpt>
      <trkpt lat="42.98656" lon="0.68202">
        <ele>692.59997558594</ele>
        <time>2012-09-02T10:01:05.000Z</time>
      </trkpt>
      <trkpt lat="42.98661" lon="0.68219">
        <ele>694.20001220703</ele>
        <time>2012-09-02T10:01:11.000Z</time>
      </trkpt>
      <trkpt lat="42.98666" lon="0.68238">
        <ele>696.40002441406</ele>
        <time>2012-09-02T10:01:20.000Z</time>
      </trkpt>
      <trkpt lat="42.98671" lon="0.68249">
        <ele>697.20001220703</ele>
        <time>2012-09-02T10:01:25.000Z</time>
      </trkpt>
      <trkpt lat="42.98673" lon="0.6826">
        <ele>698.40002441406</ele>
        <time>2012-09-02T10:01:32.000Z</time>
      </trkpt>
      <trkpt lat="42.98675" lon="0.68267">
        <ele>699.20001220703</ele>
        <time>2012-09-02T10:01:35.000Z</time>
      </trkpt>
      <trkpt lat="42.98677" lon="0.68275">
        <ele>700</ele>
        <time>2012-09-02T10:01:39.000Z</time>
      </trkpt>
      <trkpt lat="42.9868" lon="0.68286">
        <ele>701</ele>
        <time>2012-09-02T10:01:46.000Z</time>
      </trkpt>
      <trkpt lat="42.98684" lon="0.68296">
        <ele>701.79998779297</ele>
        <time>2012-09-02T10:01:53.000Z</time>
      </trkpt>
      <trkpt lat="42.98686" lon="0.68303">
        <ele>702.40002441406</ele>
        <time>2012-09-02T10:01:58.000Z</time>
      </trkpt>
      <trkpt lat="42.98689" lon="0.68315">
        <ele>703.40002441406</ele>
        <time>2012-09-02T10:02:04.000Z</time>
      </trkpt>
      <trkpt lat="42.98693" lon="0.68329">
        <ele>704.79998779297</ele>
        <time>2012-09-02T10:02:11.000Z</time>
      </trkpt>
      <trkpt lat="42.98695" lon="0.6835">
        <ele>707.59997558594</ele>
        <time>2012-09-02T10:02:18.000Z</time>
      </trkpt>
      <trkpt lat="42.98699" lon="0.68365">
        <ele>709.40002441406</ele>
        <time>2012-09-02T10:02:25.000Z</time>
      </trkpt>
      <trkpt lat="42.98703" lon="0.68375">
        <ele>710.20001220703</ele>
        <time>2012-09-02T10:02:29.000Z</time>
      </trkpt>
      <trkpt lat="42.98704" lon="0.68379">
        <ele>710.59997558594</ele>
        <time>2012-09-02T10:02:31.000Z</time>
      </trkpt>
      <trkpt lat="42.98706" lon="0.68391">
        <ele>711.79998779297</ele>
        <time>2012-09-02T10:02:36.000Z</time>
      </trkpt>
      <trkpt lat="42.98709" lon="0.6841">
        <ele>714.20001220703</ele>
        <time>2012-09-02T10:02:44.000Z</time>
      </trkpt>
      <trkpt lat="42.9871" lon="0.68429">
        <ele>717.20001220703</ele>
        <time>2012-09-02T10:02:51.000Z</time>
      </trkpt>
      <trkpt lat="42.98713" lon="0.68442">
        <ele>718.40002441406</ele>
        <time>2012-09-02T10:02:57.000Z</time>
      </trkpt>
      <trkpt lat="42.98715" lon="0.68457">
        <ele>720.40002441406</ele>
        <time>2012-09-02T10:03:04.000Z</time>
      </trkpt>
      <trkpt lat="42.98718" lon="0.68474">
        <ele>722</ele>
        <time>2012-09-02T10:03:11.000Z</time>
      </trkpt>
      <trkpt lat="42.98722" lon="0.68491">
        <ele>723.59997558594</ele>
        <time>2012-09-02T10:03:18.000Z</time>
      </trkpt>
      <trkpt lat="42.98726" lon="0.6851">
        <ele>726.20001220703</ele>
        <time>2012-09-02T10:03:27.000Z</time>
      </trkpt>
      <trkpt lat="42.98733" lon="0.68534">
        <ele>728.79998779297</ele>
        <time>2012-09-02T10:03:38.000Z</time>
      </trkpt>
      <trkpt lat="42.98736" lon="0.68539">
        <ele>728.79998779297</ele>
        <time>2012-09-02T10:03:41.000Z</time>
      </trkpt>
      <trkpt lat="42.98739" lon="0.68548">
        <ele>729.20001220703</ele>
        <time>2012-09-02T10:03:48.000Z</time>
      </trkpt>
      <trkpt lat="42.9874" lon="0.6855">
        <ele>729.40002441406</ele>
        <time>2012-09-02T10:03:49.000Z</time>
      </trkpt>
      <trkpt lat="42.98743" lon="0.6856">
        <ele>730</ele>
        <time>2012-09-02T10:03:54.000Z</time>
      </trkpt>
      <trkpt lat="42.98747" lon="0.68572">
        <ele>730.40002441406</ele>
        <time>2012-09-02T10:04:00.000Z</time>
      </trkpt>
      <trkpt lat="42.9875" lon="0.6859">
        <ele>732.20001220703</ele>
        <time>2012-09-02T10:04:07.000Z</time>
      </trkpt>
      <trkpt lat="42.98753" lon="0.68606">
        <ele>735</ele>
        <time>2012-09-02T10:04:14.000Z</time>
      </trkpt>
      <trkpt lat="42.98758" lon="0.68626">
        <ele>738.40002441406</ele>
        <time>2012-09-02T10:04:22.000Z</time>
      </trkpt>
      <trkpt lat="42.98762" lon="0.68647">
        <ele>741.79998779297</ele>
        <time>2012-09-02T10:04:31.000Z</time>
      </trkpt>
      <trkpt lat="42.98766" lon="0.68663">
        <ele>744.40002441406</ele>
        <time>2012-09-02T10:04:38.000Z</time>
      </trkpt>
      <trkpt lat="42.98769" lon="0.68678">
        <ele>746.20001220703</ele>
        <time>2012-09-02T10:04:45.000Z</time>
      </trkpt>
      <trkpt lat="42.98771" lon="0.68693">
        <ele>748.20001220703</ele>
        <time>2012-09-02T10:04:51.000Z</time>
      </trkpt>
      <trkpt lat="42.98772" lon="0.68697">
        <ele>748.79998779297</ele>
        <time>2012-09-02T10:04:53.000Z</time>
      </trkpt>
      <trkpt lat="42.98771" lon="0.68708">
        <ele>750.79998779297</ele>
        <time>2012-09-02T10:04:58.000Z</time>
      </trkpt>
      <trkpt lat="42.98774" lon="0.68728">
        <ele>753.20001220703</ele>
        <time>2012-09-02T10:05:05.000Z</time>
      </trkpt>
      <trkpt lat="42.98776" lon="0.68746">
        <ele>756</ele>
        <time>2012-09-02T10:05:12.000Z</time>
      </trkpt>
      <trkpt lat="42.98777" lon="0.68759">
        <ele>756.79998779297</ele>
        <time>2012-09-02T10:05:17.000Z</time>
      </trkpt>
      <trkpt lat="42.98781" lon="0.68774">
        <ele>756.59997558594</ele>
        <time>2012-09-02T10:05:22.000Z</time>
      </trkpt>
      <trkpt lat="42.98784" lon="0.68786">
        <ele>756.40002441406</ele>
        <time>2012-09-02T10:05:26.000Z</time>
      </trkpt>
      <trkpt lat="42.98785" lon="0.6879">
        <ele>756.40002441406</ele>
        <time>2012-09-02T10:05:28.000Z</time>
      </trkpt>
      <trkpt lat="42.98791" lon="0.688">
        <ele>756</ele>
        <time>2012-09-02T10:05:32.000Z</time>
      </trkpt>
      <trkpt lat="42.98796" lon="0.68819">
        <ele>755.79998779297</ele>
        <time>2012-09-02T10:05:39.000Z</time>
      </trkpt>
      <trkpt lat="42.98802" lon="0.68835">
        <ele>755.79998779297</ele>
        <time>2012-09-02T10:05:46.000Z</time>
      </trkpt>
      <trkpt lat="42.98809" lon="0.68847">
        <ele>756.20001220703</ele>
        <time>2012-09-02T10:05:52.000Z</time>
      </trkpt>
      <trkpt lat="42.98816" lon="0.6886">
        <ele>757</ele>
        <time>2012-09-02T10:05:59.000Z</time>
      </trkpt>
      <trkpt lat="42.98821" lon="0.68866">
        <ele>757.20001220703</ele>
        <time>2012-09-02T10:06:02.000Z</time>
      </trkpt>
      <trkpt lat="42.98827" lon="0.68876">
        <ele>757.59997558594</ele>
        <time>2012-09-02T10:06:08.000Z</time>
      </trkpt>
      <trkpt lat="42.98836" lon="0.68888">
        <ele>758.40002441406</ele>
        <time>2012-09-02T10:06:15.000Z</time>
      </trkpt>
      <trkpt lat="42.98838" lon="0.68891">
        <ele>759</ele>
        <time>2012-09-02T10:06:17.000Z</time>
      </trkpt>
      <trkpt lat="42.98844" lon="0.68898">
        <ele>760.59997558594</ele>
        <time>2012-09-02T10:06:22.000Z</time>
      </trkpt>
      <trkpt lat="42.98849" lon="0.68908">
        <ele>762.20001220703</ele>
        <time>2012-09-02T10:06:28.000Z</time>
      </trkpt>
      <trkpt lat="42.98858" lon="0.68922">
        <ele>764.79998779297</ele>
        <time>2012-09-02T10:06:36.000Z</time>
      </trkpt>
      <trkpt lat="42.98865" lon="0.68934">
        <ele>767</ele>
        <time>2012-09-02T10:06:43.000Z</time>
      </trkpt>
      <trkpt lat="42.98871" lon="0.68944">
        <ele>768.59997558594</ele>
        <time>2012-09-02T10:06:49.000Z</time>
      </trkpt>
      <trkpt lat="42.98876" lon="0.68955">
        <ele>770</ele>
        <time>2012-09-02T10:06:57.000Z</time>
      </trkpt>
      <trkpt lat="42.98879" lon="0.68973">
        <ele>772.20001220703</ele>
        <time>2012-09-02T10:07:05.000Z</time>
      </trkpt>
      <trkpt lat="42.98881" lon="0.68994">
        <ele>774.40002441406</ele>
        <time>2012-09-02T10:07:13.000Z</time>
      </trkpt>
      <trkpt lat="42.98887" lon="0.69014">
        <ele>775.40002441406</ele>
        <time>2012-09-02T10:07:21.000Z</time>
      </trkpt>
      <trkpt lat="42.98891" lon="0.69027">
        <ele>775.59997558594</ele>
        <time>2012-09-02T10:07:27.000Z</time>
      </trkpt>
      <trkpt lat="42.98897" lon="0.69046">
        <ele>775.79998779297</ele>
        <time>2012-09-02T10:07:34.000Z</time>
      </trkpt>
      <trkpt lat="42.98903" lon="0.69069">
        <ele>776</ele>
        <time>2012-09-02T10:07:43.000Z</time>
      </trkpt>
      <trkpt lat="42.98906" lon="0.69084">
        <ele>776.20001220703</ele>
        <time>2012-09-02T10:07:49.000Z</time>
      </trkpt>
      <trkpt lat="42.9891" lon="0.69101">
        <ele>776.79998779297</ele>
        <time>2012-09-02T10:07:56.000Z</time>
      </trkpt>
      <trkpt lat="42.98912" lon="0.69116">
        <ele>777.40002441406</ele>
        <time>2012-09-02T10:08:02.000Z</time>
      </trkpt>
      <trkpt lat="42.98916" lon="0.69132">
        <ele>777.59997558594</ele>
        <time>2012-09-02T10:08:08.000Z</time>
      </trkpt>
      <trkpt lat="42.98917" lon="0.69145">
        <ele>778.40002441406</ele>
        <time>2012-09-02T10:08:14.000Z</time>
      </trkpt>
      <trkpt lat="42.98922" lon="0.69162">
        <ele>780</ele>
        <time>2012-09-02T10:08:20.000Z</time>
      </trkpt>
      <trkpt lat="42.98928" lon="0.69181">
        <ele>781.59997558594</ele>
        <time>2012-09-02T10:08:27.000Z</time>
      </trkpt>
      <trkpt lat="42.98932" lon="0.69196">
        <ele>782.79998779297</ele>
        <time>2012-09-02T10:08:33.000Z</time>
      </trkpt>
      <trkpt lat="42.98937" lon="0.6921">
        <ele>783.79998779297</ele>
        <time>2012-09-02T10:08:39.000Z</time>
      </trkpt>
      <trkpt lat="42.98942" lon="0.69222">
        <ele>784.59997558594</ele>
        <time>2012-09-02T10:08:45.000Z</time>
      </trkpt>
      <trkpt lat="42.98949" lon="0.69233">
        <ele>785.20001220703</ele>
        <time>2012-09-02T10:08:50.000Z</time>
      </trkpt>
      <trkpt lat="42.98963" lon="0.69243">
        <ele>785.59997558594</ele>
        <time>2012-09-02T10:08:58.000Z</time>
      </trkpt>
      <trkpt lat="42.98982" lon="0.69248">
        <ele>785.40002441406</ele>
        <time>2012-09-02T10:09:08.000Z</time>
      </trkpt>
      <trkpt lat="42.99002" lon="0.69253">
        <ele>786</ele>
        <time>2012-09-02T10:09:18.000Z</time>
      </trkpt>
      <trkpt lat="42.99018" lon="0.69258">
        <ele>791</ele>
        <time>2012-09-02T10:09:27.000Z</time>
      </trkpt>
      <trkpt lat="42.99037" lon="0.69264">
        <ele>796.59997558594</ele>
        <time>2012-09-02T10:09:38.000Z</time>
      </trkpt>
      <trkpt lat="42.99042" lon="0.6928">
        <ele>799.40002441406</ele>
        <time>2012-09-02T10:09:45.000Z</time>
      </trkpt>
      <trkpt lat="42.99044" lon="0.69301">
        <ele>802.20001220703</ele>
        <time>2012-09-02T10:09:54.000Z</time>
      </trkpt>
      <trkpt lat="42.99038" lon="0.69314">
        <ele>802.79998779297</ele>
        <time>2012-09-02T10:10:01.000Z</time>
      </trkpt>
      <trkpt lat="42.99027" lon="0.69315">
        <ele>801.20001220703</ele>
        <time>2012-09-02T10:10:09.000Z</time>
      </trkpt>
      <trkpt lat="42.99012" lon="0.69319">
        <ele>800</ele>
        <time>2012-09-02T10:10:18.000Z</time>
      </trkpt>
      <trkpt lat="42.99006" lon="0.69326">
        <ele>800.40002441406</ele>
        <time>2012-09-02T10:10:25.000Z</time>
      </trkpt>
      <trkpt lat="42.99003" lon="0.6933">
        <ele>800.59997558594</ele>
        <time>2012-09-02T10:10:31.000Z</time>
      </trkpt>
      <trkpt lat="42.99002" lon="0.6933">
        <ele>800.59997558594</ele>
        <time>2012-09-02T10:10:32.000Z</time>
      </trkpt>
      <trkpt lat="42.99001" lon="0.69333">
        <ele>801</ele>
        <time>2012-09-02T10:10:43.000Z</time>
      </trkpt>
      <trkpt lat="42.98992" lon="0.6934">
        <ele>802.20001220703</ele>
        <time>2012-09-02T10:12:40.000Z</time>
      </trkpt>
      <trkpt lat="42.98988" lon="0.69342">
        <ele>802.79998779297</ele>
        <time>2012-09-02T10:12:41.000Z</time>
      </trkpt>
      <trkpt lat="42.98977" lon="0.69349">
        <ele>804</ele>
        <time>2012-09-02T10:12:44.000Z</time>
      </trkpt>
      <trkpt lat="42.98952" lon="0.69355">
        <ele>804.20001220703</ele>
        <time>2012-09-02T10:12:49.000Z</time>
      </trkpt>
      <trkpt lat="42.98946" lon="0.69354">
        <ele>803.79998779297</ele>
        <time>2012-09-02T10:12:50.000Z</time>
      </trkpt>
      <trkpt lat="42.98917" lon="0.69342">
        <ele>801.20001220703</ele>
        <time>2012-09-02T10:12:56.000Z</time>
      </trkpt>
      <trkpt lat="42.98907" lon="0.69335">
        <ele>801.59997558594</ele>
        <time>2012-09-02T10:13:01.000Z</time>
      </trkpt>
      <trkpt lat="42.98896" lon="0.69323">
        <ele>801.59997558594</ele>
        <time>2012-09-02T10:13:09.000Z</time>
      </trkpt>
      <trkpt lat="42.98883" lon="0.69313">
        <ele>802.20001220703</ele>
        <time>2012-09-02T10:13:16.000Z</time>
      </trkpt>
      <trkpt lat="42.9887" lon="0.69307">
        <ele>803.40002441406</ele>
        <time>2012-09-02T10:13:22.000Z</time>
      </trkpt>
      <trkpt lat="42.98853" lon="0.69302">
        <ele>805.40002441406</ele>
        <time>2012-09-02T10:13:30.000Z</time>
      </trkpt>
      <trkpt lat="42.98841" lon="0.69295">
        <ele>806.59997558594</ele>
        <time>2012-09-02T10:13:36.000Z</time>
      </trkpt>
      <trkpt lat="42.98824" lon="0.69283">
        <ele>808.59997558594</ele>
        <time>2012-09-02T10:13:45.000Z</time>
      </trkpt>
      <trkpt lat="42.98812" lon="0.69276">
        <ele>810.40002441406</ele>
        <time>2012-09-02T10:13:52.000Z</time>
      </trkpt>
      <trkpt lat="42.98796" lon="0.69272">
        <ele>813.40002441406</ele>
        <time>2012-09-02T10:14:01.000Z</time>
      </trkpt>
      <trkpt lat="42.9878" lon="0.69268">
        <ele>816.40002441406</ele>
        <time>2012-09-02T10:14:09.000Z</time>
      </trkpt>
      <trkpt lat="42.98766" lon="0.69258">
        <ele>818.40002441406</ele>
        <time>2012-09-02T10:14:16.000Z</time>
      </trkpt>
      <trkpt lat="42.98758" lon="0.69238">
        <ele>818.20001220703</ele>
        <time>2012-09-02T10:14:25.000Z</time>
      </trkpt>
      <trkpt lat="42.98753" lon="0.69224">
        <ele>817.79998779297</ele>
        <time>2012-09-02T10:14:31.000Z</time>
      </trkpt>
      <trkpt lat="42.98746" lon="0.69205">
        <ele>818</ele>
        <time>2012-09-02T10:14:40.000Z</time>
      </trkpt>
      <trkpt lat="42.9874" lon="0.69191">
        <ele>818.40002441406</ele>
        <time>2012-09-02T10:14:47.000Z</time>
      </trkpt>
      <trkpt lat="42.98731" lon="0.69179">
        <ele>820</ele>
        <time>2012-09-02T10:14:54.000Z</time>
      </trkpt>
      <trkpt lat="42.9872" lon="0.69168">
        <ele>821.79998779297</ele>
        <time>2012-09-02T10:15:01.000Z</time>
      </trkpt>
      <trkpt lat="42.98708" lon="0.69157">
        <ele>823.79998779297</ele>
        <time>2012-09-02T10:15:08.000Z</time>
      </trkpt>
      <trkpt lat="42.98698" lon="0.69144">
        <ele>825</ele>
        <time>2012-09-02T10:15:15.000Z</time>
      </trkpt>
      <trkpt lat="42.98688" lon="0.69132">
        <ele>826.20001220703</ele>
        <time>2012-09-02T10:15:22.000Z</time>
      </trkpt>
      <trkpt lat="42.98677" lon="0.69122">
        <ele>827.40002441406</ele>
        <time>2012-09-02T10:15:29.000Z</time>
      </trkpt>
      <trkpt lat="42.98664" lon="0.69113">
        <ele>829.20001220703</ele>
        <time>2012-09-02T10:15:36.000Z</time>
      </trkpt>
      <trkpt lat="42.98653" lon="0.69102">
        <ele>829.59997558594</ele>
        <time>2012-09-02T10:15:43.000Z</time>
      </trkpt>
      <trkpt lat="42.98643" lon="0.69091">
        <ele>830</ele>
        <time>2012-09-02T10:15:50.000Z</time>
      </trkpt>
      <trkpt lat="42.98641" lon="0.69091">
        <ele>830.20001220703</ele>
        <time>2012-09-02T10:15:51.000Z</time>
      </trkpt>
      <trkpt lat="42.98634" lon="0.69083">
        <ele>830.20001220703</ele>
        <time>2012-09-02T10:15:55.000Z</time>
      </trkpt>
      <trkpt lat="42.98621" lon="0.69069">
        <ele>831</ele>
        <time>2012-09-02T10:16:03.000Z</time>
      </trkpt>
      <trkpt lat="42.9861" lon="0.69058">
        <ele>831.79998779297</ele>
        <time>2012-09-02T10:16:10.000Z</time>
      </trkpt>
      <trkpt lat="42.98597" lon="0.69055">
        <ele>834.20001220703</ele>
        <time>2012-09-02T10:16:17.000Z</time>
      </trkpt>
      <trkpt lat="42.98585" lon="0.69059">
        <ele>837.20001220703</ele>
        <time>2012-09-02T10:16:23.000Z</time>
      </trkpt>
      <trkpt lat="42.98571" lon="0.69057">
        <ele>841.59997558594</ele>
        <time>2012-09-02T10:16:30.000Z</time>
      </trkpt>
      <trkpt lat="42.98559" lon="0.69046">
        <ele>844.40002441406</ele>
        <time>2012-09-02T10:16:38.000Z</time>
      </trkpt>
      <trkpt lat="42.98551" lon="0.6903">
        <ele>845.20001220703</ele>
        <time>2012-09-02T10:16:45.000Z</time>
      </trkpt>
      <trkpt lat="42.98543" lon="0.69013">
        <ele>845.59997558594</ele>
        <time>2012-09-02T10:16:52.000Z</time>
      </trkpt>
      <trkpt lat="42.98534" lon="0.68995">
        <ele>846.20001220703</ele>
        <time>2012-09-02T10:17:00.000Z</time>
      </trkpt>
      <trkpt lat="42.98525" lon="0.6898">
        <ele>847.79998779297</ele>
        <time>2012-09-02T10:17:07.000Z</time>
      </trkpt>
      <trkpt lat="42.98515" lon="0.68964">
        <ele>849.20001220703</ele>
        <time>2012-09-02T10:17:15.000Z</time>
      </trkpt>
      <trkpt lat="42.98506" lon="0.68954">
        <ele>850.79998779297</ele>
        <time>2012-09-02T10:17:22.000Z</time>
      </trkpt>
      <trkpt lat="42.98492" lon="0.68935">
        <ele>852.79998779297</ele>
        <time>2012-09-02T10:17:32.000Z</time>
      </trkpt>
      <trkpt lat="42.98481" lon="0.6892">
        <ele>854.20001220703</ele>
        <time>2012-09-02T10:17:40.000Z</time>
      </trkpt>
      <trkpt lat="42.98471" lon="0.68906">
        <ele>856</ele>
        <time>2012-09-02T10:17:47.000Z</time>
      </trkpt>
      <trkpt lat="42.98465" lon="0.68893">
        <ele>857.40002441406</ele>
        <time>2012-09-02T10:17:53.000Z</time>
      </trkpt>
      <trkpt lat="42.98462" lon="0.6888">
        <ele>857.79998779297</ele>
        <time>2012-09-02T10:17:58.000Z</time>
      </trkpt>
      <trkpt lat="42.98461" lon="0.68867">
        <ele>857.40002441406</ele>
        <time>2012-09-02T10:18:03.000Z</time>
      </trkpt>
      <trkpt lat="42.98459" lon="0.68847">
        <ele>857.40002441406</ele>
        <time>2012-09-02T10:18:10.000Z</time>
      </trkpt>
      <trkpt lat="42.98455" lon="0.68832">
        <ele>857.40002441406</ele>
        <time>2012-09-02T10:18:16.000Z</time>
      </trkpt>
      <trkpt lat="42.98446" lon="0.68813">
        <ele>857.59997558594</ele>
        <time>2012-09-02T10:18:24.000Z</time>
      </trkpt>
      <trkpt lat="42.98438" lon="0.68801">
        <ele>858.20001220703</ele>
        <time>2012-09-02T10:18:30.000Z</time>
      </trkpt>
      <trkpt lat="42.98427" lon="0.6879">
        <ele>859</ele>
        <time>2012-09-02T10:18:37.000Z</time>
      </trkpt>
      <trkpt lat="42.98414" lon="0.68777">
        <ele>860.40002441406</ele>
        <time>2012-09-02T10:18:45.000Z</time>
      </trkpt>
      <trkpt lat="42.98402" lon="0.68766">
        <ele>863</ele>
        <time>2012-09-02T10:18:52.000Z</time>
      </trkpt>
      <trkpt lat="42.98392" lon="0.68758">
        <ele>865</ele>
        <time>2012-09-02T10:18:58.000Z</time>
      </trkpt>
      <trkpt lat="42.9838" lon="0.68747">
        <ele>866.79998779297</ele>
        <time>2012-09-02T10:19:05.000Z</time>
      </trkpt>
      <trkpt lat="42.98372" lon="0.6874">
        <ele>867.79998779297</ele>
        <time>2012-09-02T10:19:10.000Z</time>
      </trkpt>
      <trkpt lat="42.98367" lon="0.68731">
        <ele>867.40002441406</ele>
        <time>2012-09-02T10:19:14.000Z</time>
      </trkpt>
      <trkpt lat="42.98357" lon="0.68714">
        <ele>867.20001220703</ele>
        <time>2012-09-02T10:19:22.000Z</time>
      </trkpt>
      <trkpt lat="42.98349" lon="0.68704">
        <ele>867.59997558594</ele>
        <time>2012-09-02T10:19:27.000Z</time>
      </trkpt>
      <trkpt lat="42.98339" lon="0.68691">
        <ele>867.79998779297</ele>
        <time>2012-09-02T10:19:34.000Z</time>
      </trkpt>
      <trkpt lat="42.98329" lon="0.68677">
        <ele>868.40002441406</ele>
        <time>2012-09-02T10:19:41.000Z</time>
      </trkpt>
      <trkpt lat="42.98318" lon="0.68662">
        <ele>870.20001220703</ele>
        <time>2012-09-02T10:19:49.000Z</time>
      </trkpt>
      <trkpt lat="42.98308" lon="0.68648">
        <ele>871.79998779297</ele>
        <time>2012-09-02T10:19:56.000Z</time>
      </trkpt>
      <trkpt lat="42.98297" lon="0.68642">
        <ele>875</ele>
        <time>2012-09-02T10:20:02.000Z</time>
      </trkpt>
      <trkpt lat="42.98281" lon="0.68637">
        <ele>880.40002441406</ele>
        <time>2012-09-02T10:20:11.000Z</time>
      </trkpt>
      <trkpt lat="42.98271" lon="0.68629">
        <ele>883</ele>
        <time>2012-09-02T10:20:17.000Z</time>
      </trkpt>
      <trkpt lat="42.98264" lon="0.68614">
        <ele>883.20001220703</ele>
        <time>2012-09-02T10:20:23.000Z</time>
      </trkpt>
      <trkpt lat="42.98261" lon="0.686">
        <ele>881.59997558594</ele>
        <time>2012-09-02T10:20:28.000Z</time>
      </trkpt>
      <trkpt lat="42.98262" lon="0.68596">
        <ele>880.40002441406</ele>
        <time>2012-09-02T10:20:29.000Z</time>
      </trkpt>
      <trkpt lat="42.98254" lon="0.6857">
        <ele>879.20001220703</ele>
        <time>2012-09-02T10:20:36.000Z</time>
      </trkpt>
      <trkpt lat="42.98245" lon="0.68552">
        <ele>879.79998779297</ele>
        <time>2012-09-02T10:20:42.000Z</time>
      </trkpt>
      <trkpt lat="42.98238" lon="0.68536">
        <ele>880</ele>
        <time>2012-09-02T10:20:48.000Z</time>
      </trkpt>
      <trkpt lat="42.9823" lon="0.68518">
        <ele>880.40002441406</ele>
        <time>2012-09-02T10:20:56.000Z</time>
      </trkpt>
      <trkpt lat="42.98222" lon="0.68506">
        <ele>882</ele>
        <time>2012-09-02T10:21:03.000Z</time>
      </trkpt>
      <trkpt lat="42.98214" lon="0.68496">
        <ele>883.40002441406</ele>
        <time>2012-09-02T10:21:09.000Z</time>
      </trkpt>
      <trkpt lat="42.98202" lon="0.68482">
        <ele>884.79998779297</ele>
        <time>2012-09-02T10:21:17.000Z</time>
      </trkpt>
      <trkpt lat="42.98192" lon="0.68469">
        <ele>885.40002441406</ele>
        <time>2012-09-02T10:21:24.000Z</time>
      </trkpt>
      <trkpt lat="42.9818" lon="0.68458">
        <ele>887.20001220703</ele>
        <time>2012-09-02T10:21:32.000Z</time>
      </trkpt>
      <trkpt lat="42.98168" lon="0.68444">
        <ele>888</ele>
        <time>2012-09-02T10:21:40.000Z</time>
      </trkpt>
      <trkpt lat="42.98156" lon="0.68435">
        <ele>889</ele>
        <time>2012-09-02T10:21:46.000Z</time>
      </trkpt>
      <trkpt lat="42.98141" lon="0.68422">
        <ele>890</ele>
        <time>2012-09-02T10:21:54.000Z</time>
      </trkpt>
      <trkpt lat="42.98127" lon="0.68415">
        <ele>892.40002441406</ele>
        <time>2012-09-02T10:22:01.000Z</time>
      </trkpt>
      <trkpt lat="42.98111" lon="0.68414">
        <ele>897.59997558594</ele>
        <time>2012-09-02T10:22:08.000Z</time>
      </trkpt>
      <trkpt lat="42.98099" lon="0.68411">
        <ele>900.79998779297</ele>
        <time>2012-09-02T10:22:15.000Z</time>
      </trkpt>
      <trkpt lat="42.98086" lon="0.68408">
        <ele>904.20001220703</ele>
        <time>2012-09-02T10:22:21.000Z</time>
      </trkpt>
      <trkpt lat="42.9807" lon="0.68401">
        <ele>909.40002441406</ele>
        <time>2012-09-02T10:22:28.000Z</time>
      </trkpt>
      <trkpt lat="42.98058" lon="0.6838">
        <ele>910</ele>
        <time>2012-09-02T10:22:35.000Z</time>
      </trkpt>
      <trkpt lat="42.98048" lon="0.68359">
        <ele>909.40002441406</ele>
        <time>2012-09-02T10:22:43.000Z</time>
      </trkpt>
      <trkpt lat="42.98037" lon="0.68335">
        <ele>909.40002441406</ele>
        <time>2012-09-02T10:22:52.000Z</time>
      </trkpt>
      <trkpt lat="42.98027" lon="0.68315">
        <ele>911.20001220703</ele>
        <time>2012-09-02T10:23:00.000Z</time>
      </trkpt>
      <trkpt lat="42.9802" lon="0.68293">
        <ele>912.20001220703</ele>
        <time>2012-09-02T10:23:08.000Z</time>
      </trkpt>
      <trkpt lat="42.98012" lon="0.68272">
        <ele>913</ele>
        <time>2012-09-02T10:23:16.000Z</time>
      </trkpt>
      <trkpt lat="42.98008" lon="0.68256">
        <ele>913</ele>
        <time>2012-09-02T10:23:22.000Z</time>
      </trkpt>
      <trkpt lat="42.98001" lon="0.68231">
        <ele>912.40002441406</ele>
        <time>2012-09-02T10:23:31.000Z</time>
      </trkpt>
      <trkpt lat="42.97994" lon="0.68215">
        <ele>911.59997558594</ele>
        <time>2012-09-02T10:23:37.000Z</time>
      </trkpt>
      <trkpt lat="42.97987" lon="0.68196">
        <ele>910</ele>
        <time>2012-09-02T10:23:44.000Z</time>
      </trkpt>
      <trkpt lat="42.9798" lon="0.68181">
        <ele>908.59997558594</ele>
        <time>2012-09-02T10:23:51.000Z</time>
      </trkpt>
      <trkpt lat="42.97969" lon="0.68162">
        <ele>907.20001220703</ele>
        <time>2012-09-02T10:23:59.000Z</time>
      </trkpt>
      <trkpt lat="42.97958" lon="0.68145">
        <ele>906.20001220703</ele>
        <time>2012-09-02T10:24:07.000Z</time>
      </trkpt>
      <trkpt lat="42.97957" lon="0.68142">
        <ele>906</ele>
        <time>2012-09-02T10:24:08.000Z</time>
      </trkpt>
      <trkpt lat="42.97947" lon="0.68132">
        <ele>906.59997558594</ele>
        <time>2012-09-02T10:24:15.000Z</time>
      </trkpt>
      <trkpt lat="42.97931" lon="0.68125">
        <ele>910.20001220703</ele>
        <time>2012-09-02T10:24:23.000Z</time>
      </trkpt>
      <trkpt lat="42.97916" lon="0.68128">
        <ele>915.79998779297</ele>
        <time>2012-09-02T10:24:31.000Z</time>
      </trkpt>
      <trkpt lat="42.97897" lon="0.68133">
        <ele>919.59997558594</ele>
        <time>2012-09-02T10:24:41.000Z</time>
      </trkpt>
      <trkpt lat="42.97885" lon="0.68138">
        <ele>922.20001220703</ele>
        <time>2012-09-02T10:24:48.000Z</time>
      </trkpt>
      <trkpt lat="42.97872" lon="0.68141">
        <ele>924.40002441406</ele>
        <time>2012-09-02T10:24:55.000Z</time>
      </trkpt>
      <trkpt lat="42.9786" lon="0.68142">
        <ele>926.40002441406</ele>
        <time>2012-09-02T10:25:01.000Z</time>
      </trkpt>
      <trkpt lat="42.97839" lon="0.68144">
        <ele>929.40002441406</ele>
        <time>2012-09-02T10:25:08.000Z</time>
      </trkpt>
      <trkpt lat="42.97826" lon="0.68141">
        <ele>927.79998779297</ele>
        <time>2012-09-02T10:25:14.000Z</time>
      </trkpt>
      <trkpt lat="42.97816" lon="0.68137">
        <ele>924.59997558594</ele>
        <time>2012-09-02T10:25:20.000Z</time>
      </trkpt>
      <trkpt lat="42.97805" lon="0.68141">
        <ele>922.40002441406</ele>
        <time>2012-09-02T10:25:27.000Z</time>
      </trkpt>
      <trkpt lat="42.978" lon="0.68154">
        <ele>922.79998779297</ele>
        <time>2012-09-02T10:25:34.000Z</time>
      </trkpt>
      <trkpt lat="42.97796" lon="0.68165">
        <ele>923.40002441406</ele>
        <time>2012-09-02T10:25:40.000Z</time>
      </trkpt>
      <trkpt lat="42.97793" lon="0.68174">
        <ele>924.79998779297</ele>
        <time>2012-09-02T10:25:45.000Z</time>
      </trkpt>
      <trkpt lat="42.97791" lon="0.68186">
        <ele>927</ele>
        <time>2012-09-02T10:25:51.000Z</time>
      </trkpt>
      <trkpt lat="42.97789" lon="0.68194">
        <ele>928.59997558594</ele>
        <time>2012-09-02T10:25:56.000Z</time>
      </trkpt>
      <trkpt lat="42.97787" lon="0.682">
        <ele>929.59997558594</ele>
        <time>2012-09-02T10:25:59.000Z</time>
      </trkpt>
      <trkpt lat="42.97784" lon="0.68212">
        <ele>931.79998779297</ele>
        <time>2012-09-02T10:26:05.000Z</time>
      </trkpt>
      <trkpt lat="42.97779" lon="0.68225">
        <ele>934</ele>
        <time>2012-09-02T10:26:11.000Z</time>
      </trkpt>
      <trkpt lat="42.9777" lon="0.68244">
        <ele>936.59997558594</ele>
        <time>2012-09-02T10:26:19.000Z</time>
      </trkpt>
      <trkpt lat="42.97761" lon="0.68258">
        <ele>937.79998779297</ele>
        <time>2012-09-02T10:26:24.000Z</time>
      </trkpt>
      <trkpt lat="42.97752" lon="0.68273">
        <ele>939.20001220703</ele>
        <time>2012-09-02T10:26:30.000Z</time>
      </trkpt>
      <trkpt lat="42.97743" lon="0.68281">
        <ele>939.20001220703</ele>
        <time>2012-09-02T10:26:35.000Z</time>
      </trkpt>
      <trkpt lat="42.97741" lon="0.68285">
        <ele>939.59997558594</ele>
        <time>2012-09-02T10:26:37.000Z</time>
      </trkpt>
      <trkpt lat="42.97735" lon="0.68297">
        <ele>941</ele>
        <time>2012-09-02T10:26:43.000Z</time>
      </trkpt>
      <trkpt lat="42.97726" lon="0.68309">
        <ele>941.79998779297</ele>
        <time>2012-09-02T10:26:50.000Z</time>
      </trkpt>
      <trkpt lat="42.97723" lon="0.68313">
        <ele>941.79998779297</ele>
        <time>2012-09-02T10:26:52.000Z</time>
      </trkpt>
      <trkpt lat="42.97716" lon="0.68326">
        <ele>943</ele>
        <time>2012-09-02T10:26:57.000Z</time>
      </trkpt>
      <trkpt lat="42.97708" lon="0.68338">
        <ele>943.59997558594</ele>
        <time>2012-09-02T10:27:02.000Z</time>
      </trkpt>
      <trkpt lat="42.97695" lon="0.68357">
        <ele>942.79998779297</ele>
        <time>2012-09-02T10:27:08.000Z</time>
      </trkpt>
      <trkpt lat="42.97686" lon="0.68375">
        <ele>942.59997558594</ele>
        <time>2012-09-02T10:27:14.000Z</time>
      </trkpt>
      <trkpt lat="42.97679" lon="0.68391">
        <ele>943</ele>
        <time>2012-09-02T10:27:20.000Z</time>
      </trkpt>
      <trkpt lat="42.97673" lon="0.68408">
        <ele>943.59997558594</ele>
        <time>2012-09-02T10:27:26.000Z</time>
      </trkpt>
      <trkpt lat="42.97666" lon="0.68431">
        <ele>943</ele>
        <time>2012-09-02T10:27:34.000Z</time>
      </trkpt>
      <trkpt lat="42.9766" lon="0.68457">
        <ele>943.59997558594</ele>
        <time>2012-09-02T10:27:43.000Z</time>
      </trkpt>
      <trkpt lat="42.97652" lon="0.68479">
        <ele>945.20001220703</ele>
        <time>2012-09-02T10:27:52.000Z</time>
      </trkpt>
      <trkpt lat="42.97641" lon="0.68491">
        <ele>947.59997558594</ele>
        <time>2012-09-02T10:27:59.000Z</time>
      </trkpt>
      <trkpt lat="42.97626" lon="0.68498">
        <ele>951.20001220703</ele>
        <time>2012-09-02T10:28:08.000Z</time>
      </trkpt>
      <trkpt lat="42.97609" lon="0.68493">
        <ele>953.59997558594</ele>
        <time>2012-09-02T10:28:17.000Z</time>
      </trkpt>
      <trkpt lat="42.97591" lon="0.68478">
        <ele>954.20001220703</ele>
        <time>2012-09-02T10:28:28.000Z</time>
      </trkpt>
      <trkpt lat="42.9758" lon="0.68469">
        <ele>954.20001220703</ele>
        <time>2012-09-02T10:28:35.000Z</time>
      </trkpt>
      <trkpt lat="42.97567" lon="0.68461">
        <ele>955.79998779297</ele>
        <time>2012-09-02T10:28:43.000Z</time>
      </trkpt>
      <trkpt lat="42.97554" lon="0.68455">
        <ele>957.79998779297</ele>
        <time>2012-09-02T10:28:51.000Z</time>
      </trkpt>
      <trkpt lat="42.97544" lon="0.6845">
        <ele>959</ele>
        <time>2012-09-02T10:28:57.000Z</time>
      </trkpt>
      <trkpt lat="42.97529" lon="0.68442">
        <ele>960.20001220703</ele>
        <time>2012-09-02T10:29:05.000Z</time>
      </trkpt>
      <trkpt lat="42.97514" lon="0.68436">
        <ele>962.20001220703</ele>
        <time>2012-09-02T10:29:13.000Z</time>
      </trkpt>
      <trkpt lat="42.97498" lon="0.68433">
        <ele>964.79998779297</ele>
        <time>2012-09-02T10:29:22.000Z</time>
      </trkpt>
      <trkpt lat="42.97486" lon="0.68431">
        <ele>966.40002441406</ele>
        <time>2012-09-02T10:29:28.000Z</time>
      </trkpt>
      <trkpt lat="42.97473" lon="0.68428">
        <ele>967.59997558594</ele>
        <time>2012-09-02T10:29:35.000Z</time>
      </trkpt>
      <trkpt lat="42.9746" lon="0.68424">
        <ele>969</ele>
        <time>2012-09-02T10:29:42.000Z</time>
      </trkpt>
      <trkpt lat="42.97448" lon="0.6842">
        <ele>969.79998779297</ele>
        <time>2012-09-02T10:29:48.000Z</time>
      </trkpt>
      <trkpt lat="42.97437" lon="0.68417">
        <ele>971.40002441406</ele>
        <time>2012-09-02T10:29:53.000Z</time>
      </trkpt>
      <trkpt lat="42.97428" lon="0.6841">
        <ele>970.79998779297</ele>
        <time>2012-09-02T10:29:58.000Z</time>
      </trkpt>
      <trkpt lat="42.97415" lon="0.68405">
        <ele>972.20001220703</ele>
        <time>2012-09-02T10:30:04.000Z</time>
      </trkpt>
      <trkpt lat="42.97403" lon="0.68395">
        <ele>972.20001220703</ele>
        <time>2012-09-02T10:30:10.000Z</time>
      </trkpt>
      <trkpt lat="42.97389" lon="0.6839">
        <ele>974.59997558594</ele>
        <time>2012-09-02T10:30:18.000Z</time>
      </trkpt>
      <trkpt lat="42.97374" lon="0.68383">
        <ele>976.20001220703</ele>
        <time>2012-09-02T10:30:28.000Z</time>
      </trkpt>
      <trkpt lat="42.97364" lon="0.68377">
        <ele>977</ele>
        <time>2012-09-02T10:30:35.000Z</time>
      </trkpt>
      <trkpt lat="42.97352" lon="0.68371">
        <ele>978.20001220703</ele>
        <time>2012-09-02T10:30:42.000Z</time>
      </trkpt>
      <trkpt lat="42.97341" lon="0.68366">
        <ele>979.59997558594</ele>
        <time>2012-09-02T10:30:49.000Z</time>
      </trkpt>
      <trkpt lat="42.97326" lon="0.68361">
        <ele>981.59997558594</ele>
        <time>2012-09-02T10:30:58.000Z</time>
      </trkpt>
      <trkpt lat="42.97309" lon="0.68355">
        <ele>983.79998779297</ele>
        <time>2012-09-02T10:31:07.000Z</time>
      </trkpt>
      <trkpt lat="42.97295" lon="0.68348">
        <ele>985</ele>
        <time>2012-09-02T10:31:15.000Z</time>
      </trkpt>
      <trkpt lat="42.97276" lon="0.68341">
        <ele>987.20001220703</ele>
        <time>2012-09-02T10:31:26.000Z</time>
      </trkpt>
      <trkpt lat="42.97262" lon="0.68334">
        <ele>988.40002441406</ele>
        <time>2012-09-02T10:31:34.000Z</time>
      </trkpt>
      <trkpt lat="42.97247" lon="0.6833">
        <ele>990.20001220703</ele>
        <time>2012-09-02T10:31:42.000Z</time>
      </trkpt>
      <trkpt lat="42.9723" lon="0.68326">
        <ele>991</ele>
        <time>2012-09-02T10:31:52.000Z</time>
      </trkpt>
      <trkpt lat="42.97213" lon="0.68325">
        <ele>993</ele>
        <time>2012-09-02T10:32:02.000Z</time>
      </trkpt>
      <trkpt lat="42.97201" lon="0.68322">
        <ele>994.20001220703</ele>
        <time>2012-09-02T10:32:09.000Z</time>
      </trkpt>
      <trkpt lat="42.97192" lon="0.68317">
        <ele>994</ele>
        <time>2012-09-02T10:32:15.000Z</time>
      </trkpt>
      <trkpt lat="42.97178" lon="0.68308">
        <ele>994.20001220703</ele>
        <time>2012-09-02T10:32:24.000Z</time>
      </trkpt>
      <trkpt lat="42.97165" lon="0.68301">
        <ele>994.59997558594</ele>
        <time>2012-09-02T10:32:31.000Z</time>
      </trkpt>
      <trkpt lat="42.97155" lon="0.68296">
        <ele>993.59997558594</ele>
        <time>2012-09-02T10:32:39.000Z</time>
      </trkpt>
      <trkpt lat="42.97153" lon="0.68297">
        <ele>994</ele>
        <time>2012-09-02T10:32:42.000Z</time>
      </trkpt>
      <trkpt lat="42.97136" lon="0.6829">
        <ele>992.40002441406</ele>
        <time>2012-09-02T10:35:35.000Z</time>
      </trkpt>
      <trkpt lat="42.97132" lon="0.68264">
        <ele>986</ele>
        <time>2012-09-02T10:35:41.000Z</time>
      </trkpt>
      <trkpt lat="42.9713" lon="0.68228">
        <ele>978.40002441406</ele>
        <time>2012-09-02T10:35:45.000Z</time>
      </trkpt>
      <trkpt lat="42.97124" lon="0.68208">
        <ele>974.79998779297</ele>
        <time>2012-09-02T10:35:49.000Z</time>
      </trkpt>
      <trkpt lat="42.97117" lon="0.68193">
        <ele>972.79998779297</ele>
        <time>2012-09-02T10:35:52.000Z</time>
      </trkpt>
      <trkpt lat="42.97107" lon="0.68158">
        <ele>968</ele>
        <time>2012-09-02T10:35:58.000Z</time>
      </trkpt>
      <trkpt lat="42.97098" lon="0.68141">
        <ele>966.59997558594</ele>
        <time>2012-09-02T10:36:02.000Z</time>
      </trkpt>
      <trkpt lat="42.97096" lon="0.68138">
        <ele>966.79998779297</ele>
        <time>2012-09-02T10:36:03.000Z</time>
      </trkpt>
      <trkpt lat="42.97082" lon="0.68149">
        <ele>970.79998779297</ele>
        <time>2012-09-02T10:36:09.000Z</time>
      </trkpt>
      <trkpt lat="42.97071" lon="0.68168">
        <ele>972.79998779297</ele>
        <time>2012-09-02T10:36:12.000Z</time>
      </trkpt>
      <trkpt lat="42.97043" lon="0.68195">
        <ele>976.59997558594</ele>
        <time>2012-09-02T10:36:17.000Z</time>
      </trkpt>
      <trkpt lat="42.97029" lon="0.68194">
        <ele>976.59997558594</ele>
        <time>2012-09-02T10:36:20.000Z</time>
      </trkpt>
      <trkpt lat="42.97027" lon="0.68193">
        <ele>976.40002441406</ele>
        <time>2012-09-02T10:36:21.000Z</time>
      </trkpt>
      <trkpt lat="42.9701" lon="0.68188">
        <ele>975.59997558594</ele>
        <time>2012-09-02T10:36:29.000Z</time>
      </trkpt>
      <trkpt lat="42.96995" lon="0.68177">
        <ele>974.40002441406</ele>
        <time>2012-09-02T10:36:36.000Z</time>
      </trkpt>
      <trkpt lat="42.96989" lon="0.68162">
        <ele>973</ele>
        <time>2012-09-02T10:36:42.000Z</time>
      </trkpt>
      <trkpt lat="42.96989" lon="0.68146">
        <ele>971.59997558594</ele>
        <time>2012-09-02T10:36:45.000Z</time>
      </trkpt>
      <trkpt lat="42.96982" lon="0.68123">
        <ele>971.20001220703</ele>
        <time>2012-09-02T10:36:49.000Z</time>
      </trkpt>
      <trkpt lat="42.96979" lon="0.68094">
        <ele>969.20001220703</ele>
        <time>2012-09-02T10:36:53.000Z</time>
      </trkpt>
      <trkpt lat="42.96987" lon="0.68051">
        <ele>967.20001220703</ele>
        <time>2012-09-02T10:36:58.000Z</time>
      </trkpt>
      <trkpt lat="42.96988" lon="0.68044">
        <ele>967.20001220703</ele>
        <time>2012-09-02T10:36:59.000Z</time>
      </trkpt>
      <trkpt lat="42.96984" lon="0.68021">
        <ele>967.59997558594</ele>
        <time>2012-09-02T10:37:04.000Z</time>
      </trkpt>
      <trkpt lat="42.96982" lon="0.6801">
        <ele>967.79998779297</ele>
        <time>2012-09-02T10:37:10.000Z</time>
      </trkpt>
      <trkpt lat="42.96986" lon="0.67998">
        <ele>967.40002441406</ele>
        <time>2012-09-02T10:37:15.000Z</time>
      </trkpt>
      <trkpt lat="42.96984" lon="0.67987">
        <ele>969.20001220703</ele>
        <time>2012-09-02T10:37:20.000Z</time>
      </trkpt>
      <trkpt lat="42.9698" lon="0.6798">
        <ele>970.59997558594</ele>
        <time>2012-09-02T10:37:25.000Z</time>
      </trkpt>
      <trkpt lat="42.96973" lon="0.67963">
        <ele>974</ele>
        <time>2012-09-02T10:37:33.000Z</time>
      </trkpt>
      <trkpt lat="42.96972" lon="0.67961">
        <ele>974.40002441406</ele>
        <time>2012-09-02T10:37:34.000Z</time>
      </trkpt>
      <trkpt lat="42.96967" lon="0.67942">
        <ele>977.79998779297</ele>
        <time>2012-09-02T10:37:41.000Z</time>
      </trkpt>
      <trkpt lat="42.96964" lon="0.67929">
        <ele>980</ele>
        <time>2012-09-02T10:37:46.000Z</time>
      </trkpt>
      <trkpt lat="42.96958" lon="0.67917">
        <ele>982.79998779297</ele>
        <time>2012-09-02T10:37:52.000Z</time>
      </trkpt>
      <trkpt lat="42.96959" lon="0.679">
        <ele>982.79998779297</ele>
        <time>2012-09-02T10:37:59.000Z</time>
      </trkpt>
      <trkpt lat="42.96957" lon="0.67889">
        <ele>983.40002441406</ele>
        <time>2012-09-02T10:38:05.000Z</time>
      </trkpt>
      <trkpt lat="42.96954" lon="0.67881">
        <ele>984</ele>
        <time>2012-09-02T10:38:08.000Z</time>
      </trkpt>
      <trkpt lat="42.96947" lon="0.67868">
        <ele>985.40002441406</ele>
        <time>2012-09-02T10:38:15.000Z</time>
      </trkpt>
      <trkpt lat="42.96942" lon="0.67856">
        <ele>986.20001220703</ele>
        <time>2012-09-02T10:38:22.000Z</time>
      </trkpt>
      <trkpt lat="42.96941" lon="0.67853">
        <ele>986.40002441406</ele>
        <time>2012-09-02T10:38:24.000Z</time>
      </trkpt>
      <trkpt lat="42.96936" lon="0.67838">
        <ele>987.59997558594</ele>
        <time>2012-09-02T10:38:30.000Z</time>
      </trkpt>
      <trkpt lat="42.96934" lon="0.67815">
        <ele>986</ele>
        <time>2012-09-02T10:38:37.000Z</time>
      </trkpt>
      <trkpt lat="42.96932" lon="0.67797">
        <ele>984.79998779297</ele>
        <time>2012-09-02T10:38:42.000Z</time>
      </trkpt>
      <trkpt lat="42.96931" lon="0.67786">
        <ele>984</ele>
        <time>2012-09-02T10:38:44.000Z</time>
      </trkpt>
      <trkpt lat="42.96919" lon="0.67773">
        <ele>985.40002441406</ele>
        <time>2012-09-02T10:38:49.000Z</time>
      </trkpt>
      <trkpt lat="42.96912" lon="0.67773">
        <ele>986.59997558594</ele>
        <time>2012-09-02T10:38:51.000Z</time>
      </trkpt>
      <trkpt lat="42.96895" lon="0.67773">
        <ele>989</ele>
        <time>2012-09-02T10:38:58.000Z</time>
      </trkpt>
      <trkpt lat="42.96882" lon="0.67774">
        <ele>991</ele>
        <time>2012-09-02T10:39:06.000Z</time>
      </trkpt>
      <trkpt lat="42.96873" lon="0.6777">
        <ele>991.79998779297</ele>
        <time>2012-09-02T10:39:13.000Z</time>
      </trkpt>
      <trkpt lat="42.96863" lon="0.67764">
        <ele>992.40002441406</ele>
        <time>2012-09-02T10:39:19.000Z</time>
      </trkpt>
      <trkpt lat="42.96851" lon="0.6776">
        <ele>993.40002441406</ele>
        <time>2012-09-02T10:39:26.000Z</time>
      </trkpt>
      <trkpt lat="42.96838" lon="0.67756">
        <ele>994.40002441406</ele>
        <time>2012-09-02T10:39:34.000Z</time>
      </trkpt>
      <trkpt lat="42.96825" lon="0.67753">
        <ele>995.40002441406</ele>
        <time>2012-09-02T10:39:41.000Z</time>
      </trkpt>
      <trkpt lat="42.96812" lon="0.67747">
        <ele>995.59997558594</ele>
        <time>2012-09-02T10:39:48.000Z</time>
      </trkpt>
      <trkpt lat="42.96801" lon="0.67743">
        <ele>996.20001220703</ele>
        <time>2012-09-02T10:39:53.000Z</time>
      </trkpt>
      <trkpt lat="42.96786" lon="0.67741">
        <ele>997.40002441406</ele>
        <time>2012-09-02T10:39:59.000Z</time>
      </trkpt>
      <trkpt lat="42.9677" lon="0.67742">
        <ele>999.59997558594</ele>
        <time>2012-09-02T10:40:07.000Z</time>
      </trkpt>
      <trkpt lat="42.96758" lon="0.67746">
        <ele>1002.200012207</ele>
        <time>2012-09-02T10:40:14.000Z</time>
      </trkpt>
      <trkpt lat="42.96748" lon="0.67747">
        <ele>1003.5999755859</ele>
        <time>2012-09-02T10:40:19.000Z</time>
      </trkpt>
      <trkpt lat="42.96734" lon="0.67744">
        <ele>1004.5999755859</ele>
        <time>2012-09-02T10:40:25.000Z</time>
      </trkpt>
      <trkpt lat="42.96717" lon="0.67734">
        <ele>1004.5999755859</ele>
        <time>2012-09-02T10:40:33.000Z</time>
      </trkpt>
      <trkpt lat="42.96701" lon="0.67728">
        <ele>1005.4000244141</ele>
        <time>2012-09-02T10:40:39.000Z</time>
      </trkpt>
      <trkpt lat="42.96683" lon="0.6772">
        <ele>1005.5999755859</ele>
        <time>2012-09-02T10:40:46.000Z</time>
      </trkpt>
      <trkpt lat="42.96672" lon="0.67714">
        <ele>1005.5999755859</ele>
        <time>2012-09-02T10:40:51.000Z</time>
      </trkpt>
      <trkpt lat="42.96657" lon="0.67707">
        <ele>1004.5999755859</ele>
        <time>2012-09-02T10:40:57.000Z</time>
      </trkpt>
      <trkpt lat="42.96642" lon="0.67696">
        <ele>1001.799987793</ele>
        <time>2012-09-02T10:41:04.000Z</time>
      </trkpt>
      <trkpt lat="42.96629" lon="0.6769">
        <ele>1000</ele>
        <time>2012-09-02T10:41:09.000Z</time>
      </trkpt>
      <trkpt lat="42.96614" lon="0.67688">
        <ele>999.40002441406</ele>
        <time>2012-09-02T10:41:14.000Z</time>
      </trkpt>
      <trkpt lat="42.96596" lon="0.67688">
        <ele>999</ele>
        <time>2012-09-02T10:41:20.000Z</time>
      </trkpt>
      <trkpt lat="42.96576" lon="0.67692">
        <ele>999.59997558594</ele>
        <time>2012-09-02T10:41:24.000Z</time>
      </trkpt>
      <trkpt lat="42.96546" lon="0.67701">
        <ele>1000</ele>
        <time>2012-09-02T10:41:29.000Z</time>
      </trkpt>
      <trkpt lat="42.9652" lon="0.67705">
        <ele>999.20001220703</ele>
        <time>2012-09-02T10:41:33.000Z</time>
      </trkpt>
      <trkpt lat="42.96514" lon="0.67706">
        <ele>999</ele>
        <time>2012-09-02T10:41:34.000Z</time>
      </trkpt>
      <trkpt lat="42.96485" lon="0.67704">
        <ele>998.40002441406</ele>
        <time>2012-09-02T10:41:39.000Z</time>
      </trkpt>
      <trkpt lat="42.96457" lon="0.67696">
        <ele>998</ele>
        <time>2012-09-02T10:41:43.000Z</time>
      </trkpt>
      <trkpt lat="42.96418" lon="0.67678">
        <ele>995.59997558594</ele>
        <time>2012-09-02T10:41:48.000Z</time>
      </trkpt>
      <trkpt lat="42.96402" lon="0.67666">
        <ele>992.79998779297</ele>
        <time>2012-09-02T10:41:51.000Z</time>
      </trkpt>
      <trkpt lat="42.96383" lon="0.67631">
        <ele>984.79998779297</ele>
        <time>2012-09-02T10:41:57.000Z</time>
      </trkpt>
      <trkpt lat="42.96364" lon="0.67592">
        <ele>978.59997558594</ele>
        <time>2012-09-02T10:42:02.000Z</time>
      </trkpt>
      <trkpt lat="42.9635" lon="0.67568">
        <ele>977</ele>
        <time>2012-09-02T10:42:05.000Z</time>
      </trkpt>
      <trkpt lat="42.96341" lon="0.67554">
        <ele>977</ele>
        <time>2012-09-02T10:42:07.000Z</time>
      </trkpt>
      <trkpt lat="42.9632" lon="0.67513">
        <ele>973.20001220703</ele>
        <time>2012-09-02T10:42:12.000Z</time>
      </trkpt>
      <trkpt lat="42.96292" lon="0.67466">
        <ele>972.79998779297</ele>
        <time>2012-09-02T10:42:18.000Z</time>
      </trkpt>
      <trkpt lat="42.96282" lon="0.67424">
        <ele>972.59997558594</ele>
        <time>2012-09-02T10:42:23.000Z</time>
      </trkpt>
      <trkpt lat="42.96278" lon="0.67384">
        <ele>975.59997558594</ele>
        <time>2012-09-02T10:42:27.000Z</time>
      </trkpt>
      <trkpt lat="42.96287" lon="0.67352">
        <ele>975.20001220703</ele>
        <time>2012-09-02T10:42:31.000Z</time>
      </trkpt>
      <trkpt lat="42.96313" lon="0.67328">
        <ele>969</ele>
        <time>2012-09-02T10:42:37.000Z</time>
      </trkpt>
      <trkpt lat="42.96323" lon="0.67314">
        <ele>966.20001220703</ele>
        <time>2012-09-02T10:42:41.000Z</time>
      </trkpt>
      <trkpt lat="42.96329" lon="0.673">
        <ele>964.59997558594</ele>
        <time>2012-09-02T10:42:44.000Z</time>
      </trkpt>
      <trkpt lat="42.96342" lon="0.67281">
        <ele>959.20001220703</ele>
        <time>2012-09-02T10:42:48.000Z</time>
      </trkpt>
      <trkpt lat="42.96352" lon="0.6726">
        <ele>954.79998779297</ele>
        <time>2012-09-02T10:42:52.000Z</time>
      </trkpt>
      <trkpt lat="42.96365" lon="0.67239">
        <ele>948</ele>
        <time>2012-09-02T10:42:57.000Z</time>
      </trkpt>
      <trkpt lat="42.96367" lon="0.67236">
        <ele>946.79998779297</ele>
        <time>2012-09-02T10:42:58.000Z</time>
      </trkpt>
      <trkpt lat="42.96373" lon="0.67218">
        <ele>942.59997558594</ele>
        <time>2012-09-02T10:43:03.000Z</time>
      </trkpt>
      <trkpt lat="42.96375" lon="0.67208">
        <ele>941</ele>
        <time>2012-09-02T10:43:05.000Z</time>
      </trkpt>
      <trkpt lat="42.96375" lon="0.67189">
        <ele>939.40002441406</ele>
        <time>2012-09-02T10:43:08.000Z</time>
      </trkpt>
      <trkpt lat="42.96375" lon="0.67169">
        <ele>938</ele>
        <time>2012-09-02T10:43:11.000Z</time>
      </trkpt>
      <trkpt lat="42.9638" lon="0.67145">
        <ele>933.59997558594</ele>
        <time>2012-09-02T10:43:15.000Z</time>
      </trkpt>
      <trkpt lat="42.9639" lon="0.67121">
        <ele>926.59997558594</ele>
        <time>2012-09-02T10:43:20.000Z</time>
      </trkpt>
      <trkpt lat="42.96399" lon="0.67111">
        <ele>922.20001220703</ele>
        <time>2012-09-02T10:43:23.000Z</time>
      </trkpt>
      <trkpt lat="42.96406" lon="0.67111">
        <ele>919</ele>
        <time>2012-09-02T10:43:25.000Z</time>
      </trkpt>
      <trkpt lat="42.96423" lon="0.67122">
        <ele>912.79998779297</ele>
        <time>2012-09-02T10:43:31.000Z</time>
      </trkpt>
      <trkpt lat="42.96428" lon="0.67121">
        <ele>910.79998779297</ele>
        <time>2012-09-02T10:43:35.000Z</time>
      </trkpt>
      <trkpt lat="42.96428" lon="0.67123">
        <ele>910.79998779297</ele>
        <time>2012-09-02T10:43:39.000Z</time>
      </trkpt>
      <trkpt lat="42.96428" lon="0.67126">
        <ele>911</ele>
        <time>2012-09-02T10:43:45.000Z</time>
      </trkpt>
      <trkpt lat="42.96432" lon="0.67129">
        <ele>909.79998779297</ele>
        <time>2012-09-02T10:43:51.000Z</time>
      </trkpt>
      <trkpt lat="42.96434" lon="0.6713">
        <ele>909</ele>
        <time>2012-09-02T10:43:54.000Z</time>
      </trkpt>
      <trkpt lat="42.96443" lon="0.67139">
        <ele>906</ele>
        <time>2012-09-02T10:44:10.000Z</time>
      </trkpt>
      <trkpt lat="42.96453" lon="0.67144">
        <ele>902.59997558594</ele>
        <time>2012-09-02T10:44:15.000Z</time>
      </trkpt>
      <trkpt lat="42.96476" lon="0.67161">
        <ele>896</ele>
        <time>2012-09-02T10:44:22.000Z</time>
      </trkpt>
      <trkpt lat="42.96482" lon="0.67169">
        <ele>894.59997558594</ele>
        <time>2012-09-02T10:44:25.000Z</time>
      </trkpt>
      <trkpt lat="42.96486" lon="0.67182">
        <ele>893.20001220703</ele>
        <time>2012-09-02T10:44:29.000Z</time>
      </trkpt>
      <trkpt lat="42.96492" lon="0.67195">
        <ele>891.40002441406</ele>
        <time>2012-09-02T10:44:35.000Z</time>
      </trkpt>
      <trkpt lat="42.96497" lon="0.67195">
        <ele>889.40002441406</ele>
        <time>2012-09-02T10:44:39.000Z</time>
      </trkpt>
      <trkpt lat="42.96507" lon="0.6721">
        <ele>886.40002441406</ele>
        <time>2012-09-02T10:44:44.000Z</time>
      </trkpt>
      <trkpt lat="42.96515" lon="0.67223">
        <ele>884.20001220703</ele>
        <time>2012-09-02T10:44:48.000Z</time>
      </trkpt>
      <trkpt lat="42.96529" lon="0.67233">
        <ele>880.79998779297</ele>
        <time>2012-09-02T10:44:54.000Z</time>
      </trkpt>
      <trkpt lat="42.96548" lon="0.67233">
        <ele>875.79998779297</ele>
        <time>2012-09-02T10:45:01.000Z</time>
      </trkpt>
      <trkpt lat="42.96561" lon="0.67216">
        <ele>870.40002441406</ele>
        <time>2012-09-02T10:45:07.000Z</time>
      </trkpt>
      <trkpt lat="42.96566" lon="0.67202">
        <ele>867.59997558594</ele>
        <time>2012-09-02T10:45:11.000Z</time>
      </trkpt>
      <trkpt lat="42.9657" lon="0.67185">
        <ele>864.59997558594</ele>
        <time>2012-09-02T10:45:15.000Z</time>
      </trkpt>
      <trkpt lat="42.96578" lon="0.67169">
        <ele>860.20001220703</ele>
        <time>2012-09-02T10:45:20.000Z</time>
      </trkpt>
      <trkpt lat="42.9658" lon="0.67163">
        <ele>858.40002441406</ele>
        <time>2012-09-02T10:45:22.000Z</time>
      </trkpt>
      <trkpt lat="42.96583" lon="0.67153">
        <ele>855.79998779297</ele>
        <time>2012-09-02T10:45:27.000Z</time>
      </trkpt>
      <trkpt lat="42.96584" lon="0.67136">
        <ele>852.20001220703</ele>
        <time>2012-09-02T10:45:36.000Z</time>
      </trkpt>
      <trkpt lat="42.96582" lon="0.67132">
        <ele>851.79998779297</ele>
        <time>2012-09-02T10:45:46.000Z</time>
      </trkpt>
      <trkpt lat="42.9658" lon="0.67128">
        <ele>851.79998779297</ele>
        <time>2012-09-02T10:45:53.000Z</time>
      </trkpt>
      <trkpt lat="42.96578" lon="0.67123">
        <ele>851.59997558594</ele>
        <time>2012-09-02T10:45:56.000Z</time>
      </trkpt>
      <trkpt lat="42.96577" lon="0.67119">
        <ele>851.40002441406</ele>
        <time>2012-09-02T10:45:59.000Z</time>
      </trkpt>
      <trkpt lat="42.96573" lon="0.67109">
        <ele>851</ele>
        <time>2012-09-02T10:46:05.000Z</time>
      </trkpt>
      <trkpt lat="42.96566" lon="0.67086">
        <ele>849.59997558594</ele>
        <time>2012-09-02T10:46:11.000Z</time>
      </trkpt>
      <trkpt lat="42.96562" lon="0.67071">
        <ele>849.20001220703</ele>
        <time>2012-09-02T10:46:14.000Z</time>
      </trkpt>
      <trkpt lat="42.96563" lon="0.67058">
        <ele>847.20001220703</ele>
        <time>2012-09-02T10:46:17.000Z</time>
      </trkpt>
      <trkpt lat="42.96555" lon="0.67042">
        <ele>848.20001220703</ele>
        <time>2012-09-02T10:46:22.000Z</time>
      </trkpt>
      <trkpt lat="42.96552" lon="0.67034">
        <ele>848.59997558594</ele>
        <time>2012-09-02T10:46:25.000Z</time>
      </trkpt>
      <trkpt lat="42.96549" lon="0.67009">
        <ele>846.40002441406</ele>
        <time>2012-09-02T10:46:31.000Z</time>
      </trkpt>
      <trkpt lat="42.96548" lon="0.66993">
        <ele>844.79998779297</ele>
        <time>2012-09-02T10:46:35.000Z</time>
      </trkpt>
      <trkpt lat="42.96549" lon="0.66979">
        <ele>842.40002441406</ele>
        <time>2012-09-02T10:46:40.000Z</time>
      </trkpt>
      <trkpt lat="42.96549" lon="0.66978">
        <ele>842.20001220703</ele>
        <time>2012-09-02T10:46:41.000Z</time>
      </trkpt>
      <trkpt lat="42.9655" lon="0.66964">
        <ele>840</ele>
        <time>2012-09-02T10:46:49.000Z</time>
      </trkpt>
      <trkpt lat="42.9656" lon="0.66952">
        <ele>834.59997558594</ele>
        <time>2012-09-02T10:46:54.000Z</time>
      </trkpt>
      <trkpt lat="42.96564" lon="0.66952">
        <ele>833.59997558594</ele>
        <time>2012-09-02T10:46:55.000Z</time>
      </trkpt>
      <trkpt lat="42.96569" lon="0.66953">
        <ele>831.79998779297</ele>
        <time>2012-09-02T10:46:57.000Z</time>
      </trkpt>
      <trkpt lat="42.96582" lon="0.6696">
        <ele>828.40002441406</ele>
        <time>2012-09-02T10:47:02.000Z</time>
      </trkpt>
      <trkpt lat="42.96585" lon="0.66963">
        <ele>827.59997558594</ele>
        <time>2012-09-02T10:47:03.000Z</time>
      </trkpt>
      <trkpt lat="42.96596" lon="0.66975">
        <ele>825.40002441406</ele>
        <time>2012-09-02T10:47:07.000Z</time>
      </trkpt>
      <trkpt lat="42.96617" lon="0.66989">
        <ele>820.20001220703</ele>
        <time>2012-09-02T10:47:13.000Z</time>
      </trkpt>
      <trkpt lat="42.96625" lon="0.66995">
        <ele>817.79998779297</ele>
        <time>2012-09-02T10:47:18.000Z</time>
      </trkpt>
      <trkpt lat="42.96629" lon="0.66995">
        <ele>816.79998779297</ele>
        <time>2012-09-02T10:47:19.000Z</time>
      </trkpt>
      <trkpt lat="42.96642" lon="0.66996">
        <ele>812.40002441406</ele>
        <time>2012-09-02T10:47:23.000Z</time>
      </trkpt>
      <trkpt lat="42.9666" lon="0.66997">
        <ele>806</ele>
        <time>2012-09-02T10:47:28.000Z</time>
      </trkpt>
      <trkpt lat="42.96675" lon="0.66992">
        <ele>800.79998779297</ele>
        <time>2012-09-02T10:47:33.000Z</time>
      </trkpt>
      <trkpt lat="42.96691" lon="0.66989">
        <ele>796.20001220703</ele>
        <time>2012-09-02T10:47:38.000Z</time>
      </trkpt>
      <trkpt lat="42.96701" lon="0.66991">
        <ele>793.20001220703</ele>
        <time>2012-09-02T10:47:41.000Z</time>
      </trkpt>
      <trkpt lat="42.96709" lon="0.67003">
        <ele>792</ele>
        <time>2012-09-02T10:47:46.000Z</time>
      </trkpt>
      <trkpt lat="42.96717" lon="0.66997">
        <ele>789.20001220703</ele>
        <time>2012-09-02T10:47:51.000Z</time>
      </trkpt>
      <trkpt lat="42.96718" lon="0.66995">
        <ele>788.59997558594</ele>
        <time>2012-09-02T10:47:52.000Z</time>
      </trkpt>
      <trkpt lat="42.96731" lon="0.66978">
        <ele>783.20001220703</ele>
        <time>2012-09-02T10:47:57.000Z</time>
      </trkpt>
      <trkpt lat="42.96739" lon="0.66959">
        <ele>778.79998779297</ele>
        <time>2012-09-02T10:48:02.000Z</time>
      </trkpt>
      <trkpt lat="42.96747" lon="0.66944">
        <ele>774.79998779297</ele>
        <time>2012-09-02T10:48:06.000Z</time>
      </trkpt>
      <trkpt lat="42.96759" lon="0.66933">
        <ele>770</ele>
        <time>2012-09-02T10:48:11.000Z</time>
      </trkpt>
      <trkpt lat="42.96768" lon="0.66931">
        <ele>766.79998779297</ele>
        <time>2012-09-02T10:48:15.000Z</time>
      </trkpt>
      <trkpt lat="42.96781" lon="0.66927">
        <ele>762.79998779297</ele>
        <time>2012-09-02T10:48:20.000Z</time>
      </trkpt>
      <trkpt lat="42.96791" lon="0.66921">
        <ele>759</ele>
        <time>2012-09-02T10:48:24.000Z</time>
      </trkpt>
      <trkpt lat="42.96794" lon="0.66915">
        <ele>757.40002441406</ele>
        <time>2012-09-02T10:48:30.000Z</time>
      </trkpt>
      <trkpt lat="42.96805" lon="0.66908">
        <ele>752.59997558594</ele>
        <time>2012-09-02T10:48:40.000Z</time>
      </trkpt>
      <trkpt lat="42.96805" lon="0.669">
        <ele>750.79998779297</ele>
        <time>2012-09-02T10:48:44.000Z</time>
      </trkpt>
      <trkpt lat="42.96805" lon="0.66889">
        <ele>748.40002441406</ele>
        <time>2012-09-02T10:48:50.000Z</time>
      </trkpt>
      <trkpt lat="42.96809" lon="0.66882">
        <ele>745.40002441406</ele>
        <time>2012-09-02T10:48:58.000Z</time>
      </trkpt>
      <trkpt lat="42.96812" lon="0.66875">
        <ele>743</ele>
        <time>2012-09-02T10:49:06.000Z</time>
      </trkpt>
      <trkpt lat="42.96813" lon="0.66876">
        <ele>743</ele>
        <time>2012-09-02T10:49:08.000Z</time>
      </trkpt>
      <trkpt lat="42.96826" lon="0.66877">
        <ele>739.59997558594</ele>
        <time>2012-09-02T10:49:23.000Z</time>
      </trkpt>
      <trkpt lat="42.96834" lon="0.66875">
        <ele>736.59997558594</ele>
        <time>2012-09-02T10:49:29.000Z</time>
      </trkpt>
      <trkpt lat="42.96847" lon="0.66875">
        <ele>733.59997558594</ele>
        <time>2012-09-02T10:49:36.000Z</time>
      </trkpt>
      <trkpt lat="42.96855" lon="0.6687">
        <ele>730.79998779297</ele>
        <time>2012-09-02T10:49:42.000Z</time>
      </trkpt>
      <trkpt lat="42.96855" lon="0.6687">
        <ele>730.59997558594</ele>
        <time>2012-09-02T10:49:43.000Z</time>
      </trkpt>
      <trkpt lat="42.96859" lon="0.66864">
        <ele>728.59997558594</ele>
        <time>2012-09-02T10:49:50.000Z</time>
      </trkpt>
      <trkpt lat="42.96863" lon="0.66859">
        <ele>726.79998779297</ele>
        <time>2012-09-02T10:49:56.000Z</time>
      </trkpt>
      <trkpt lat="42.96865" lon="0.66856">
        <ele>725.79998779297</ele>
        <time>2012-09-02T10:49:59.000Z</time>
      </trkpt>
      <trkpt lat="42.96871" lon="0.66848">
        <ele>722.59997558594</ele>
        <time>2012-09-02T10:50:04.000Z</time>
      </trkpt>
      <trkpt lat="42.96879" lon="0.66842">
        <ele>719.79998779297</ele>
        <time>2012-09-02T10:50:12.000Z</time>
      </trkpt>
      <trkpt lat="42.96885" lon="0.66833">
        <ele>716.79998779297</ele>
        <time>2012-09-02T10:50:19.000Z</time>
      </trkpt>
      <trkpt lat="42.96894" lon="0.66823">
        <ele>712.79998779297</ele>
        <time>2012-09-02T10:50:24.000Z</time>
      </trkpt>
      <trkpt lat="42.96904" lon="0.66811">
        <ele>708.20001220703</ele>
        <time>2012-09-02T10:50:30.000Z</time>
      </trkpt>
      <trkpt lat="42.96913" lon="0.66806">
        <ele>705.59997558594</ele>
        <time>2012-09-02T10:50:35.000Z</time>
      </trkpt>
      <trkpt lat="42.96926" lon="0.66796">
        <ele>700.20001220703</ele>
        <time>2012-09-02T10:50:42.000Z</time>
      </trkpt>
      <trkpt lat="42.96927" lon="0.66795">
        <ele>699.40002441406</ele>
        <time>2012-09-02T10:50:46.000Z</time>
      </trkpt>
      <trkpt lat="42.96934" lon="0.6679">
        <ele>696.59997558594</ele>
        <time>2012-09-02T10:52:40.000Z</time>
      </trkpt>
      <trkpt lat="42.96937" lon="0.66785">
        <ele>694.59997558594</ele>
        <time>2012-09-02T10:52:45.000Z</time>
      </trkpt>
      <trkpt lat="42.96947" lon="0.66775">
        <ele>689.59997558594</ele>
        <time>2012-09-02T10:52:57.000Z</time>
      </trkpt>
      <trkpt lat="42.96953" lon="0.6677">
        <ele>686.79998779297</ele>
        <time>2012-09-02T10:53:03.000Z</time>
      </trkpt>
      <trkpt lat="42.96959" lon="0.66768">
        <ele>684.59997558594</ele>
        <time>2012-09-02T10:53:07.000Z</time>
      </trkpt>
      <trkpt lat="42.96971" lon="0.66767">
        <ele>680.79998779297</ele>
        <time>2012-09-02T10:53:14.000Z</time>
      </trkpt>
      <trkpt lat="42.96979" lon="0.66761">
        <ele>676.59997558594</ele>
        <time>2012-09-02T10:53:20.000Z</time>
      </trkpt>
      <trkpt lat="42.96983" lon="0.66759">
        <ele>675.20001220703</ele>
        <time>2012-09-02T10:53:23.000Z</time>
      </trkpt>
      <trkpt lat="42.96993" lon="0.66757">
        <ele>671.59997558594</ele>
        <time>2012-09-02T10:53:36.000Z</time>
      </trkpt>
      <trkpt lat="42.97005" lon="0.66753">
        <ele>667.40002441406</ele>
        <time>2012-09-02T10:53:41.000Z</time>
      </trkpt>
      <trkpt lat="42.97017" lon="0.6675">
        <ele>663.20001220703</ele>
        <time>2012-09-02T10:53:46.000Z</time>
      </trkpt>
      <trkpt lat="42.97031" lon="0.66746">
        <ele>657.79998779297</ele>
        <time>2012-09-02T10:53:51.000Z</time>
      </trkpt>
      <trkpt lat="42.97038" lon="0.66742">
        <ele>654.59997558594</ele>
        <time>2012-09-02T10:53:54.000Z</time>
      </trkpt>
      <trkpt lat="42.9704" lon="0.66738">
        <ele>653</ele>
        <time>2012-09-02T10:53:57.000Z</time>
      </trkpt>
      <trkpt lat="42.97032" lon="0.66734">
        <ele>653.59997558594</ele>
        <time>2012-09-02T10:54:04.000Z</time>
      </trkpt>
      <trkpt lat="42.97023" lon="0.66733">
        <ele>655.59997558594</ele>
        <time>2012-09-02T10:54:09.000Z</time>
      </trkpt>
      <trkpt lat="42.97012" lon="0.6673">
        <ele>657.40002441406</ele>
        <time>2012-09-02T10:54:15.000Z</time>
      </trkpt>
      <trkpt lat="42.97004" lon="0.66727">
        <ele>658.20001220703</ele>
        <time>2012-09-02T10:54:20.000Z</time>
      </trkpt>
      <trkpt lat="42.96997" lon="0.66725">
        <ele>659</ele>
        <time>2012-09-02T10:54:23.000Z</time>
      </trkpt>
      <trkpt lat="42.96987" lon="0.6672">
        <ele>660.40002441406</ele>
        <time>2012-09-02T10:54:29.000Z</time>
      </trkpt>
      <trkpt lat="42.96975" lon="0.66716">
        <ele>662.79998779297</ele>
        <time>2012-09-02T10:54:36.000Z</time>
      </trkpt>
      <trkpt lat="42.96966" lon="0.66713">
        <ele>664.20001220703</ele>
        <time>2012-09-02T10:54:42.000Z</time>
      </trkpt>
      <trkpt lat="42.96956" lon="0.66707">
        <ele>665</ele>
        <time>2012-09-02T10:54:48.000Z</time>
      </trkpt>
      <trkpt lat="42.9694" lon="0.66699">
        <ele>667</ele>
        <time>2012-09-02T10:54:55.000Z</time>
      </trkpt>
      <trkpt lat="42.96936" lon="0.66695">
        <ele>667</ele>
        <time>2012-09-02T10:54:58.000Z</time>
      </trkpt>
      <trkpt lat="42.9692" lon="0.66689">
        <ele>669.59997558594</ele>
        <time>2012-09-02T10:55:06.000Z</time>
      </trkpt>
      <trkpt lat="42.96908" lon="0.66682">
        <ele>670.20001220703</ele>
        <time>2012-09-02T10:55:13.000Z</time>
      </trkpt>
      <trkpt lat="42.96898" lon="0.66677">
        <ele>671</ele>
        <time>2012-09-02T10:55:19.000Z</time>
      </trkpt>
      <trkpt lat="42.96889" lon="0.66673">
        <ele>671.59997558594</ele>
        <time>2012-09-02T10:55:24.000Z</time>
      </trkpt>
      <trkpt lat="42.96874" lon="0.66667">
        <ele>674</ele>
        <time>2012-09-02T10:55:31.000Z</time>
      </trkpt>
      <trkpt lat="42.96864" lon="0.66664">
        <ele>675.59997558594</ele>
        <time>2012-09-02T10:55:37.000Z</time>
      </trkpt>
      <trkpt lat="42.96848" lon="0.66658">
        <ele>677.59997558594</ele>
        <time>2012-09-02T10:55:44.000Z</time>
      </trkpt>
      <trkpt lat="42.96842" lon="0.66661">
        <ele>680.40002441406</ele>
        <time>2012-09-02T10:55:50.000Z</time>
      </trkpt>
      <trkpt lat="42.96837" lon="0.66662">
        <ele>682.20001220703</ele>
        <time>2012-09-02T10:55:53.000Z</time>
      </trkpt>
      <trkpt lat="42.96836" lon="0.6666">
        <ele>681.79998779297</ele>
        <time>2012-09-02T10:55:57.000Z</time>
      </trkpt>
      <trkpt lat="42.96826" lon="0.66651">
        <ele>679.59997558594</ele>
        <time>2012-09-02T10:56:04.000Z</time>
      </trkpt>
      <trkpt lat="42.96821" lon="0.66649">
        <ele>679.20001220703</ele>
        <time>2012-09-02T10:56:07.000Z</time>
      </trkpt>
      <trkpt lat="42.96817" lon="0.66646">
        <ele>678.40002441406</ele>
        <time>2012-09-02T10:56:09.000Z</time>
      </trkpt>
      <trkpt lat="42.96797" lon="0.66645">
        <ele>679.79998779297</ele>
        <time>2012-09-02T10:56:17.000Z</time>
      </trkpt>
      <trkpt lat="42.96787" lon="0.66641">
        <ele>679.59997558594</ele>
        <time>2012-09-02T10:56:22.000Z</time>
      </trkpt>
      <trkpt lat="42.96773" lon="0.66636">
        <ele>679.20001220703</ele>
        <time>2012-09-02T10:56:28.000Z</time>
      </trkpt>
      <trkpt lat="42.96761" lon="0.66632">
        <ele>678.40002441406</ele>
        <time>2012-09-02T10:56:33.000Z</time>
      </trkpt>
      <trkpt lat="42.96749" lon="0.66625">
        <ele>677.40002441406</ele>
        <time>2012-09-02T10:56:38.000Z</time>
      </trkpt>
      <trkpt lat="42.96731" lon="0.66616">
        <ele>677.40002441406</ele>
        <time>2012-09-02T10:56:42.000Z</time>
      </trkpt>
      <trkpt lat="42.96722" lon="0.66611">
        <ele>676.79998779297</ele>
        <time>2012-09-02T10:56:44.000Z</time>
      </trkpt>
      <trkpt lat="42.96708" lon="0.66609">
        <ele>678.79998779297</ele>
        <time>2012-09-02T10:56:48.000Z</time>
      </trkpt>
      <trkpt lat="42.96698" lon="0.66599">
        <ele>676.79998779297</ele>
        <time>2012-09-02T10:56:54.000Z</time>
      </trkpt>
      <trkpt lat="42.9668" lon="0.66582">
        <ele>672</ele>
        <time>2012-09-02T10:56:59.000Z</time>
      </trkpt>
      <trkpt lat="42.96662" lon="0.66568">
        <ele>668.79998779297</ele>
        <time>2012-09-02T10:57:04.000Z</time>
      </trkpt>
      <trkpt lat="42.96659" lon="0.66565">
        <ele>668.20001220703</ele>
        <time>2012-09-02T10:57:05.000Z</time>
      </trkpt>
      <trkpt lat="42.96636" lon="0.66545">
        <ele>663.59997558594</ele>
        <time>2012-09-02T10:57:10.000Z</time>
      </trkpt>
      <trkpt lat="42.96625" lon="0.66533">
        <ele>659.79998779297</ele>
        <time>2012-09-02T10:57:14.000Z</time>
      </trkpt>
      <trkpt lat="42.96618" lon="0.66524">
        <ele>657.20001220703</ele>
        <time>2012-09-02T10:57:18.000Z</time>
      </trkpt>
      <trkpt lat="42.96615" lon="0.66523">
        <ele>657</ele>
        <time>2012-09-02T10:57:22.000Z</time>
      </trkpt>
      <trkpt lat="42.96614" lon="0.66523">
        <ele>657.20001220703</ele>
        <time>2012-09-02T10:57:23.000Z</time>
      </trkpt>
      <trkpt lat="42.96603" lon="0.66505">
        <ele>650.59997558594</ele>
        <time>2012-09-02T10:58:41.000Z</time>
      </trkpt>
      <trkpt lat="42.96598" lon="0.66504">
        <ele>651</ele>
        <time>2012-09-02T10:58:45.000Z</time>
      </trkpt>
      <trkpt lat="42.96588" lon="0.66505">
        <ele>653.40002441406</ele>
        <time>2012-09-02T10:58:51.000Z</time>
      </trkpt>
      <trkpt lat="42.96577" lon="0.66505">
        <ele>655.40002441406</ele>
        <time>2012-09-02T10:58:57.000Z</time>
      </trkpt>
      <trkpt lat="42.96561" lon="0.66509">
        <ele>658.79998779297</ele>
        <time>2012-09-02T10:59:04.000Z</time>
      </trkpt>
      <trkpt lat="42.96544" lon="0.6651">
        <ele>661.20001220703</ele>
        <time>2012-09-02T10:59:10.000Z</time>
      </trkpt>
      <trkpt lat="42.96527" lon="0.66508">
        <ele>661.79998779297</ele>
        <time>2012-09-02T10:59:16.000Z</time>
      </trkpt>
      <trkpt lat="42.9651" lon="0.66505">
        <ele>662.20001220703</ele>
        <time>2012-09-02T10:59:22.000Z</time>
      </trkpt>
      <trkpt lat="42.965" lon="0.66501">
        <ele>661.59997558594</ele>
        <time>2012-09-02T10:59:26.000Z</time>
      </trkpt>
      <trkpt lat="42.96487" lon="0.665">
        <ele>662</ele>
        <time>2012-09-02T10:59:31.000Z</time>
      </trkpt>
      <trkpt lat="42.96469" lon="0.665">
        <ele>663</ele>
        <time>2012-09-02T10:59:37.000Z</time>
      </trkpt>
      <trkpt lat="42.96456" lon="0.665">
        <ele>664.20001220703</ele>
        <time>2012-09-02T10:59:43.000Z</time>
      </trkpt>
      <trkpt lat="42.96444" lon="0.665">
        <ele>665.20001220703</ele>
        <time>2012-09-02T10:59:50.000Z</time>
      </trkpt>
      <trkpt lat="42.96433" lon="0.66499">
        <ele>665.59997558594</ele>
        <time>2012-09-02T10:59:56.000Z</time>
      </trkpt>
      <trkpt lat="42.96423" lon="0.66502">
        <ele>667.20001220703</ele>
        <time>2012-09-02T11:00:02.000Z</time>
      </trkpt>
      <trkpt lat="42.96413" lon="0.66503">
        <ele>669</ele>
        <time>2012-09-02T11:00:09.000Z</time>
      </trkpt>
      <trkpt lat="42.96404" lon="0.66501">
        <ele>669.40002441406</ele>
        <time>2012-09-02T11:00:14.000Z</time>
      </trkpt>
      <trkpt lat="42.9639" lon="0.66504">
        <ele>672.20001220703</ele>
        <time>2012-09-02T11:00:20.000Z</time>
      </trkpt>
      <trkpt lat="42.96378" lon="0.66502">
        <ele>672.79998779297</ele>
        <time>2012-09-02T11:00:25.000Z</time>
      </trkpt>
      <trkpt lat="42.96375" lon="0.66501">
        <ele>672.79998779297</ele>
        <time>2012-09-02T11:00:27.000Z</time>
      </trkpt>
      <trkpt lat="42.96372" lon="0.66491">
        <ele>670.20001220703</ele>
        <time>2012-09-02T11:00:31.000Z</time>
      </trkpt>
      <trkpt lat="42.96365" lon="0.66472">
        <ele>666.20001220703</ele>
        <time>2012-09-02T11:00:35.000Z</time>
      </trkpt>
      <trkpt lat="42.9637" lon="0.66464">
        <ele>663</ele>
        <time>2012-09-02T11:00:40.000Z</time>
      </trkpt>
      <trkpt lat="42.96388" lon="0.6646">
        <ele>658.20001220703</ele>
        <time>2012-09-02T11:00:46.000Z</time>
      </trkpt>
      <trkpt lat="42.96406" lon="0.66462">
        <ele>655.20001220703</ele>
        <time>2012-09-02T11:00:51.000Z</time>
      </trkpt>
      <trkpt lat="42.96424" lon="0.66464">
        <ele>653.20001220703</ele>
        <time>2012-09-02T11:00:57.000Z</time>
      </trkpt>
      <trkpt lat="42.96437" lon="0.66462">
        <ele>651</ele>
        <time>2012-09-02T11:01:01.000Z</time>
      </trkpt>
      <trkpt lat="42.96455" lon="0.66458">
        <ele>646.79998779297</ele>
        <time>2012-09-02T11:01:07.000Z</time>
      </trkpt>
      <trkpt lat="42.96467" lon="0.66449">
        <ele>641.40002441406</ele>
        <time>2012-09-02T11:01:12.000Z</time>
      </trkpt>
      <trkpt lat="42.9648" lon="0.6644">
        <ele>635.40002441406</ele>
        <time>2012-09-02T11:01:17.000Z</time>
      </trkpt>
      <trkpt lat="42.96498" lon="0.66433">
        <ele>629.20001220703</ele>
        <time>2012-09-02T11:01:23.000Z</time>
      </trkpt>
      <trkpt lat="42.96514" lon="0.66429">
        <ele>625.40002441406</ele>
        <time>2012-09-02T11:01:29.000Z</time>
      </trkpt>
      <trkpt lat="42.96527" lon="0.66427">
        <ele>623.20001220703</ele>
        <time>2012-09-02T11:01:34.000Z</time>
      </trkpt>
      <trkpt lat="42.96529" lon="0.66426">
        <ele>622.59997558594</ele>
        <time>2012-09-02T11:01:35.000Z</time>
      </trkpt>
      <trkpt lat="42.96532" lon="0.66421">
        <ele>619.59997558594</ele>
        <time>2012-09-02T11:01:40.000Z</time>
      </trkpt>
      <trkpt lat="42.96545" lon="0.66439">
        <ele>627</ele>
        <time>2012-09-02T11:02:11.000Z</time>
      </trkpt>
      <trkpt lat="42.96548" lon="0.66433">
        <ele>623.79998779297</ele>
        <time>2012-09-02T11:02:14.000Z</time>
      </trkpt>
      <trkpt lat="42.96552" lon="0.66414">
        <ele>614.40002441406</ele>
        <time>2012-09-02T11:02:19.000Z</time>
      </trkpt>
      <trkpt lat="42.96553" lon="0.66402">
        <ele>610</ele>
        <time>2012-09-02T11:02:22.000Z</time>
      </trkpt>
      <trkpt lat="42.96541" lon="0.66378">
        <ele>603.20001220703</ele>
        <time>2012-09-02T11:02:27.000Z</time>
      </trkpt>
      <trkpt lat="42.96532" lon="0.66341">
        <ele>591.40002441406</ele>
        <time>2012-09-02T11:02:34.000Z</time>
      </trkpt>
      <trkpt lat="42.96532" lon="0.66336">
        <ele>589.79998779297</ele>
        <time>2012-09-02T11:02:35.000Z</time>
      </trkpt>
      <trkpt lat="42.96546" lon="0.6633">
        <ele>585.79998779297</ele>
        <time>2012-09-02T11:02:40.000Z</time>
      </trkpt>
      <trkpt lat="42.96563" lon="0.6634">
        <ele>587</ele>
        <time>2012-09-02T11:02:46.000Z</time>
      </trkpt>
      <trkpt lat="42.96578" lon="0.66347">
        <ele>587.79998779297</ele>
        <time>2012-09-02T11:02:51.000Z</time>
      </trkpt>
      <trkpt lat="42.9659" lon="0.66354">
        <ele>588.20001220703</ele>
        <time>2012-09-02T11:02:59.000Z</time>
      </trkpt>
      <trkpt lat="42.96596" lon="0.66358">
        <ele>588.59997558594</ele>
        <time>2012-09-02T11:03:05.000Z</time>
      </trkpt>
      <trkpt lat="42.96599" lon="0.66362">
        <ele>589.40002441406</ele>
        <time>2012-09-02T11:03:08.000Z</time>
      </trkpt>
      <trkpt lat="42.96608" lon="0.6637">
        <ele>590.40002441406</ele>
        <time>2012-09-02T11:03:16.000Z</time>
      </trkpt>
      <trkpt lat="42.96616" lon="0.6638">
        <ele>592</ele>
        <time>2012-09-02T11:03:20.000Z</time>
      </trkpt>
      <trkpt lat="42.96635" lon="0.66396">
        <ele>593.79998779297</ele>
        <time>2012-09-02T11:03:27.000Z</time>
      </trkpt>
      <trkpt lat="42.96645" lon="0.66397">
        <ele>592.40002441406</ele>
        <time>2012-09-02T11:03:30.000Z</time>
      </trkpt>
      <trkpt lat="42.96668" lon="0.66402">
        <ele>589.20001220703</ele>
        <time>2012-09-02T11:03:34.000Z</time>
      </trkpt>
      <trkpt lat="42.96699" lon="0.66404">
        <ele>588</ele>
        <time>2012-09-02T11:03:39.000Z</time>
      </trkpt>
      <trkpt lat="42.96717" lon="0.66399">
        <ele>585.20001220703</ele>
        <time>2012-09-02T11:03:44.000Z</time>
      </trkpt>
      <trkpt lat="42.96732" lon="0.66389">
        <ele>580.59997558594</ele>
        <time>2012-09-02T11:03:49.000Z</time>
      </trkpt>
      <trkpt lat="42.96754" lon="0.66367">
        <ele>571.79998779297</ele>
        <time>2012-09-02T11:03:56.000Z</time>
      </trkpt>
      <trkpt lat="42.96764" lon="0.66356">
        <ele>568</ele>
        <time>2012-09-02T11:04:00.000Z</time>
      </trkpt>
      <trkpt lat="42.96774" lon="0.66349">
        <ele>566</ele>
        <time>2012-09-02T11:04:06.000Z</time>
      </trkpt>
      <trkpt lat="42.96784" lon="0.66339">
        <ele>563</ele>
        <time>2012-09-02T11:04:11.000Z</time>
      </trkpt>
      <trkpt lat="42.96807" lon="0.6632">
        <ele>558.79998779297</ele>
        <time>2012-09-02T11:04:16.000Z</time>
      </trkpt>
      <trkpt lat="42.96823" lon="0.66317">
        <ele>558.40002441406</ele>
        <time>2012-09-02T11:04:20.000Z</time>
      </trkpt>
      <trkpt lat="42.96846" lon="0.66308">
        <ele>556.59997558594</ele>
        <time>2012-09-02T11:04:25.000Z</time>
      </trkpt>
      <trkpt lat="42.96856" lon="0.66304">
        <ele>556</ele>
        <time>2012-09-02T11:04:29.000Z</time>
      </trkpt>
      <trkpt lat="42.96862" lon="0.66313">
        <ele>558.20001220703</ele>
        <time>2012-09-02T11:04:34.000Z</time>
      </trkpt>
      <trkpt lat="42.96871" lon="0.66325">
        <ele>561.20001220703</ele>
        <time>2012-09-02T11:04:41.000Z</time>
      </trkpt>
      <trkpt lat="42.9688" lon="0.66337">
        <ele>563.59997558594</ele>
        <time>2012-09-02T11:04:49.000Z</time>
      </trkpt>
      <trkpt lat="42.96887" lon="0.66345">
        <ele>565</ele>
        <time>2012-09-02T11:04:56.000Z</time>
      </trkpt>
      <trkpt lat="42.96888" lon="0.66346">
        <ele>565.20001220703</ele>
        <time>2012-09-02T11:04:57.000Z</time>
      </trkpt>
      <trkpt lat="42.96895" lon="0.66355">
        <ele>566.59997558594</ele>
        <time>2012-09-02T11:05:04.000Z</time>
      </trkpt>
      <trkpt lat="42.96897" lon="0.66359">
        <ele>567.20001220703</ele>
        <time>2012-09-02T11:05:09.000Z</time>
      </trkpt>
      <trkpt lat="42.96904" lon="0.66368">
        <ele>568.40002441406</ele>
        <time>2012-09-02T11:05:17.000Z</time>
      </trkpt>
      <trkpt lat="42.96904" lon="0.6637">
        <ele>568.59997558594</ele>
        <time>2012-09-02T11:05:18.000Z</time>
      </trkpt>
      <trkpt lat="42.96906" lon="0.66376">
        <ele>569.20001220703</ele>
        <time>2012-09-02T11:05:22.000Z</time>
      </trkpt>
      <trkpt lat="42.96914" lon="0.66386">
        <ele>570.20001220703</ele>
        <time>2012-09-02T11:05:29.000Z</time>
      </trkpt>
      <trkpt lat="42.96912" lon="0.66388">
        <ele>570.59997558594</ele>
        <time>2012-09-02T11:05:32.000Z</time>
      </trkpt>
      <trkpt lat="42.9692" lon="0.66394">
        <ele>571</ele>
        <time>2012-09-02T11:05:41.000Z</time>
      </trkpt>
      <trkpt lat="42.96921" lon="0.66402">
        <ele>572</ele>
        <time>2012-09-02T11:05:49.000Z</time>
      </trkpt>
      <trkpt lat="42.9692" lon="0.66405">
        <ele>572.40002441406</ele>
        <time>2012-09-02T11:05:53.000Z</time>
      </trkpt>
      <trkpt lat="42.96919" lon="0.6641">
        <ele>573</ele>
        <time>2012-09-02T11:05:58.000Z</time>
      </trkpt>
      <trkpt lat="42.96921" lon="0.66416">
        <ele>573.59997558594</ele>
        <time>2012-09-02T11:06:03.000Z</time>
      </trkpt>
      <trkpt lat="42.96922" lon="0.66417">
        <ele>573.79998779297</ele>
        <time>2012-09-02T11:06:04.000Z</time>
      </trkpt>
      <trkpt lat="42.96925" lon="0.66426">
        <ele>576</ele>
        <time>2012-09-02T11:06:09.000Z</time>
      </trkpt>
      <trkpt lat="42.96931" lon="0.66434">
        <ele>577.79998779297</ele>
        <time>2012-09-02T11:06:16.000Z</time>
      </trkpt>
      <trkpt lat="42.96946" lon="0.66445">
        <ele>579.40002441406</ele>
        <time>2012-09-02T11:06:25.000Z</time>
      </trkpt>
      <trkpt lat="42.96951" lon="0.66451">
        <ele>580.40002441406</ele>
        <time>2012-09-02T11:06:29.000Z</time>
      </trkpt>
      <trkpt lat="42.96959" lon="0.66464">
        <ele>582.79998779297</ele>
        <time>2012-09-02T11:06:36.000Z</time>
      </trkpt>
      <trkpt lat="42.96966" lon="0.66474">
        <ele>584.20001220703</ele>
        <time>2012-09-02T11:06:43.000Z</time>
      </trkpt>
      <trkpt lat="42.96971" lon="0.66479">
        <ele>584.59997558594</ele>
        <time>2012-09-02T11:06:48.000Z</time>
      </trkpt>
      <trkpt lat="42.96983" lon="0.6649">
        <ele>585.40002441406</ele>
        <time>2012-09-02T11:06:58.000Z</time>
      </trkpt>
      <trkpt lat="42.96991" lon="0.66498">
        <ele>585.79998779297</ele>
        <time>2012-09-02T11:07:05.000Z</time>
      </trkpt>
      <trkpt lat="42.97001" lon="0.66501">
        <ele>585.40002441406</ele>
        <time>2012-09-02T11:07:11.000Z</time>
      </trkpt>
      <trkpt lat="42.97011" lon="0.66505">
        <ele>586.20001220703</ele>
        <time>2012-09-02T11:07:17.000Z</time>
      </trkpt>
      <trkpt lat="42.97024" lon="0.66506">
        <ele>586.59997558594</ele>
        <time>2012-09-02T11:07:24.000Z</time>
      </trkpt>
      <trkpt lat="42.97039" lon="0.66506">
        <ele>586.40002441406</ele>
        <time>2012-09-02T11:07:31.000Z</time>
      </trkpt>
      <trkpt lat="42.97058" lon="0.66503">
        <ele>585.79998779297</ele>
        <time>2012-09-02T11:07:39.000Z</time>
      </trkpt>
      <trkpt lat="42.97076" lon="0.66504">
        <ele>585.79998779297</ele>
        <time>2012-09-02T11:07:48.000Z</time>
      </trkpt>
      <trkpt lat="42.97079" lon="0.66505">
        <ele>586</ele>
        <time>2012-09-02T11:07:52.000Z</time>
      </trkpt>
      <trkpt lat="42.97089" lon="0.66493">
        <ele>584.40002441406</ele>
        <time>2012-09-02T11:10:13.000Z</time>
      </trkpt>
      <trkpt lat="42.9711" lon="0.66486">
        <ele>584.59997558594</ele>
        <time>2012-09-02T11:10:22.000Z</time>
      </trkpt>
      <trkpt lat="42.97126" lon="0.66477">
        <ele>584.40002441406</ele>
        <time>2012-09-02T11:10:29.000Z</time>
      </trkpt>
      <trkpt lat="42.97138" lon="0.66472">
        <ele>584.20001220703</ele>
        <time>2012-09-02T11:10:35.000Z</time>
      </trkpt>
      <trkpt lat="42.97155" lon="0.66468">
        <ele>584.79998779297</ele>
        <time>2012-09-02T11:10:43.000Z</time>
      </trkpt>
      <trkpt lat="42.97163" lon="0.66471">
        <ele>585.59997558594</ele>
        <time>2012-09-02T11:10:46.000Z</time>
      </trkpt>
      <trkpt lat="42.97165" lon="0.66489">
        <ele>588.40002441406</ele>
        <time>2012-09-02T11:10:52.000Z</time>
      </trkpt>
      <trkpt lat="42.97166" lon="0.665">
        <ele>590</ele>
        <time>2012-09-02T11:10:56.000Z</time>
      </trkpt>
      <trkpt lat="42.97165" lon="0.66523">
        <ele>593.20001220703</ele>
        <time>2012-09-02T11:11:04.000Z</time>
      </trkpt>
      <trkpt lat="42.97168" lon="0.6654">
        <ele>595.79998779297</ele>
        <time>2012-09-02T11:11:10.000Z</time>
      </trkpt>
      <trkpt lat="42.97179" lon="0.66554">
        <ele>598</ele>
        <time>2012-09-02T11:11:17.000Z</time>
      </trkpt>
      <trkpt lat="42.97194" lon="0.66557">
        <ele>598.40002441406</ele>
        <time>2012-09-02T11:11:24.000Z</time>
      </trkpt>
      <trkpt lat="42.97209" lon="0.66557">
        <ele>598.59997558594</ele>
        <time>2012-09-02T11:11:32.000Z</time>
      </trkpt>
      <trkpt lat="42.97228" lon="0.66561">
        <ele>599</ele>
        <time>2012-09-02T11:11:39.000Z</time>
      </trkpt>
      <trkpt lat="42.97254" lon="0.6657">
        <ele>599.79998779297</ele>
        <time>2012-09-02T11:11:46.000Z</time>
      </trkpt>
      <trkpt lat="42.97274" lon="0.66576">
        <ele>600.20001220703</ele>
        <time>2012-09-02T11:11:50.000Z</time>
      </trkpt>
      <trkpt lat="42.97291" lon="0.66576">
        <ele>600</ele>
        <time>2012-09-02T11:11:53.000Z</time>
      </trkpt>
      <trkpt lat="42.97315" lon="0.66591">
        <ele>600.20001220703</ele>
        <time>2012-09-02T11:11:57.000Z</time>
      </trkpt>
      <trkpt lat="42.97329" lon="0.66604">
        <ele>599.79998779297</ele>
        <time>2012-09-02T11:12:01.000Z</time>
      </trkpt>
      <trkpt lat="42.97335" lon="0.66605">
        <ele>599.79998779297</ele>
        <time>2012-09-02T11:12:05.000Z</time>
      </trkpt>
      <trkpt lat="42.97336" lon="0.66609">
        <ele>599.59997558594</ele>
        <time>2012-09-02T11:12:12.000Z</time>
      </trkpt>
      <trkpt lat="42.97335" lon="0.66609">
        <ele>599.59997558594</ele>
        <time>2012-09-02T11:12:14.000Z</time>
      </trkpt>
      <trkpt lat="42.97329" lon="0.66606">
        <ele>599.79998779297</ele>
        <time>2012-09-02T11:20:47.000Z</time>
      </trkpt>
      <trkpt lat="42.97336" lon="0.66606">
        <ele>599.59997558594</ele>
        <time>2012-09-02T11:20:53.000Z</time>
      </trkpt>
      <trkpt lat="42.97348" lon="0.66608">
        <ele>599.59997558594</ele>
        <time>2012-09-02T11:20:59.000Z</time>
      </trkpt>
      <trkpt lat="42.97366" lon="0.66608">
        <ele>599.40002441406</ele>
        <time>2012-09-02T11:21:06.000Z</time>
      </trkpt>
      <trkpt lat="42.97383" lon="0.66608">
        <ele>599.20001220703</ele>
        <time>2012-09-02T11:21:13.000Z</time>
      </trkpt>
      <trkpt lat="42.97401" lon="0.66605">
        <ele>599</ele>
        <time>2012-09-02T11:21:19.000Z</time>
      </trkpt>
      <trkpt lat="42.97422" lon="0.66595">
        <ele>599</ele>
        <time>2012-09-02T11:21:26.000Z</time>
      </trkpt>
      <trkpt lat="42.97446" lon="0.66581">
        <ele>599.40002441406</ele>
        <time>2012-09-02T11:21:34.000Z</time>
      </trkpt>
      <trkpt lat="42.97478" lon="0.6656">
        <ele>600.20001220703</ele>
        <time>2012-09-02T11:21:44.000Z</time>
      </trkpt>
      <trkpt lat="42.97498" lon="0.66548">
        <ele>600.79998779297</ele>
        <time>2012-09-02T11:21:50.000Z</time>
      </trkpt>
      <trkpt lat="42.97529" lon="0.66533">
        <ele>600.59997558594</ele>
        <time>2012-09-02T11:21:58.000Z</time>
      </trkpt>
      <trkpt lat="42.97555" lon="0.66516">
        <ele>600.40002441406</ele>
        <time>2012-09-02T11:22:05.000Z</time>
      </trkpt>
      <trkpt lat="42.97581" lon="0.665">
        <ele>600</ele>
        <time>2012-09-02T11:22:12.000Z</time>
      </trkpt>
      <trkpt lat="42.97611" lon="0.66486">
        <ele>599.59997558594</ele>
        <time>2012-09-02T11:22:19.000Z</time>
      </trkpt>
      <trkpt lat="42.97642" lon="0.66468">
        <ele>598.59997558594</ele>
        <time>2012-09-02T11:22:27.000Z</time>
      </trkpt>
      <trkpt lat="42.97654" lon="0.66453">
        <ele>597.59997558594</ele>
        <time>2012-09-02T11:22:32.000Z</time>
      </trkpt>
      <trkpt lat="42.97661" lon="0.66442">
        <ele>597</ele>
        <time>2012-09-02T11:22:34.000Z</time>
      </trkpt>
      <trkpt lat="42.97684" lon="0.66393">
        <ele>594.20001220703</ele>
        <time>2012-09-02T11:22:41.000Z</time>
      </trkpt>
      <trkpt lat="42.97704" lon="0.66338">
        <ele>590.79998779297</ele>
        <time>2012-09-02T11:22:47.000Z</time>
      </trkpt>
      <trkpt lat="42.97715" lon="0.6633">
        <ele>590.20001220703</ele>
        <time>2012-09-02T11:22:51.000Z</time>
      </trkpt>
      <trkpt lat="42.97738" lon="0.66347">
        <ele>590.59997558594</ele>
        <time>2012-09-02T11:22:58.000Z</time>
      </trkpt>
      <trkpt lat="42.97754" lon="0.66354">
        <ele>591</ele>
        <time>2012-09-02T11:23:03.000Z</time>
      </trkpt>
      <trkpt lat="42.97776" lon="0.66366">
        <ele>592</ele>
        <time>2012-09-02T11:23:09.000Z</time>
      </trkpt>
      <trkpt lat="42.9778" lon="0.66367">
        <ele>592.40002441406</ele>
        <time>2012-09-02T11:23:10.000Z</time>
      </trkpt>
      <trkpt lat="42.978" lon="0.66354">
        <ele>592.59997558594</ele>
        <time>2012-09-02T11:23:15.000Z</time>
      </trkpt>
      <trkpt lat="42.97821" lon="0.66335">
        <ele>592.59997558594</ele>
        <time>2012-09-02T11:23:22.000Z</time>
      </trkpt>
      <trkpt lat="42.97835" lon="0.66334">
        <ele>593</ele>
        <time>2012-09-02T11:23:26.000Z</time>
      </trkpt>
      <trkpt lat="42.97847" lon="0.66351">
        <ele>593.20001220703</ele>
        <time>2012-09-02T11:23:31.000Z</time>
      </trkpt>
      <trkpt lat="42.97854" lon="0.66374">
        <ele>594</ele>
        <time>2012-09-02T11:23:36.000Z</time>
      </trkpt>
      <trkpt lat="42.97863" lon="0.664">
        <ele>595.40002441406</ele>
        <time>2012-09-02T11:23:42.000Z</time>
      </trkpt>
      <trkpt lat="42.97877" lon="0.66422">
        <ele>596.59997558594</ele>
        <time>2012-09-02T11:23:48.000Z</time>
      </trkpt>
      <trkpt lat="42.97894" lon="0.66431">
        <ele>597</ele>
        <time>2012-09-02T11:23:53.000Z</time>
      </trkpt>
      <trkpt lat="42.97909" lon="0.66433">
        <ele>597.20001220703</ele>
        <time>2012-09-02T11:23:57.000Z</time>
      </trkpt>
      <trkpt lat="42.97917" lon="0.66435">
        <ele>597.40002441406</ele>
        <time>2012-09-02T11:23:59.000Z</time>
      </trkpt>
      <trkpt lat="42.9793" lon="0.66444">
        <ele>596</ele>
        <time>2012-09-02T11:24:03.000Z</time>
      </trkpt>
      <trkpt lat="42.97944" lon="0.66464">
        <ele>595.20001220703</ele>
        <time>2012-09-02T11:24:08.000Z</time>
      </trkpt>
      <trkpt lat="42.97959" lon="0.66488">
        <ele>594.79998779297</ele>
        <time>2012-09-02T11:24:12.000Z</time>
      </trkpt>
      <trkpt lat="42.97978" lon="0.66508">
        <ele>593.59997558594</ele>
        <time>2012-09-02T11:24:16.000Z</time>
      </trkpt>
      <trkpt lat="42.97998" lon="0.66549">
        <ele>591</ele>
        <time>2012-09-02T11:24:21.000Z</time>
      </trkpt>
      <trkpt lat="42.97999" lon="0.66559">
        <ele>590.59997558594</ele>
        <time>2012-09-02T11:24:22.000Z</time>
      </trkpt>
      <trkpt lat="42.98011" lon="0.6659">
        <ele>587.79998779297</ele>
        <time>2012-09-02T11:24:26.000Z</time>
      </trkpt>
      <trkpt lat="42.98026" lon="0.66596">
        <ele>585</ele>
        <time>2012-09-02T11:24:29.000Z</time>
      </trkpt>
      <trkpt lat="42.98044" lon="0.66605">
        <ele>582.20001220703</ele>
        <time>2012-09-02T11:24:32.000Z</time>
      </trkpt>
      <trkpt lat="42.9807" lon="0.66616">
        <ele>578.40002441406</ele>
        <time>2012-09-02T11:24:37.000Z</time>
      </trkpt>
      <trkpt lat="42.98084" lon="0.66622">
        <ele>577</ele>
        <time>2012-09-02T11:24:40.000Z</time>
      </trkpt>
      <trkpt lat="42.98114" lon="0.66648">
        <ele>576.40002441406</ele>
        <time>2012-09-02T11:24:45.000Z</time>
      </trkpt>
      <trkpt lat="42.98142" lon="0.66679">
        <ele>577</ele>
        <time>2012-09-02T11:24:50.000Z</time>
      </trkpt>
      <trkpt lat="42.98158" lon="0.66684">
        <ele>577.20001220703</ele>
        <time>2012-09-02T11:24:54.000Z</time>
      </trkpt>
      <trkpt lat="42.98183" lon="0.66679">
        <ele>576.59997558594</ele>
        <time>2012-09-02T11:25:01.000Z</time>
      </trkpt>
      <trkpt lat="42.98193" lon="0.66685">
        <ele>577.20001220703</ele>
        <time>2012-09-02T11:25:05.000Z</time>
      </trkpt>
      <trkpt lat="42.98195" lon="0.66688">
        <ele>577.59997558594</ele>
        <time>2012-09-02T11:25:06.000Z</time>
      </trkpt>
      <trkpt lat="42.98216" lon="0.667">
        <ele>578.59997558594</ele>
        <time>2012-09-02T11:25:13.000Z</time>
      </trkpt>
      <trkpt lat="42.98227" lon="0.6671">
        <ele>579.40002441406</ele>
        <time>2012-09-02T11:25:17.000Z</time>
      </trkpt>
      <trkpt lat="42.98243" lon="0.66727">
        <ele>580.40002441406</ele>
        <time>2012-09-02T11:25:23.000Z</time>
      </trkpt>
      <trkpt lat="42.98247" lon="0.66738">
        <ele>581.20001220703</ele>
        <time>2012-09-02T11:25:28.000Z</time>
      </trkpt>
      <trkpt lat="42.98261" lon="0.66749">
        <ele>581.79998779297</ele>
        <time>2012-09-02T11:25:34.000Z</time>
      </trkpt>
      <trkpt lat="42.98274" lon="0.66759">
        <ele>582.40002441406</ele>
        <time>2012-09-02T11:25:40.000Z</time>
      </trkpt>
      <trkpt lat="42.98295" lon="0.66764">
        <ele>582.79998779297</ele>
        <time>2012-09-02T11:25:46.000Z</time>
      </trkpt>
      <trkpt lat="42.98323" lon="0.66759">
        <ele>582.20001220703</ele>
        <time>2012-09-02T11:25:53.000Z</time>
      </trkpt>
      <trkpt lat="42.98334" lon="0.66764">
        <ele>582.79998779297</ele>
        <time>2012-09-02T11:25:57.000Z</time>
      </trkpt>
      <trkpt lat="42.98352" lon="0.66783">
        <ele>586.79998779297</ele>
        <time>2012-09-02T11:26:06.000Z</time>
      </trkpt>
      <trkpt lat="42.98365" lon="0.66793">
        <ele>589.20001220703</ele>
        <time>2012-09-02T11:26:13.000Z</time>
      </trkpt>
      <trkpt lat="42.98375" lon="0.66799">
        <ele>590.79998779297</ele>
        <time>2012-09-02T11:26:20.000Z</time>
      </trkpt>
      <trkpt lat="42.98379" lon="0.66801">
        <ele>591.40002441406</ele>
        <time>2012-09-02T11:26:23.000Z</time>
      </trkpt>
      <trkpt lat="42.98398" lon="0.66801">
        <ele>593.20001220703</ele>
        <time>2012-09-02T11:26:33.000Z</time>
      </trkpt>
      <trkpt lat="42.98407" lon="0.66797">
        <ele>593.59997558594</ele>
        <time>2012-09-02T11:26:39.000Z</time>
      </trkpt>
      <trkpt lat="42.98415" lon="0.66789">
        <ele>593.59997558594</ele>
        <time>2012-09-02T11:26:45.000Z</time>
      </trkpt>
      <trkpt lat="42.98421" lon="0.6677">
        <ele>592.59997558594</ele>
        <time>2012-09-02T11:26:52.000Z</time>
      </trkpt>
      <trkpt lat="42.98425" lon="0.66748">
        <ele>591.40002441406</ele>
        <time>2012-09-02T11:26:59.000Z</time>
      </trkpt>
      <trkpt lat="42.98425" lon="0.66725">
        <ele>590.79998779297</ele>
        <time>2012-09-02T11:27:06.000Z</time>
      </trkpt>
      <trkpt lat="42.98418" lon="0.66687">
        <ele>588.59997558594</ele>
        <time>2012-09-02T11:27:16.000Z</time>
      </trkpt>
      <trkpt lat="42.98416" lon="0.66652">
        <ele>588</ele>
        <time>2012-09-02T11:27:24.000Z</time>
      </trkpt>
      <trkpt lat="42.9842" lon="0.66607">
        <ele>589.40002441406</ele>
        <time>2012-09-02T11:27:33.000Z</time>
      </trkpt>
      <trkpt lat="42.98418" lon="0.66579">
        <ele>589.20001220703</ele>
        <time>2012-09-02T11:27:39.000Z</time>
      </trkpt>
      <trkpt lat="42.98408" lon="0.66516">
        <ele>588.79998779297</ele>
        <time>2012-09-02T11:27:50.000Z</time>
      </trkpt>
      <trkpt lat="42.98402" lon="0.66462">
        <ele>589.40002441406</ele>
        <time>2012-09-02T11:28:00.000Z</time>
      </trkpt>
      <trkpt lat="42.98401" lon="0.66418">
        <ele>590.79998779297</ele>
        <time>2012-09-02T11:28:08.000Z</time>
      </trkpt>
      <trkpt lat="42.98396" lon="0.66373">
        <ele>590.79998779297</ele>
        <time>2012-09-02T11:28:16.000Z</time>
      </trkpt>
      <trkpt lat="42.98383" lon="0.66333">
        <ele>589.59997558594</ele>
        <time>2012-09-02T11:28:23.000Z</time>
      </trkpt>
      <trkpt lat="42.98379" lon="0.66319">
        <ele>588.79998779297</ele>
        <time>2012-09-02T11:28:25.000Z</time>
      </trkpt>
      <trkpt lat="42.98377" lon="0.66276">
        <ele>587.40002441406</ele>
        <time>2012-09-02T11:28:30.000Z</time>
      </trkpt>
      <trkpt lat="42.9839" lon="0.66242">
        <ele>588.20001220703</ele>
        <time>2012-09-02T11:28:34.000Z</time>
      </trkpt>
      <trkpt lat="42.98382" lon="0.66214">
        <ele>587</ele>
        <time>2012-09-02T11:28:39.000Z</time>
      </trkpt>
      <trkpt lat="42.98365" lon="0.66193">
        <ele>584.40002441406</ele>
        <time>2012-09-02T11:28:42.000Z</time>
      </trkpt>
      <trkpt lat="42.98346" lon="0.66171">
        <ele>581.20001220703</ele>
        <time>2012-09-02T11:28:45.000Z</time>
      </trkpt>
      <trkpt lat="42.98325" lon="0.66135">
        <ele>577.79998779297</ele>
        <time>2012-09-02T11:28:50.000Z</time>
      </trkpt>
      <trkpt lat="42.98307" lon="0.66106">
        <ele>575.59997558594</ele>
        <time>2012-09-02T11:28:54.000Z</time>
      </trkpt>
      <trkpt lat="42.98277" lon="0.66076">
        <ele>572.59997558594</ele>
        <time>2012-09-02T11:28:59.000Z</time>
      </trkpt>
      <trkpt lat="42.98256" lon="0.66064">
        <ele>570.59997558594</ele>
        <time>2012-09-02T11:29:02.000Z</time>
      </trkpt>
      <trkpt lat="42.98235" lon="0.66044">
        <ele>570.59997558594</ele>
        <time>2012-09-02T11:29:06.000Z</time>
      </trkpt>
      <trkpt lat="42.9821" lon="0.66005">
        <ele>571.40002441406</ele>
        <time>2012-09-02T11:29:12.000Z</time>
      </trkpt>
      <trkpt lat="42.98199" lon="0.6598">
        <ele>571.20001220703</ele>
        <time>2012-09-02T11:29:15.000Z</time>
      </trkpt>
      <trkpt lat="42.98201" lon="0.65968">
        <ele>570.79998779297</ele>
        <time>2012-09-02T11:29:18.000Z</time>
      </trkpt>
      <trkpt lat="42.98206" lon="0.65968">
        <ele>570.79998779297</ele>
        <time>2012-09-02T11:29:20.000Z</time>
      </trkpt>
      <trkpt lat="42.98229" lon="0.65961">
        <ele>570.59997558594</ele>
        <time>2012-09-02T11:29:30.000Z</time>
      </trkpt>
      <trkpt lat="42.98244" lon="0.65958">
        <ele>570.40002441406</ele>
        <time>2012-09-02T11:29:37.000Z</time>
      </trkpt>
      <trkpt lat="42.98261" lon="0.65957">
        <ele>571.79998779297</ele>
        <time>2012-09-02T11:29:46.000Z</time>
      </trkpt>
      <trkpt lat="42.98273" lon="0.6595">
        <ele>573.40002441406</ele>
        <time>2012-09-02T11:29:53.000Z</time>
      </trkpt>
      <trkpt lat="42.98285" lon="0.65933">
        <ele>575.20001220703</ele>
        <time>2012-09-02T11:30:02.000Z</time>
      </trkpt>
      <trkpt lat="42.98298" lon="0.65916">
        <ele>577.20001220703</ele>
        <time>2012-09-02T11:30:11.000Z</time>
      </trkpt>
      <trkpt lat="42.98312" lon="0.65902">
        <ele>578</ele>
        <time>2012-09-02T11:30:20.000Z</time>
      </trkpt>
      <trkpt lat="42.98329" lon="0.65899">
        <ele>579.79998779297</ele>
        <time>2012-09-02T11:30:27.000Z</time>
      </trkpt>
      <trkpt lat="42.98348" lon="0.65899">
        <ele>580.59997558594</ele>
        <time>2012-09-02T11:30:34.000Z</time>
      </trkpt>
      <trkpt lat="42.98363" lon="0.65904">
        <ele>581.20001220703</ele>
        <time>2012-09-02T11:30:39.000Z</time>
      </trkpt>
      <trkpt lat="42.98377" lon="0.65909">
        <ele>582</ele>
        <time>2012-09-02T11:30:43.000Z</time>
      </trkpt>
      <trkpt lat="42.98384" lon="0.65894">
        <ele>580.79998779297</ele>
        <time>2012-09-02T11:30:47.000Z</time>
      </trkpt>
      <trkpt lat="42.984" lon="0.6586">
        <ele>578.40002441406</ele>
        <time>2012-09-02T11:30:51.000Z</time>
      </trkpt>
      <trkpt lat="42.98427" lon="0.65814">
        <ele>576.59997558594</ele>
        <time>2012-09-02T11:30:55.000Z</time>
      </trkpt>
      <trkpt lat="42.98436" lon="0.65765">
        <ele>574.40002441406</ele>
        <time>2012-09-02T11:30:59.000Z</time>
      </trkpt>
      <trkpt lat="42.98429" lon="0.65729">
        <ele>572.20001220703</ele>
        <time>2012-09-02T11:31:02.000Z</time>
      </trkpt>
      <trkpt lat="42.98414" lon="0.65677">
        <ele>569.79998779297</ele>
        <time>2012-09-02T11:31:07.000Z</time>
      </trkpt>
      <trkpt lat="42.98409" lon="0.65648">
        <ele>569.79998779297</ele>
        <time>2012-09-02T11:31:10.000Z</time>
      </trkpt>
      <trkpt lat="42.98411" lon="0.65602">
        <ele>571.40002441406</ele>
        <time>2012-09-02T11:31:15.000Z</time>
      </trkpt>
      <trkpt lat="42.9841" lon="0.65577">
        <ele>572.20001220703</ele>
        <time>2012-09-02T11:31:19.000Z</time>
      </trkpt>
      <trkpt lat="42.98409" lon="0.65571">
        <ele>572.20001220703</ele>
        <time>2012-09-02T11:31:20.000Z</time>
      </trkpt>
      <trkpt lat="42.98406" lon="0.65554">
        <ele>572.59997558594</ele>
        <time>2012-09-02T11:31:23.000Z</time>
      </trkpt>
      <trkpt lat="42.98401" lon="0.65529">
        <ele>573.20001220703</ele>
        <time>2012-09-02T11:31:27.000Z</time>
      </trkpt>
      <trkpt lat="42.98399" lon="0.65508">
        <ele>574</ele>
        <time>2012-09-02T11:31:31.000Z</time>
      </trkpt>
      <trkpt lat="42.98397" lon="0.65499">
        <ele>574.59997558594</ele>
        <time>2012-09-02T11:31:36.000Z</time>
      </trkpt>
      <trkpt lat="42.98397" lon="0.65495">
        <ele>575.20001220703</ele>
        <time>2012-09-02T11:31:38.000Z</time>
      </trkpt>
      <trkpt lat="42.98395" lon="0.65491">
        <ele>575.59997558594</ele>
        <time>2012-09-02T11:31:42.000Z</time>
      </trkpt>
      <trkpt lat="42.98392" lon="0.65479">
        <ele>577.40002441406</ele>
        <time>2012-09-02T11:31:49.000Z</time>
      </trkpt>
      <trkpt lat="42.98391" lon="0.65475">
        <ele>578</ele>
        <time>2012-09-02T11:31:51.000Z</time>
      </trkpt>
      <trkpt lat="42.9839" lon="0.65467">
        <ele>579.20001220703</ele>
        <time>2012-09-02T11:31:55.000Z</time>
      </trkpt>
      <trkpt lat="42.98387" lon="0.65451">
        <ele>581.79998779297</ele>
        <time>2012-09-02T11:32:05.000Z</time>
      </trkpt>
      <trkpt lat="42.98381" lon="0.65443">
        <ele>583</ele>
        <time>2012-09-02T11:32:11.000Z</time>
      </trkpt>
      <trkpt lat="42.98372" lon="0.65434">
        <ele>584.20001220703</ele>
        <time>2012-09-02T11:32:18.000Z</time>
      </trkpt>
      <trkpt lat="42.98365" lon="0.65423">
        <ele>586</ele>
        <time>2012-09-02T11:32:25.000Z</time>
      </trkpt>
      <trkpt lat="42.98357" lon="0.65417">
        <ele>587.20001220703</ele>
        <time>2012-09-02T11:32:32.000Z</time>
      </trkpt>
      <trkpt lat="42.98349" lon="0.65408">
        <ele>588.40002441406</ele>
        <time>2012-09-02T11:32:41.000Z</time>
      </trkpt>
      <trkpt lat="42.98343" lon="0.65394">
        <ele>589.79998779297</ele>
        <time>2012-09-02T11:32:49.000Z</time>
      </trkpt>
      <trkpt lat="42.98333" lon="0.6538">
        <ele>591</ele>
        <time>2012-09-02T11:32:59.000Z</time>
      </trkpt>
      <trkpt lat="42.9833" lon="0.65367">
        <ele>592</ele>
        <time>2012-09-02T11:33:07.000Z</time>
      </trkpt>
      <trkpt lat="42.9833" lon="0.65365">
        <ele>592.20001220703</ele>
        <time>2012-09-02T11:33:08.000Z</time>
      </trkpt>
      <trkpt lat="42.98334" lon="0.65356">
        <ele>593.59997558594</ele>
        <time>2012-09-02T11:33:16.000Z</time>
      </trkpt>
      <trkpt lat="42.98341" lon="0.65353">
        <ele>594.40002441406</ele>
        <time>2012-09-02T11:33:23.000Z</time>
      </trkpt>
      <trkpt lat="42.98347" lon="0.65354">
        <ele>594.79998779297</ele>
        <time>2012-09-02T11:33:29.000Z</time>
      </trkpt>
      <trkpt lat="42.98359" lon="0.65353">
        <ele>595.79998779297</ele>
        <time>2012-09-02T11:33:37.000Z</time>
      </trkpt>
      <trkpt lat="42.98368" lon="0.65354">
        <ele>596.40002441406</ele>
        <time>2012-09-02T11:33:43.000Z</time>
      </trkpt>
      <trkpt lat="42.98377" lon="0.65352">
        <ele>597.40002441406</ele>
        <time>2012-09-02T11:33:49.000Z</time>
      </trkpt>
      <trkpt lat="42.98395" lon="0.65344">
        <ele>600</ele>
        <time>2012-09-02T11:34:00.000Z</time>
      </trkpt>
      <trkpt lat="42.98404" lon="0.65339">
        <ele>601.79998779297</ele>
        <time>2012-09-02T11:34:06.000Z</time>
      </trkpt>
      <trkpt lat="42.98411" lon="0.6533">
        <ele>604</ele>
        <time>2012-09-02T11:34:12.000Z</time>
      </trkpt>
      <trkpt lat="42.98416" lon="0.65317">
        <ele>606.79998779297</ele>
        <time>2012-09-02T11:34:20.000Z</time>
      </trkpt>
      <trkpt lat="42.98418" lon="0.65303">
        <ele>609</ele>
        <time>2012-09-02T11:34:27.000Z</time>
      </trkpt>
      <trkpt lat="42.98423" lon="0.65287">
        <ele>611.59997558594</ele>
        <time>2012-09-02T11:34:36.000Z</time>
      </trkpt>
      <trkpt lat="42.98423" lon="0.65272">
        <ele>614.20001220703</ele>
        <time>2012-09-02T11:34:44.000Z</time>
      </trkpt>
      <trkpt lat="42.9842" lon="0.65255">
        <ele>617.20001220703</ele>
        <time>2012-09-02T11:34:51.000Z</time>
      </trkpt>
      <trkpt lat="42.98413" lon="0.6524">
        <ele>619.40002441406</ele>
        <time>2012-09-02T11:34:58.000Z</time>
      </trkpt>
      <trkpt lat="42.98405" lon="0.65228">
        <ele>620.59997558594</ele>
        <time>2012-09-02T11:35:06.000Z</time>
      </trkpt>
      <trkpt lat="42.98396" lon="0.65218">
        <ele>621.40002441406</ele>
        <time>2012-09-02T11:35:14.000Z</time>
      </trkpt>
      <trkpt lat="42.98386" lon="0.65213">
        <ele>621</ele>
        <time>2012-09-02T11:35:21.000Z</time>
      </trkpt>
      <trkpt lat="42.98379" lon="0.65208">
        <ele>620.79998779297</ele>
        <time>2012-09-02T11:35:27.000Z</time>
      </trkpt>
      <trkpt lat="42.98368" lon="0.65205">
        <ele>620</ele>
        <time>2012-09-02T11:35:32.000Z</time>
      </trkpt>
      <trkpt lat="42.9835" lon="0.65195">
        <ele>619.40002441406</ele>
        <time>2012-09-02T11:35:36.000Z</time>
      </trkpt>
      <trkpt lat="42.98333" lon="0.65182">
        <ele>619.20001220703</ele>
        <time>2012-09-02T11:35:39.000Z</time>
      </trkpt>
      <trkpt lat="42.9832" lon="0.65167">
        <ele>619.79998779297</ele>
        <time>2012-09-02T11:35:42.000Z</time>
      </trkpt>
      <trkpt lat="42.9831" lon="0.65138">
        <ele>621.40002441406</ele>
        <time>2012-09-02T11:35:47.000Z</time>
      </trkpt>
      <trkpt lat="42.98299" lon="0.65126">
        <ele>620.59997558594</ele>
        <time>2012-09-02T11:35:49.000Z</time>
      </trkpt>
      <trkpt lat="42.9827" lon="0.6509">
        <ele>617.40002441406</ele>
        <time>2012-09-02T11:35:54.000Z</time>
      </trkpt>
      <trkpt lat="42.98264" lon="0.65073">
        <ele>618.40002441406</ele>
        <time>2012-09-02T11:35:56.000Z</time>
      </trkpt>
      <trkpt lat="42.9825" lon="0.65051">
        <ele>620.20001220703</ele>
        <time>2012-09-02T11:36:01.000Z</time>
      </trkpt>
      <trkpt lat="42.98233" lon="0.65028">
        <ele>621.20001220703</ele>
        <time>2012-09-02T11:36:08.000Z</time>
      </trkpt>
      <trkpt lat="42.98216" lon="0.65018">
        <ele>619.59997558594</ele>
        <time>2012-09-02T11:36:13.000Z</time>
      </trkpt>
      <trkpt lat="42.98203" lon="0.65011">
        <ele>618.40002441406</ele>
        <time>2012-09-02T11:36:17.000Z</time>
      </trkpt>
      <trkpt lat="42.98199" lon="0.65008">
        <ele>618</ele>
        <time>2012-09-02T11:36:19.000Z</time>
      </trkpt>
      <trkpt lat="42.98185" lon="0.65014">
        <ele>613.59997558594</ele>
        <time>2012-09-02T11:36:24.000Z</time>
      </trkpt>
      <trkpt lat="42.98176" lon="0.65017">
        <ele>611</ele>
        <time>2012-09-02T11:36:26.000Z</time>
      </trkpt>
      <trkpt lat="42.98165" lon="0.65018">
        <ele>608.20001220703</ele>
        <time>2012-09-02T11:36:28.000Z</time>
      </trkpt>
      <trkpt lat="42.98154" lon="0.65016">
        <ele>605.59997558594</ele>
        <time>2012-09-02T11:36:30.000Z</time>
      </trkpt>
      <trkpt lat="42.9813" lon="0.65008">
        <ele>601.59997558594</ele>
        <time>2012-09-02T11:36:33.000Z</time>
      </trkpt>
      <trkpt lat="42.98099" lon="0.64985">
        <ele>600.79998779297</ele>
        <time>2012-09-02T11:36:38.000Z</time>
      </trkpt>
      <trkpt lat="42.98077" lon="0.64978">
        <ele>597.59997558594</ele>
        <time>2012-09-02T11:36:43.000Z</time>
      </trkpt>
      <trkpt lat="42.98074" lon="0.64976">
        <ele>597.40002441406</ele>
        <time>2012-09-02T11:36:46.000Z</time>
      </trkpt>
      <trkpt lat="42.98074" lon="0.64974">
        <ele>598.40002441406</ele>
        <time>2012-09-02T11:37:17.000Z</time>
      </trkpt>
      <trkpt lat="42.98058" lon="0.64972">
        <ele>594.20001220703</ele>
        <time>2012-09-02T11:37:21.000Z</time>
      </trkpt>
      <trkpt lat="42.98038" lon="0.64968">
        <ele>589.20001220703</ele>
        <time>2012-09-02T11:37:26.000Z</time>
      </trkpt>
      <trkpt lat="42.98018" lon="0.64962">
        <ele>584.79998779297</ele>
        <time>2012-09-02T11:37:31.000Z</time>
      </trkpt>
      <trkpt lat="42.98004" lon="0.64957">
        <ele>581.79998779297</ele>
        <time>2012-09-02T11:37:36.000Z</time>
      </trkpt>
      <trkpt lat="42.97992" lon="0.64963">
        <ele>576.79998779297</ele>
        <time>2012-09-02T11:37:41.000Z</time>
      </trkpt>
      <trkpt lat="42.9798" lon="0.64971">
        <ele>572</ele>
        <time>2012-09-02T11:37:46.000Z</time>
      </trkpt>
      <trkpt lat="42.97978" lon="0.6497">
        <ele>571.79998779297</ele>
        <time>2012-09-02T11:37:47.000Z</time>
      </trkpt>
      <trkpt lat="42.97976" lon="0.64961">
        <ele>574.20001220703</ele>
        <time>2012-09-02T11:37:52.000Z</time>
      </trkpt>
      <trkpt lat="42.97976" lon="0.64959">
        <ele>574.79998779297</ele>
        <time>2012-09-02T11:37:53.000Z</time>
      </trkpt>
      <trkpt lat="42.97976" lon="0.64954">
        <ele>576.40002441406</ele>
        <time>2012-09-02T11:37:56.000Z</time>
      </trkpt>
      <trkpt lat="42.97976" lon="0.64948">
        <ele>578.20001220703</ele>
        <time>2012-09-02T11:38:00.000Z</time>
      </trkpt>
      <trkpt lat="42.97974" lon="0.64945">
        <ele>578.79998779297</ele>
        <time>2012-09-02T11:38:02.000Z</time>
      </trkpt>
      <trkpt lat="42.97972" lon="0.64944">
        <ele>578.59997558594</ele>
        <time>2012-09-02T11:38:04.000Z</time>
      </trkpt>
      <trkpt lat="42.97968" lon="0.64945">
        <ele>577.40002441406</ele>
        <time>2012-09-02T11:38:08.000Z</time>
      </trkpt>
      <trkpt lat="42.97965" lon="0.64942">
        <ele>577.79998779297</ele>
        <time>2012-09-02T11:38:11.000Z</time>
      </trkpt>
      <trkpt lat="42.97962" lon="0.64935">
        <ele>579.20001220703</ele>
        <time>2012-09-02T11:38:15.000Z</time>
      </trkpt>
      <trkpt lat="42.97959" lon="0.64929">
        <ele>580.40002441406</ele>
        <time>2012-09-02T11:38:19.000Z</time>
      </trkpt>
      <trkpt lat="42.97961" lon="0.64916">
        <ele>584.79998779297</ele>
        <time>2012-09-02T11:38:26.000Z</time>
      </trkpt>
      <trkpt lat="42.97962" lon="0.64915">
        <ele>585.40002441406</ele>
        <time>2012-09-02T11:38:27.000Z</time>
      </trkpt>
      <trkpt lat="42.97963" lon="0.64902">
        <ele>589.79998779297</ele>
        <time>2012-09-02T11:38:36.000Z</time>
      </trkpt>
      <trkpt lat="42.97964" lon="0.64902">
        <ele>590.20001220703</ele>
        <time>2012-09-02T11:38:37.000Z</time>
      </trkpt>
      <trkpt lat="42.97969" lon="0.64898">
        <ele>592.40002441406</ele>
        <time>2012-09-02T11:38:43.000Z</time>
      </trkpt>
      <trkpt lat="42.97971" lon="0.64898">
        <ele>593</ele>
        <time>2012-09-02T11:38:45.000Z</time>
      </trkpt>
      <trkpt lat="42.97978" lon="0.64897">
        <ele>594.79998779297</ele>
        <time>2012-09-02T11:38:52.000Z</time>
      </trkpt>
      <trkpt lat="42.97986" lon="0.64897">
        <ele>596.79998779297</ele>
        <time>2012-09-02T11:39:00.000Z</time>
      </trkpt>
      <trkpt lat="42.97997" lon="0.64898">
        <ele>598.79998779297</ele>
        <time>2012-09-02T11:39:08.000Z</time>
      </trkpt>
      <trkpt lat="42.97997" lon="0.64899">
        <ele>598.40002441406</ele>
        <time>2012-09-02T11:39:11.000Z</time>
      </trkpt>
      <trkpt lat="42.97996" lon="0.64886">
        <ele>602.59997558594</ele>
        <time>2012-09-02T11:39:53.000Z</time>
      </trkpt>
      <trkpt lat="42.97996" lon="0.64884">
        <ele>603.40002441406</ele>
        <time>2012-09-02T11:39:57.000Z</time>
      </trkpt>
      <trkpt lat="42.97998" lon="0.64881">
        <ele>604.79998779297</ele>
        <time>2012-09-02T11:40:09.000Z</time>
      </trkpt>
      <trkpt lat="42.98" lon="0.6488">
        <ele>605.59997558594</ele>
        <time>2012-09-02T11:40:15.000Z</time>
      </trkpt>
      <trkpt lat="42.97999" lon="0.64875">
        <ele>607</ele>
        <time>2012-09-02T11:40:22.000Z</time>
      </trkpt>
      <trkpt lat="42.97997" lon="0.64871">
        <ele>608</ele>
        <time>2012-09-02T11:40:27.000Z</time>
      </trkpt>
      <trkpt lat="42.97996" lon="0.64868">
        <ele>608.79998779297</ele>
        <time>2012-09-02T11:40:32.000Z</time>
      </trkpt>
      <trkpt lat="42.97992" lon="0.64866">
        <ele>608.79998779297</ele>
        <time>2012-09-02T11:40:38.000Z</time>
      </trkpt>
      <trkpt lat="42.97989" lon="0.6486">
        <ele>610.20001220703</ele>
        <time>2012-09-02T11:40:46.000Z</time>
      </trkpt>
      <trkpt lat="42.97989" lon="0.64857">
        <ele>610.79998779297</ele>
        <time>2012-09-02T11:40:49.000Z</time>
      </trkpt>
      <trkpt lat="42.97985" lon="0.64851">
        <ele>612</ele>
        <time>2012-09-02T11:40:59.000Z</time>
      </trkpt>
      <trkpt lat="42.9798" lon="0.64847">
        <ele>612.20001220703</ele>
        <time>2012-09-02T11:41:27.000Z</time>
      </trkpt>
      <trkpt lat="42.97975" lon="0.6484">
        <ele>613.20001220703</ele>
        <time>2012-09-02T11:41:43.000Z</time>
      </trkpt>
      <trkpt lat="42.97974" lon="0.64829">
        <ele>616.20001220703</ele>
        <time>2012-09-02T11:41:50.000Z</time>
      </trkpt>
      <trkpt lat="42.97975" lon="0.64827">
        <ele>616.79998779297</ele>
        <time>2012-09-02T11:41:52.000Z</time>
      </trkpt>
      <trkpt lat="42.97973" lon="0.64814">
        <ele>619.20001220703</ele>
        <time>2012-09-02T11:42:00.000Z</time>
      </trkpt>
      <trkpt lat="42.97968" lon="0.64803">
        <ele>620.59997558594</ele>
        <time>2012-09-02T11:42:08.000Z</time>
      </trkpt>
      <trkpt lat="42.97968" lon="0.64802">
        <ele>620.79998779297</ele>
        <time>2012-09-02T11:42:09.000Z</time>
      </trkpt>
      <trkpt lat="42.9797" lon="0.64794">
        <ele>623.20001220703</ele>
        <time>2012-09-02T11:42:17.000Z</time>
      </trkpt>
      <trkpt lat="42.97973" lon="0.6479">
        <ele>625</ele>
        <time>2012-09-02T11:42:23.000Z</time>
      </trkpt>
      <trkpt lat="42.97973" lon="0.64786">
        <ele>625.79998779297</ele>
        <time>2012-09-02T11:42:28.000Z</time>
      </trkpt>
      <trkpt lat="42.97975" lon="0.64784">
        <ele>626.79998779297</ele>
        <time>2012-09-02T11:42:38.000Z</time>
      </trkpt>
      <trkpt lat="42.97977" lon="0.64785">
        <ele>627.20001220703</ele>
        <time>2012-09-02T11:42:41.000Z</time>
      </trkpt>
      <trkpt lat="42.97979" lon="0.64784">
        <ele>627.79998779297</ele>
        <time>2012-09-02T11:42:47.000Z</time>
      </trkpt>
      <trkpt lat="42.9798" lon="0.64783">
        <ele>628.40002441406</ele>
        <time>2012-09-02T11:42:53.000Z</time>
      </trkpt>
      <trkpt lat="42.97974" lon="0.64765">
        <ele>631</ele>
        <time>2012-09-02T11:43:52.000Z</time>
      </trkpt>
      <trkpt lat="42.97972" lon="0.64764">
        <ele>630.79998779297</ele>
        <time>2012-09-02T11:43:55.000Z</time>
      </trkpt>
      <trkpt lat="42.97958" lon="0.64763">
        <ele>627.40002441406</ele>
        <time>2012-09-02T11:44:01.000Z</time>
      </trkpt>
      <trkpt lat="42.97947" lon="0.6476">
        <ele>625.40002441406</ele>
        <time>2012-09-02T11:44:06.000Z</time>
      </trkpt>
      <trkpt lat="42.97948" lon="0.6476">
        <ele>625.59997558594</ele>
        <time>2012-09-02T11:44:07.000Z</time>
      </trkpt>
      <trkpt lat="42.97942" lon="0.64758">
        <ele>624.59997558594</ele>
        <time>2012-09-02T11:44:17.000Z</time>
      </trkpt>
      <trkpt lat="42.9793" lon="0.64753">
        <ele>622.59997558594</ele>
        <time>2012-09-02T11:44:23.000Z</time>
      </trkpt>
      <trkpt lat="42.97924" lon="0.64748">
        <ele>622</ele>
        <time>2012-09-02T11:44:25.000Z</time>
      </trkpt>
      <trkpt lat="42.97919" lon="0.64744">
        <ele>620.79998779297</ele>
        <time>2012-09-02T11:44:27.000Z</time>
      </trkpt>
      <trkpt lat="42.97911" lon="0.64731">
        <ele>617.79998779297</ele>
        <time>2012-09-02T11:44:32.000Z</time>
      </trkpt>
      <trkpt lat="42.9791" lon="0.64726">
        <ele>617.20001220703</ele>
        <time>2012-09-02T11:44:36.000Z</time>
      </trkpt>
      <trkpt lat="42.97907" lon="0.64723">
        <ele>616</ele>
        <time>2012-09-02T11:44:39.000Z</time>
      </trkpt>
      <trkpt lat="42.97902" lon="0.64721">
        <ele>613.79998779297</ele>
        <time>2012-09-02T11:44:41.000Z</time>
      </trkpt>
      <trkpt lat="42.97897" lon="0.64712">
        <ele>611</ele>
        <time>2012-09-02T11:44:45.000Z</time>
      </trkpt>
      <trkpt lat="42.97884" lon="0.64699">
        <ele>604.20001220703</ele>
        <time>2012-09-02T11:44:50.000Z</time>
      </trkpt>
      <trkpt lat="42.97883" lon="0.64697">
        <ele>603.40002441406</ele>
        <time>2012-09-02T11:44:53.000Z</time>
      </trkpt>
      <trkpt lat="42.97883" lon="0.64693">
        <ele>603.40002441406</ele>
        <time>2012-09-02T11:44:58.000Z</time>
      </trkpt>
      <trkpt lat="42.97884" lon="0.64691">
        <ele>604</ele>
        <time>2012-09-02T11:45:01.000Z</time>
      </trkpt>
      <trkpt lat="42.97887" lon="0.64687">
        <ele>605.59997558594</ele>
        <time>2012-09-02T11:45:08.000Z</time>
      </trkpt>
      <trkpt lat="42.97887" lon="0.64687">
        <ele>605.79998779297</ele>
        <time>2012-09-02T11:45:11.000Z</time>
      </trkpt>
      <trkpt lat="42.9789" lon="0.64684">
        <ele>606.79998779297</ele>
        <time>2012-09-02T11:45:17.000Z</time>
      </trkpt>
      <trkpt lat="42.9789" lon="0.64681">
        <ele>607.20001220703</ele>
        <time>2012-09-02T11:45:23.000Z</time>
      </trkpt>
      <trkpt lat="42.97894" lon="0.64677">
        <ele>609</ele>
        <time>2012-09-02T11:45:37.000Z</time>
      </trkpt>
      <trkpt lat="42.97892" lon="0.64675">
        <ele>608.20001220703</ele>
        <time>2012-09-02T11:45:43.000Z</time>
      </trkpt>
      <trkpt lat="42.97894" lon="0.64671">
        <ele>609</ele>
        <time>2012-09-02T11:45:49.000Z</time>
      </trkpt>
      <trkpt lat="42.97896" lon="0.64668">
        <ele>610.40002441406</ele>
        <time>2012-09-02T11:45:55.000Z</time>
      </trkpt>
      <trkpt lat="42.97899" lon="0.64662">
        <ele>611</ele>
        <time>2012-09-02T11:46:03.000Z</time>
      </trkpt>
      <trkpt lat="42.979" lon="0.6466">
        <ele>611.40002441406</ele>
        <time>2012-09-02T11:46:05.000Z</time>
      </trkpt>
      <trkpt lat="42.97907" lon="0.64655">
        <ele>614.20001220703</ele>
        <time>2012-09-02T11:46:18.000Z</time>
      </trkpt>
      <trkpt lat="42.97907" lon="0.64653">
        <ele>614</ele>
        <time>2012-09-02T11:46:20.000Z</time>
      </trkpt>
      <trkpt lat="42.97908" lon="0.64651">
        <ele>614.59997558594</ele>
        <time>2012-09-02T11:46:26.000Z</time>
      </trkpt>
      <trkpt lat="42.97909" lon="0.64641">
        <ele>613.40002441406</ele>
        <time>2012-09-02T11:46:36.000Z</time>
      </trkpt>
      <trkpt lat="42.9791" lon="0.6464">
        <ele>613.40002441406</ele>
        <time>2012-09-02T11:46:38.000Z</time>
      </trkpt>
      <trkpt lat="42.97912" lon="0.64635">
        <ele>613.79998779297</ele>
        <time>2012-09-02T11:46:49.000Z</time>
      </trkpt>
      <trkpt lat="42.97919" lon="0.64621">
        <ele>616</ele>
        <time>2012-09-02T11:46:58.000Z</time>
      </trkpt>
      <trkpt lat="42.97923" lon="0.64609">
        <ele>615.59997558594</ele>
        <time>2012-09-02T11:47:02.000Z</time>
      </trkpt>
      <trkpt lat="42.9793" lon="0.64594">
        <ele>616.20001220703</ele>
        <time>2012-09-02T11:47:08.000Z</time>
      </trkpt>
      <trkpt lat="42.97936" lon="0.64582">
        <ele>616.59997558594</ele>
        <time>2012-09-02T11:47:14.000Z</time>
      </trkpt>
      <trkpt lat="42.97943" lon="0.64577">
        <ele>618</ele>
        <time>2012-09-02T11:47:19.000Z</time>
      </trkpt>
      <trkpt lat="42.97953" lon="0.64565">
        <ele>618.59997558594</ele>
        <time>2012-09-02T11:47:25.000Z</time>
      </trkpt>
      <trkpt lat="42.97962" lon="0.6456">
        <ele>621.20001220703</ele>
        <time>2012-09-02T11:47:30.000Z</time>
      </trkpt>
      <trkpt lat="42.97971" lon="0.6455">
        <ele>622.40002441406</ele>
        <time>2012-09-02T11:47:35.000Z</time>
      </trkpt>
      <trkpt lat="42.97981" lon="0.6454">
        <ele>624</ele>
        <time>2012-09-02T11:47:40.000Z</time>
      </trkpt>
      <trkpt lat="42.97992" lon="0.64529">
        <ele>626.79998779297</ele>
        <time>2012-09-02T11:47:45.000Z</time>
      </trkpt>
      <trkpt lat="42.98002" lon="0.64517">
        <ele>628</ele>
        <time>2012-09-02T11:47:49.000Z</time>
      </trkpt>
      <trkpt lat="42.98014" lon="0.645">
        <ele>627.59997558594</ele>
        <time>2012-09-02T11:47:54.000Z</time>
      </trkpt>
      <trkpt lat="42.98033" lon="0.64477">
        <ele>625</ele>
        <time>2012-09-02T11:48:00.000Z</time>
      </trkpt>
      <trkpt lat="42.98045" lon="0.64462">
        <ele>623.59997558594</ele>
        <time>2012-09-02T11:48:05.000Z</time>
      </trkpt>
      <trkpt lat="42.9805" lon="0.6445">
        <ele>621</ele>
        <time>2012-09-02T11:48:11.000Z</time>
      </trkpt>
      <trkpt lat="42.98055" lon="0.64442">
        <ele>619.40002441406</ele>
        <time>2012-09-02T11:48:15.000Z</time>
      </trkpt>
      <trkpt lat="42.98058" lon="0.64441">
        <ele>620.40002441406</ele>
        <time>2012-09-02T11:48:17.000Z</time>
      </trkpt>
      <trkpt lat="42.98066" lon="0.6442">
        <ele>615.59997558594</ele>
        <time>2012-09-02T11:48:22.000Z</time>
      </trkpt>
      <trkpt lat="42.98075" lon="0.64402">
        <ele>612.79998779297</ele>
        <time>2012-09-02T11:48:25.000Z</time>
      </trkpt>
      <trkpt lat="42.98082" lon="0.64392">
        <ele>612</ele>
        <time>2012-09-02T11:48:27.000Z</time>
      </trkpt>
      <trkpt lat="42.98108" lon="0.64357">
        <ele>605.59997558594</ele>
        <time>2012-09-02T11:48:33.000Z</time>
      </trkpt>
      <trkpt lat="42.98114" lon="0.6435">
        <ele>604.59997558594</ele>
        <time>2012-09-02T11:48:34.000Z</time>
      </trkpt>
      <trkpt lat="42.98147" lon="0.64331">
        <ele>604.40002441406</ele>
        <time>2012-09-02T11:48:39.000Z</time>
      </trkpt>
      <trkpt lat="42.98154" lon="0.64327">
        <ele>605.20001220703</ele>
        <time>2012-09-02T11:48:40.000Z</time>
      </trkpt>
      <trkpt lat="42.98186" lon="0.64298">
        <ele>602.59997558594</ele>
        <time>2012-09-02T11:48:46.000Z</time>
      </trkpt>
      <trkpt lat="42.98187" lon="0.64291">
        <ele>601</ele>
        <time>2012-09-02T11:48:49.000Z</time>
      </trkpt>
      <trkpt lat="42.98188" lon="0.64291">
        <ele>601</ele>
        <time>2012-09-02T11:48:50.000Z</time>
      </trkpt>
      <trkpt lat="42.98193" lon="0.64292">
        <ele>601.40002441406</ele>
        <time>2012-09-02T11:48:55.000Z</time>
      </trkpt>
      <trkpt lat="42.982" lon="0.64295">
        <ele>602.20001220703</ele>
        <time>2012-09-02T11:49:00.000Z</time>
      </trkpt>
      <trkpt lat="42.98212" lon="0.64301">
        <ele>604.20001220703</ele>
        <time>2012-09-02T11:49:08.000Z</time>
      </trkpt>
      <trkpt lat="42.98219" lon="0.64303">
        <ele>605.20001220703</ele>
        <time>2012-09-02T11:49:12.000Z</time>
      </trkpt>
      <trkpt lat="42.98233" lon="0.64306">
        <ele>606.79998779297</ele>
        <time>2012-09-02T11:49:20.000Z</time>
      </trkpt>
      <trkpt lat="42.98246" lon="0.6431">
        <ele>608.59997558594</ele>
        <time>2012-09-02T11:49:27.000Z</time>
      </trkpt>
      <trkpt lat="42.98262" lon="0.64313">
        <ele>610.40002441406</ele>
        <time>2012-09-02T11:49:36.000Z</time>
      </trkpt>
      <trkpt lat="42.98275" lon="0.64314">
        <ele>611.20001220703</ele>
        <time>2012-09-02T11:49:44.000Z</time>
      </trkpt>
      <trkpt lat="42.98291" lon="0.64313">
        <ele>611.79998779297</ele>
        <time>2012-09-02T11:49:52.000Z</time>
      </trkpt>
      <trkpt lat="42.98304" lon="0.64312">
        <ele>612</ele>
        <time>2012-09-02T11:49:59.000Z</time>
      </trkpt>
      <trkpt lat="42.98314" lon="0.64312">
        <ele>612.40002441406</ele>
        <time>2012-09-02T11:50:05.000Z</time>
      </trkpt>
      <trkpt lat="42.98327" lon="0.64313">
        <ele>613.79998779297</ele>
        <time>2012-09-02T11:50:13.000Z</time>
      </trkpt>
      <trkpt lat="42.98343" lon="0.64315">
        <ele>614.20001220703</ele>
        <time>2012-09-02T11:50:22.000Z</time>
      </trkpt>
      <trkpt lat="42.98354" lon="0.64317">
        <ele>614</ele>
        <time>2012-09-02T11:50:29.000Z</time>
      </trkpt>
      <trkpt lat="42.98366" lon="0.64318">
        <ele>613.59997558594</ele>
        <time>2012-09-02T11:50:36.000Z</time>
      </trkpt>
      <trkpt lat="42.9838" lon="0.64321">
        <ele>613.40002441406</ele>
        <time>2012-09-02T11:50:43.000Z</time>
      </trkpt>
      <trkpt lat="42.98394" lon="0.64326">
        <ele>614</ele>
        <time>2012-09-02T11:50:49.000Z</time>
      </trkpt>
      <trkpt lat="42.98405" lon="0.64334">
        <ele>616.40002441406</ele>
        <time>2012-09-02T11:50:56.000Z</time>
      </trkpt>
      <trkpt lat="42.98411" lon="0.64345">
        <ele>620.40002441406</ele>
        <time>2012-09-02T11:51:02.000Z</time>
      </trkpt>
      <trkpt lat="42.98415" lon="0.64354">
        <ele>624.20001220703</ele>
        <time>2012-09-02T11:51:07.000Z</time>
      </trkpt>
      <trkpt lat="42.98426" lon="0.64369">
        <ele>628.40002441406</ele>
        <time>2012-09-02T11:51:15.000Z</time>
      </trkpt>
      <trkpt lat="42.98441" lon="0.64383">
        <ele>631</ele>
        <time>2012-09-02T11:51:25.000Z</time>
      </trkpt>
      <trkpt lat="42.9846" lon="0.64395">
        <ele>631</ele>
        <time>2012-09-02T11:51:35.000Z</time>
      </trkpt>
      <trkpt lat="42.9847" lon="0.64404">
        <ele>631.59997558594</ele>
        <time>2012-09-02T11:51:44.000Z</time>
      </trkpt>
      <trkpt lat="42.98483" lon="0.64411">
        <ele>630.79998779297</ele>
        <time>2012-09-02T11:51:52.000Z</time>
      </trkpt>
      <trkpt lat="42.98494" lon="0.64425">
        <ele>632.20001220703</ele>
        <time>2012-09-02T11:52:01.000Z</time>
      </trkpt>
      <trkpt lat="42.98503" lon="0.64438">
        <ele>634</ele>
        <time>2012-09-02T11:52:08.000Z</time>
      </trkpt>
      <trkpt lat="42.98513" lon="0.64453">
        <ele>637.20001220703</ele>
        <time>2012-09-02T11:52:16.000Z</time>
      </trkpt>
      <trkpt lat="42.98521" lon="0.64468">
        <ele>640.59997558594</ele>
        <time>2012-09-02T11:52:24.000Z</time>
      </trkpt>
      <trkpt lat="42.98531" lon="0.64486">
        <ele>644.20001220703</ele>
        <time>2012-09-02T11:52:33.000Z</time>
      </trkpt>
      <trkpt lat="42.98541" lon="0.64505">
        <ele>647.79998779297</ele>
        <time>2012-09-02T11:52:43.000Z</time>
      </trkpt>
      <trkpt lat="42.98553" lon="0.64518">
        <ele>649</ele>
        <time>2012-09-02T11:52:51.000Z</time>
      </trkpt>
      <trkpt lat="42.98559" lon="0.6453">
        <ele>650.59997558594</ele>
        <time>2012-09-02T11:52:57.000Z</time>
      </trkpt>
      <trkpt lat="42.98565" lon="0.64545">
        <ele>653.20001220703</ele>
        <time>2012-09-02T11:53:06.000Z</time>
      </trkpt>
      <trkpt lat="42.98577" lon="0.64556">
        <ele>653.79998779297</ele>
        <time>2012-09-02T11:53:15.000Z</time>
      </trkpt>
      <trkpt lat="42.98588" lon="0.64563">
        <ele>654.79998779297</ele>
        <time>2012-09-02T11:53:23.000Z</time>
      </trkpt>
      <trkpt lat="42.98599" lon="0.64564">
        <ele>656.20001220703</ele>
        <time>2012-09-02T11:53:30.000Z</time>
      </trkpt>
      <trkpt lat="42.9861" lon="0.64561">
        <ele>656.40002441406</ele>
        <time>2012-09-02T11:53:37.000Z</time>
      </trkpt>
      <trkpt lat="42.9862" lon="0.64553">
        <ele>655.79998779297</ele>
        <time>2012-09-02T11:53:45.000Z</time>
      </trkpt>
      <trkpt lat="42.98628" lon="0.64548">
        <ele>655.59997558594</ele>
        <time>2012-09-02T11:53:51.000Z</time>
      </trkpt>
      <trkpt lat="42.98639" lon="0.64539">
        <ele>655</ele>
        <time>2012-09-02T11:53:58.000Z</time>
      </trkpt>
      <trkpt lat="42.98651" lon="0.6453">
        <ele>654.59997558594</ele>
        <time>2012-09-02T11:54:05.000Z</time>
      </trkpt>
      <trkpt lat="42.98664" lon="0.64521">
        <ele>654.59997558594</ele>
        <time>2012-09-02T11:54:12.000Z</time>
      </trkpt>
      <trkpt lat="42.98681" lon="0.64511">
        <ele>657</ele>
        <time>2012-09-02T11:54:22.000Z</time>
      </trkpt>
      <trkpt lat="42.98695" lon="0.64497">
        <ele>658.59997558594</ele>
        <time>2012-09-02T11:54:31.000Z</time>
      </trkpt>
      <trkpt lat="42.98705" lon="0.64489">
        <ele>660.59997558594</ele>
        <time>2012-09-02T11:54:37.000Z</time>
      </trkpt>
      <trkpt lat="42.98711" lon="0.64496">
        <ele>663.40002441406</ele>
        <time>2012-09-02T11:54:43.000Z</time>
      </trkpt>
      <trkpt lat="42.98707" lon="0.64507">
        <ele>663.59997558594</ele>
        <time>2012-09-02T11:54:48.000Z</time>
      </trkpt>
      <trkpt lat="42.98693" lon="0.6453">
        <ele>663.40002441406</ele>
        <time>2012-09-02T11:54:59.000Z</time>
      </trkpt>
      <trkpt lat="42.98686" lon="0.6455">
        <ele>664.79998779297</ele>
        <time>2012-09-02T11:55:07.000Z</time>
      </trkpt>
      <trkpt lat="42.98689" lon="0.64568">
        <ele>668.40002441406</ele>
        <time>2012-09-02T11:55:15.000Z</time>
      </trkpt>
      <trkpt lat="42.98692" lon="0.64571">
        <ele>669.59997558594</ele>
        <time>2012-09-02T11:55:17.000Z</time>
      </trkpt>
      <trkpt lat="42.98704" lon="0.64565">
        <ele>671.20001220703</ele>
        <time>2012-09-02T11:55:24.000Z</time>
      </trkpt>
      <trkpt lat="42.98718" lon="0.64547">
        <ele>672.20001220703</ele>
        <time>2012-09-02T11:55:35.000Z</time>
      </trkpt>
      <trkpt lat="42.98732" lon="0.64521">
        <ele>672.40002441406</ele>
        <time>2012-09-02T11:55:48.000Z</time>
      </trkpt>
      <trkpt lat="42.98741" lon="0.64512">
        <ele>674</ele>
        <time>2012-09-02T11:55:54.000Z</time>
      </trkpt>
      <trkpt lat="42.98744" lon="0.64512">
        <ele>674.59997558594</ele>
        <time>2012-09-02T11:55:55.000Z</time>
      </trkpt>
      <trkpt lat="42.98748" lon="0.6452">
        <ele>676.59997558594</ele>
        <time>2012-09-02T11:56:00.000Z</time>
      </trkpt>
      <trkpt lat="42.98745" lon="0.64543">
        <ele>678.20001220703</ele>
        <time>2012-09-02T11:56:10.000Z</time>
      </trkpt>
      <trkpt lat="42.98746" lon="0.64567">
        <ele>681.40002441406</ele>
        <time>2012-09-02T11:56:21.000Z</time>
      </trkpt>
      <trkpt lat="42.98752" lon="0.64586">
        <ele>685</ele>
        <time>2012-09-02T11:56:31.000Z</time>
      </trkpt>
      <trkpt lat="42.98756" lon="0.64597">
        <ele>687.20001220703</ele>
        <time>2012-09-02T11:56:37.000Z</time>
      </trkpt>
      <trkpt lat="42.98762" lon="0.64616">
        <ele>690.59997558594</ele>
        <time>2012-09-02T11:56:47.000Z</time>
      </trkpt>
      <trkpt lat="42.98765" lon="0.64631">
        <ele>692.59997558594</ele>
        <time>2012-09-02T11:56:55.000Z</time>
      </trkpt>
      <trkpt lat="42.98769" lon="0.64649">
        <ele>694.59997558594</ele>
        <time>2012-09-02T11:57:05.000Z</time>
      </trkpt>
      <trkpt lat="42.98772" lon="0.64665">
        <ele>696.40002441406</ele>
        <time>2012-09-02T11:57:14.000Z</time>
      </trkpt>
      <trkpt lat="42.98774" lon="0.64681">
        <ele>697.40002441406</ele>
        <time>2012-09-02T11:57:22.000Z</time>
      </trkpt>
      <trkpt lat="42.98776" lon="0.64697">
        <ele>698.20001220703</ele>
        <time>2012-09-02T11:57:30.000Z</time>
      </trkpt>
      <trkpt lat="42.9878" lon="0.64718">
        <ele>698.79998779297</ele>
        <time>2012-09-02T11:57:41.000Z</time>
      </trkpt>
      <trkpt lat="42.98789" lon="0.64728">
        <ele>699.20001220703</ele>
        <time>2012-09-02T11:57:49.000Z</time>
      </trkpt>
      <trkpt lat="42.98799" lon="0.64725">
        <ele>699.79998779297</ele>
        <time>2012-09-02T11:57:56.000Z</time>
      </trkpt>
      <trkpt lat="42.98813" lon="0.64716">
        <ele>701.20001220703</ele>
        <time>2012-09-02T11:58:05.000Z</time>
      </trkpt>
      <trkpt lat="42.98824" lon="0.64704">
        <ele>703.20001220703</ele>
        <time>2012-09-02T11:58:14.000Z</time>
      </trkpt>
      <trkpt lat="42.98836" lon="0.64694">
        <ele>705.79998779297</ele>
        <time>2012-09-02T11:58:23.000Z</time>
      </trkpt>
      <trkpt lat="42.98842" lon="0.64686">
        <ele>708</ele>
        <time>2012-09-02T11:58:29.000Z</time>
      </trkpt>
      <trkpt lat="42.9884" lon="0.64665">
        <ele>710.40002441406</ele>
        <time>2012-09-02T11:58:39.000Z</time>
      </trkpt>
      <trkpt lat="42.98841" lon="0.64642">
        <ele>712</ele>
        <time>2012-09-02T11:58:50.000Z</time>
      </trkpt>
      <trkpt lat="42.98845" lon="0.64625">
        <ele>714</ele>
        <time>2012-09-02T11:58:58.000Z</time>
      </trkpt>
      <trkpt lat="42.9885" lon="0.64604">
        <ele>717</ele>
        <time>2012-09-02T11:59:09.000Z</time>
      </trkpt>
      <trkpt lat="42.98856" lon="0.64584">
        <ele>720.40002441406</ele>
        <time>2012-09-02T11:59:18.000Z</time>
      </trkpt>
      <trkpt lat="42.98859" lon="0.64567">
        <ele>721.59997558594</ele>
        <time>2012-09-02T11:59:25.000Z</time>
      </trkpt>
      <trkpt lat="42.98864" lon="0.64548">
        <ele>723.79998779297</ele>
        <time>2012-09-02T11:59:33.000Z</time>
      </trkpt>
      <trkpt lat="42.98867" lon="0.64531">
        <ele>725.40002441406</ele>
        <time>2012-09-02T11:59:41.000Z</time>
      </trkpt>
      <trkpt lat="42.98871" lon="0.64515">
        <ele>727.20001220703</ele>
        <time>2012-09-02T11:59:49.000Z</time>
      </trkpt>
      <trkpt lat="42.98876" lon="0.6449">
        <ele>730.20001220703</ele>
        <time>2012-09-02T12:00:02.000Z</time>
      </trkpt>
      <trkpt lat="42.9888" lon="0.64476">
        <ele>732</ele>
        <time>2012-09-02T12:00:10.000Z</time>
      </trkpt>
      <trkpt lat="42.98883" lon="0.64455">
        <ele>733.79998779297</ele>
        <time>2012-09-02T12:00:21.000Z</time>
      </trkpt>
      <trkpt lat="42.98886" lon="0.64432">
        <ele>735.79998779297</ele>
        <time>2012-09-02T12:00:33.000Z</time>
      </trkpt>
      <trkpt lat="42.98892" lon="0.64412">
        <ele>739.20001220703</ele>
        <time>2012-09-02T12:00:44.000Z</time>
      </trkpt>
      <trkpt lat="42.98899" lon="0.64384">
        <ele>743.20001220703</ele>
        <time>2012-09-02T12:00:59.000Z</time>
      </trkpt>
      <trkpt lat="42.98904" lon="0.64365">
        <ele>745.59997558594</ele>
        <time>2012-09-02T12:01:09.000Z</time>
      </trkpt>
      <trkpt lat="42.98907" lon="0.64348">
        <ele>747.59997558594</ele>
        <time>2012-09-02T12:01:18.000Z</time>
      </trkpt>
      <trkpt lat="42.98912" lon="0.64327">
        <ele>750.40002441406</ele>
        <time>2012-09-02T12:01:29.000Z</time>
      </trkpt>
      <trkpt lat="42.98914" lon="0.64305">
        <ele>751.59997558594</ele>
        <time>2012-09-02T12:01:41.000Z</time>
      </trkpt>
      <trkpt lat="42.98916" lon="0.6429">
        <ele>752.59997558594</ele>
        <time>2012-09-02T12:01:49.000Z</time>
      </trkpt>
      <trkpt lat="42.9892" lon="0.6427">
        <ele>754.59997558594</ele>
        <time>2012-09-02T12:02:00.000Z</time>
      </trkpt>
      <trkpt lat="42.98922" lon="0.64253">
        <ele>755.40002441406</ele>
        <time>2012-09-02T12:02:09.000Z</time>
      </trkpt>
      <trkpt lat="42.98925" lon="0.64232">
        <ele>754.40002441406</ele>
        <time>2012-09-02T12:02:20.000Z</time>
      </trkpt>
      <trkpt lat="42.9893" lon="0.64212">
        <ele>754.20001220703</ele>
        <time>2012-09-02T12:02:31.000Z</time>
      </trkpt>
      <trkpt lat="42.98938" lon="0.64198">
        <ele>755.79998779297</ele>
        <time>2012-09-02T12:02:40.000Z</time>
      </trkpt>
      <trkpt lat="42.9895" lon="0.64189">
        <ele>759.79998779297</ele>
        <time>2012-09-02T12:02:48.000Z</time>
      </trkpt>
      <trkpt lat="42.98961" lon="0.6418">
        <ele>763.59997558594</ele>
        <time>2012-09-02T12:02:56.000Z</time>
      </trkpt>
      <trkpt lat="42.98971" lon="0.64171">
        <ele>766.40002441406</ele>
        <time>2012-09-02T12:03:03.000Z</time>
      </trkpt>
      <trkpt lat="42.98982" lon="0.64159">
        <ele>768</ele>
        <time>2012-09-02T12:03:12.000Z</time>
      </trkpt>
      <trkpt lat="42.98996" lon="0.64149">
        <ele>770.79998779297</ele>
        <time>2012-09-02T12:03:22.000Z</time>
      </trkpt>
      <trkpt lat="42.99007" lon="0.64151">
        <ele>774.59997558594</ele>
        <time>2012-09-02T12:03:31.000Z</time>
      </trkpt>
      <trkpt lat="42.99015" lon="0.64161">
        <ele>779.79998779297</ele>
        <time>2012-09-02T12:03:40.000Z</time>
      </trkpt>
      <trkpt lat="42.99019" lon="0.64177">
        <ele>784.20001220703</ele>
        <time>2012-09-02T12:03:49.000Z</time>
      </trkpt>
      <trkpt lat="42.99014" lon="0.64192">
        <ele>785.59997558594</ele>
        <time>2012-09-02T12:03:57.000Z</time>
      </trkpt>
      <trkpt lat="42.99012" lon="0.64205">
        <ele>787.20001220703</ele>
        <time>2012-09-02T12:04:04.000Z</time>
      </trkpt>
      <trkpt lat="42.99007" lon="0.64223">
        <ele>789</ele>
        <time>2012-09-02T12:04:14.000Z</time>
      </trkpt>
      <trkpt lat="42.99004" lon="0.6424">
        <ele>790.79998779297</ele>
        <time>2012-09-02T12:04:24.000Z</time>
      </trkpt>
      <trkpt lat="42.99005" lon="0.64254">
        <ele>792.59997558594</ele>
        <time>2012-09-02T12:04:32.000Z</time>
      </trkpt>
      <trkpt lat="42.99004" lon="0.6427">
        <ele>792.79998779297</ele>
        <time>2012-09-02T12:04:40.000Z</time>
      </trkpt>
      <trkpt lat="42.99005" lon="0.64285">
        <ele>793.59997558594</ele>
        <time>2012-09-02T12:04:48.000Z</time>
      </trkpt>
      <trkpt lat="42.99006" lon="0.64304">
        <ele>794.20001220703</ele>
        <time>2012-09-02T12:04:58.000Z</time>
      </trkpt>
      <trkpt lat="42.99009" lon="0.64322">
        <ele>795.79998779297</ele>
        <time>2012-09-02T12:05:07.000Z</time>
      </trkpt>
      <trkpt lat="42.99014" lon="0.64338">
        <ele>797.59997558594</ele>
        <time>2012-09-02T12:05:16.000Z</time>
      </trkpt>
      <trkpt lat="42.99018" lon="0.64357">
        <ele>797.79998779297</ele>
        <time>2012-09-02T12:05:26.000Z</time>
      </trkpt>
      <trkpt lat="42.9902" lon="0.64366">
        <ele>798</ele>
        <time>2012-09-02T12:05:33.000Z</time>
      </trkpt>
      <trkpt lat="42.99021" lon="0.6437">
        <ele>798</ele>
        <time>2012-09-02T12:05:37.000Z</time>
      </trkpt>
      <trkpt lat="42.99023" lon="0.64373">
        <ele>798.40002441406</ele>
        <time>2012-09-02T12:05:41.000Z</time>
      </trkpt>
      <trkpt lat="42.99032" lon="0.6438">
        <ele>800.59997558594</ele>
        <time>2012-09-02T12:05:50.000Z</time>
      </trkpt>
      <trkpt lat="42.99042" lon="0.64383">
        <ele>803.20001220703</ele>
        <time>2012-09-02T12:05:57.000Z</time>
      </trkpt>
      <trkpt lat="42.99058" lon="0.64387">
        <ele>807.20001220703</ele>
        <time>2012-09-02T12:06:07.000Z</time>
      </trkpt>
      <trkpt lat="42.99071" lon="0.64391">
        <ele>810.59997558594</ele>
        <time>2012-09-02T12:06:16.000Z</time>
      </trkpt>
      <trkpt lat="42.99085" lon="0.64393">
        <ele>813.59997558594</ele>
        <time>2012-09-02T12:06:24.000Z</time>
      </trkpt>
      <trkpt lat="42.99098" lon="0.64392">
        <ele>815</ele>
        <time>2012-09-02T12:06:34.000Z</time>
      </trkpt>
      <trkpt lat="42.991" lon="0.64391">
        <ele>815.40002441406</ele>
        <time>2012-09-02T12:06:38.000Z</time>
      </trkpt>
      <trkpt lat="42.99108" lon="0.64386">
        <ele>816.59997558594</ele>
        <time>2012-09-02T12:08:37.000Z</time>
      </trkpt>
      <trkpt lat="42.9912" lon="0.64376">
        <ele>818.20001220703</ele>
        <time>2012-09-02T12:08:46.000Z</time>
      </trkpt>
      <trkpt lat="42.99136" lon="0.64363">
        <ele>819.40002441406</ele>
        <time>2012-09-02T12:08:56.000Z</time>
      </trkpt>
      <trkpt lat="42.99149" lon="0.64353">
        <ele>819.79998779297</ele>
        <time>2012-09-02T12:09:04.000Z</time>
      </trkpt>
      <trkpt lat="42.99168" lon="0.64338">
        <ele>819.20001220703</ele>
        <time>2012-09-02T12:09:15.000Z</time>
      </trkpt>
      <trkpt lat="42.99186" lon="0.64336">
        <ele>819.40002441406</ele>
        <time>2012-09-02T12:09:22.000Z</time>
      </trkpt>
      <trkpt lat="42.99212" lon="0.64336">
        <ele>820</ele>
        <time>2012-09-02T12:09:32.000Z</time>
      </trkpt>
      <trkpt lat="42.99236" lon="0.64338">
        <ele>820.79998779297</ele>
        <time>2012-09-02T12:09:39.000Z</time>
      </trkpt>
      <trkpt lat="42.99253" lon="0.64342">
        <ele>822.40002441406</ele>
        <time>2012-09-02T12:09:45.000Z</time>
      </trkpt>
      <trkpt lat="42.99274" lon="0.64336">
        <ele>826</ele>
        <time>2012-09-02T12:09:53.000Z</time>
      </trkpt>
      <trkpt lat="42.99293" lon="0.64326">
        <ele>828.59997558594</ele>
        <time>2012-09-02T12:10:02.000Z</time>
      </trkpt>
      <trkpt lat="42.99307" lon="0.64325">
        <ele>831.40002441406</ele>
        <time>2012-09-02T12:10:08.000Z</time>
      </trkpt>
      <trkpt lat="42.99325" lon="0.64316">
        <ele>833.59997558594</ele>
        <time>2012-09-02T12:10:16.000Z</time>
      </trkpt>
      <trkpt lat="42.99334" lon="0.64302">
        <ele>832.40002441406</ele>
        <time>2012-09-02T12:10:23.000Z</time>
      </trkpt>
      <trkpt lat="42.9934" lon="0.64287">
        <ele>832</ele>
        <time>2012-09-02T12:10:30.000Z</time>
      </trkpt>
      <trkpt lat="42.99347" lon="0.64269">
        <ele>831.79998779297</ele>
        <time>2012-09-02T12:10:39.000Z</time>
      </trkpt>
      <trkpt lat="42.99355" lon="0.64254">
        <ele>832.20001220703</ele>
        <time>2012-09-02T12:10:48.000Z</time>
      </trkpt>
      <trkpt lat="42.99362" lon="0.6424">
        <ele>832.40002441406</ele>
        <time>2012-09-02T12:10:56.000Z</time>
      </trkpt>
      <trkpt lat="42.99369" lon="0.6423">
        <ele>833</ele>
        <time>2012-09-02T12:11:03.000Z</time>
      </trkpt>
      <trkpt lat="42.99378" lon="0.64219">
        <ele>834</ele>
        <time>2012-09-02T12:11:11.000Z</time>
      </trkpt>
      <trkpt lat="42.99387" lon="0.6421">
        <ele>835.59997558594</ele>
        <time>2012-09-02T12:11:19.000Z</time>
      </trkpt>
      <trkpt lat="42.99395" lon="0.64202">
        <ele>837.20001220703</ele>
        <time>2012-09-02T12:11:27.000Z</time>
      </trkpt>
      <trkpt lat="42.99403" lon="0.64194">
        <ele>838.79998779297</ele>
        <time>2012-09-02T12:11:34.000Z</time>
      </trkpt>
      <trkpt lat="42.99404" lon="0.64194">
        <ele>839</ele>
        <time>2012-09-02T12:11:35.000Z</time>
      </trkpt>
      <trkpt lat="42.99414" lon="0.64183">
        <ele>840.40002441406</ele>
        <time>2012-09-02T12:11:44.000Z</time>
      </trkpt>
      <trkpt lat="42.99426" lon="0.64173">
        <ele>843.59997558594</ele>
        <time>2012-09-02T12:11:53.000Z</time>
      </trkpt>
      <trkpt lat="42.99434" lon="0.64168">
        <ele>846.40002441406</ele>
        <time>2012-09-02T12:12:01.000Z</time>
      </trkpt>
      <trkpt lat="42.99446" lon="0.64161">
        <ele>849.79998779297</ele>
        <time>2012-09-02T12:12:10.000Z</time>
      </trkpt>
      <trkpt lat="42.99455" lon="0.64154">
        <ele>851.79998779297</ele>
        <time>2012-09-02T12:12:18.000Z</time>
      </trkpt>
      <trkpt lat="42.99465" lon="0.64146">
        <ele>853.79998779297</ele>
        <time>2012-09-02T12:12:26.000Z</time>
      </trkpt>
      <trkpt lat="42.99472" lon="0.64138">
        <ele>854.40002441406</ele>
        <time>2012-09-02T12:12:33.000Z</time>
      </trkpt>
      <trkpt lat="42.99478" lon="0.64131">
        <ele>854.79998779297</ele>
        <time>2012-09-02T12:12:39.000Z</time>
      </trkpt>
      <trkpt lat="42.99487" lon="0.64125">
        <ele>857.20001220703</ele>
        <time>2012-09-02T12:12:46.000Z</time>
      </trkpt>
      <trkpt lat="42.99492" lon="0.6412">
        <ele>858</ele>
        <time>2012-09-02T12:12:51.000Z</time>
      </trkpt>
      <trkpt lat="42.995" lon="0.64114">
        <ele>859.79998779297</ele>
        <time>2012-09-02T12:12:59.000Z</time>
      </trkpt>
      <trkpt lat="42.99509" lon="0.64103">
        <ele>861</ele>
        <time>2012-09-02T12:13:09.000Z</time>
      </trkpt>
      <trkpt lat="42.99518" lon="0.64095">
        <ele>863.40002441406</ele>
        <time>2012-09-02T12:13:18.000Z</time>
      </trkpt>
      <trkpt lat="42.99528" lon="0.64085">
        <ele>866</ele>
        <time>2012-09-02T12:13:28.000Z</time>
      </trkpt>
      <trkpt lat="42.99528" lon="0.64083">
        <ele>865.59997558594</ele>
        <time>2012-09-02T12:13:29.000Z</time>
      </trkpt>
      <trkpt lat="42.99537" lon="0.64071">
        <ele>867.20001220703</ele>
        <time>2012-09-02T12:13:39.000Z</time>
      </trkpt>
      <trkpt lat="42.99546" lon="0.6406">
        <ele>868.59997558594</ele>
        <time>2012-09-02T12:13:49.000Z</time>
      </trkpt>
      <trkpt lat="42.99553" lon="0.64047">
        <ele>868</ele>
        <time>2012-09-02T12:13:58.000Z</time>
      </trkpt>
      <trkpt lat="42.99558" lon="0.64037">
        <ele>868</ele>
        <time>2012-09-02T12:14:06.000Z</time>
      </trkpt>
      <trkpt lat="42.99559" lon="0.64036">
        <ele>868</ele>
        <time>2012-09-02T12:14:07.000Z</time>
      </trkpt>
      <trkpt lat="42.99569" lon="0.64023">
        <ele>869.79998779297</ele>
        <time>2012-09-02T12:14:18.000Z</time>
      </trkpt>
      <trkpt lat="42.9958" lon="0.64014">
        <ele>873.20001220703</ele>
        <time>2012-09-02T12:14:28.000Z</time>
      </trkpt>
      <trkpt lat="42.99594" lon="0.64006">
        <ele>877.79998779297</ele>
        <time>2012-09-02T12:14:40.000Z</time>
      </trkpt>
      <trkpt lat="42.99606" lon="0.63998">
        <ele>880.40002441406</ele>
        <time>2012-09-02T12:14:51.000Z</time>
      </trkpt>
      <trkpt lat="42.99611" lon="0.63995">
        <ele>882</ele>
        <time>2012-09-02T12:14:58.000Z</time>
      </trkpt>
      <trkpt lat="42.99617" lon="0.63991">
        <ele>883.40002441406</ele>
        <time>2012-09-02T12:15:06.000Z</time>
      </trkpt>
      <trkpt lat="42.9962" lon="0.63987">
        <ele>883.79998779297</ele>
        <time>2012-09-02T12:15:10.000Z</time>
      </trkpt>
      <trkpt lat="42.99625" lon="0.63985">
        <ele>885.20001220703</ele>
        <time>2012-09-02T12:15:15.000Z</time>
      </trkpt>
      <trkpt lat="42.99626" lon="0.63985">
        <ele>886</ele>
        <time>2012-09-02T12:17:45.000Z</time>
      </trkpt>
      <trkpt lat="42.99634" lon="0.6398">
        <ele>888.20001220703</ele>
        <time>2012-09-02T12:17:52.000Z</time>
      </trkpt>
      <trkpt lat="42.99646" lon="0.63968">
        <ele>890.20001220703</ele>
        <time>2012-09-02T12:18:00.000Z</time>
      </trkpt>
      <trkpt lat="42.99653" lon="0.63956">
        <ele>889.40002441406</ele>
        <time>2012-09-02T12:18:06.000Z</time>
      </trkpt>
      <trkpt lat="42.99657" lon="0.63942">
        <ele>886.59997558594</ele>
        <time>2012-09-02T12:18:12.000Z</time>
      </trkpt>
      <trkpt lat="42.99662" lon="0.63929">
        <ele>885</ele>
        <time>2012-09-02T12:18:18.000Z</time>
      </trkpt>
      <trkpt lat="42.99672" lon="0.63919">
        <ele>885.40002441406</ele>
        <time>2012-09-02T12:18:24.000Z</time>
      </trkpt>
      <trkpt lat="42.99687" lon="0.63911">
        <ele>888</ele>
        <time>2012-09-02T12:18:30.000Z</time>
      </trkpt>
      <trkpt lat="42.99704" lon="0.63904">
        <ele>891.40002441406</ele>
        <time>2012-09-02T12:18:37.000Z</time>
      </trkpt>
      <trkpt lat="42.99717" lon="0.63898">
        <ele>894</ele>
        <time>2012-09-02T12:18:43.000Z</time>
      </trkpt>
      <trkpt lat="42.99732" lon="0.63892">
        <ele>897.20001220703</ele>
        <time>2012-09-02T12:18:50.000Z</time>
      </trkpt>
      <trkpt lat="42.99749" lon="0.63886">
        <ele>900.40002441406</ele>
        <time>2012-09-02T12:18:58.000Z</time>
      </trkpt>
      <trkpt lat="42.99759" lon="0.63879">
        <ele>901</ele>
        <time>2012-09-02T12:19:04.000Z</time>
      </trkpt>
      <trkpt lat="42.9977" lon="0.63871">
        <ele>901.40002441406</ele>
        <time>2012-09-02T12:19:11.000Z</time>
      </trkpt>
      <trkpt lat="42.99776" lon="0.63866">
        <ele>901.40002441406</ele>
        <time>2012-09-02T12:19:16.000Z</time>
      </trkpt>
      <trkpt lat="42.99785" lon="0.63855">
        <ele>900.79998779297</ele>
        <time>2012-09-02T12:19:23.000Z</time>
      </trkpt>
      <trkpt lat="42.9979" lon="0.63844">
        <ele>899.40002441406</ele>
        <time>2012-09-02T12:19:30.000Z</time>
      </trkpt>
      <trkpt lat="42.99796" lon="0.63835">
        <ele>898.59997558594</ele>
        <time>2012-09-02T12:19:35.000Z</time>
      </trkpt>
      <trkpt lat="42.99808" lon="0.63828">
        <ele>899.59997558594</ele>
        <time>2012-09-02T12:19:42.000Z</time>
      </trkpt>
      <trkpt lat="42.99819" lon="0.63826">
        <ele>902</ele>
        <time>2012-09-02T12:19:49.000Z</time>
      </trkpt>
      <trkpt lat="42.99832" lon="0.6383">
        <ele>906</ele>
        <time>2012-09-02T12:19:54.000Z</time>
      </trkpt>
      <trkpt lat="42.99844" lon="0.63841">
        <ele>908.59997558594</ele>
        <time>2012-09-02T12:19:58.000Z</time>
      </trkpt>
      <trkpt lat="42.99858" lon="0.63856">
        <ele>912.20001220703</ele>
        <time>2012-09-02T12:20:03.000Z</time>
      </trkpt>
      <trkpt lat="42.99874" lon="0.63863">
        <ele>913.79998779297</ele>
        <time>2012-09-02T12:20:08.000Z</time>
      </trkpt>
      <trkpt lat="42.99896" lon="0.63863">
        <ele>913.79998779297</ele>
        <time>2012-09-02T12:20:14.000Z</time>
      </trkpt>
      <trkpt lat="42.99923" lon="0.63857">
        <ele>911.79998779297</ele>
        <time>2012-09-02T12:20:22.000Z</time>
      </trkpt>
      <trkpt lat="42.99946" lon="0.63851">
        <ele>908.79998779297</ele>
        <time>2012-09-02T12:20:30.000Z</time>
      </trkpt>
      <trkpt lat="42.99962" lon="0.63846">
        <ele>907.40002441406</ele>
        <time>2012-09-02T12:20:37.000Z</time>
      </trkpt>
      <trkpt lat="42.99976" lon="0.6384">
        <ele>906.40002441406</ele>
        <time>2012-09-02T12:20:43.000Z</time>
      </trkpt>
      <trkpt lat="42.99991" lon="0.63835">
        <ele>906</ele>
        <time>2012-09-02T12:20:50.000Z</time>
      </trkpt>
      <trkpt lat="43.00006" lon="0.63829">
        <ele>905.20001220703</ele>
        <time>2012-09-02T12:20:57.000Z</time>
      </trkpt>
      <trkpt lat="43.00018" lon="0.63825">
        <ele>904.20001220703</ele>
        <time>2012-09-02T12:21:04.000Z</time>
      </trkpt>
      <trkpt lat="43.0002" lon="0.63827">
        <ele>904.79998779297</ele>
        <time>2012-09-02T12:21:06.000Z</time>
      </trkpt>
      <trkpt lat="43.00018" lon="0.63839">
        <ele>906</ele>
        <time>2012-09-02T12:21:11.000Z</time>
      </trkpt>
      <trkpt lat="43.00004" lon="0.63854">
        <ele>906</ele>
        <time>2012-09-02T12:21:19.000Z</time>
      </trkpt>
      <trkpt lat="42.99988" lon="0.6387">
        <ele>907.40002441406</ele>
        <time>2012-09-02T12:21:28.000Z</time>
      </trkpt>
      <trkpt lat="42.99979" lon="0.6388">
        <ele>909.40002441406</ele>
        <time>2012-09-02T12:21:35.000Z</time>
      </trkpt>
      <trkpt lat="42.9997" lon="0.63895">
        <ele>912.20001220703</ele>
        <time>2012-09-02T12:21:42.000Z</time>
      </trkpt>
      <trkpt lat="42.99966" lon="0.63913">
        <ele>915.40002441406</ele>
        <time>2012-09-02T12:21:45.000Z</time>
      </trkpt>
      <trkpt lat="42.99964" lon="0.63955">
        <ele>914.59997558594</ele>
        <time>2012-09-02T12:21:50.000Z</time>
      </trkpt>
      <trkpt lat="42.99965" lon="0.63973">
        <ele>913.79998779297</ele>
        <time>2012-09-02T12:21:52.000Z</time>
      </trkpt>
      <trkpt lat="42.99955" lon="0.64012">
        <ele>915</ele>
        <time>2012-09-02T12:21:57.000Z</time>
      </trkpt>
      <trkpt lat="42.99947" lon="0.64024">
        <ele>916.59997558594</ele>
        <time>2012-09-02T12:21:59.000Z</time>
      </trkpt>
      <trkpt lat="42.99916" lon="0.64078">
        <ele>922</ele>
        <time>2012-09-02T12:22:07.000Z</time>
      </trkpt>
      <trkpt lat="42.99911" lon="0.64097">
        <ele>923.20001220703</ele>
        <time>2012-09-02T12:22:09.000Z</time>
      </trkpt>
      <trkpt lat="42.99918" lon="0.64141">
        <ele>919.20001220703</ele>
        <time>2012-09-02T12:22:13.000Z</time>
      </trkpt>
      <trkpt lat="42.99925" lon="0.64164">
        <ele>915.79998779297</ele>
        <time>2012-09-02T12:22:15.000Z</time>
      </trkpt>
      <trkpt lat="42.99931" lon="0.64225">
        <ele>914.59997558594</ele>
        <time>2012-09-02T12:22:20.000Z</time>
      </trkpt>
      <trkpt lat="42.99937" lon="0.64268">
        <ele>913.59997558594</ele>
        <time>2012-09-02T12:22:24.000Z</time>
      </trkpt>
      <trkpt lat="42.99939" lon="0.64276">
        <ele>913.20001220703</ele>
        <time>2012-09-02T12:22:25.000Z</time>
      </trkpt>
      <trkpt lat="42.99957" lon="0.64299">
        <ele>908.59997558594</ele>
        <time>2012-09-02T12:22:29.000Z</time>
      </trkpt>
      <trkpt lat="42.9997" lon="0.64301">
        <ele>904.59997558594</ele>
        <time>2012-09-02T12:22:31.000Z</time>
      </trkpt>
      <trkpt lat="43.00013" lon="0.64294">
        <ele>895.59997558594</ele>
        <time>2012-09-02T12:22:38.000Z</time>
      </trkpt>
      <trkpt lat="43.00039" lon="0.64289">
        <ele>895.40002441406</ele>
        <time>2012-09-02T12:22:42.000Z</time>
      </trkpt>
      <trkpt lat="43.00061" lon="0.64292">
        <ele>899</ele>
        <time>2012-09-02T12:22:46.000Z</time>
      </trkpt>
      <trkpt lat="43.00082" lon="0.64308">
        <ele>901.79998779297</ele>
        <time>2012-09-02T12:22:51.000Z</time>
      </trkpt>
      <trkpt lat="43.00093" lon="0.64317">
        <ele>904.40002441406</ele>
        <time>2012-09-02T12:22:56.000Z</time>
      </trkpt>
      <trkpt lat="43.00105" lon="0.6432">
        <ele>906.40002441406</ele>
        <time>2012-09-02T12:23:03.000Z</time>
      </trkpt>
      <trkpt lat="43.00116" lon="0.6432">
        <ele>908</ele>
        <time>2012-09-02T12:23:08.000Z</time>
      </trkpt>
      <trkpt lat="43.00132" lon="0.64321">
        <ele>910.40002441406</ele>
        <time>2012-09-02T12:23:17.000Z</time>
      </trkpt>
      <trkpt lat="43.00145" lon="0.64322">
        <ele>912.20001220703</ele>
        <time>2012-09-02T12:23:24.000Z</time>
      </trkpt>
      <trkpt lat="43.00156" lon="0.64327">
        <ele>915</ele>
        <time>2012-09-02T12:23:32.000Z</time>
      </trkpt>
      <trkpt lat="43.00171" lon="0.64332">
        <ele>918.20001220703</ele>
        <time>2012-09-02T12:23:41.000Z</time>
      </trkpt>
      <trkpt lat="43.00185" lon="0.64335">
        <ele>920.20001220703</ele>
        <time>2012-09-02T12:23:50.000Z</time>
      </trkpt>
      <trkpt lat="43.00198" lon="0.64332">
        <ele>921.40002441406</ele>
        <time>2012-09-02T12:23:58.000Z</time>
      </trkpt>
      <trkpt lat="43.00209" lon="0.64329">
        <ele>922.20001220703</ele>
        <time>2012-09-02T12:24:04.000Z</time>
      </trkpt>
      <trkpt lat="43.00227" lon="0.64328">
        <ele>924.20001220703</ele>
        <time>2012-09-02T12:24:12.000Z</time>
      </trkpt>
      <trkpt lat="43.00242" lon="0.64327">
        <ele>926</ele>
        <time>2012-09-02T12:24:19.000Z</time>
      </trkpt>
      <trkpt lat="43.00254" lon="0.6433">
        <ele>927.79998779297</ele>
        <time>2012-09-02T12:24:25.000Z</time>
      </trkpt>
      <trkpt lat="43.00267" lon="0.64332">
        <ele>929.59997558594</ele>
        <time>2012-09-02T12:24:31.000Z</time>
      </trkpt>
      <trkpt lat="43.00279" lon="0.64338">
        <ele>931.59997558594</ele>
        <time>2012-09-02T12:24:37.000Z</time>
      </trkpt>
      <trkpt lat="43.00297" lon="0.64346">
        <ele>933.79998779297</ele>
        <time>2012-09-02T12:24:45.000Z</time>
      </trkpt>
      <trkpt lat="43.00307" lon="0.64349">
        <ele>935</ele>
        <time>2012-09-02T12:24:50.000Z</time>
      </trkpt>
      <trkpt lat="43.00318" lon="0.64349">
        <ele>935.79998779297</ele>
        <time>2012-09-02T12:24:55.000Z</time>
      </trkpt>
      <trkpt lat="43.00331" lon="0.64343">
        <ele>936.79998779297</ele>
        <time>2012-09-02T12:25:01.000Z</time>
      </trkpt>
      <trkpt lat="43.00342" lon="0.64333">
        <ele>938.40002441406</ele>
        <time>2012-09-02T12:25:08.000Z</time>
      </trkpt>
      <trkpt lat="43.00352" lon="0.64323">
        <ele>938.79998779297</ele>
        <time>2012-09-02T12:25:14.000Z</time>
      </trkpt>
      <trkpt lat="43.0036" lon="0.64315">
        <ele>939.20001220703</ele>
        <time>2012-09-02T12:25:19.000Z</time>
      </trkpt>
      <trkpt lat="43.0037" lon="0.64306">
        <ele>939.79998779297</ele>
        <time>2012-09-02T12:25:25.000Z</time>
      </trkpt>
      <trkpt lat="43.0038" lon="0.64295">
        <ele>940.20001220703</ele>
        <time>2012-09-02T12:25:31.000Z</time>
      </trkpt>
      <trkpt lat="43.0039" lon="0.64284">
        <ele>940.40002441406</ele>
        <time>2012-09-02T12:25:38.000Z</time>
      </trkpt>
      <trkpt lat="43.00399" lon="0.64273">
        <ele>940.79998779297</ele>
        <time>2012-09-02T12:25:44.000Z</time>
      </trkpt>
      <trkpt lat="43.00413" lon="0.6426">
        <ele>941.59997558594</ele>
        <time>2012-09-02T12:25:50.000Z</time>
      </trkpt>
      <trkpt lat="43.00426" lon="0.64245">
        <ele>941.59997558594</ele>
        <time>2012-09-02T12:25:57.000Z</time>
      </trkpt>
      <trkpt lat="43.00436" lon="0.64232">
        <ele>941</ele>
        <time>2012-09-02T12:26:02.000Z</time>
      </trkpt>
      <trkpt lat="43.00452" lon="0.64214">
        <ele>940.20001220703</ele>
        <time>2012-09-02T12:26:09.000Z</time>
      </trkpt>
      <trkpt lat="43.0046" lon="0.64205">
        <ele>939.59997558594</ele>
        <time>2012-09-02T12:26:14.000Z</time>
      </trkpt>
      <trkpt lat="43.00475" lon="0.64192">
        <ele>939</ele>
        <time>2012-09-02T12:26:20.000Z</time>
      </trkpt>
      <trkpt lat="43.00491" lon="0.64176">
        <ele>938</ele>
        <time>2012-09-02T12:26:27.000Z</time>
      </trkpt>
      <trkpt lat="43.00501" lon="0.6417">
        <ele>938</ele>
        <time>2012-09-02T12:26:34.000Z</time>
      </trkpt>
      <trkpt lat="43.00501" lon="0.6417">
        <ele>938</ele>
        <time>2012-09-02T12:26:36.000Z</time>
      </trkpt>
      <trkpt lat="43.00505" lon="0.64167">
        <ele>938</ele>
        <time>2012-09-02T12:26:46.000Z</time>
      </trkpt>
      <trkpt lat="43.00503" lon="0.64164">
        <ele>937.40002441406</ele>
        <time>2012-09-02T12:26:51.000Z</time>
      </trkpt>
      <trkpt lat="43.00503" lon="0.64168">
        <ele>937.79998779297</ele>
        <time>2012-09-02T12:33:54.000Z</time>
      </trkpt>
      <trkpt lat="43.00503" lon="0.6417">
        <ele>938.40002441406</ele>
        <time>2012-09-02T12:33:59.000Z</time>
      </trkpt>
      <trkpt lat="43.00516" lon="0.64162">
        <ele>939.79998779297</ele>
        <time>2012-09-02T12:34:24.000Z</time>
      </trkpt>
      <trkpt lat="43.00517" lon="0.6416">
        <ele>940</ele>
        <time>2012-09-02T12:34:25.000Z</time>
      </trkpt>
      <trkpt lat="43.00532" lon="0.64143">
        <ele>941.40002441406</ele>
        <time>2012-09-02T12:34:33.000Z</time>
      </trkpt>
      <trkpt lat="43.00547" lon="0.64131">
        <ele>942.79998779297</ele>
        <time>2012-09-02T12:34:39.000Z</time>
      </trkpt>
      <trkpt lat="43.00564" lon="0.64116">
        <ele>944.20001220703</ele>
        <time>2012-09-02T12:34:46.000Z</time>
      </trkpt>
      <trkpt lat="43.00583" lon="0.64099">
        <ele>945</ele>
        <time>2012-09-02T12:34:54.000Z</time>
      </trkpt>
      <trkpt lat="43.00602" lon="0.64079">
        <ele>945.40002441406</ele>
        <time>2012-09-02T12:35:03.000Z</time>
      </trkpt>
      <trkpt lat="43.00624" lon="0.64059">
        <ele>946.79998779297</ele>
        <time>2012-09-02T12:35:11.000Z</time>
      </trkpt>
      <trkpt lat="43.00635" lon="0.64053">
        <ele>947.59997558594</ele>
        <time>2012-09-02T12:35:16.000Z</time>
      </trkpt>
      <trkpt lat="43.00656" lon="0.64049">
        <ele>949.59997558594</ele>
        <time>2012-09-02T12:35:24.000Z</time>
      </trkpt>
      <trkpt lat="43.00674" lon="0.64037">
        <ele>950.40002441406</ele>
        <time>2012-09-02T12:35:30.000Z</time>
      </trkpt>
      <trkpt lat="43.00694" lon="0.64019">
        <ele>950</ele>
        <time>2012-09-02T12:35:37.000Z</time>
      </trkpt>
      <trkpt lat="43.00709" lon="0.64016">
        <ele>951.20001220703</ele>
        <time>2012-09-02T12:35:43.000Z</time>
      </trkpt>
      <trkpt lat="43.00721" lon="0.64024">
        <ele>953.79998779297</ele>
        <time>2012-09-02T12:35:47.000Z</time>
      </trkpt>
      <trkpt lat="43.00733" lon="0.64029">
        <ele>956</ele>
        <time>2012-09-02T12:35:52.000Z</time>
      </trkpt>
      <trkpt lat="43.00746" lon="0.64033">
        <ele>958.20001220703</ele>
        <time>2012-09-02T12:35:57.000Z</time>
      </trkpt>
      <trkpt lat="43.00759" lon="0.64039">
        <ele>959.59997558594</ele>
        <time>2012-09-02T12:36:02.000Z</time>
      </trkpt>
      <trkpt lat="43.00774" lon="0.64047">
        <ele>960.59997558594</ele>
        <time>2012-09-02T12:36:07.000Z</time>
      </trkpt>
      <trkpt lat="43.00788" lon="0.64061">
        <ele>962.79998779297</ele>
        <time>2012-09-02T12:36:13.000Z</time>
      </trkpt>
      <trkpt lat="43.00802" lon="0.64073">
        <ele>965</ele>
        <time>2012-09-02T12:36:19.000Z</time>
      </trkpt>
      <trkpt lat="43.00821" lon="0.64088">
        <ele>967.59997558594</ele>
        <time>2012-09-02T12:36:26.000Z</time>
      </trkpt>
      <trkpt lat="43.00837" lon="0.64102">
        <ele>970.40002441406</ele>
        <time>2012-09-02T12:36:32.000Z</time>
      </trkpt>
      <trkpt lat="43.00846" lon="0.64109">
        <ele>971.59997558594</ele>
        <time>2012-09-02T12:36:38.000Z</time>
      </trkpt>
      <trkpt lat="43.00853" lon="0.64115">
        <ele>972.20001220703</ele>
        <time>2012-09-02T12:36:44.000Z</time>
      </trkpt>
      <trkpt lat="43.00858" lon="0.64117">
        <ele>972.40002441406</ele>
        <time>2012-09-02T12:36:51.000Z</time>
      </trkpt>
      <trkpt lat="43.00877" lon="0.64125">
        <ele>972.59997558594</ele>
        <time>2012-09-02T12:37:53.000Z</time>
      </trkpt>
      <trkpt lat="43.0089" lon="0.6413">
        <ele>972.79998779297</ele>
        <time>2012-09-02T12:37:58.000Z</time>
      </trkpt>
      <trkpt lat="43.00903" lon="0.64135">
        <ele>972.59997558594</ele>
        <time>2012-09-02T12:38:03.000Z</time>
      </trkpt>
      <trkpt lat="43.00922" lon="0.6414">
        <ele>972.40002441406</ele>
        <time>2012-09-02T12:38:10.000Z</time>
      </trkpt>
      <trkpt lat="43.00942" lon="0.64144">
        <ele>972.59997558594</ele>
        <time>2012-09-02T12:38:17.000Z</time>
      </trkpt>
      <trkpt lat="43.00955" lon="0.64145">
        <ele>972</ele>
        <time>2012-09-02T12:38:22.000Z</time>
      </trkpt>
      <trkpt lat="43.0097" lon="0.64141">
        <ele>970</ele>
        <time>2012-09-02T12:38:28.000Z</time>
      </trkpt>
      <trkpt lat="43.00981" lon="0.64137">
        <ele>968.20001220703</ele>
        <time>2012-09-02T12:38:31.000Z</time>
      </trkpt>
      <trkpt lat="43.01002" lon="0.6413">
        <ele>965.20001220703</ele>
        <time>2012-09-02T12:38:37.000Z</time>
      </trkpt>
      <trkpt lat="43.01019" lon="0.6412">
        <ele>965.40002441406</ele>
        <time>2012-09-02T12:38:44.000Z</time>
      </trkpt>
      <trkpt lat="43.01032" lon="0.6411">
        <ele>964.79998779297</ele>
        <time>2012-09-02T12:38:50.000Z</time>
      </trkpt>
      <trkpt lat="43.01045" lon="0.64094">
        <ele>962.79998779297</ele>
        <time>2012-09-02T12:38:56.000Z</time>
      </trkpt>
      <trkpt lat="43.01058" lon="0.6407">
        <ele>957.79998779297</ele>
        <time>2012-09-02T12:39:02.000Z</time>
      </trkpt>
      <trkpt lat="43.01071" lon="0.64043">
        <ele>951.59997558594</ele>
        <time>2012-09-02T12:39:08.000Z</time>
      </trkpt>
      <trkpt lat="43.01092" lon="0.64006">
        <ele>944</ele>
        <time>2012-09-02T12:39:15.000Z</time>
      </trkpt>
      <trkpt lat="43.01101" lon="0.6399">
        <ele>941.79998779297</ele>
        <time>2012-09-02T12:39:18.000Z</time>
      </trkpt>
      <trkpt lat="43.0112" lon="0.63961">
        <ele>939.59997558594</ele>
        <time>2012-09-02T12:39:24.000Z</time>
      </trkpt>
      <trkpt lat="43.01141" lon="0.63925">
        <ele>938.20001220703</ele>
        <time>2012-09-02T12:39:31.000Z</time>
      </trkpt>
      <trkpt lat="43.01159" lon="0.63889">
        <ele>938</ele>
        <time>2012-09-02T12:39:38.000Z</time>
      </trkpt>
      <trkpt lat="43.01169" lon="0.63872">
        <ele>938</ele>
        <time>2012-09-02T12:39:43.000Z</time>
      </trkpt>
      <trkpt lat="43.01178" lon="0.63847">
        <ele>934.20001220703</ele>
        <time>2012-09-02T12:39:50.000Z</time>
      </trkpt>
      <trkpt lat="43.01182" lon="0.63828">
        <ele>932.20001220703</ele>
        <time>2012-09-02T12:39:56.000Z</time>
      </trkpt>
      <trkpt lat="43.01185" lon="0.63816">
        <ele>931.20001220703</ele>
        <time>2012-09-02T12:40:02.000Z</time>
      </trkpt>
      <trkpt lat="43.01188" lon="0.638">
        <ele>930.20001220703</ele>
        <time>2012-09-02T12:40:07.000Z</time>
      </trkpt>
      <trkpt lat="43.01196" lon="0.63773">
        <ele>929.20001220703</ele>
        <time>2012-09-02T12:40:14.000Z</time>
      </trkpt>
      <trkpt lat="43.01205" lon="0.63755">
        <ele>929.59997558594</ele>
        <time>2012-09-02T12:40:20.000Z</time>
      </trkpt>
      <trkpt lat="43.01212" lon="0.63744">
        <ele>930.40002441406</ele>
        <time>2012-09-02T12:40:24.000Z</time>
      </trkpt>
      <trkpt lat="43.01215" lon="0.63734">
        <ele>930.59997558594</ele>
        <time>2012-09-02T12:40:28.000Z</time>
      </trkpt>
      <trkpt lat="43.0122" lon="0.6372">
        <ele>931</ele>
        <time>2012-09-02T12:40:34.000Z</time>
      </trkpt>
      <trkpt lat="43.01224" lon="0.63713">
        <ele>931.59997558594</ele>
        <time>2012-09-02T12:40:39.000Z</time>
      </trkpt>
      <trkpt lat="43.01238" lon="0.63703">
        <ele>934.59997558594</ele>
        <time>2012-09-02T12:40:46.000Z</time>
      </trkpt>
      <trkpt lat="43.01255" lon="0.63698">
        <ele>936.59997558594</ele>
        <time>2012-09-02T12:40:52.000Z</time>
      </trkpt>
      <trkpt lat="43.01264" lon="0.63701">
        <ele>935.20001220703</ele>
        <time>2012-09-02T12:40:56.000Z</time>
      </trkpt>
      <trkpt lat="43.01278" lon="0.63714">
        <ele>933.59997558594</ele>
        <time>2012-09-02T12:41:00.000Z</time>
      </trkpt>
      <trkpt lat="43.01295" lon="0.63731">
        <ele>932.20001220703</ele>
        <time>2012-09-02T12:41:04.000Z</time>
      </trkpt>
      <trkpt lat="43.01303" lon="0.63741">
        <ele>931.79998779297</ele>
        <time>2012-09-02T12:41:06.000Z</time>
      </trkpt>
      <trkpt lat="43.01324" lon="0.63762">
        <ele>930.79998779297</ele>
        <time>2012-09-02T12:41:11.000Z</time>
      </trkpt>
      <trkpt lat="43.0134" lon="0.63754">
        <ele>928</ele>
        <time>2012-09-02T12:41:14.000Z</time>
      </trkpt>
      <trkpt lat="43.01348" lon="0.63747">
        <ele>925.40002441406</ele>
        <time>2012-09-02T12:41:16.000Z</time>
      </trkpt>
      <trkpt lat="43.01356" lon="0.63739">
        <ele>923.40002441406</ele>
        <time>2012-09-02T12:41:18.000Z</time>
      </trkpt>
      <trkpt lat="43.01369" lon="0.63713">
        <ele>918.59997558594</ele>
        <time>2012-09-02T12:41:22.000Z</time>
      </trkpt>
      <trkpt lat="43.01376" lon="0.6367">
        <ele>914</ele>
        <time>2012-09-02T12:41:28.000Z</time>
      </trkpt>
      <trkpt lat="43.0138" lon="0.63628">
        <ele>910.20001220703</ele>
        <time>2012-09-02T12:41:33.000Z</time>
      </trkpt>
      <trkpt lat="43.01382" lon="0.63618">
        <ele>909</ele>
        <time>2012-09-02T12:41:34.000Z</time>
      </trkpt>
      <trkpt lat="43.01387" lon="0.6358">
        <ele>905</ele>
        <time>2012-09-02T12:41:40.000Z</time>
      </trkpt>
      <trkpt lat="43.01388" lon="0.63577">
        <ele>904.20001220703</ele>
        <time>2012-09-02T12:41:41.000Z</time>
      </trkpt>
      <trkpt lat="43.01395" lon="0.63564">
        <ele>900.79998779297</ele>
        <time>2012-09-02T12:41:46.000Z</time>
      </trkpt>
      <trkpt lat="43.01399" lon="0.63552">
        <ele>898.40002441406</ele>
        <time>2012-09-02T12:41:50.000Z</time>
      </trkpt>
      <trkpt lat="43.01407" lon="0.63532">
        <ele>894.59997558594</ele>
        <time>2012-09-02T12:41:57.000Z</time>
      </trkpt>
      <trkpt lat="43.01417" lon="0.63519">
        <ele>892</ele>
        <time>2012-09-02T12:42:02.000Z</time>
      </trkpt>
      <trkpt lat="43.01429" lon="0.63507">
        <ele>886.79998779297</ele>
        <time>2012-09-02T12:42:08.000Z</time>
      </trkpt>
      <trkpt lat="43.0143" lon="0.63505">
        <ele>886.40002441406</ele>
        <time>2012-09-02T12:42:09.000Z</time>
      </trkpt>
      <trkpt lat="43.01437" lon="0.63495">
        <ele>882.79998779297</ele>
        <time>2012-09-02T12:42:15.000Z</time>
      </trkpt>
      <trkpt lat="43.01448" lon="0.63479">
        <ele>877.20001220703</ele>
        <time>2012-09-02T12:42:21.000Z</time>
      </trkpt>
      <trkpt lat="43.01456" lon="0.63466">
        <ele>873.40002441406</ele>
        <time>2012-09-02T12:42:26.000Z</time>
      </trkpt>
      <trkpt lat="43.01466" lon="0.63455">
        <ele>869.79998779297</ele>
        <time>2012-09-02T12:42:31.000Z</time>
      </trkpt>
      <trkpt lat="43.01477" lon="0.63436">
        <ele>865.20001220703</ele>
        <time>2012-09-02T12:42:37.000Z</time>
      </trkpt>
      <trkpt lat="43.01489" lon="0.63417">
        <ele>861.59997558594</ele>
        <time>2012-09-02T12:42:42.000Z</time>
      </trkpt>
      <trkpt lat="43.01503" lon="0.63395">
        <ele>857.20001220703</ele>
        <time>2012-09-02T12:42:47.000Z</time>
      </trkpt>
      <trkpt lat="43.01522" lon="0.63359">
        <ele>852.20001220703</ele>
        <time>2012-09-02T12:42:52.000Z</time>
      </trkpt>
      <trkpt lat="43.01546" lon="0.63333">
        <ele>850</ele>
        <time>2012-09-02T12:42:57.000Z</time>
      </trkpt>
      <trkpt lat="43.01566" lon="0.63323">
        <ele>848.59997558594</ele>
        <time>2012-09-02T12:43:02.000Z</time>
      </trkpt>
      <trkpt lat="43.01577" lon="0.63322">
        <ele>848.59997558594</ele>
        <time>2012-09-02T12:43:07.000Z</time>
      </trkpt>
      <trkpt lat="43.01582" lon="0.63331">
        <ele>849.59997558594</ele>
        <time>2012-09-02T12:43:15.000Z</time>
      </trkpt>
      <trkpt lat="43.01583" lon="0.63332">
        <ele>849.79998779297</ele>
        <time>2012-09-02T12:43:18.000Z</time>
      </trkpt>
      <trkpt lat="43.01586" lon="0.63337">
        <ele>849.59997558594</ele>
        <time>2012-09-02T12:43:27.000Z</time>
      </trkpt>
      <trkpt lat="43.01594" lon="0.63357">
        <ele>848.20001220703</ele>
        <time>2012-09-02T12:43:32.000Z</time>
      </trkpt>
      <trkpt lat="43.01603" lon="0.63374">
        <ele>847</ele>
        <time>2012-09-02T12:43:35.000Z</time>
      </trkpt>
      <trkpt lat="43.0161" lon="0.63387">
        <ele>846.40002441406</ele>
        <time>2012-09-02T12:43:37.000Z</time>
      </trkpt>
      <trkpt lat="43.01617" lon="0.63411">
        <ele>846</ele>
        <time>2012-09-02T12:43:40.000Z</time>
      </trkpt>
      <trkpt lat="43.01625" lon="0.63439">
        <ele>843.59997558594</ele>
        <time>2012-09-02T12:43:43.000Z</time>
      </trkpt>
      <trkpt lat="43.01648" lon="0.63495">
        <ele>838.79998779297</ele>
        <time>2012-09-02T12:43:48.000Z</time>
      </trkpt>
      <trkpt lat="43.01663" lon="0.63535">
        <ele>836.40002441406</ele>
        <time>2012-09-02T12:43:52.000Z</time>
      </trkpt>
      <trkpt lat="43.0167" lon="0.63543">
        <ele>835</ele>
        <time>2012-09-02T12:43:55.000Z</time>
      </trkpt>
      <trkpt lat="43.01674" lon="0.63545">
        <ele>834.20001220703</ele>
        <time>2012-09-02T12:43:56.000Z</time>
      </trkpt>
      <trkpt lat="43.01691" lon="0.63562">
        <ele>829.59997558594</ele>
        <time>2012-09-02T12:44:00.000Z</time>
      </trkpt>
      <trkpt lat="43.01719" lon="0.63586">
        <ele>823.79998779297</ele>
        <time>2012-09-02T12:44:06.000Z</time>
      </trkpt>
      <trkpt lat="43.01729" lon="0.63591">
        <ele>822.20001220703</ele>
        <time>2012-09-02T12:44:08.000Z</time>
      </trkpt>
      <trkpt lat="43.01752" lon="0.63621">
        <ele>820.20001220703</ele>
        <time>2012-09-02T12:44:13.000Z</time>
      </trkpt>
      <trkpt lat="43.01773" lon="0.6364">
        <ele>820.20001220703</ele>
        <time>2012-09-02T12:44:16.000Z</time>
      </trkpt>
      <trkpt lat="43.01796" lon="0.63655">
        <ele>819.79998779297</ele>
        <time>2012-09-02T12:44:19.000Z</time>
      </trkpt>
      <trkpt lat="43.01808" lon="0.63654">
        <ele>819</ele>
        <time>2012-09-02T12:44:21.000Z</time>
      </trkpt>
      <trkpt lat="43.01819" lon="0.63663">
        <ele>818.79998779297</ele>
        <time>2012-09-02T12:44:25.000Z</time>
      </trkpt>
      <trkpt lat="43.01836" lon="0.63684">
        <ele>817.20001220703</ele>
        <time>2012-09-02T12:44:31.000Z</time>
      </trkpt>
      <trkpt lat="43.01844" lon="0.63698">
        <ele>817.20001220703</ele>
        <time>2012-09-02T12:44:35.000Z</time>
      </trkpt>
      <trkpt lat="43.01858" lon="0.63717">
        <ele>817</ele>
        <time>2012-09-02T12:44:41.000Z</time>
      </trkpt>
      <trkpt lat="43.01874" lon="0.63727">
        <ele>817.40002441406</ele>
        <time>2012-09-02T12:44:47.000Z</time>
      </trkpt>
      <trkpt lat="43.01894" lon="0.63734">
        <ele>818.20001220703</ele>
        <time>2012-09-02T12:44:53.000Z</time>
      </trkpt>
      <trkpt lat="43.01909" lon="0.63738">
        <ele>818.59997558594</ele>
        <time>2012-09-02T12:44:57.000Z</time>
      </trkpt>
      <trkpt lat="43.0193" lon="0.63749">
        <ele>817.79998779297</ele>
        <time>2012-09-02T12:45:04.000Z</time>
      </trkpt>
      <trkpt lat="43.0194" lon="0.63752">
        <ele>817.40002441406</ele>
        <time>2012-09-02T12:45:09.000Z</time>
      </trkpt>
      <trkpt lat="43.01958" lon="0.63756">
        <ele>817</ele>
        <time>2012-09-02T12:45:15.000Z</time>
      </trkpt>
      <trkpt lat="43.01977" lon="0.63756">
        <ele>818</ele>
        <time>2012-09-02T12:45:19.000Z</time>
      </trkpt>
      <trkpt lat="43.01995" lon="0.63755">
        <ele>819.20001220703</ele>
        <time>2012-09-02T12:45:22.000Z</time>
      </trkpt>
      <trkpt lat="43.02021" lon="0.63746">
        <ele>819.40002441406</ele>
        <time>2012-09-02T12:45:26.000Z</time>
      </trkpt>
      <trkpt lat="43.02066" lon="0.63722">
        <ele>818</ele>
        <time>2012-09-02T12:45:32.000Z</time>
      </trkpt>
      <trkpt lat="43.0211" lon="0.637">
        <ele>814</ele>
        <time>2012-09-02T12:45:37.000Z</time>
      </trkpt>
      <trkpt lat="43.02119" lon="0.63694">
        <ele>813.20001220703</ele>
        <time>2012-09-02T12:45:38.000Z</time>
      </trkpt>
      <trkpt lat="43.02154" lon="0.63685">
        <ele>808.20001220703</ele>
        <time>2012-09-02T12:45:42.000Z</time>
      </trkpt>
      <trkpt lat="43.02194" lon="0.63669">
        <ele>809</ele>
        <time>2012-09-02T12:45:47.000Z</time>
      </trkpt>
      <trkpt lat="43.02206" lon="0.63662">
        <ele>810</ele>
        <time>2012-09-02T12:45:50.000Z</time>
      </trkpt>
      <trkpt lat="43.02211" lon="0.63644">
        <ele>810.20001220703</ele>
        <time>2012-09-02T12:45:56.000Z</time>
      </trkpt>
      <trkpt lat="43.02212" lon="0.63624">
        <ele>810.40002441406</ele>
        <time>2012-09-02T12:46:02.000Z</time>
      </trkpt>
      <trkpt lat="43.0221" lon="0.63612">
        <ele>810.40002441406</ele>
        <time>2012-09-02T12:46:05.000Z</time>
      </trkpt>
      <trkpt lat="43.02199" lon="0.63592">
        <ele>810.20001220703</ele>
        <time>2012-09-02T12:46:10.000Z</time>
      </trkpt>
      <trkpt lat="43.02198" lon="0.63572">
        <ele>810</ele>
        <time>2012-09-02T12:46:14.000Z</time>
      </trkpt>
      <trkpt lat="43.02198" lon="0.63549">
        <ele>809.40002441406</ele>
        <time>2012-09-02T12:46:19.000Z</time>
      </trkpt>
      <trkpt lat="43.02195" lon="0.63527">
        <ele>808.79998779297</ele>
        <time>2012-09-02T12:46:24.000Z</time>
      </trkpt>
      <trkpt lat="43.02196" lon="0.63518">
        <ele>808.59997558594</ele>
        <time>2012-09-02T12:46:27.000Z</time>
      </trkpt>
      <trkpt lat="43.02199" lon="0.63516">
        <ele>808.40002441406</ele>
        <time>2012-09-02T12:46:30.000Z</time>
      </trkpt>
      <trkpt lat="43.02213" lon="0.63503">
        <ele>808.20001220703</ele>
        <time>2012-09-02T12:46:35.000Z</time>
      </trkpt>
      <trkpt lat="43.02235" lon="0.63476">
        <ele>804</ele>
        <time>2012-09-02T12:46:40.000Z</time>
      </trkpt>
      <trkpt lat="43.02252" lon="0.63451">
        <ele>800.40002441406</ele>
        <time>2012-09-02T12:46:45.000Z</time>
      </trkpt>
      <trkpt lat="43.02256" lon="0.63445">
        <ele>800.40002441406</ele>
        <time>2012-09-02T12:46:46.000Z</time>
      </trkpt>
      <trkpt lat="43.02274" lon="0.63412">
        <ele>799.59997558594</ele>
        <time>2012-09-02T12:46:51.000Z</time>
      </trkpt>
      <trkpt lat="43.02287" lon="0.63385">
        <ele>799.59997558594</ele>
        <time>2012-09-02T12:46:55.000Z</time>
      </trkpt>
      <trkpt lat="43.02296" lon="0.63367">
        <ele>799.79998779297</ele>
        <time>2012-09-02T12:46:58.000Z</time>
      </trkpt>
      <trkpt lat="43.02307" lon="0.63338">
        <ele>799.40002441406</ele>
        <time>2012-09-02T12:47:03.000Z</time>
      </trkpt>
      <trkpt lat="43.02311" lon="0.63313">
        <ele>797.59997558594</ele>
        <time>2012-09-02T12:47:06.000Z</time>
      </trkpt>
      <trkpt lat="43.02314" lon="0.63296">
        <ele>796.40002441406</ele>
        <time>2012-09-02T12:47:08.000Z</time>
      </trkpt>
      <trkpt lat="43.02324" lon="0.63258">
        <ele>795.59997558594</ele>
        <time>2012-09-02T12:47:14.000Z</time>
      </trkpt>
      <trkpt lat="43.02325" lon="0.63223">
        <ele>791.40002441406</ele>
        <time>2012-09-02T12:47:20.000Z</time>
      </trkpt>
      <trkpt lat="43.02327" lon="0.63198">
        <ele>788.40002441406</ele>
        <time>2012-09-02T12:47:24.000Z</time>
      </trkpt>
      <trkpt lat="43.02338" lon="0.63159">
        <ele>787.20001220703</ele>
        <time>2012-09-02T12:47:29.000Z</time>
      </trkpt>
      <trkpt lat="43.0234" lon="0.63152">
        <ele>786.79998779297</ele>
        <time>2012-09-02T12:47:30.000Z</time>
      </trkpt>
      <trkpt lat="43.02342" lon="0.63114">
        <ele>782.79998779297</ele>
        <time>2012-09-02T12:47:34.000Z</time>
      </trkpt>
      <trkpt lat="43.02351" lon="0.63075">
        <ele>780.79998779297</ele>
        <time>2012-09-02T12:47:38.000Z</time>
      </trkpt>
      <trkpt lat="43.02358" lon="0.63053">
        <ele>780</ele>
        <time>2012-09-02T12:47:41.000Z</time>
      </trkpt>
      <trkpt lat="43.0236" lon="0.63006">
        <ele>773.59997558594</ele>
        <time>2012-09-02T12:47:45.000Z</time>
      </trkpt>
      <trkpt lat="43.02376" lon="0.62965">
        <ele>772.79998779297</ele>
        <time>2012-09-02T12:47:51.000Z</time>
      </trkpt>
      <trkpt lat="43.02393" lon="0.62935">
        <ele>773.59997558594</ele>
        <time>2012-09-02T12:47:56.000Z</time>
      </trkpt>
      <trkpt lat="43.02401" lon="0.62923">
        <ele>774.20001220703</ele>
        <time>2012-09-02T12:47:58.000Z</time>
      </trkpt>
      <trkpt lat="43.02424" lon="0.62901">
        <ele>777.59997558594</ele>
        <time>2012-09-02T12:48:02.000Z</time>
      </trkpt>
      <trkpt lat="43.02453" lon="0.62846">
        <ele>776.40002441406</ele>
        <time>2012-09-02T12:48:07.000Z</time>
      </trkpt>
      <trkpt lat="43.02454" lon="0.62835">
        <ele>775.40002441406</ele>
        <time>2012-09-02T12:48:08.000Z</time>
      </trkpt>
      <trkpt lat="43.02459" lon="0.62801">
        <ele>773.20001220703</ele>
        <time>2012-09-02T12:48:12.000Z</time>
      </trkpt>
      <trkpt lat="43.02454" lon="0.62782">
        <ele>770.59997558594</ele>
        <time>2012-09-02T12:48:14.000Z</time>
      </trkpt>
      <trkpt lat="43.02444" lon="0.6273">
        <ele>765.79998779297</ele>
        <time>2012-09-02T12:48:19.000Z</time>
      </trkpt>
      <trkpt lat="43.02442" lon="0.6272">
        <ele>765.40002441406</ele>
        <time>2012-09-02T12:48:23.000Z</time>
      </trkpt>
      <trkpt lat="43.02449" lon="0.62722">
        <ele>766.79998779297</ele>
        <time>2012-09-02T12:48:28.000Z</time>
      </trkpt>
      <trkpt lat="43.02453" lon="0.62721">
        <ele>767.40002441406</ele>
        <time>2012-09-02T12:48:31.000Z</time>
      </trkpt>
      <trkpt lat="43.02456" lon="0.62722">
        <ele>768.20001220703</ele>
        <time>2012-09-02T12:48:37.000Z</time>
      </trkpt>
      <trkpt lat="43.02463" lon="0.62717">
        <ele>769.40002441406</ele>
        <time>2012-09-02T12:48:48.000Z</time>
      </trkpt>
      <trkpt lat="43.02467" lon="0.62715">
        <ele>770</ele>
        <time>2012-09-02T12:48:53.000Z</time>
      </trkpt>
      <trkpt lat="43.02471" lon="0.62713">
        <ele>771</ele>
        <time>2012-09-02T12:48:58.000Z</time>
      </trkpt>
      <trkpt lat="43.02476" lon="0.62708">
        <ele>771.59997558594</ele>
        <time>2012-09-02T12:49:06.000Z</time>
      </trkpt>
      <trkpt lat="43.02482" lon="0.62707">
        <ele>772.79998779297</ele>
        <time>2012-09-02T12:49:12.000Z</time>
      </trkpt>
      <trkpt lat="43.02488" lon="0.62704">
        <ele>773.79998779297</ele>
        <time>2012-09-02T12:49:18.000Z</time>
      </trkpt>
      <trkpt lat="43.02492" lon="0.62703">
        <ele>774.59997558594</ele>
        <time>2012-09-02T12:49:24.000Z</time>
      </trkpt>
      <trkpt lat="43.02495" lon="0.62704">
        <ele>775</ele>
        <time>2012-09-02T12:49:27.000Z</time>
      </trkpt>
      <trkpt lat="43.02501" lon="0.6271">
        <ele>776</ele>
        <time>2012-09-02T12:49:32.000Z</time>
      </trkpt>
      <trkpt lat="43.02506" lon="0.62719">
        <ele>775.79998779297</ele>
        <time>2012-09-02T12:49:39.000Z</time>
      </trkpt>
      <trkpt lat="43.02509" lon="0.62724">
        <ele>775.79998779297</ele>
        <time>2012-09-02T12:49:43.000Z</time>
      </trkpt>
      <trkpt lat="43.02515" lon="0.62735">
        <ele>776</ele>
        <time>2012-09-02T12:49:52.000Z</time>
      </trkpt>
      <trkpt lat="43.02516" lon="0.62738">
        <ele>776.20001220703</ele>
        <time>2012-09-02T12:49:54.000Z</time>
      </trkpt>
      <trkpt lat="43.0252" lon="0.62748">
        <ele>776.79998779297</ele>
        <time>2012-09-02T12:50:01.000Z</time>
      </trkpt>
      <trkpt lat="43.02525" lon="0.62754">
        <ele>777.40002441406</ele>
        <time>2012-09-02T12:50:08.000Z</time>
      </trkpt>
      <trkpt lat="43.02537" lon="0.62765">
        <ele>779</ele>
        <time>2012-09-02T12:50:18.000Z</time>
      </trkpt>
      <trkpt lat="43.02544" lon="0.62776">
        <ele>780.79998779297</ele>
        <time>2012-09-02T12:50:26.000Z</time>
      </trkpt>
      <trkpt lat="43.02552" lon="0.62788">
        <ele>782.59997558594</ele>
        <time>2012-09-02T12:50:35.000Z</time>
      </trkpt>
      <trkpt lat="43.02552" lon="0.62789">
        <ele>783</ele>
        <time>2012-09-02T12:50:36.000Z</time>
      </trkpt>
      <trkpt lat="43.02554" lon="0.62791">
        <ele>783.40002441406</ele>
        <time>2012-09-02T12:50:38.000Z</time>
      </trkpt>
      <trkpt lat="43.02557" lon="0.62803">
        <ele>785.20001220703</ele>
        <time>2012-09-02T12:50:46.000Z</time>
      </trkpt>
      <trkpt lat="43.02557" lon="0.62804">
        <ele>785.59997558594</ele>
        <time>2012-09-02T12:50:47.000Z</time>
      </trkpt>
      <trkpt lat="43.02555" lon="0.62814">
        <ele>787</ele>
        <time>2012-09-02T12:50:53.000Z</time>
      </trkpt>
      <trkpt lat="43.02554" lon="0.62817">
        <ele>787.40002441406</ele>
        <time>2012-09-02T12:50:56.000Z</time>
      </trkpt>
      <trkpt lat="43.02553" lon="0.62824">
        <ele>788.40002441406</ele>
        <time>2012-09-02T12:51:00.000Z</time>
      </trkpt>
      <trkpt lat="43.02554" lon="0.62828">
        <ele>789</ele>
        <time>2012-09-02T12:51:04.000Z</time>
      </trkpt>
      <trkpt lat="43.02564" lon="0.62839">
        <ele>791.79998779297</ele>
        <time>2012-09-02T12:51:11.000Z</time>
      </trkpt>
      <trkpt lat="43.02565" lon="0.62841">
        <ele>792</ele>
        <time>2012-09-02T12:51:12.000Z</time>
      </trkpt>
      <trkpt lat="43.02573" lon="0.62854">
        <ele>795</ele>
        <time>2012-09-02T12:51:22.000Z</time>
      </trkpt>
      <trkpt lat="43.02576" lon="0.6286">
        <ele>796.20001220703</ele>
        <time>2012-09-02T12:51:27.000Z</time>
      </trkpt>
      <trkpt lat="43.0258" lon="0.62865">
        <ele>797.59997558594</ele>
        <time>2012-09-02T12:51:31.000Z</time>
      </trkpt>
      <trkpt lat="43.02587" lon="0.62875">
        <ele>798</ele>
        <time>2012-09-02T12:51:40.000Z</time>
      </trkpt>
      <trkpt lat="43.02589" lon="0.62881">
        <ele>798</ele>
        <time>2012-09-02T12:51:44.000Z</time>
      </trkpt>
      <trkpt lat="43.02592" lon="0.62897">
        <ele>799</ele>
        <time>2012-09-02T12:51:52.000Z</time>
      </trkpt>
      <trkpt lat="43.02593" lon="0.62909">
        <ele>800.59997558594</ele>
        <time>2012-09-02T12:51:58.000Z</time>
      </trkpt>
      <trkpt lat="43.02596" lon="0.62924">
        <ele>801.79998779297</ele>
        <time>2012-09-02T12:52:06.000Z</time>
      </trkpt>
      <trkpt lat="43.02591" lon="0.62933">
        <ele>804.79998779297</ele>
        <time>2012-09-02T12:52:13.000Z</time>
      </trkpt>
      <trkpt lat="43.02588" lon="0.62937">
        <ele>806.59997558594</ele>
        <time>2012-09-02T12:52:19.000Z</time>
      </trkpt>
      <trkpt lat="43.0259" lon="0.62955">
        <ele>808</ele>
        <time>2012-09-02T12:53:28.000Z</time>
      </trkpt>
      <trkpt lat="43.02591" lon="0.6297">
        <ele>809.40002441406</ele>
        <time>2012-09-02T12:53:30.000Z</time>
      </trkpt>
      <trkpt lat="43.02601" lon="0.63019">
        <ele>812.40002441406</ele>
        <time>2012-09-02T12:53:35.000Z</time>
      </trkpt>
      <trkpt lat="43.02604" lon="0.6303">
        <ele>812.79998779297</ele>
        <time>2012-09-02T12:53:36.000Z</time>
      </trkpt>
      <trkpt lat="43.02628" lon="0.63074">
        <ele>811</ele>
        <time>2012-09-02T12:53:41.000Z</time>
      </trkpt>
      <trkpt lat="43.02634" lon="0.63081">
        <ele>810</ele>
        <time>2012-09-02T12:53:42.000Z</time>
      </trkpt>
      <trkpt lat="43.02659" lon="0.63111">
        <ele>806.59997558594</ele>
        <time>2012-09-02T12:53:46.000Z</time>
      </trkpt>
      <trkpt lat="43.0267" lon="0.63142">
        <ele>807</ele>
        <time>2012-09-02T12:53:50.000Z</time>
      </trkpt>
      <trkpt lat="43.02691" lon="0.63174">
        <ele>803.59997558594</ele>
        <time>2012-09-02T12:53:55.000Z</time>
      </trkpt>
      <trkpt lat="43.02709" lon="0.63199">
        <ele>799.40002441406</ele>
        <time>2012-09-02T12:53:59.000Z</time>
      </trkpt>
      <trkpt lat="43.02726" lon="0.63227">
        <ele>796.79998779297</ele>
        <time>2012-09-02T12:54:03.000Z</time>
      </trkpt>
      <trkpt lat="43.02734" lon="0.6325">
        <ele>797</ele>
        <time>2012-09-02T12:54:06.000Z</time>
      </trkpt>
      <trkpt lat="43.02737" lon="0.63273">
        <ele>796.20001220703</ele>
        <time>2012-09-02T12:54:09.000Z</time>
      </trkpt>
      <trkpt lat="43.0272" lon="0.63299">
        <ele>801.20001220703</ele>
        <time>2012-09-02T12:54:14.000Z</time>
      </trkpt>
      <trkpt lat="43.02694" lon="0.63327">
        <ele>808</ele>
        <time>2012-09-02T12:54:20.000Z</time>
      </trkpt>
      <trkpt lat="43.0269" lon="0.6333">
        <ele>809</ele>
        <time>2012-09-02T12:54:21.000Z</time>
      </trkpt>
      <trkpt lat="43.02671" lon="0.6335">
        <ele>812.79998779297</ele>
        <time>2012-09-02T12:54:27.000Z</time>
      </trkpt>
      <trkpt lat="43.02665" lon="0.63362">
        <ele>813.40002441406</ele>
        <time>2012-09-02T12:54:29.000Z</time>
      </trkpt>
      <trkpt lat="43.02656" lon="0.63395">
        <ele>813.20001220703</ele>
        <time>2012-09-02T12:54:33.000Z</time>
      </trkpt>
      <trkpt lat="43.02654" lon="0.63407">
        <ele>812.79998779297</ele>
        <time>2012-09-02T12:54:35.000Z</time>
      </trkpt>
      <trkpt lat="43.0267" lon="0.63408">
        <ele>809.20001220703</ele>
        <time>2012-09-02T12:54:39.000Z</time>
      </trkpt>
      <trkpt lat="43.02674" lon="0.63407">
        <ele>808.59997558594</ele>
        <time>2012-09-02T12:54:40.000Z</time>
      </trkpt>
      <trkpt lat="43.02684" lon="0.63398">
        <ele>807.79998779297</ele>
        <time>2012-09-02T12:54:42.000Z</time>
      </trkpt>
      <trkpt lat="43.02707" lon="0.63382">
        <ele>804.20001220703</ele>
        <time>2012-09-02T12:54:46.000Z</time>
      </trkpt>
      <trkpt lat="43.0273" lon="0.63366">
        <ele>799.40002441406</ele>
        <time>2012-09-02T12:54:50.000Z</time>
      </trkpt>
      <trkpt lat="43.02753" lon="0.6335">
        <ele>793.40002441406</ele>
        <time>2012-09-02T12:54:56.000Z</time>
      </trkpt>
      <trkpt lat="43.02771" lon="0.63339">
        <ele>787</ele>
        <time>2012-09-02T12:55:00.000Z</time>
      </trkpt>
      <trkpt lat="43.02777" lon="0.63336">
        <ele>785</ele>
        <time>2012-09-02T12:55:01.000Z</time>
      </trkpt>
      <trkpt lat="43.02804" lon="0.6333">
        <ele>775.59997558594</ele>
        <time>2012-09-02T12:55:06.000Z</time>
      </trkpt>
      <trkpt lat="43.02822" lon="0.63334">
        <ele>770.59997558594</ele>
        <time>2012-09-02T12:55:09.000Z</time>
      </trkpt>
      <trkpt lat="43.02841" lon="0.63346">
        <ele>766.59997558594</ele>
        <time>2012-09-02T12:55:12.000Z</time>
      </trkpt>
      <trkpt lat="43.02862" lon="0.63352">
        <ele>758.20001220703</ele>
        <time>2012-09-02T12:55:17.000Z</time>
      </trkpt>
      <trkpt lat="43.02876" lon="0.6336">
        <ele>753.79998779297</ele>
        <time>2012-09-02T12:55:21.000Z</time>
      </trkpt>
      <trkpt lat="43.02892" lon="0.63372">
        <ele>750.40002441406</ele>
        <time>2012-09-02T12:55:26.000Z</time>
      </trkpt>
      <trkpt lat="43.02898" lon="0.63366">
        <ele>745.40002441406</ele>
        <time>2012-09-02T12:55:30.000Z</time>
      </trkpt>
      <trkpt lat="43.02895" lon="0.63345">
        <ele>739.40002441406</ele>
        <time>2012-09-02T12:55:35.000Z</time>
      </trkpt>
      <trkpt lat="43.02889" lon="0.63328">
        <ele>737</ele>
        <time>2012-09-02T12:55:38.000Z</time>
      </trkpt>
      <trkpt lat="43.02883" lon="0.63311">
        <ele>734.59997558594</ele>
        <time>2012-09-02T12:55:42.000Z</time>
      </trkpt>
      <trkpt lat="43.02882" lon="0.63306">
        <ele>734.20001220703</ele>
        <time>2012-09-02T12:55:43.000Z</time>
      </trkpt>
      <trkpt lat="43.02874" lon="0.63275">
        <ele>729.20001220703</ele>
        <time>2012-09-02T12:55:49.000Z</time>
      </trkpt>
      <trkpt lat="43.02872" lon="0.63267">
        <ele>728</ele>
        <time>2012-09-02T12:55:51.000Z</time>
      </trkpt>
      <trkpt lat="43.0288" lon="0.63261">
        <ele>721.40002441406</ele>
        <time>2012-09-02T12:55:57.000Z</time>
      </trkpt>
      <trkpt lat="43.02892" lon="0.63266">
        <ele>716.40002441406</ele>
        <time>2012-09-02T12:56:01.000Z</time>
      </trkpt>
      <trkpt lat="43.02905" lon="0.6327">
        <ele>710</ele>
        <time>2012-09-02T12:56:05.000Z</time>
      </trkpt>
      <trkpt lat="43.02925" lon="0.63286">
        <ele>704.40002441406</ele>
        <time>2012-09-02T12:56:11.000Z</time>
      </trkpt>
      <trkpt lat="43.0293" lon="0.63287">
        <ele>702.40002441406</ele>
        <time>2012-09-02T12:56:15.000Z</time>
      </trkpt>
      <trkpt lat="43.02939" lon="0.63292">
        <ele>699.59997558594</ele>
        <time>2012-09-02T12:56:21.000Z</time>
      </trkpt>
      <trkpt lat="43.0295" lon="0.63299">
        <ele>696.40002441406</ele>
        <time>2012-09-02T12:56:25.000Z</time>
      </trkpt>
      <trkpt lat="43.02963" lon="0.63303">
        <ele>690.79998779297</ele>
        <time>2012-09-02T12:56:29.000Z</time>
      </trkpt>
      <trkpt lat="43.02975" lon="0.63306">
        <ele>686.40002441406</ele>
        <time>2012-09-02T12:56:33.000Z</time>
      </trkpt>
      <trkpt lat="43.02994" lon="0.63314">
        <ele>679.59997558594</ele>
        <time>2012-09-02T12:56:38.000Z</time>
      </trkpt>
      <trkpt lat="43.02999" lon="0.63316">
        <ele>677.59997558594</ele>
        <time>2012-09-02T12:56:39.000Z</time>
      </trkpt>
      <trkpt lat="43.03023" lon="0.63326">
        <ele>671</ele>
        <time>2012-09-02T12:56:45.000Z</time>
      </trkpt>
      <trkpt lat="43.03038" lon="0.63334">
        <ele>667</ele>
        <time>2012-09-02T12:56:50.000Z</time>
      </trkpt>
      <trkpt lat="43.03044" lon="0.63338">
        <ele>666</ele>
        <time>2012-09-02T12:56:53.000Z</time>
      </trkpt>
      <trkpt lat="43.03059" lon="0.63339">
        <ele>660.20001220703</ele>
        <time>2012-09-02T12:57:00.000Z</time>
      </trkpt>
      <trkpt lat="43.03074" lon="0.63338">
        <ele>653.40002441406</ele>
        <time>2012-09-02T12:57:06.000Z</time>
      </trkpt>
      <trkpt lat="43.03082" lon="0.6333">
        <ele>647.40002441406</ele>
        <time>2012-09-02T12:57:10.000Z</time>
      </trkpt>
      <trkpt lat="43.03087" lon="0.6331">
        <ele>640</ele>
        <time>2012-09-02T12:57:15.000Z</time>
      </trkpt>
      <trkpt lat="43.03086" lon="0.63277">
        <ele>631</ele>
        <time>2012-09-02T12:57:21.000Z</time>
      </trkpt>
      <trkpt lat="43.03085" lon="0.63254">
        <ele>625</ele>
        <time>2012-09-02T12:57:26.000Z</time>
      </trkpt>
      <trkpt lat="43.03085" lon="0.63238">
        <ele>620.79998779297</ele>
        <time>2012-09-02T12:57:31.000Z</time>
      </trkpt>
      <trkpt lat="43.03086" lon="0.63231">
        <ele>619</ele>
        <time>2012-09-02T12:57:33.000Z</time>
      </trkpt>
      <trkpt lat="43.03086" lon="0.63216">
        <ele>615.59997558594</ele>
        <time>2012-09-02T12:57:37.000Z</time>
      </trkpt>
      <trkpt lat="43.03098" lon="0.63201">
        <ele>609.40002441406</ele>
        <time>2012-09-02T12:57:44.000Z</time>
      </trkpt>
      <trkpt lat="43.03106" lon="0.63185">
        <ele>604</ele>
        <time>2012-09-02T12:57:50.000Z</time>
      </trkpt>
      <trkpt lat="43.03111" lon="0.63164">
        <ele>598.40002441406</ele>
        <time>2012-09-02T12:57:55.000Z</time>
      </trkpt>
      <trkpt lat="43.0312" lon="0.63145">
        <ele>592.59997558594</ele>
        <time>2012-09-02T12:58:01.000Z</time>
      </trkpt>
      <trkpt lat="43.03132" lon="0.6313">
        <ele>587.20001220703</ele>
        <time>2012-09-02T12:58:06.000Z</time>
      </trkpt>
      <trkpt lat="43.03142" lon="0.63118">
        <ele>582.59997558594</ele>
        <time>2012-09-02T12:58:10.000Z</time>
      </trkpt>
      <trkpt lat="43.03147" lon="0.63112">
        <ele>580.40002441406</ele>
        <time>2012-09-02T12:58:12.000Z</time>
      </trkpt>
      <trkpt lat="43.03149" lon="0.631">
        <ele>577.79998779297</ele>
        <time>2012-09-02T12:58:15.000Z</time>
      </trkpt>
      <trkpt lat="43.03151" lon="0.63094">
        <ele>576.20001220703</ele>
        <time>2012-09-02T12:58:19.000Z</time>
      </trkpt>
      <trkpt lat="43.03169" lon="0.63079">
        <ele>570.59997558594</ele>
        <time>2012-09-02T13:00:59.000Z</time>
      </trkpt>
      <trkpt lat="43.03203" lon="0.63074">
        <ele>570.40002441406</ele>
        <time>2012-09-02T13:01:04.000Z</time>
      </trkpt>
      <trkpt lat="43.0321" lon="0.63068">
        <ele>569.79998779297</ele>
        <time>2012-09-02T13:01:05.000Z</time>
      </trkpt>
      <trkpt lat="43.03238" lon="0.63038">
        <ele>567</ele>
        <time>2012-09-02T13:01:09.000Z</time>
      </trkpt>
      <trkpt lat="43.03243" lon="0.63029">
        <ele>566</ele>
        <time>2012-09-02T13:01:10.000Z</time>
      </trkpt>
      <trkpt lat="43.03252" lon="0.63007">
        <ele>564.59997558594</ele>
        <time>2012-09-02T13:01:12.000Z</time>
      </trkpt>
      <trkpt lat="43.03267" lon="0.6294">
        <ele>560</ele>
        <time>2012-09-02T13:01:17.000Z</time>
      </trkpt>
      <trkpt lat="43.03287" lon="0.62861">
        <ele>550</ele>
        <time>2012-09-02T13:01:23.000Z</time>
      </trkpt>
      <trkpt lat="43.03328" lon="0.62777">
        <ele>539.59997558594</ele>
        <time>2012-09-02T13:01:31.000Z</time>
      </trkpt>
      <trkpt lat="43.03351" lon="0.62746">
        <ele>534</ele>
        <time>2012-09-02T13:01:35.000Z</time>
      </trkpt>
      <trkpt lat="43.03374" lon="0.62756">
        <ele>535.40002441406</ele>
        <time>2012-09-02T13:01:38.000Z</time>
      </trkpt>
      <trkpt lat="43.03382" lon="0.62763">
        <ele>536.40002441406</ele>
        <time>2012-09-02T13:01:39.000Z</time>
      </trkpt>
      <trkpt lat="43.03423" lon="0.62795">
        <ele>541</ele>
        <time>2012-09-02T13:01:44.000Z</time>
      </trkpt>
      <trkpt lat="43.03464" lon="0.6283">
        <ele>539.20001220703</ele>
        <time>2012-09-02T13:01:49.000Z</time>
      </trkpt>
      <trkpt lat="43.0347" lon="0.62835">
        <ele>538.79998779297</ele>
        <time>2012-09-02T13:01:50.000Z</time>
      </trkpt>
      <trkpt lat="43.03488" lon="0.62833">
        <ele>534.40002441406</ele>
        <time>2012-09-02T13:01:54.000Z</time>
      </trkpt>
      <trkpt lat="43.03487" lon="0.62817">
        <ele>532.40002441406</ele>
        <time>2012-09-02T13:01:56.000Z</time>
      </trkpt>
      <trkpt lat="43.03488" lon="0.62786">
        <ele>527.79998779297</ele>
        <time>2012-09-02T13:02:00.000Z</time>
      </trkpt>
      <trkpt lat="43.03493" lon="0.62783">
        <ele>526.59997558594</ele>
        <time>2012-09-02T13:02:01.000Z</time>
      </trkpt>
      <trkpt lat="43.0352" lon="0.62771">
        <ele>525</ele>
        <time>2012-09-02T13:02:08.000Z</time>
      </trkpt>
      <trkpt lat="43.03546" lon="0.62757">
        <ele>523.40002441406</ele>
        <time>2012-09-02T13:02:15.000Z</time>
      </trkpt>
      <trkpt lat="43.0355" lon="0.62754">
        <ele>523</ele>
        <time>2012-09-02T13:02:16.000Z</time>
      </trkpt>
      <trkpt lat="43.03575" lon="0.62747">
        <ele>522.20001220703</ele>
        <time>2012-09-02T13:02:22.000Z</time>
      </trkpt>
      <trkpt lat="43.03595" lon="0.62753">
        <ele>524.40002441406</ele>
        <time>2012-09-02T13:02:27.000Z</time>
      </trkpt>
      <trkpt lat="43.03612" lon="0.62761">
        <ele>526.59997558594</ele>
        <time>2012-09-02T13:02:33.000Z</time>
      </trkpt>
      <trkpt lat="43.03635" lon="0.62774">
        <ele>529.59997558594</ele>
        <time>2012-09-02T13:02:41.000Z</time>
      </trkpt>
      <trkpt lat="43.03653" lon="0.62784">
        <ele>531.20001220703</ele>
        <time>2012-09-02T13:02:47.000Z</time>
      </trkpt>
      <trkpt lat="43.03669" lon="0.62793">
        <ele>532.40002441406</ele>
        <time>2012-09-02T13:02:53.000Z</time>
      </trkpt>
      <trkpt lat="43.03677" lon="0.6281">
        <ele>535.20001220703</ele>
        <time>2012-09-02T13:02:58.000Z</time>
      </trkpt>
      <trkpt lat="43.03681" lon="0.6283">
        <ele>537.20001220703</ele>
        <time>2012-09-02T13:03:01.000Z</time>
      </trkpt>
      <trkpt lat="43.03702" lon="0.6287">
        <ele>541</ele>
        <time>2012-09-02T13:03:05.000Z</time>
      </trkpt>
      <trkpt lat="43.03732" lon="0.62925">
        <ele>538.59997558594</ele>
        <time>2012-09-02T13:03:10.000Z</time>
      </trkpt>
      <trkpt lat="43.03749" lon="0.62955">
        <ele>536.20001220703</ele>
        <time>2012-09-02T13:03:13.000Z</time>
      </trkpt>
      <trkpt lat="43.03793" lon="0.63003">
        <ele>529.59997558594</ele>
        <time>2012-09-02T13:03:18.000Z</time>
      </trkpt>
      <trkpt lat="43.03802" lon="0.63012">
        <ele>527.40002441406</ele>
        <time>2012-09-02T13:03:19.000Z</time>
      </trkpt>
      <trkpt lat="43.03849" lon="0.63039">
        <ele>517.59997558594</ele>
        <time>2012-09-02T13:03:24.000Z</time>
      </trkpt>
      <trkpt lat="43.03858" lon="0.63045">
        <ele>517</ele>
        <time>2012-09-02T13:03:25.000Z</time>
      </trkpt>
      <trkpt lat="43.03891" lon="0.63057">
        <ele>515.40002441406</ele>
        <time>2012-09-02T13:03:29.000Z</time>
      </trkpt>
      <trkpt lat="43.03904" lon="0.6307">
        <ele>512.79998779297</ele>
        <time>2012-09-02T13:03:31.000Z</time>
      </trkpt>
      <trkpt lat="43.03914" lon="0.63086">
        <ele>510.39999389648</ele>
        <time>2012-09-02T13:03:33.000Z</time>
      </trkpt>
      <trkpt lat="43.03936" lon="0.63097">
        <ele>514.20001220703</ele>
        <time>2012-09-02T13:03:37.000Z</time>
      </trkpt>
      <trkpt lat="43.0395" lon="0.63088">
        <ele>515</ele>
        <time>2012-09-02T13:03:40.000Z</time>
      </trkpt>
      <trkpt lat="43.03987" lon="0.63046">
        <ele>520</ele>
        <time>2012-09-02T13:03:49.000Z</time>
      </trkpt>
      <trkpt lat="43.04021" lon="0.62999">
        <ele>519.40002441406</ele>
        <time>2012-09-02T13:03:58.000Z</time>
      </trkpt>
      <trkpt lat="43.0403" lon="0.6299">
        <ele>520</ele>
        <time>2012-09-02T13:04:00.000Z</time>
      </trkpt>
      <trkpt lat="43.04057" lon="0.62948">
        <ele>520.40002441406</ele>
        <time>2012-09-02T13:04:08.000Z</time>
      </trkpt>
      <trkpt lat="43.0408" lon="0.62904">
        <ele>519.40002441406</ele>
        <time>2012-09-02T13:04:16.000Z</time>
      </trkpt>
      <trkpt lat="43.04086" lon="0.62894">
        <ele>520.59997558594</ele>
        <time>2012-09-02T13:04:18.000Z</time>
      </trkpt>
      <trkpt lat="43.04113" lon="0.62864">
        <ele>524.40002441406</ele>
        <time>2012-09-02T13:04:25.000Z</time>
      </trkpt>
      <trkpt lat="43.04128" lon="0.62838">
        <ele>525</ele>
        <time>2012-09-02T13:04:31.000Z</time>
      </trkpt>
      <trkpt lat="43.04138" lon="0.62819">
        <ele>524.59997558594</ele>
        <time>2012-09-02T13:04:37.000Z</time>
      </trkpt>
      <trkpt lat="43.04155" lon="0.62782">
        <ele>521.79998779297</ele>
        <time>2012-09-02T13:04:47.000Z</time>
      </trkpt>
      <trkpt lat="43.04171" lon="0.62757">
        <ele>518.20001220703</ele>
        <time>2012-09-02T13:04:54.000Z</time>
      </trkpt>
      <trkpt lat="43.04175" lon="0.62755">
        <ele>518.40002441406</ele>
        <time>2012-09-02T13:04:55.000Z</time>
      </trkpt>
      <trkpt lat="43.04197" lon="0.62767">
        <ele>519.59997558594</ele>
        <time>2012-09-02T13:05:01.000Z</time>
      </trkpt>
      <trkpt lat="43.04218" lon="0.62782">
        <ele>522</ele>
        <time>2012-09-02T13:05:08.000Z</time>
      </trkpt>
      <trkpt lat="43.04241" lon="0.62796">
        <ele>525.20001220703</ele>
        <time>2012-09-02T13:05:17.000Z</time>
      </trkpt>
      <trkpt lat="43.04251" lon="0.62809">
        <ele>528.20001220703</ele>
        <time>2012-09-02T13:05:24.000Z</time>
      </trkpt>
      <trkpt lat="43.04251" lon="0.62823">
        <ele>529.79998779297</ele>
        <time>2012-09-02T13:05:30.000Z</time>
      </trkpt>
      <trkpt lat="43.04247" lon="0.62841">
        <ele>531.59997558594</ele>
        <time>2012-09-02T13:05:38.000Z</time>
      </trkpt>
      <trkpt lat="43.04243" lon="0.62854">
        <ele>533</ele>
        <time>2012-09-02T13:05:45.000Z</time>
      </trkpt>
      <trkpt lat="43.04242" lon="0.62858">
        <ele>533.40002441406</ele>
        <time>2012-09-02T13:05:47.000Z</time>
      </trkpt>
      <trkpt lat="43.04241" lon="0.62867">
        <ele>534.40002441406</ele>
        <time>2012-09-02T13:05:52.000Z</time>
      </trkpt>
      <trkpt lat="43.04238" lon="0.62878">
        <ele>535.40002441406</ele>
        <time>2012-09-02T13:05:58.000Z</time>
      </trkpt>
      <trkpt lat="43.04238" lon="0.62893">
        <ele>537.40002441406</ele>
        <time>2012-09-02T13:06:05.000Z</time>
      </trkpt>
      <trkpt lat="43.04237" lon="0.62898">
        <ele>538.20001220703</ele>
        <time>2012-09-02T13:06:08.000Z</time>
      </trkpt>
      <trkpt lat="43.04236" lon="0.62911">
        <ele>539.59997558594</ele>
        <time>2012-09-02T13:06:16.000Z</time>
      </trkpt>
      <trkpt lat="43.04237" lon="0.62921">
        <ele>541.40002441406</ele>
        <time>2012-09-02T13:06:23.000Z</time>
      </trkpt>
      <trkpt lat="43.04239" lon="0.62934">
        <ele>543.59997558594</ele>
        <time>2012-09-02T13:06:31.000Z</time>
      </trkpt>
      <trkpt lat="43.04241" lon="0.62946">
        <ele>546.20001220703</ele>
        <time>2012-09-02T13:06:39.000Z</time>
      </trkpt>
      <trkpt lat="43.04242" lon="0.62955">
        <ele>547.79998779297</ele>
        <time>2012-09-02T13:06:44.000Z</time>
      </trkpt>
      <trkpt lat="43.04244" lon="0.62967">
        <ele>550</ele>
        <time>2012-09-02T13:06:51.000Z</time>
      </trkpt>
      <trkpt lat="43.04245" lon="0.62977">
        <ele>552</ele>
        <time>2012-09-02T13:06:57.000Z</time>
      </trkpt>
      <trkpt lat="43.04247" lon="0.62987">
        <ele>554</ele>
        <time>2012-09-02T13:07:03.000Z</time>
      </trkpt>
      <trkpt lat="43.04247" lon="0.62994">
        <ele>555</ele>
        <time>2012-09-02T13:07:07.000Z</time>
      </trkpt>
      <trkpt lat="43.04249" lon="0.63002">
        <ele>556.79998779297</ele>
        <time>2012-09-02T13:07:11.000Z</time>
      </trkpt>
      <trkpt lat="43.04251" lon="0.63011">
        <ele>558.79998779297</ele>
        <time>2012-09-02T13:07:17.000Z</time>
      </trkpt>
      <trkpt lat="43.04252" lon="0.63025">
        <ele>560.79998779297</ele>
        <time>2012-09-02T13:07:26.000Z</time>
      </trkpt>
      <trkpt lat="43.0425" lon="0.63039">
        <ele>561.79998779297</ele>
        <time>2012-09-02T13:07:34.000Z</time>
      </trkpt>
      <trkpt lat="43.04252" lon="0.63054">
        <ele>564.20001220703</ele>
        <time>2012-09-02T13:07:42.000Z</time>
      </trkpt>
      <trkpt lat="43.04253" lon="0.63069">
        <ele>566.20001220703</ele>
        <time>2012-09-02T13:07:50.000Z</time>
      </trkpt>
      <trkpt lat="43.04254" lon="0.63082">
        <ele>568.20001220703</ele>
        <time>2012-09-02T13:07:57.000Z</time>
      </trkpt>
      <trkpt lat="43.04255" lon="0.63094">
        <ele>569.40002441406</ele>
        <time>2012-09-02T13:08:04.000Z</time>
      </trkpt>
      <trkpt lat="43.04255" lon="0.63101">
        <ele>570</ele>
        <time>2012-09-02T13:08:10.000Z</time>
      </trkpt>
      <trkpt lat="43.04257" lon="0.63116">
        <ele>571.40002441406</ele>
        <time>2012-09-02T13:08:19.000Z</time>
      </trkpt>
      <trkpt lat="43.04256" lon="0.63118">
        <ele>571.40002441406</ele>
        <time>2012-09-02T13:08:22.000Z</time>
      </trkpt>
      <trkpt lat="43.04248" lon="0.63126">
        <ele>569.59997558594</ele>
        <time>2012-09-02T13:09:41.000Z</time>
      </trkpt>
      <trkpt lat="43.04249" lon="0.63146">
        <ele>571.40002441406</ele>
        <time>2012-09-02T13:09:48.000Z</time>
      </trkpt>
      <trkpt lat="43.04248" lon="0.63155">
        <ele>571.79998779297</ele>
        <time>2012-09-02T13:09:50.000Z</time>
      </trkpt>
      <trkpt lat="43.0424" lon="0.63187">
        <ele>572</ele>
        <time>2012-09-02T13:09:56.000Z</time>
      </trkpt>
      <trkpt lat="43.04229" lon="0.63205">
        <ele>571.40002441406</ele>
        <time>2012-09-02T13:10:00.000Z</time>
      </trkpt>
      <trkpt lat="43.04202" lon="0.63229">
        <ele>570</ele>
        <time>2012-09-02T13:10:06.000Z</time>
      </trkpt>
      <trkpt lat="43.04185" lon="0.63244">
        <ele>570</ele>
        <time>2012-09-02T13:10:11.000Z</time>
      </trkpt>
      <trkpt lat="43.04174" lon="0.63261">
        <ele>571.40002441406</ele>
        <time>2012-09-02T13:10:16.000Z</time>
      </trkpt>
      <trkpt lat="43.04162" lon="0.63275">
        <ele>572.79998779297</ele>
        <time>2012-09-02T13:10:22.000Z</time>
      </trkpt>
      <trkpt lat="43.04152" lon="0.63292">
        <ele>574.59997558594</ele>
        <time>2012-09-02T13:10:28.000Z</time>
      </trkpt>
      <trkpt lat="43.04144" lon="0.63307">
        <ele>576.40002441406</ele>
        <time>2012-09-02T13:10:33.000Z</time>
      </trkpt>
      <trkpt lat="43.04132" lon="0.63326">
        <ele>578.59997558594</ele>
        <time>2012-09-02T13:10:39.000Z</time>
      </trkpt>
      <trkpt lat="43.04112" lon="0.63352">
        <ele>579.59997558594</ele>
        <time>2012-09-02T13:10:46.000Z</time>
      </trkpt>
      <trkpt lat="43.04109" lon="0.63357">
        <ele>579.59997558594</ele>
        <time>2012-09-02T13:10:47.000Z</time>
      </trkpt>
      <trkpt lat="43.04092" lon="0.6337">
        <ele>578.40002441406</ele>
        <time>2012-09-02T13:10:51.000Z</time>
      </trkpt>
      <trkpt lat="43.04076" lon="0.63374">
        <ele>577</ele>
        <time>2012-09-02T13:10:54.000Z</time>
      </trkpt>
      <trkpt lat="43.04065" lon="0.63381">
        <ele>576.59997558594</ele>
        <time>2012-09-02T13:10:57.000Z</time>
      </trkpt>
      <trkpt lat="43.04073" lon="0.63389">
        <ele>577.59997558594</ele>
        <time>2012-09-02T13:11:01.000Z</time>
      </trkpt>
      <trkpt lat="43.04075" lon="0.6339">
        <ele>577.79998779297</ele>
        <time>2012-09-02T13:11:02.000Z</time>
      </trkpt>
      <trkpt lat="43.04091" lon="0.63397">
        <ele>580.20001220703</ele>
        <time>2012-09-02T13:11:09.000Z</time>
      </trkpt>
      <trkpt lat="43.04103" lon="0.63404">
        <ele>582.59997558594</ele>
        <time>2012-09-02T13:11:15.000Z</time>
      </trkpt>
      <trkpt lat="43.04114" lon="0.63407">
        <ele>585</ele>
        <time>2012-09-02T13:11:21.000Z</time>
      </trkpt>
      <trkpt lat="43.04128" lon="0.63399">
        <ele>586.59997558594</ele>
        <time>2012-09-02T13:11:28.000Z</time>
      </trkpt>
      <trkpt lat="43.04136" lon="0.6339">
        <ele>587</ele>
        <time>2012-09-02T13:11:32.000Z</time>
      </trkpt>
      <trkpt lat="43.04149" lon="0.63376">
        <ele>587</ele>
        <time>2012-09-02T13:11:38.000Z</time>
      </trkpt>
      <trkpt lat="43.04155" lon="0.63364">
        <ele>586.20001220703</ele>
        <time>2012-09-02T13:11:41.000Z</time>
      </trkpt>
      <trkpt lat="43.04162" lon="0.63352">
        <ele>585.40002441406</ele>
        <time>2012-09-02T13:11:43.000Z</time>
      </trkpt>
      <trkpt lat="43.04184" lon="0.63329">
        <ele>582.79998779297</ele>
        <time>2012-09-02T13:11:48.000Z</time>
      </trkpt>
      <trkpt lat="43.04196" lon="0.63318">
        <ele>581.79998779297</ele>
        <time>2012-09-02T13:11:51.000Z</time>
      </trkpt>
      <trkpt lat="43.04206" lon="0.63313">
        <ele>581.59997558594</ele>
        <time>2012-09-02T13:11:53.000Z</time>
      </trkpt>
      <trkpt lat="43.0422" lon="0.6331">
        <ele>582</ele>
        <time>2012-09-02T13:11:56.000Z</time>
      </trkpt>
      <trkpt lat="43.04244" lon="0.63309">
        <ele>583</ele>
        <time>2012-09-02T13:12:00.000Z</time>
      </trkpt>
      <trkpt lat="43.04279" lon="0.6332">
        <ele>581.20001220703</ele>
        <time>2012-09-02T13:12:05.000Z</time>
      </trkpt>
      <trkpt lat="43.04292" lon="0.63326">
        <ele>579.79998779297</ele>
        <time>2012-09-02T13:12:07.000Z</time>
      </trkpt>
      <trkpt lat="43.04316" lon="0.63344">
        <ele>578.59997558594</ele>
        <time>2012-09-02T13:12:11.000Z</time>
      </trkpt>
      <trkpt lat="43.04339" lon="0.6336">
        <ele>577.79998779297</ele>
        <time>2012-09-02T13:12:15.000Z</time>
      </trkpt>
      <trkpt lat="43.04354" lon="0.63375">
        <ele>577.20001220703</ele>
        <time>2012-09-02T13:12:18.000Z</time>
      </trkpt>
      <trkpt lat="43.04372" lon="0.634">
        <ele>576</ele>
        <time>2012-09-02T13:12:22.000Z</time>
      </trkpt>
      <trkpt lat="43.04392" lon="0.63431">
        <ele>573.59997558594</ele>
        <time>2012-09-02T13:12:27.000Z</time>
      </trkpt>
      <trkpt lat="43.04429" lon="0.6347">
        <ele>570</ele>
        <time>2012-09-02T13:12:33.000Z</time>
      </trkpt>
      <trkpt lat="43.04435" lon="0.63478">
        <ele>570.20001220703</ele>
        <time>2012-09-02T13:12:34.000Z</time>
      </trkpt>
      <trkpt lat="43.04456" lon="0.63498">
        <ele>568.79998779297</ele>
        <time>2012-09-02T13:12:37.000Z</time>
      </trkpt>
      <trkpt lat="43.04481" lon="0.6351">
        <ele>564.40002441406</ele>
        <time>2012-09-02T13:12:41.000Z</time>
      </trkpt>
      <trkpt lat="43.04499" lon="0.63521">
        <ele>560.79998779297</ele>
        <time>2012-09-02T13:12:45.000Z</time>
      </trkpt>
      <trkpt lat="43.04511" lon="0.63538">
        <ele>560.59997558594</ele>
        <time>2012-09-02T13:12:48.000Z</time>
      </trkpt>
      <trkpt lat="43.04516" lon="0.63567">
        <ele>559.59997558594</ele>
        <time>2012-09-02T13:12:51.000Z</time>
      </trkpt>
      <trkpt lat="43.04525" lon="0.63596">
        <ele>557.40002441406</ele>
        <time>2012-09-02T13:12:56.000Z</time>
      </trkpt>
      <trkpt lat="43.04525" lon="0.63603">
        <ele>556.59997558594</ele>
        <time>2012-09-02T13:12:58.000Z</time>
      </trkpt>
      <trkpt lat="43.0453" lon="0.63628">
        <ele>553.59997558594</ele>
        <time>2012-09-02T13:13:03.000Z</time>
      </trkpt>
      <trkpt lat="43.04532" lon="0.6364">
        <ele>552</ele>
        <time>2012-09-02T13:13:05.000Z</time>
      </trkpt>
      <trkpt lat="43.04534" lon="0.63655">
        <ele>550</ele>
        <time>2012-09-02T13:13:07.000Z</time>
      </trkpt>
      <trkpt lat="43.04544" lon="0.63703">
        <ele>542</ele>
        <time>2012-09-02T13:13:12.000Z</time>
      </trkpt>
      <trkpt lat="43.04559" lon="0.63734">
        <ele>536</ele>
        <time>2012-09-02T13:13:16.000Z</time>
      </trkpt>
      <trkpt lat="43.0457" lon="0.63746">
        <ele>533.40002441406</ele>
        <time>2012-09-02T13:13:18.000Z</time>
      </trkpt>
      <trkpt lat="43.04577" lon="0.63758">
        <ele>531.20001220703</ele>
        <time>2012-09-02T13:13:20.000Z</time>
      </trkpt>
      <trkpt lat="43.04587" lon="0.63803">
        <ele>524.79998779297</ele>
        <time>2012-09-02T13:13:25.000Z</time>
      </trkpt>
      <trkpt lat="43.04591" lon="0.6385">
        <ele>520.40002441406</ele>
        <time>2012-09-02T13:13:28.000Z</time>
      </trkpt>
      <trkpt lat="43.04594" lon="0.63872">
        <ele>520</ele>
        <time>2012-09-02T13:13:30.000Z</time>
      </trkpt>
      <trkpt lat="43.04586" lon="0.63913">
        <ele>515.79998779297</ele>
        <time>2012-09-02T13:13:34.000Z</time>
      </trkpt>
      <trkpt lat="43.04581" lon="0.63924">
        <ele>514.79998779297</ele>
        <time>2012-09-02T13:13:35.000Z</time>
      </trkpt>
      <trkpt lat="43.04555" lon="0.63991">
        <ele>511.20001220703</ele>
        <time>2012-09-02T13:13:41.000Z</time>
      </trkpt>
      <trkpt lat="43.04542" lon="0.64048">
        <ele>507.79998779297</ele>
        <time>2012-09-02T13:13:46.000Z</time>
      </trkpt>
      <trkpt lat="43.04546" lon="0.64061">
        <ele>507.79998779297</ele>
        <time>2012-09-02T13:13:49.000Z</time>
      </trkpt>
      <trkpt lat="43.04553" lon="0.64073">
        <ele>508.60000610352</ele>
        <time>2012-09-02T13:13:53.000Z</time>
      </trkpt>
      <trkpt lat="43.04556" lon="0.64075">
        <ele>508.79998779297</ele>
        <time>2012-09-02T13:13:54.000Z</time>
      </trkpt>
      <trkpt lat="43.04559" lon="0.64089">
        <ele>509</ele>
        <time>2012-09-02T13:13:59.000Z</time>
      </trkpt>
      <trkpt lat="43.04555" lon="0.64096">
        <ele>508.20001220703</ele>
        <time>2012-09-02T13:14:01.000Z</time>
      </trkpt>
      <trkpt lat="43.04552" lon="0.64115">
        <ele>506.79998779297</ele>
        <time>2012-09-02T13:14:05.000Z</time>
      </trkpt>
      <trkpt lat="43.04559" lon="0.64143">
        <ele>507.20001220703</ele>
        <time>2012-09-02T13:14:12.000Z</time>
      </trkpt>
      <trkpt lat="43.04561" lon="0.64147">
        <ele>507.39999389648</ele>
        <time>2012-09-02T13:14:13.000Z</time>
      </trkpt>
      <trkpt lat="43.04568" lon="0.6417">
        <ele>508</ele>
        <time>2012-09-02T13:14:20.000Z</time>
      </trkpt>
      <trkpt lat="43.04573" lon="0.64188">
        <ele>508.39999389648</ele>
        <time>2012-09-02T13:14:25.000Z</time>
      </trkpt>
      <trkpt lat="43.0458" lon="0.64206">
        <ele>509</ele>
        <time>2012-09-02T13:14:30.000Z</time>
      </trkpt>
      <trkpt lat="43.04583" lon="0.64214">
        <ele>509.20001220703</ele>
        <time>2012-09-02T13:14:32.000Z</time>
      </trkpt>
      <trkpt lat="43.04595" lon="0.64225">
        <ele>510.79998779297</ele>
        <time>2012-09-02T13:14:38.000Z</time>
      </trkpt>
      <trkpt lat="43.04605" lon="0.6423">
        <ele>512.20001220703</ele>
        <time>2012-09-02T13:14:44.000Z</time>
      </trkpt>
      <trkpt lat="43.04615" lon="0.6424">
        <ele>513</ele>
        <time>2012-09-02T13:14:50.000Z</time>
      </trkpt>
      <trkpt lat="43.04618" lon="0.64248">
        <ele>512.79998779297</ele>
        <time>2012-09-02T13:14:54.000Z</time>
      </trkpt>
      <trkpt lat="43.0462" lon="0.64253">
        <ele>512.79998779297</ele>
        <time>2012-09-02T13:14:59.000Z</time>
      </trkpt>
      <trkpt lat="43.04627" lon="0.64262">
        <ele>513.59997558594</ele>
        <time>2012-09-02T13:15:16.000Z</time>
      </trkpt>
      <trkpt lat="43.04621" lon="0.64264">
        <ele>512.79998779297</ele>
        <time>2012-09-02T13:16:07.000Z</time>
      </trkpt>
      <trkpt lat="43.0461" lon="0.64272">
        <ele>511.79998779297</ele>
        <time>2012-09-02T13:16:12.000Z</time>
      </trkpt>
      <trkpt lat="43.04591" lon="0.6427">
        <ele>509.79998779297</ele>
        <time>2012-09-02T13:16:15.000Z</time>
      </trkpt>
      <trkpt lat="43.04533" lon="0.64265">
        <ele>502.60000610352</ele>
        <time>2012-09-02T13:16:21.000Z</time>
      </trkpt>
      <trkpt lat="43.04486" lon="0.64264">
        <ele>497</ele>
        <time>2012-09-02T13:16:26.000Z</time>
      </trkpt>
      <trkpt lat="43.04456" lon="0.64287">
        <ele>497</ele>
        <time>2012-09-02T13:16:30.000Z</time>
      </trkpt>
      <trkpt lat="43.04412" lon="0.64342">
        <ele>496.60000610352</ele>
        <time>2012-09-02T13:16:37.000Z</time>
      </trkpt>
      <trkpt lat="43.04383" lon="0.64386">
        <ele>497.39999389648</ele>
        <time>2012-09-02T13:16:42.000Z</time>
      </trkpt>
      <trkpt lat="43.0436" lon="0.6443">
        <ele>496.20001220703</ele>
        <time>2012-09-02T13:16:47.000Z</time>
      </trkpt>
      <trkpt lat="43.04343" lon="0.6447">
        <ele>494.60000610352</ele>
        <time>2012-09-02T13:16:52.000Z</time>
      </trkpt>
      <trkpt lat="43.04339" lon="0.64484">
        <ele>494.20001220703</ele>
        <time>2012-09-02T13:16:54.000Z</time>
      </trkpt>
      <trkpt lat="43.04326" lon="0.64515">
        <ele>493.39999389648</ele>
        <time>2012-09-02T13:17:00.000Z</time>
      </trkpt>
      <trkpt lat="43.04329" lon="0.64541">
        <ele>495.39999389648</ele>
        <time>2012-09-02T13:17:06.000Z</time>
      </trkpt>
      <trkpt lat="43.04331" lon="0.6456">
        <ele>496.79998779297</ele>
        <time>2012-09-02T13:17:12.000Z</time>
      </trkpt>
      <trkpt lat="43.04331" lon="0.64578">
        <ele>498.20001220703</ele>
        <time>2012-09-02T13:17:17.000Z</time>
      </trkpt>
      <trkpt lat="43.04333" lon="0.64597">
        <ele>499.39999389648</ele>
        <time>2012-09-02T13:17:22.000Z</time>
      </trkpt>
      <trkpt lat="43.04335" lon="0.64623">
        <ele>501</ele>
        <time>2012-09-02T13:17:29.000Z</time>
      </trkpt>
      <trkpt lat="43.04337" lon="0.6464">
        <ele>502.39999389648</ele>
        <time>2012-09-02T13:17:34.000Z</time>
      </trkpt>
      <trkpt lat="43.04338" lon="0.64659">
        <ele>503.60000610352</ele>
        <time>2012-09-02T13:17:41.000Z</time>
      </trkpt>
      <trkpt lat="43.04343" lon="0.6468">
        <ele>506</ele>
        <time>2012-09-02T13:17:47.000Z</time>
      </trkpt>
      <trkpt lat="43.04345" lon="0.64702">
        <ele>507.79998779297</ele>
        <time>2012-09-02T13:17:54.000Z</time>
      </trkpt>
      <trkpt lat="43.04343" lon="0.64724">
        <ele>507.60000610352</ele>
        <time>2012-09-02T13:18:00.000Z</time>
      </trkpt>
      <trkpt lat="43.04343" lon="0.64764">
        <ele>508.39999389648</ele>
        <time>2012-09-02T13:18:09.000Z</time>
      </trkpt>
      <trkpt lat="43.04345" lon="0.64802">
        <ele>508.20001220703</ele>
        <time>2012-09-02T13:18:17.000Z</time>
      </trkpt>
      <trkpt lat="43.04346" lon="0.6484">
        <ele>508.20001220703</ele>
        <time>2012-09-02T13:18:24.000Z</time>
      </trkpt>
      <trkpt lat="43.04347" lon="0.64846">
        <ele>508.60000610352</ele>
        <time>2012-09-02T13:18:25.000Z</time>
      </trkpt>
      <trkpt lat="43.04353" lon="0.64887">
        <ele>511.20001220703</ele>
        <time>2012-09-02T13:18:32.000Z</time>
      </trkpt>
      <trkpt lat="43.04358" lon="0.64915">
        <ele>512.79998779297</ele>
        <time>2012-09-02T13:18:37.000Z</time>
      </trkpt>
      <trkpt lat="43.04364" lon="0.64944">
        <ele>512.79998779297</ele>
        <time>2012-09-02T13:18:42.000Z</time>
      </trkpt>
      <trkpt lat="43.04368" lon="0.64966">
        <ele>512.79998779297</ele>
        <time>2012-09-02T13:18:46.000Z</time>
      </trkpt>
      <trkpt lat="43.04369" lon="0.64971">
        <ele>512.59997558594</ele>
        <time>2012-09-02T13:18:47.000Z</time>
      </trkpt>
      <trkpt lat="43.04376" lon="0.65002">
        <ele>513.20001220703</ele>
        <time>2012-09-02T13:18:52.000Z</time>
      </trkpt>
      <trkpt lat="43.04381" lon="0.6502">
        <ele>514</ele>
        <time>2012-09-02T13:18:55.000Z</time>
      </trkpt>
      <trkpt lat="43.04393" lon="0.65061">
        <ele>515.40002441406</ele>
        <time>2012-09-02T13:19:02.000Z</time>
      </trkpt>
      <trkpt lat="43.04399" lon="0.65087">
        <ele>515</ele>
        <time>2012-09-02T13:19:07.000Z</time>
      </trkpt>
      <trkpt lat="43.04404" lon="0.65113">
        <ele>514.20001220703</ele>
        <time>2012-09-02T13:19:12.000Z</time>
      </trkpt>
      <trkpt lat="43.0441" lon="0.65143">
        <ele>513.20001220703</ele>
        <time>2012-09-02T13:19:18.000Z</time>
      </trkpt>
      <trkpt lat="43.04416" lon="0.65166">
        <ele>513</ele>
        <time>2012-09-02T13:19:23.000Z</time>
      </trkpt>
      <trkpt lat="43.04426" lon="0.65184">
        <ele>514.79998779297</ele>
        <time>2012-09-02T13:19:27.000Z</time>
      </trkpt>
      <trkpt lat="43.04438" lon="0.65211">
        <ele>516.79998779297</ele>
        <time>2012-09-02T13:19:33.000Z</time>
      </trkpt>
      <trkpt lat="43.04448" lon="0.6523">
        <ele>518</ele>
        <time>2012-09-02T13:19:38.000Z</time>
      </trkpt>
      <trkpt lat="43.04457" lon="0.6525">
        <ele>519.20001220703</ele>
        <time>2012-09-02T13:19:43.000Z</time>
      </trkpt>
      <trkpt lat="43.04466" lon="0.65266">
        <ele>520</ele>
        <time>2012-09-02T13:19:48.000Z</time>
      </trkpt>
      <trkpt lat="43.04477" lon="0.65285">
        <ele>521.59997558594</ele>
        <time>2012-09-02T13:19:53.000Z</time>
      </trkpt>
      <trkpt lat="43.04487" lon="0.65306">
        <ele>522.79998779297</ele>
        <time>2012-09-02T13:19:58.000Z</time>
      </trkpt>
      <trkpt lat="43.04494" lon="0.65323">
        <ele>523</ele>
        <time>2012-09-02T13:20:03.000Z</time>
      </trkpt>
      <trkpt lat="43.04501" lon="0.6534">
        <ele>523.59997558594</ele>
        <time>2012-09-02T13:20:08.000Z</time>
      </trkpt>
      <trkpt lat="43.04508" lon="0.65358">
        <ele>525</ele>
        <time>2012-09-02T13:20:13.000Z</time>
      </trkpt>
      <trkpt lat="43.04517" lon="0.65381">
        <ele>526.40002441406</ele>
        <time>2012-09-02T13:20:19.000Z</time>
      </trkpt>
      <trkpt lat="43.04527" lon="0.65405">
        <ele>528</ele>
        <time>2012-09-02T13:20:25.000Z</time>
      </trkpt>
      <trkpt lat="43.04539" lon="0.6543">
        <ele>530.59997558594</ele>
        <time>2012-09-02T13:20:31.000Z</time>
      </trkpt>
      <trkpt lat="43.04546" lon="0.65446">
        <ele>532.20001220703</ele>
        <time>2012-09-02T13:20:36.000Z</time>
      </trkpt>
      <trkpt lat="43.04552" lon="0.65463">
        <ele>533.20001220703</ele>
        <time>2012-09-02T13:20:41.000Z</time>
      </trkpt>
      <trkpt lat="43.04561" lon="0.65484">
        <ele>535.20001220703</ele>
        <time>2012-09-02T13:20:47.000Z</time>
      </trkpt>
      <trkpt lat="43.0457" lon="0.65503">
        <ele>537.20001220703</ele>
        <time>2012-09-02T13:20:52.000Z</time>
      </trkpt>
      <trkpt lat="43.04578" lon="0.65519">
        <ele>537.79998779297</ele>
        <time>2012-09-02T13:20:57.000Z</time>
      </trkpt>
      <trkpt lat="43.04586" lon="0.65539">
        <ele>538</ele>
        <time>2012-09-02T13:21:03.000Z</time>
      </trkpt>
      <trkpt lat="43.04598" lon="0.65559">
        <ele>539.20001220703</ele>
        <time>2012-09-02T13:21:09.000Z</time>
      </trkpt>
      <trkpt lat="43.046" lon="0.65561">
        <ele>539.59997558594</ele>
        <time>2012-09-02T13:21:10.000Z</time>
      </trkpt>
      <trkpt lat="43.04611" lon="0.65581">
        <ele>540.59997558594</ele>
        <time>2012-09-02T13:21:18.000Z</time>
      </trkpt>
      <trkpt lat="43.04619" lon="0.65595">
        <ele>541.59997558594</ele>
        <time>2012-09-02T13:21:24.000Z</time>
      </trkpt>
      <trkpt lat="43.04627" lon="0.65614">
        <ele>541.79998779297</ele>
        <time>2012-09-02T13:21:32.000Z</time>
      </trkpt>
      <trkpt lat="43.04638" lon="0.65629">
        <ele>544</ele>
        <time>2012-09-02T13:21:39.000Z</time>
      </trkpt>
      <trkpt lat="43.04646" lon="0.65642">
        <ele>545.59997558594</ele>
        <time>2012-09-02T13:21:46.000Z</time>
      </trkpt>
      <trkpt lat="43.04648" lon="0.65644">
        <ele>545.79998779297</ele>
        <time>2012-09-02T13:21:48.000Z</time>
      </trkpt>
      <trkpt lat="43.04659" lon="0.6566">
        <ele>547.79998779297</ele>
        <time>2012-09-02T13:21:56.000Z</time>
      </trkpt>
      <trkpt lat="43.04667" lon="0.65671">
        <ele>549.40002441406</ele>
        <time>2012-09-02T13:22:02.000Z</time>
      </trkpt>
      <trkpt lat="43.04676" lon="0.65684">
        <ele>549.79998779297</ele>
        <time>2012-09-02T13:22:09.000Z</time>
      </trkpt>
      <trkpt lat="43.04681" lon="0.65692">
        <ele>550</ele>
        <time>2012-09-02T13:22:14.000Z</time>
      </trkpt>
      <trkpt lat="43.04688" lon="0.65701">
        <ele>550.79998779297</ele>
        <time>2012-09-02T13:22:21.000Z</time>
      </trkpt>
      <trkpt lat="43.04699" lon="0.65714">
        <ele>551.79998779297</ele>
        <time>2012-09-02T13:22:28.000Z</time>
      </trkpt>
      <trkpt lat="43.04711" lon="0.65723">
        <ele>554</ele>
        <time>2012-09-02T13:22:35.000Z</time>
      </trkpt>
      <trkpt lat="43.04714" lon="0.65726">
        <ele>554.40002441406</ele>
        <time>2012-09-02T13:22:37.000Z</time>
      </trkpt>
      <trkpt lat="43.04726" lon="0.65739">
        <ele>556.20001220703</ele>
        <time>2012-09-02T13:22:45.000Z</time>
      </trkpt>
      <trkpt lat="43.04732" lon="0.65743">
        <ele>557.40002441406</ele>
        <time>2012-09-02T13:22:49.000Z</time>
      </trkpt>
      <trkpt lat="43.04741" lon="0.65751">
        <ele>559.20001220703</ele>
        <time>2012-09-02T13:22:56.000Z</time>
      </trkpt>
      <trkpt lat="43.0475" lon="0.65765">
        <ele>559.59997558594</ele>
        <time>2012-09-02T13:23:04.000Z</time>
      </trkpt>
      <trkpt lat="43.04751" lon="0.6577">
        <ele>559.40002441406</ele>
        <time>2012-09-02T13:23:07.000Z</time>
      </trkpt>
      <trkpt lat="43.04754" lon="0.65776">
        <ele>559.40002441406</ele>
        <time>2012-09-02T13:23:11.000Z</time>
      </trkpt>
      <trkpt lat="43.0476" lon="0.65786">
        <ele>559.79998779297</ele>
        <time>2012-09-02T13:23:18.000Z</time>
      </trkpt>
      <trkpt lat="43.04762" lon="0.65788">
        <ele>559.79998779297</ele>
        <time>2012-09-02T13:23:20.000Z</time>
      </trkpt>
      <trkpt lat="43.04766" lon="0.65796">
        <ele>560.20001220703</ele>
        <time>2012-09-02T13:23:26.000Z</time>
      </trkpt>
      <trkpt lat="43.04769" lon="0.65808">
        <ele>559.59997558594</ele>
        <time>2012-09-02T13:23:34.000Z</time>
      </trkpt>
      <trkpt lat="43.04772" lon="0.65818">
        <ele>559.40002441406</ele>
        <time>2012-09-02T13:23:42.000Z</time>
      </trkpt>
      <trkpt lat="43.04773" lon="0.65819">
        <ele>559.40002441406</ele>
        <time>2012-09-02T13:23:43.000Z</time>
      </trkpt>
      <trkpt lat="43.04776" lon="0.65826">
        <ele>559.79998779297</ele>
        <time>2012-09-02T13:23:51.000Z</time>
      </trkpt>
      <trkpt lat="43.04779" lon="0.65832">
        <ele>559.79998779297</ele>
        <time>2012-09-02T13:23:57.000Z</time>
      </trkpt>
      <trkpt lat="43.04779" lon="0.65832">
        <ele>559.79998779297</ele>
        <time>2012-09-02T13:23:58.000Z</time>
      </trkpt>
      <trkpt lat="43.04789" lon="0.65853">
        <ele>560</ele>
        <time>2012-09-02T13:24:17.000Z</time>
      </trkpt>
      <trkpt lat="43.04794" lon="0.65864">
        <ele>560</ele>
        <time>2012-09-02T13:24:23.000Z</time>
      </trkpt>
      <trkpt lat="43.04801" lon="0.65875">
        <ele>561</ele>
        <time>2012-09-02T13:24:29.000Z</time>
      </trkpt>
      <trkpt lat="43.04811" lon="0.65889">
        <ele>562.59997558594</ele>
        <time>2012-09-02T13:24:36.000Z</time>
      </trkpt>
      <trkpt lat="43.04823" lon="0.65908">
        <ele>564</ele>
        <time>2012-09-02T13:24:43.000Z</time>
      </trkpt>
      <trkpt lat="43.04831" lon="0.65924">
        <ele>564.59997558594</ele>
        <time>2012-09-02T13:24:49.000Z</time>
      </trkpt>
      <trkpt lat="43.04839" lon="0.65942">
        <ele>564.59997558594</ele>
        <time>2012-09-02T13:24:56.000Z</time>
      </trkpt>
      <trkpt lat="43.04843" lon="0.65948">
        <ele>565</ele>
        <time>2012-09-02T13:24:59.000Z</time>
      </trkpt>
      <trkpt lat="43.04846" lon="0.65955">
        <ele>565.20001220703</ele>
        <time>2012-09-02T13:25:03.000Z</time>
      </trkpt>
      <trkpt lat="43.04855" lon="0.65968">
        <ele>566.40002441406</ele>
        <time>2012-09-02T13:25:09.000Z</time>
      </trkpt>
      <trkpt lat="43.04866" lon="0.65985">
        <ele>568.20001220703</ele>
        <time>2012-09-02T13:25:16.000Z</time>
      </trkpt>
      <trkpt lat="43.04876" lon="0.65999">
        <ele>570.79998779297</ele>
        <time>2012-09-02T13:25:22.000Z</time>
      </trkpt>
      <trkpt lat="43.04883" lon="0.66011">
        <ele>571.79998779297</ele>
        <time>2012-09-02T13:25:28.000Z</time>
      </trkpt>
      <trkpt lat="43.04893" lon="0.66023">
        <ele>573.79998779297</ele>
        <time>2012-09-02T13:25:35.000Z</time>
      </trkpt>
      <trkpt lat="43.04899" lon="0.66031">
        <ele>575.20001220703</ele>
        <time>2012-09-02T13:25:41.000Z</time>
      </trkpt>
      <trkpt lat="43.04906" lon="0.66041">
        <ele>576.79998779297</ele>
        <time>2012-09-02T13:25:47.000Z</time>
      </trkpt>
      <trkpt lat="43.04912" lon="0.66049">
        <ele>578</ele>
        <time>2012-09-02T13:25:53.000Z</time>
      </trkpt>
      <trkpt lat="43.0492" lon="0.6606">
        <ele>579</ele>
        <time>2012-09-02T13:25:59.000Z</time>
      </trkpt>
      <trkpt lat="43.04927" lon="0.66072">
        <ele>578.79998779297</ele>
        <time>2012-09-02T13:26:05.000Z</time>
      </trkpt>
      <trkpt lat="43.04936" lon="0.66083">
        <ele>579.40002441406</ele>
        <time>2012-09-02T13:26:10.000Z</time>
      </trkpt>
      <trkpt lat="43.04946" lon="0.66098">
        <ele>578.79998779297</ele>
        <time>2012-09-02T13:26:16.000Z</time>
      </trkpt>
      <trkpt lat="43.04959" lon="0.66108">
        <ele>579.79998779297</ele>
        <time>2012-09-02T13:26:21.000Z</time>
      </trkpt>
      <trkpt lat="43.04974" lon="0.66121">
        <ele>580.79998779297</ele>
        <time>2012-09-02T13:26:27.000Z</time>
      </trkpt>
      <trkpt lat="43.04988" lon="0.66131">
        <ele>582.20001220703</ele>
        <time>2012-09-02T13:26:32.000Z</time>
      </trkpt>
      <trkpt lat="43.04999" lon="0.66142">
        <ele>582.79998779297</ele>
        <time>2012-09-02T13:26:36.000Z</time>
      </trkpt>
      <trkpt lat="43.05017" lon="0.66161">
        <ele>579.79998779297</ele>
        <time>2012-09-02T13:26:42.000Z</time>
      </trkpt>
      <trkpt lat="43.05029" lon="0.66174">
        <ele>578</ele>
        <time>2012-09-02T13:26:46.000Z</time>
      </trkpt>
      <trkpt lat="43.05039" lon="0.66184">
        <ele>576.79998779297</ele>
        <time>2012-09-02T13:26:50.000Z</time>
      </trkpt>
      <trkpt lat="43.05057" lon="0.66203">
        <ele>575.40002441406</ele>
        <time>2012-09-02T13:26:55.000Z</time>
      </trkpt>
      <trkpt lat="43.05075" lon="0.66226">
        <ele>574.59997558594</ele>
        <time>2012-09-02T13:27:00.000Z</time>
      </trkpt>
      <trkpt lat="43.05086" lon="0.66243">
        <ele>574.20001220703</ele>
        <time>2012-09-02T13:27:04.000Z</time>
      </trkpt>
      <trkpt lat="43.05104" lon="0.66258">
        <ele>572.79998779297</ele>
        <time>2012-09-02T13:27:09.000Z</time>
      </trkpt>
      <trkpt lat="43.05131" lon="0.6628">
        <ele>570.40002441406</ele>
        <time>2012-09-02T13:27:16.000Z</time>
      </trkpt>
      <trkpt lat="43.05155" lon="0.663">
        <ele>569.79998779297</ele>
        <time>2012-09-02T13:27:21.000Z</time>
      </trkpt>
      <trkpt lat="43.0518" lon="0.66322">
        <ele>568.20001220703</ele>
        <time>2012-09-02T13:27:25.000Z</time>
      </trkpt>
      <trkpt lat="43.05211" lon="0.66329">
        <ele>568</ele>
        <time>2012-09-02T13:27:30.000Z</time>
      </trkpt>
      <trkpt lat="43.05215" lon="0.66326">
        <ele>568.40002441406</ele>
        <time>2012-09-02T13:27:31.000Z</time>
      </trkpt>
      <trkpt lat="43.05243" lon="0.66301">
        <ele>571</ele>
        <time>2012-09-02T13:27:37.000Z</time>
      </trkpt>
      <trkpt lat="43.05256" lon="0.66284">
        <ele>572.79998779297</ele>
        <time>2012-09-02T13:27:40.000Z</time>
      </trkpt>
      <trkpt lat="43.05277" lon="0.66273">
        <ele>576.20001220703</ele>
        <time>2012-09-02T13:27:44.000Z</time>
      </trkpt>
      <trkpt lat="43.05288" lon="0.66275">
        <ele>577.40002441406</ele>
        <time>2012-09-02T13:27:47.000Z</time>
      </trkpt>
      <trkpt lat="43.05303" lon="0.66281">
        <ele>578.59997558594</ele>
        <time>2012-09-02T13:27:53.000Z</time>
      </trkpt>
      <trkpt lat="43.05319" lon="0.66295">
        <ele>579</ele>
        <time>2012-09-02T13:27:59.000Z</time>
      </trkpt>
      <trkpt lat="43.05335" lon="0.66312">
        <ele>578.59997558594</ele>
        <time>2012-09-02T13:28:05.000Z</time>
      </trkpt>
      <trkpt lat="43.0535" lon="0.66335">
        <ele>578.59997558594</ele>
        <time>2012-09-02T13:28:10.000Z</time>
      </trkpt>
      <trkpt lat="43.05353" lon="0.66346">
        <ele>577.59997558594</ele>
        <time>2012-09-02T13:28:12.000Z</time>
      </trkpt>
      <trkpt lat="43.05366" lon="0.66381">
        <ele>574.20001220703</ele>
        <time>2012-09-02T13:28:18.000Z</time>
      </trkpt>
      <trkpt lat="43.05374" lon="0.66407">
        <ele>571.59997558594</ele>
        <time>2012-09-02T13:28:23.000Z</time>
      </trkpt>
      <trkpt lat="43.0538" lon="0.66421">
        <ele>570.79998779297</ele>
        <time>2012-09-02T13:28:27.000Z</time>
      </trkpt>
      <trkpt lat="43.05392" lon="0.66442">
        <ele>571.40002441406</ele>
        <time>2012-09-02T13:28:32.000Z</time>
      </trkpt>
      <trkpt lat="43.05394" lon="0.66446">
        <ele>571.40002441406</ele>
        <time>2012-09-02T13:28:33.000Z</time>
      </trkpt>
      <trkpt lat="43.05399" lon="0.66486">
        <ele>568.40002441406</ele>
        <time>2012-09-02T13:28:37.000Z</time>
      </trkpt>
      <trkpt lat="43.05394" lon="0.6653">
        <ele>566.40002441406</ele>
        <time>2012-09-02T13:28:41.000Z</time>
      </trkpt>
      <trkpt lat="43.05391" lon="0.66553">
        <ele>566.20001220703</ele>
        <time>2012-09-02T13:28:43.000Z</time>
      </trkpt>
      <trkpt lat="43.05375" lon="0.66608">
        <ele>562.59997558594</ele>
        <time>2012-09-02T13:28:48.000Z</time>
      </trkpt>
      <trkpt lat="43.05362" lon="0.66644">
        <ele>560.20001220703</ele>
        <time>2012-09-02T13:28:51.000Z</time>
      </trkpt>
      <trkpt lat="43.05365" lon="0.66689">
        <ele>560</ele>
        <time>2012-09-02T13:28:55.000Z</time>
      </trkpt>
      <trkpt lat="43.05378" lon="0.66723">
        <ele>560.59997558594</ele>
        <time>2012-09-02T13:28:59.000Z</time>
      </trkpt>
      <trkpt lat="43.05382" lon="0.66732">
        <ele>560.79998779297</ele>
        <time>2012-09-02T13:29:00.000Z</time>
      </trkpt>
      <trkpt lat="43.05394" lon="0.66759">
        <ele>561.40002441406</ele>
        <time>2012-09-02T13:29:03.000Z</time>
      </trkpt>
      <trkpt lat="43.05405" lon="0.66809">
        <ele>560.59997558594</ele>
        <time>2012-09-02T13:29:08.000Z</time>
      </trkpt>
      <trkpt lat="43.0541" lon="0.66855">
        <ele>558</ele>
        <time>2012-09-02T13:29:12.000Z</time>
      </trkpt>
      <trkpt lat="43.05422" lon="0.66943">
        <ele>553.20001220703</ele>
        <time>2012-09-02T13:29:19.000Z</time>
      </trkpt>
      <trkpt lat="43.05424" lon="0.66954">
        <ele>552.79998779297</ele>
        <time>2012-09-02T13:29:20.000Z</time>
      </trkpt>
      <trkpt lat="43.05445" lon="0.67018">
        <ele>550.20001220703</ele>
        <time>2012-09-02T13:29:26.000Z</time>
      </trkpt>
      <trkpt lat="43.05449" lon="0.67028">
        <ele>549</ele>
        <time>2012-09-02T13:29:27.000Z</time>
      </trkpt>
      <trkpt lat="43.05475" lon="0.67067">
        <ele>546.59997558594</ele>
        <time>2012-09-02T13:29:32.000Z</time>
      </trkpt>
      <trkpt lat="43.05481" lon="0.67072">
        <ele>546.59997558594</ele>
        <time>2012-09-02T13:29:33.000Z</time>
      </trkpt>
      <trkpt lat="43.05517" lon="0.67081">
        <ele>548.20001220703</ele>
        <time>2012-09-02T13:29:39.000Z</time>
      </trkpt>
      <trkpt lat="43.05534" lon="0.67093">
        <ele>545.40002441406</ele>
        <time>2012-09-02T13:29:43.000Z</time>
      </trkpt>
      <trkpt lat="43.05556" lon="0.67119">
        <ele>539</ele>
        <time>2012-09-02T13:29:48.000Z</time>
      </trkpt>
      <trkpt lat="43.05584" lon="0.67124">
        <ele>538.20001220703</ele>
        <time>2012-09-02T13:29:53.000Z</time>
      </trkpt>
      <trkpt lat="43.056" lon="0.67118">
        <ele>542.79998779297</ele>
        <time>2012-09-02T13:29:56.000Z</time>
      </trkpt>
      <trkpt lat="43.0561" lon="0.67112">
        <ele>545.79998779297</ele>
        <time>2012-09-02T13:29:58.000Z</time>
      </trkpt>
      <trkpt lat="43.05624" lon="0.67116">
        <ele>547</ele>
        <time>2012-09-02T13:30:02.000Z</time>
      </trkpt>
      <trkpt lat="43.05631" lon="0.67138">
        <ele>542.79998779297</ele>
        <time>2012-09-02T13:30:06.000Z</time>
      </trkpt>
      <trkpt lat="43.05631" lon="0.67151">
        <ele>540</ele>
        <time>2012-09-02T13:30:08.000Z</time>
      </trkpt>
      <trkpt lat="43.0563" lon="0.67163">
        <ele>537</ele>
        <time>2012-09-02T13:30:10.000Z</time>
      </trkpt>
      <trkpt lat="43.05627" lon="0.67203">
        <ele>527.59997558594</ele>
        <time>2012-09-02T13:30:16.000Z</time>
      </trkpt>
      <trkpt lat="43.05629" lon="0.67235">
        <ele>521.40002441406</ele>
        <time>2012-09-02T13:30:22.000Z</time>
      </trkpt>
      <trkpt lat="43.05625" lon="0.67264">
        <ele>514.40002441406</ele>
        <time>2012-09-02T13:30:27.000Z</time>
      </trkpt>
      <trkpt lat="43.05621" lon="0.67284">
        <ele>509.79998779297</ele>
        <time>2012-09-02T13:30:31.000Z</time>
      </trkpt>
      <trkpt lat="43.05618" lon="0.67319">
        <ele>503</ele>
        <time>2012-09-02T13:30:37.000Z</time>
      </trkpt>
      <trkpt lat="43.05619" lon="0.67345">
        <ele>498.60000610352</ele>
        <time>2012-09-02T13:30:42.000Z</time>
      </trkpt>
      <trkpt lat="43.05626" lon="0.67364">
        <ele>496.79998779297</ele>
        <time>2012-09-02T13:30:46.000Z</time>
      </trkpt>
      <trkpt lat="43.05632" lon="0.67379">
        <ele>495</ele>
        <time>2012-09-02T13:30:49.000Z</time>
      </trkpt>
      <trkpt lat="43.05624" lon="0.6742">
        <ele>486.39999389648</ele>
        <time>2012-09-02T13:30:55.000Z</time>
      </trkpt>
      <trkpt lat="43.05619" lon="0.67446">
        <ele>482.39999389648</ele>
        <time>2012-09-02T13:30:59.000Z</time>
      </trkpt>
      <trkpt lat="43.05617" lon="0.67474">
        <ele>478.79998779297</ele>
        <time>2012-09-02T13:31:03.000Z</time>
      </trkpt>
      <trkpt lat="43.05631" lon="0.67482">
        <ele>478.20001220703</ele>
        <time>2012-09-02T13:31:06.000Z</time>
      </trkpt>
      <trkpt lat="43.05646" lon="0.67494">
        <ele>476.79998779297</ele>
        <time>2012-09-02T13:31:09.000Z</time>
      </trkpt>
      <trkpt lat="43.05661" lon="0.67513">
        <ele>475.20001220703</ele>
        <time>2012-09-02T13:31:12.000Z</time>
      </trkpt>
      <trkpt lat="43.05683" lon="0.67572">
        <ele>473</ele>
        <time>2012-09-02T13:31:20.000Z</time>
      </trkpt>
      <trkpt lat="43.05693" lon="0.67599">
        <ele>472.39999389648</ele>
        <time>2012-09-02T13:31:24.000Z</time>
      </trkpt>
      <trkpt lat="43.05704" lon="0.67627">
        <ele>472.39999389648</ele>
        <time>2012-09-02T13:31:29.000Z</time>
      </trkpt>
      <trkpt lat="43.05723" lon="0.67677">
        <ele>472.20001220703</ele>
        <time>2012-09-02T13:31:40.000Z</time>
      </trkpt>
      <trkpt lat="43.05731" lon="0.67697">
        <ele>472.60000610352</ele>
        <time>2012-09-02T13:31:45.000Z</time>
      </trkpt>
      <trkpt lat="43.05748" lon="0.67733">
        <ele>473.79998779297</ele>
        <time>2012-09-02T13:31:54.000Z</time>
      </trkpt>
      <trkpt lat="43.05763" lon="0.6776">
        <ele>474.39999389648</ele>
        <time>2012-09-02T13:32:02.000Z</time>
      </trkpt>
      <trkpt lat="43.05772" lon="0.67775">
        <ele>474.39999389648</ele>
        <time>2012-09-02T13:32:07.000Z</time>
      </trkpt>
      <trkpt lat="43.0579" lon="0.67808">
        <ele>474.79998779297</ele>
        <time>2012-09-02T13:32:16.000Z</time>
      </trkpt>
      <trkpt lat="43.05806" lon="0.67831">
        <ele>475</ele>
        <time>2012-09-02T13:32:24.000Z</time>
      </trkpt>
      <trkpt lat="43.0582" lon="0.67851">
        <ele>476</ele>
        <time>2012-09-02T13:32:32.000Z</time>
      </trkpt>
      <trkpt lat="43.05826" lon="0.67865">
        <ele>476.60000610352</ele>
        <time>2012-09-02T13:32:38.000Z</time>
      </trkpt>
      <trkpt lat="43.05823" lon="0.67874">
        <ele>476.79998779297</ele>
        <time>2012-09-02T13:32:43.000Z</time>
      </trkpt>
      <trkpt lat="43.05816" lon="0.6788">
        <ele>476.79998779297</ele>
        <time>2012-09-02T13:32:49.000Z</time>
      </trkpt>
      <trkpt lat="43.05796" lon="0.67885">
        <ele>476.79998779297</ele>
        <time>2012-09-02T13:32:57.000Z</time>
      </trkpt>
      <trkpt lat="43.05782" lon="0.67888">
        <ele>476.60000610352</ele>
        <time>2012-09-02T13:33:02.000Z</time>
      </trkpt>
      <trkpt lat="43.05759" lon="0.67887">
        <ele>476.39999389648</ele>
        <time>2012-09-02T13:33:08.000Z</time>
      </trkpt>
      <trkpt lat="43.05731" lon="0.67881">
        <ele>475.60000610352</ele>
        <time>2012-09-02T13:33:14.000Z</time>
      </trkpt>
      <trkpt lat="43.05717" lon="0.67877">
        <ele>474.79998779297</ele>
        <time>2012-09-02T13:33:17.000Z</time>
      </trkpt>
      <trkpt lat="43.05681" lon="0.67854">
        <ele>471.79998779297</ele>
        <time>2012-09-02T13:33:24.000Z</time>
      </trkpt>
      <trkpt lat="43.05641" lon="0.67827">
        <ele>468.20001220703</ele>
        <time>2012-09-02T13:33:31.000Z</time>
      </trkpt>
      <trkpt lat="43.05625" lon="0.6782">
        <ele>467.79998779297</ele>
        <time>2012-09-02T13:33:34.000Z</time>
      </trkpt>
      <trkpt lat="43.05611" lon="0.67825">
        <ele>467.60000610352</ele>
        <time>2012-09-02T13:33:39.000Z</time>
      </trkpt>
      <trkpt lat="43.05611" lon="0.67834">
        <ele>467.79998779297</ele>
        <time>2012-09-02T13:33:42.000Z</time>
      </trkpt>
      <trkpt lat="43.05613" lon="0.67853">
        <ele>469.60000610352</ele>
        <time>2012-09-02T13:33:50.000Z</time>
      </trkpt>
      <trkpt lat="43.05617" lon="0.67868">
        <ele>471</ele>
        <time>2012-09-02T13:33:57.000Z</time>
      </trkpt>
      <trkpt lat="43.05618" lon="0.67883">
        <ele>472.39999389648</ele>
        <time>2012-09-02T13:34:03.000Z</time>
      </trkpt>
      <trkpt lat="43.05618" lon="0.67901">
        <ele>474.20001220703</ele>
        <time>2012-09-02T13:34:12.000Z</time>
      </trkpt>
      <trkpt lat="43.05619" lon="0.67919">
        <ele>476</ele>
        <time>2012-09-02T13:34:21.000Z</time>
      </trkpt>
      <trkpt lat="43.0562" lon="0.67933">
        <ele>477.79998779297</ele>
        <time>2012-09-02T13:34:29.000Z</time>
      </trkpt>
      <trkpt lat="43.05619" lon="0.67947">
        <ele>479.39999389648</ele>
        <time>2012-09-02T13:34:36.000Z</time>
      </trkpt>
      <trkpt lat="43.05618" lon="0.67963">
        <ele>481.20001220703</ele>
        <time>2012-09-02T13:34:44.000Z</time>
      </trkpt>
      <trkpt lat="43.05617" lon="0.67966">
        <ele>481.60000610352</ele>
        <time>2012-09-02T13:34:46.000Z</time>
      </trkpt>
      <trkpt lat="43.05617" lon="0.67982">
        <ele>483.39999389648</ele>
        <time>2012-09-02T13:34:54.000Z</time>
      </trkpt>
      <trkpt lat="43.05616" lon="0.67997">
        <ele>485.20001220703</ele>
        <time>2012-09-02T13:35:02.000Z</time>
      </trkpt>
      <trkpt lat="43.05618" lon="0.68005">
        <ele>486.39999389648</ele>
        <time>2012-09-02T13:35:06.000Z</time>
      </trkpt>
      <trkpt lat="43.05615" lon="0.6801">
        <ele>486.79998779297</ele>
        <time>2012-09-02T13:35:12.000Z</time>
      </trkpt>
      <trkpt lat="43.05614" lon="0.68012">
        <ele>487</ele>
        <time>2012-09-02T13:35:16.000Z</time>
      </trkpt>
      <trkpt lat="43.05609" lon="0.68022">
        <ele>487.79998779297</ele>
        <time>2012-09-02T13:41:50.000Z</time>
      </trkpt>
      <trkpt lat="43.05596" lon="0.6804">
        <ele>488.39999389648</ele>
        <time>2012-09-02T13:41:57.000Z</time>
      </trkpt>
      <trkpt lat="43.05588" lon="0.68062">
        <ele>490.20001220703</ele>
        <time>2012-09-02T13:42:03.000Z</time>
      </trkpt>
      <trkpt lat="43.05583" lon="0.68089">
        <ele>492.60000610352</ele>
        <time>2012-09-02T13:42:08.000Z</time>
      </trkpt>
      <trkpt lat="43.05579" lon="0.68118">
        <ele>494.60000610352</ele>
        <time>2012-09-02T13:42:14.000Z</time>
      </trkpt>
      <trkpt lat="43.05577" lon="0.68137">
        <ele>496.39999389648</ele>
        <time>2012-09-02T13:42:19.000Z</time>
      </trkpt>
      <trkpt lat="43.05579" lon="0.68153">
        <ele>498.39999389648</ele>
        <time>2012-09-02T13:42:24.000Z</time>
      </trkpt>
      <trkpt lat="43.05574" lon="0.68175">
        <ele>499.20001220703</ele>
        <time>2012-09-02T13:42:30.000Z</time>
      </trkpt>
      <trkpt lat="43.05571" lon="0.68202">
        <ele>500.20001220703</ele>
        <time>2012-09-02T13:42:37.000Z</time>
      </trkpt>
      <trkpt lat="43.05568" lon="0.68217">
        <ele>500.39999389648</ele>
        <time>2012-09-02T13:42:41.000Z</time>
      </trkpt>
      <trkpt lat="43.05565" lon="0.68234">
        <ele>500.60000610352</ele>
        <time>2012-09-02T13:42:47.000Z</time>
      </trkpt>
      <trkpt lat="43.05564" lon="0.68252">
        <ele>501.60000610352</ele>
        <time>2012-09-02T13:42:52.000Z</time>
      </trkpt>
      <trkpt lat="43.05565" lon="0.68274">
        <ele>502.79998779297</ele>
        <time>2012-09-02T13:42:58.000Z</time>
      </trkpt>
      <trkpt lat="43.05564" lon="0.68302">
        <ele>503.60000610352</ele>
        <time>2012-09-02T13:43:04.000Z</time>
      </trkpt>
      <trkpt lat="43.0556" lon="0.68332">
        <ele>503.39999389648</ele>
        <time>2012-09-02T13:43:09.000Z</time>
      </trkpt>
      <trkpt lat="43.05559" lon="0.68372">
        <ele>502.60000610352</ele>
        <time>2012-09-02T13:43:16.000Z</time>
      </trkpt>
      <trkpt lat="43.05564" lon="0.68393">
        <ele>503.39999389648</ele>
        <time>2012-09-02T13:43:20.000Z</time>
      </trkpt>
      <trkpt lat="43.05575" lon="0.68418">
        <ele>505.79998779297</ele>
        <time>2012-09-02T13:43:26.000Z</time>
      </trkpt>
      <trkpt lat="43.05584" lon="0.68432">
        <ele>507.20001220703</ele>
        <time>2012-09-02T13:43:31.000Z</time>
      </trkpt>
      <trkpt lat="43.05594" lon="0.68449">
        <ele>508.60000610352</ele>
        <time>2012-09-02T13:43:37.000Z</time>
      </trkpt>
      <trkpt lat="43.05603" lon="0.68473">
        <ele>509.60000610352</ele>
        <time>2012-09-02T13:43:44.000Z</time>
      </trkpt>
      <trkpt lat="43.05607" lon="0.68504">
        <ele>509.39999389648</ele>
        <time>2012-09-02T13:43:51.000Z</time>
      </trkpt>
      <trkpt lat="43.05609" lon="0.68514">
        <ele>509.60000610352</ele>
        <time>2012-09-02T13:43:53.000Z</time>
      </trkpt>
      <trkpt lat="43.05613" lon="0.68548">
        <ele>510</ele>
        <time>2012-09-02T13:43:58.000Z</time>
      </trkpt>
      <trkpt lat="43.05611" lon="0.68578">
        <ele>508.39999389648</ele>
        <time>2012-09-02T13:44:02.000Z</time>
      </trkpt>
      <trkpt lat="43.05608" lon="0.68624">
        <ele>508.60000610352</ele>
        <time>2012-09-02T13:44:08.000Z</time>
      </trkpt>
      <trkpt lat="43.05604" lon="0.68645">
        <ele>508</ele>
        <time>2012-09-02T13:44:11.000Z</time>
      </trkpt>
      <trkpt lat="43.05604" lon="0.68675">
        <ele>508.60000610352</ele>
        <time>2012-09-02T13:44:16.000Z</time>
      </trkpt>
      <trkpt lat="43.05612" lon="0.68707">
        <ele>511.79998779297</ele>
        <time>2012-09-02T13:44:22.000Z</time>
      </trkpt>
      <trkpt lat="43.05612" lon="0.68729">
        <ele>512</ele>
        <time>2012-09-02T13:44:26.000Z</time>
      </trkpt>
      <trkpt lat="43.05612" lon="0.68735">
        <ele>512</ele>
        <time>2012-09-02T13:44:27.000Z</time>
      </trkpt>
      <trkpt lat="43.05615" lon="0.68772">
        <ele>512.40002441406</ele>
        <time>2012-09-02T13:44:33.000Z</time>
      </trkpt>
      <trkpt lat="43.05625" lon="0.68801">
        <ele>514.59997558594</ele>
        <time>2012-09-02T13:44:38.000Z</time>
      </trkpt>
      <trkpt lat="43.05637" lon="0.68828">
        <ele>517.20001220703</ele>
        <time>2012-09-02T13:44:43.000Z</time>
      </trkpt>
      <trkpt lat="43.05658" lon="0.68864">
        <ele>520.20001220703</ele>
        <time>2012-09-02T13:44:51.000Z</time>
      </trkpt>
      <trkpt lat="43.05669" lon="0.68882">
        <ele>521.79998779297</ele>
        <time>2012-09-02T13:44:56.000Z</time>
      </trkpt>
      <trkpt lat="43.05678" lon="0.689">
        <ele>522.20001220703</ele>
        <time>2012-09-02T13:45:01.000Z</time>
      </trkpt>
      <trkpt lat="43.05686" lon="0.68923">
        <ele>522.20001220703</ele>
        <time>2012-09-02T13:45:07.000Z</time>
      </trkpt>
      <trkpt lat="43.05695" lon="0.68946">
        <ele>523.79998779297</ele>
        <time>2012-09-02T13:45:13.000Z</time>
      </trkpt>
      <trkpt lat="43.05704" lon="0.68959">
        <ele>525.59997558594</ele>
        <time>2012-09-02T13:45:19.000Z</time>
      </trkpt>
      <trkpt lat="43.0571" lon="0.68962">
        <ele>527.20001220703</ele>
        <time>2012-09-02T13:45:24.000Z</time>
      </trkpt>
      <trkpt lat="43.05716" lon="0.68957">
        <ele>528.79998779297</ele>
        <time>2012-09-02T13:45:31.000Z</time>
      </trkpt>
      <trkpt lat="43.05723" lon="0.68956">
        <ele>530.40002441406</ele>
        <time>2012-09-02T13:45:37.000Z</time>
      </trkpt>
      <trkpt lat="43.05728" lon="0.68956">
        <ele>531.79998779297</ele>
        <time>2012-09-02T13:45:43.000Z</time>
      </trkpt>
      <trkpt lat="43.05738" lon="0.68957">
        <ele>534.20001220703</ele>
        <time>2012-09-02T13:45:50.000Z</time>
      </trkpt>
      <trkpt lat="43.05747" lon="0.68956">
        <ele>536.40002441406</ele>
        <time>2012-09-02T13:45:56.000Z</time>
      </trkpt>
      <trkpt lat="43.0576" lon="0.68958">
        <ele>537.79998779297</ele>
        <time>2012-09-02T13:46:03.000Z</time>
      </trkpt>
      <trkpt lat="43.05769" lon="0.68965">
        <ele>538.59997558594</ele>
        <time>2012-09-02T13:46:09.000Z</time>
      </trkpt>
      <trkpt lat="43.05778" lon="0.68972">
        <ele>539.40002441406</ele>
        <time>2012-09-02T13:46:16.000Z</time>
      </trkpt>
      <trkpt lat="43.05785" lon="0.68975">
        <ele>540.20001220703</ele>
        <time>2012-09-02T13:46:21.000Z</time>
      </trkpt>
      <trkpt lat="43.05799" lon="0.68983">
        <ele>541.59997558594</ele>
        <time>2012-09-02T13:46:29.000Z</time>
      </trkpt>
      <trkpt lat="43.05814" lon="0.68993">
        <ele>543.59997558594</ele>
        <time>2012-09-02T13:46:37.000Z</time>
      </trkpt>
      <trkpt lat="43.05815" lon="0.68995">
        <ele>543.79998779297</ele>
        <time>2012-09-02T13:46:38.000Z</time>
      </trkpt>
      <trkpt lat="43.05819" lon="0.69007">
        <ele>544.79998779297</ele>
        <time>2012-09-02T13:46:44.000Z</time>
      </trkpt>
      <trkpt lat="43.05828" lon="0.6902">
        <ele>546.59997558594</ele>
        <time>2012-09-02T13:46:51.000Z</time>
      </trkpt>
      <trkpt lat="43.05836" lon="0.69031">
        <ele>547.79998779297</ele>
        <time>2012-09-02T13:46:58.000Z</time>
      </trkpt>
      <trkpt lat="43.05844" lon="0.69044">
        <ele>547.79998779297</ele>
        <time>2012-09-02T13:47:04.000Z</time>
      </trkpt>
      <trkpt lat="43.05848" lon="0.69054">
        <ele>547.79998779297</ele>
        <time>2012-09-02T13:47:10.000Z</time>
      </trkpt>
      <trkpt lat="43.05852" lon="0.69064">
        <ele>548.20001220703</ele>
        <time>2012-09-02T13:47:15.000Z</time>
      </trkpt>
      <trkpt lat="43.05852" lon="0.69073">
        <ele>548.79998779297</ele>
        <time>2012-09-02T13:47:19.000Z</time>
      </trkpt>
      <trkpt lat="43.05855" lon="0.6908">
        <ele>549.20001220703</ele>
        <time>2012-09-02T13:47:23.000Z</time>
      </trkpt>
      <trkpt lat="43.05857" lon="0.69084">
        <ele>549.20001220703</ele>
        <time>2012-09-02T13:47:25.000Z</time>
      </trkpt>
      <trkpt lat="43.05864" lon="0.69097">
        <ele>550</ele>
        <time>2012-09-02T13:47:32.000Z</time>
      </trkpt>
      <trkpt lat="43.05869" lon="0.69109">
        <ele>551</ele>
        <time>2012-09-02T13:47:38.000Z</time>
      </trkpt>
      <trkpt lat="43.05875" lon="0.69126">
        <ele>552.40002441406</ele>
        <time>2012-09-02T13:47:45.000Z</time>
      </trkpt>
      <trkpt lat="43.05884" lon="0.69144">
        <ele>553.79998779297</ele>
        <time>2012-09-02T13:47:52.000Z</time>
      </trkpt>
      <trkpt lat="43.0589" lon="0.69157">
        <ele>555.40002441406</ele>
        <time>2012-09-02T13:47:57.000Z</time>
      </trkpt>
      <trkpt lat="43.05897" lon="0.69174">
        <ele>557</ele>
        <time>2012-09-02T13:48:03.000Z</time>
      </trkpt>
      <trkpt lat="43.05902" lon="0.6919">
        <ele>558.40002441406</ele>
        <time>2012-09-02T13:48:08.000Z</time>
      </trkpt>
      <trkpt lat="43.05903" lon="0.69207">
        <ele>560.20001220703</ele>
        <time>2012-09-02T13:48:14.000Z</time>
      </trkpt>
      <trkpt lat="43.05909" lon="0.69224">
        <ele>561.59997558594</ele>
        <time>2012-09-02T13:48:19.000Z</time>
      </trkpt>
      <trkpt lat="43.05917" lon="0.69249">
        <ele>564</ele>
        <time>2012-09-02T13:48:27.000Z</time>
      </trkpt>
      <trkpt lat="43.05915" lon="0.69262">
        <ele>565</ele>
        <time>2012-09-02T13:48:31.000Z</time>
      </trkpt>
      <trkpt lat="43.05912" lon="0.69274">
        <ele>566.20001220703</ele>
        <time>2012-09-02T13:48:35.000Z</time>
      </trkpt>
      <trkpt lat="43.05913" lon="0.69295">
        <ele>567.59997558594</ele>
        <time>2012-09-02T13:48:42.000Z</time>
      </trkpt>
      <trkpt lat="43.05915" lon="0.6931">
        <ele>568.59997558594</ele>
        <time>2012-09-02T13:48:47.000Z</time>
      </trkpt>
      <trkpt lat="43.05914" lon="0.69323">
        <ele>569.59997558594</ele>
        <time>2012-09-02T13:48:51.000Z</time>
      </trkpt>
      <trkpt lat="43.05919" lon="0.69348">
        <ele>571.20001220703</ele>
        <time>2012-09-02T13:48:58.000Z</time>
      </trkpt>
      <trkpt lat="43.05922" lon="0.69364">
        <ele>572.59997558594</ele>
        <time>2012-09-02T13:49:03.000Z</time>
      </trkpt>
      <trkpt lat="43.05928" lon="0.69378">
        <ele>573</ele>
        <time>2012-09-02T13:49:09.000Z</time>
      </trkpt>
      <trkpt lat="43.05941" lon="0.69398">
        <ele>572.40002441406</ele>
        <time>2012-09-02T13:49:16.000Z</time>
      </trkpt>
      <trkpt lat="43.05955" lon="0.69413">
        <ele>571.20001220703</ele>
        <time>2012-09-02T13:49:22.000Z</time>
      </trkpt>
      <trkpt lat="43.05963" lon="0.69423">
        <ele>571.20001220703</ele>
        <time>2012-09-02T13:49:27.000Z</time>
      </trkpt>
      <trkpt lat="43.05972" lon="0.69433">
        <ele>571.20001220703</ele>
        <time>2012-09-02T13:49:33.000Z</time>
      </trkpt>
      <trkpt lat="43.05987" lon="0.69444">
        <ele>570</ele>
        <time>2012-09-02T13:49:39.000Z</time>
      </trkpt>
      <trkpt lat="43.06002" lon="0.69455">
        <ele>569.20001220703</ele>
        <time>2012-09-02T13:49:45.000Z</time>
      </trkpt>
      <trkpt lat="43.06012" lon="0.69463">
        <ele>569.20001220703</ele>
        <time>2012-09-02T13:49:51.000Z</time>
      </trkpt>
      <trkpt lat="43.06021" lon="0.69472">
        <ele>569.79998779297</ele>
        <time>2012-09-02T13:49:57.000Z</time>
      </trkpt>
      <trkpt lat="43.06032" lon="0.6948">
        <ele>570</ele>
        <time>2012-09-02T13:50:03.000Z</time>
      </trkpt>
      <trkpt lat="43.06045" lon="0.69488">
        <ele>569.79998779297</ele>
        <time>2012-09-02T13:50:09.000Z</time>
      </trkpt>
      <trkpt lat="43.06062" lon="0.69496">
        <ele>568.79998779297</ele>
        <time>2012-09-02T13:50:15.000Z</time>
      </trkpt>
      <trkpt lat="43.06077" lon="0.69506">
        <ele>568.40002441406</ele>
        <time>2012-09-02T13:50:20.000Z</time>
      </trkpt>
      <trkpt lat="43.06095" lon="0.69515">
        <ele>565.40002441406</ele>
        <time>2012-09-02T13:50:23.000Z</time>
      </trkpt>
      <trkpt lat="43.06117" lon="0.69536">
        <ele>561.59997558594</ele>
        <time>2012-09-02T13:50:27.000Z</time>
      </trkpt>
      <trkpt lat="43.06145" lon="0.69584">
        <ele>559.40002441406</ele>
        <time>2012-09-02T13:50:32.000Z</time>
      </trkpt>
      <trkpt lat="43.06173" lon="0.69633">
        <ele>550</ele>
        <time>2012-09-02T13:50:36.000Z</time>
      </trkpt>
      <trkpt lat="43.06179" lon="0.69646">
        <ele>547.59997558594</ele>
        <time>2012-09-02T13:50:37.000Z</time>
      </trkpt>
      <trkpt lat="43.0619" lon="0.69684">
        <ele>542.40002441406</ele>
        <time>2012-09-02T13:50:40.000Z</time>
      </trkpt>
      <trkpt lat="43.0619" lon="0.69733">
        <ele>539</ele>
        <time>2012-09-02T13:50:44.000Z</time>
      </trkpt>
      <trkpt lat="43.06175" lon="0.69776">
        <ele>539.20001220703</ele>
        <time>2012-09-02T13:50:48.000Z</time>
      </trkpt>
      <trkpt lat="43.06171" lon="0.69782">
        <ele>539.40002441406</ele>
        <time>2012-09-02T13:50:49.000Z</time>
      </trkpt>
      <trkpt lat="43.06154" lon="0.69807">
        <ele>540.20001220703</ele>
        <time>2012-09-02T13:50:53.000Z</time>
      </trkpt>
      <trkpt lat="43.06145" lon="0.69818">
        <ele>540.79998779297</ele>
        <time>2012-09-02T13:50:55.000Z</time>
      </trkpt>
      <trkpt lat="43.06105" lon="0.69851">
        <ele>541.79998779297</ele>
        <time>2012-09-02T13:51:01.000Z</time>
      </trkpt>
      <trkpt lat="43.06085" lon="0.69869">
        <ele>539.79998779297</ele>
        <time>2012-09-02T13:51:05.000Z</time>
      </trkpt>
      <trkpt lat="43.06059" lon="0.69889">
        <ele>540.59997558594</ele>
        <time>2012-09-02T13:51:10.000Z</time>
      </trkpt>
      <trkpt lat="43.06027" lon="0.69913">
        <ele>541</ele>
        <time>2012-09-02T13:51:15.000Z</time>
      </trkpt>
      <trkpt lat="43.06013" lon="0.69922">
        <ele>542</ele>
        <time>2012-09-02T13:51:17.000Z</time>
      </trkpt>
      <trkpt lat="43.05963" lon="0.69938">
        <ele>546</ele>
        <time>2012-09-02T13:51:22.000Z</time>
      </trkpt>
      <trkpt lat="43.05916" lon="0.6994">
        <ele>553</ele>
        <time>2012-09-02T13:51:28.000Z</time>
      </trkpt>
      <trkpt lat="43.05877" lon="0.69935">
        <ele>553.59997558594</ele>
        <time>2012-09-02T13:51:33.000Z</time>
      </trkpt>
      <trkpt lat="43.05869" lon="0.69934">
        <ele>553.59997558594</ele>
        <time>2012-09-02T13:51:34.000Z</time>
      </trkpt>
      <trkpt lat="43.05839" lon="0.69925">
        <ele>555.40002441406</ele>
        <time>2012-09-02T13:51:38.000Z</time>
      </trkpt>
      <trkpt lat="43.0582" lon="0.69916">
        <ele>554.40002441406</ele>
        <time>2012-09-02T13:51:41.000Z</time>
      </trkpt>
      <trkpt lat="43.05794" lon="0.69892">
        <ele>553.40002441406</ele>
        <time>2012-09-02T13:51:46.000Z</time>
      </trkpt>
      <trkpt lat="43.05777" lon="0.69882">
        <ele>550.59997558594</ele>
        <time>2012-09-02T13:51:49.000Z</time>
      </trkpt>
      <trkpt lat="43.05747" lon="0.69852">
        <ele>548.59997558594</ele>
        <time>2012-09-02T13:51:54.000Z</time>
      </trkpt>
      <trkpt lat="43.05723" lon="0.69821">
        <ele>545.40002441406</ele>
        <time>2012-09-02T13:51:58.000Z</time>
      </trkpt>
      <trkpt lat="43.0571" lon="0.69807">
        <ele>542.40002441406</ele>
        <time>2012-09-02T13:52:00.000Z</time>
      </trkpt>
      <trkpt lat="43.05676" lon="0.69789">
        <ele>531.20001220703</ele>
        <time>2012-09-02T13:52:05.000Z</time>
      </trkpt>
      <trkpt lat="43.05654" lon="0.69766">
        <ele>525.79998779297</ele>
        <time>2012-09-02T13:52:08.000Z</time>
      </trkpt>
      <trkpt lat="43.05632" lon="0.69735">
        <ele>519.79998779297</ele>
        <time>2012-09-02T13:52:12.000Z</time>
      </trkpt>
      <trkpt lat="43.0561" lon="0.6971">
        <ele>511.60000610352</ele>
        <time>2012-09-02T13:52:17.000Z</time>
      </trkpt>
      <trkpt lat="43.05602" lon="0.69692">
        <ele>509.20001220703</ele>
        <time>2012-09-02T13:52:20.000Z</time>
      </trkpt>
      <trkpt lat="43.05594" lon="0.69679">
        <ele>506.39999389648</ele>
        <time>2012-09-02T13:52:23.000Z</time>
      </trkpt>
      <trkpt lat="43.05586" lon="0.69675">
        <ele>502.79998779297</ele>
        <time>2012-09-02T13:52:25.000Z</time>
      </trkpt>
      <trkpt lat="43.05563" lon="0.69673">
        <ele>496</ele>
        <time>2012-09-02T13:52:30.000Z</time>
      </trkpt>
      <trkpt lat="43.05554" lon="0.69686">
        <ele>492.79998779297</ele>
        <time>2012-09-02T13:52:33.000Z</time>
      </trkpt>
      <trkpt lat="43.05543" lon="0.69692">
        <ele>489.60000610352</ele>
        <time>2012-09-02T13:52:36.000Z</time>
      </trkpt>
      <trkpt lat="43.05531" lon="0.69683">
        <ele>486.60000610352</ele>
        <time>2012-09-02T13:52:39.000Z</time>
      </trkpt>
      <trkpt lat="43.05519" lon="0.69676">
        <ele>483.39999389648</ele>
        <time>2012-09-02T13:52:42.000Z</time>
      </trkpt>
      <trkpt lat="43.05518" lon="0.69686">
        <ele>482.79998779297</ele>
        <time>2012-09-02T13:52:45.000Z</time>
      </trkpt>
      <trkpt lat="43.05524" lon="0.69708">
        <ele>484.20001220703</ele>
        <time>2012-09-02T13:52:51.000Z</time>
      </trkpt>
      <trkpt lat="43.05529" lon="0.69729">
        <ele>485</ele>
        <time>2012-09-02T13:52:57.000Z</time>
      </trkpt>
      <trkpt lat="43.0553" lon="0.69733">
        <ele>485.20001220703</ele>
        <time>2012-09-02T13:52:58.000Z</time>
      </trkpt>
      <trkpt lat="43.05543" lon="0.69757">
        <ele>487.60000610352</ele>
        <time>2012-09-02T13:53:06.000Z</time>
      </trkpt>
      <trkpt lat="43.05552" lon="0.69779">
        <ele>488.39999389648</ele>
        <time>2012-09-02T13:53:14.000Z</time>
      </trkpt>
      <trkpt lat="43.05566" lon="0.6981">
        <ele>488.79998779297</ele>
        <time>2012-09-02T13:53:25.000Z</time>
      </trkpt>
      <trkpt lat="43.05576" lon="0.69826">
        <ele>488.79998779297</ele>
        <time>2012-09-02T13:53:32.000Z</time>
      </trkpt>
      <trkpt lat="43.05588" lon="0.69844">
        <ele>490</ele>
        <time>2012-09-02T13:53:40.000Z</time>
      </trkpt>
      <trkpt lat="43.05603" lon="0.69866">
        <ele>493</ele>
        <time>2012-09-02T13:53:50.000Z</time>
      </trkpt>
      <trkpt lat="43.05617" lon="0.69887">
        <ele>494.79998779297</ele>
        <time>2012-09-02T13:53:59.000Z</time>
      </trkpt>
      <trkpt lat="43.05629" lon="0.69906">
        <ele>495.39999389648</ele>
        <time>2012-09-02T13:54:06.000Z</time>
      </trkpt>
      <trkpt lat="43.05637" lon="0.69922">
        <ele>495.39999389648</ele>
        <time>2012-09-02T13:54:14.000Z</time>
      </trkpt>
      <trkpt lat="43.05646" lon="0.69937">
        <ele>496.39999389648</ele>
        <time>2012-09-02T13:54:21.000Z</time>
      </trkpt>
      <trkpt lat="43.05658" lon="0.69952">
        <ele>497.20001220703</ele>
        <time>2012-09-02T13:54:29.000Z</time>
      </trkpt>
      <trkpt lat="43.05667" lon="0.69961">
        <ele>497.79998779297</ele>
        <time>2012-09-02T13:54:35.000Z</time>
      </trkpt>
      <trkpt lat="43.05688" lon="0.69983">
        <ele>500.20001220703</ele>
        <time>2012-09-02T13:54:46.000Z</time>
      </trkpt>
      <trkpt lat="43.05706" lon="0.70005">
        <ele>501.20001220703</ele>
        <time>2012-09-02T13:54:55.000Z</time>
      </trkpt>
      <trkpt lat="43.0572" lon="0.70022">
        <ele>503.20001220703</ele>
        <time>2012-09-02T13:55:03.000Z</time>
      </trkpt>
      <trkpt lat="43.05731" lon="0.70037">
        <ele>503.79998779297</ele>
        <time>2012-09-02T13:55:10.000Z</time>
      </trkpt>
      <trkpt lat="43.05737" lon="0.70044">
        <ele>504.39999389648</ele>
        <time>2012-09-02T13:55:15.000Z</time>
      </trkpt>
      <trkpt lat="43.05747" lon="0.70061">
        <ele>504</ele>
        <time>2012-09-02T13:55:23.000Z</time>
      </trkpt>
      <trkpt lat="43.05758" lon="0.70084">
        <ele>502.79998779297</ele>
        <time>2012-09-02T13:55:33.000Z</time>
      </trkpt>
      <trkpt lat="43.05769" lon="0.70103">
        <ele>504</ele>
        <time>2012-09-02T13:55:41.000Z</time>
      </trkpt>
      <trkpt lat="43.05779" lon="0.70117">
        <ele>504.60000610352</ele>
        <time>2012-09-02T13:55:48.000Z</time>
      </trkpt>
      <trkpt lat="43.05787" lon="0.70126">
        <ele>504.60000610352</ele>
        <time>2012-09-02T13:55:55.000Z</time>
      </trkpt>
      <trkpt lat="43.05787" lon="0.70126">
        <ele>504.60000610352</ele>
        <time>2012-09-02T13:55:56.000Z</time>
      </trkpt>
      <trkpt lat="43.05795" lon="0.70131">
        <ele>504.60000610352</ele>
        <time>2012-09-02T13:56:25.000Z</time>
      </trkpt>
      <trkpt lat="43.05804" lon="0.70141">
        <ele>504.39999389648</ele>
        <time>2012-09-02T13:56:29.000Z</time>
      </trkpt>
      <trkpt lat="43.05827" lon="0.70164">
        <ele>502.39999389648</ele>
        <time>2012-09-02T13:56:35.000Z</time>
      </trkpt>
      <trkpt lat="43.05855" lon="0.70191">
        <ele>504.60000610352</ele>
        <time>2012-09-02T13:56:41.000Z</time>
      </trkpt>
      <trkpt lat="43.05874" lon="0.70208">
        <ele>505.60000610352</ele>
        <time>2012-09-02T13:56:47.000Z</time>
      </trkpt>
      <trkpt lat="43.059" lon="0.70229">
        <ele>506.20001220703</ele>
        <time>2012-09-02T13:56:54.000Z</time>
      </trkpt>
      <trkpt lat="43.0591" lon="0.70238">
        <ele>506.20001220703</ele>
        <time>2012-09-02T13:56:57.000Z</time>
      </trkpt>
      <trkpt lat="43.05926" lon="0.70265">
        <ele>509.20001220703</ele>
        <time>2012-09-02T13:57:03.000Z</time>
      </trkpt>
      <trkpt lat="43.05943" lon="0.70288">
        <ele>511.60000610352</ele>
        <time>2012-09-02T13:57:09.000Z</time>
      </trkpt>
      <trkpt lat="43.05955" lon="0.70302">
        <ele>512.79998779297</ele>
        <time>2012-09-02T13:57:14.000Z</time>
      </trkpt>
      <trkpt lat="43.05975" lon="0.70317">
        <ele>512</ele>
        <time>2012-09-02T13:57:20.000Z</time>
      </trkpt>
      <trkpt lat="43.05985" lon="0.70325">
        <ele>511.60000610352</ele>
        <time>2012-09-02T13:57:23.000Z</time>
      </trkpt>
      <trkpt lat="43.06003" lon="0.70336">
        <ele>509.79998779297</ele>
        <time>2012-09-02T13:57:27.000Z</time>
      </trkpt>
      <trkpt lat="43.06012" lon="0.70341">
        <ele>509.39999389648</ele>
        <time>2012-09-02T13:57:29.000Z</time>
      </trkpt>
      <trkpt lat="43.06023" lon="0.70354">
        <ele>510.20001220703</ele>
        <time>2012-09-02T13:57:32.000Z</time>
      </trkpt>
      <trkpt lat="43.06046" lon="0.70376">
        <ele>510.60000610352</ele>
        <time>2012-09-02T13:57:38.000Z</time>
      </trkpt>
      <trkpt lat="43.06078" lon="0.70396">
        <ele>508.60000610352</ele>
        <time>2012-09-02T13:57:44.000Z</time>
      </trkpt>
      <trkpt lat="43.0611" lon="0.70411">
        <ele>505.39999389648</ele>
        <time>2012-09-02T13:57:50.000Z</time>
      </trkpt>
      <trkpt lat="43.06134" lon="0.70423">
        <ele>502</ele>
        <time>2012-09-02T13:57:55.000Z</time>
      </trkpt>
      <trkpt lat="43.06151" lon="0.70435">
        <ele>500.20001220703</ele>
        <time>2012-09-02T13:57:58.000Z</time>
      </trkpt>
      <trkpt lat="43.06167" lon="0.70462">
        <ele>500.60000610352</ele>
        <time>2012-09-02T13:58:03.000Z</time>
      </trkpt>
      <trkpt lat="43.06188" lon="0.70508">
        <ele>503.60000610352</ele>
        <time>2012-09-02T13:58:10.000Z</time>
      </trkpt>
      <trkpt lat="43.06194" lon="0.7052">
        <ele>503.60000610352</ele>
        <time>2012-09-02T13:58:12.000Z</time>
      </trkpt>
      <trkpt lat="43.06209" lon="0.7056">
        <ele>504.79998779297</ele>
        <time>2012-09-02T13:58:18.000Z</time>
      </trkpt>
      <trkpt lat="43.06213" lon="0.70573">
        <ele>505</ele>
        <time>2012-09-02T13:58:20.000Z</time>
      </trkpt>
      <trkpt lat="43.06218" lon="0.70591">
        <ele>505.60000610352</ele>
        <time>2012-09-02T13:58:24.000Z</time>
      </trkpt>
      <trkpt lat="43.06219" lon="0.70591">
        <ele>505.39999389648</ele>
        <time>2012-09-02T13:58:26.000Z</time>
      </trkpt>
      <trkpt lat="43.06218" lon="0.70593">
        <ele>505.60000610352</ele>
        <time>2012-09-02T13:58:33.000Z</time>
      </trkpt>
      <trkpt lat="43.06213" lon="0.70597">
        <ele>507.20001220703</ele>
        <time>2012-09-02T13:58:39.000Z</time>
      </trkpt>
      <trkpt lat="43.06212" lon="0.70599">
        <ele>507.60000610352</ele>
        <time>2012-09-02T13:58:41.000Z</time>
      </trkpt>
      <trkpt lat="43.0621" lon="0.70607">
        <ele>508.79998779297</ele>
        <time>2012-09-02T13:58:47.000Z</time>
      </trkpt>
      <trkpt lat="43.06221" lon="0.70628">
        <ele>507.79998779297</ele>
        <time>2012-09-02T13:58:56.000Z</time>
      </trkpt>
      <trkpt lat="43.06225" lon="0.70641">
        <ele>508.20001220703</ele>
        <time>2012-09-02T13:59:02.000Z</time>
      </trkpt>
      <trkpt lat="43.06231" lon="0.70647">
        <ele>507.20001220703</ele>
        <time>2012-09-02T13:59:06.000Z</time>
      </trkpt>
      <trkpt lat="43.06239" lon="0.70645">
        <ele>505.39999389648</ele>
        <time>2012-09-02T13:59:10.000Z</time>
      </trkpt>
      <trkpt lat="43.06246" lon="0.70649">
        <ele>503.79998779297</ele>
        <time>2012-09-02T13:59:13.000Z</time>
      </trkpt>
      <trkpt lat="43.06266" lon="0.70651">
        <ele>502.39999389648</ele>
        <time>2012-09-02T13:59:20.000Z</time>
      </trkpt>
      <trkpt lat="43.06284" lon="0.70644">
        <ele>500.60000610352</ele>
        <time>2012-09-02T13:59:27.000Z</time>
      </trkpt>
      <trkpt lat="43.06302" lon="0.70628">
        <ele>498.60000610352</ele>
        <time>2012-09-02T13:59:32.000Z</time>
      </trkpt>
      <trkpt lat="43.06323" lon="0.7061">
        <ele>496.60000610352</ele>
        <time>2012-09-02T13:59:38.000Z</time>
      </trkpt>
      <trkpt lat="43.06327" lon="0.70609">
        <ele>496.39999389648</ele>
        <time>2012-09-02T13:59:39.000Z</time>
      </trkpt>
      <trkpt lat="43.06353" lon="0.70598">
        <ele>497.60000610352</ele>
        <time>2012-09-02T13:59:44.000Z</time>
      </trkpt>
      <trkpt lat="43.06379" lon="0.70586">
        <ele>499.39999389648</ele>
        <time>2012-09-02T13:59:49.000Z</time>
      </trkpt>
      <trkpt lat="43.06383" lon="0.70584">
        <ele>499.79998779297</ele>
        <time>2012-09-02T13:59:50.000Z</time>
      </trkpt>
      <trkpt lat="43.06396" lon="0.70572">
        <ele>500.39999389648</ele>
        <time>2012-09-02T13:59:54.000Z</time>
      </trkpt>
      <trkpt lat="43.06404" lon="0.70562">
        <ele>500.79998779297</ele>
        <time>2012-09-02T13:59:57.000Z</time>
      </trkpt>
      <trkpt lat="43.06408" lon="0.70544">
        <ele>500.20001220703</ele>
        <time>2012-09-02T14:00:00.000Z</time>
      </trkpt>
      <trkpt lat="43.0642" lon="0.70516">
        <ele>500.39999389648</ele>
        <time>2012-09-02T14:00:05.000Z</time>
      </trkpt>
      <trkpt lat="43.06424" lon="0.70511">
        <ele>501</ele>
        <time>2012-09-02T14:00:06.000Z</time>
      </trkpt>
      <trkpt lat="43.06445" lon="0.70485">
        <ele>502.79998779297</ele>
        <time>2012-09-02T14:00:12.000Z</time>
      </trkpt>
      <trkpt lat="43.06463" lon="0.70471">
        <ele>504.39999389648</ele>
        <time>2012-09-02T14:00:17.000Z</time>
      </trkpt>
      <trkpt lat="43.06489" lon="0.70457">
        <ele>507.39999389648</ele>
        <time>2012-09-02T14:00:23.000Z</time>
      </trkpt>
      <trkpt lat="43.06493" lon="0.70456">
        <ele>508</ele>
        <time>2012-09-02T14:00:24.000Z</time>
      </trkpt>
      <trkpt lat="43.06514" lon="0.70445">
        <ele>509.20001220703</ele>
        <time>2012-09-02T14:00:29.000Z</time>
      </trkpt>
      <trkpt lat="43.06534" lon="0.70437">
        <ele>510</ele>
        <time>2012-09-02T14:00:33.000Z</time>
      </trkpt>
      <trkpt lat="43.06551" lon="0.7043">
        <ele>510.20001220703</ele>
        <time>2012-09-02T14:00:37.000Z</time>
      </trkpt>
      <trkpt lat="43.0657" lon="0.70423">
        <ele>510.20001220703</ele>
        <time>2012-09-02T14:00:41.000Z</time>
      </trkpt>
      <trkpt lat="43.06593" lon="0.70416">
        <ele>510.39999389648</ele>
        <time>2012-09-02T14:00:47.000Z</time>
      </trkpt>
      <trkpt lat="43.06614" lon="0.70411">
        <ele>510.39999389648</ele>
        <time>2012-09-02T14:00:52.000Z</time>
      </trkpt>
      <trkpt lat="43.06629" lon="0.70407">
        <ele>510.20001220703</ele>
        <time>2012-09-02T14:00:57.000Z</time>
      </trkpt>
      <trkpt lat="43.06645" lon="0.70404">
        <ele>510.39999389648</ele>
        <time>2012-09-02T14:01:02.000Z</time>
      </trkpt>
      <trkpt lat="43.06668" lon="0.70403">
        <ele>511</ele>
        <time>2012-09-02T14:01:08.000Z</time>
      </trkpt>
      <trkpt lat="43.06688" lon="0.70394">
        <ele>507.60000610352</ele>
        <time>2012-09-02T14:01:12.000Z</time>
      </trkpt>
      <trkpt lat="43.06702" lon="0.70389">
        <ele>505.79998779297</ele>
        <time>2012-09-02T14:01:14.000Z</time>
      </trkpt>
      <trkpt lat="43.06745" lon="0.70384">
        <ele>502.60000610352</ele>
        <time>2012-09-02T14:01:20.000Z</time>
      </trkpt>
      <trkpt lat="43.0678" lon="0.70392">
        <ele>502.39999389648</ele>
        <time>2012-09-02T14:01:25.000Z</time>
      </trkpt>
      <trkpt lat="43.06794" lon="0.70394">
        <ele>502</ele>
        <time>2012-09-02T14:01:27.000Z</time>
      </trkpt>
      <trkpt lat="43.06829" lon="0.70392">
        <ele>500.60000610352</ele>
        <time>2012-09-02T14:01:32.000Z</time>
      </trkpt>
      <trkpt lat="43.06849" lon="0.70379">
        <ele>499</ele>
        <time>2012-09-02T14:01:37.000Z</time>
      </trkpt>
      <trkpt lat="43.06867" lon="0.70349">
        <ele>498.20001220703</ele>
        <time>2012-09-02T14:01:43.000Z</time>
      </trkpt>
      <trkpt lat="43.06884" lon="0.70334">
        <ele>497.79998779297</ele>
        <time>2012-09-02T14:01:47.000Z</time>
      </trkpt>
      <trkpt lat="43.069" lon="0.70336">
        <ele>497.20001220703</ele>
        <time>2012-09-02T14:01:50.000Z</time>
      </trkpt>
      <trkpt lat="43.06908" lon="0.70344">
        <ele>496.79998779297</ele>
        <time>2012-09-02T14:01:53.000Z</time>
      </trkpt>
      <trkpt lat="43.06905" lon="0.70348">
        <ele>496.79998779297</ele>
        <time>2012-09-02T14:01:55.000Z</time>
      </trkpt>
      <trkpt lat="43.06878" lon="0.7037">
        <ele>497.39999389648</ele>
        <time>2012-09-02T14:02:00.000Z</time>
      </trkpt>
      <trkpt lat="43.06859" lon="0.70404">
        <ele>498.39999389648</ele>
        <time>2012-09-02T14:02:06.000Z</time>
      </trkpt>
      <trkpt lat="43.06859" lon="0.70416">
        <ele>498.60000610352</ele>
        <time>2012-09-02T14:02:08.000Z</time>
      </trkpt>
      <trkpt lat="43.06858" lon="0.70451">
        <ele>497.60000610352</ele>
        <time>2012-09-02T14:02:14.000Z</time>
      </trkpt>
      <trkpt lat="43.06859" lon="0.70458">
        <ele>497.39999389648</ele>
        <time>2012-09-02T14:02:18.000Z</time>
      </trkpt>
      <trkpt lat="43.06859" lon="0.70466">
        <ele>497</ele>
        <time>2012-09-02T14:02:23.000Z</time>
      </trkpt>
      <trkpt lat="43.06858" lon="0.70475">
        <ele>497</ele>
        <time>2012-09-02T14:02:27.000Z</time>
      </trkpt>
      <trkpt lat="43.06859" lon="0.70482">
        <ele>496.60000610352</ele>
        <time>2012-09-02T14:02:29.000Z</time>
      </trkpt>
      <trkpt lat="43.06858" lon="0.70507">
        <ele>495.39999389648</ele>
        <time>2012-09-02T14:02:35.000Z</time>
      </trkpt>
      <trkpt lat="43.06858" lon="0.70539">
        <ele>491.60000610352</ele>
        <time>2012-09-02T14:02:41.000Z</time>
      </trkpt>
      <trkpt lat="43.06848" lon="0.70563">
        <ele>491</ele>
        <time>2012-09-02T14:02:46.000Z</time>
      </trkpt>
      <trkpt lat="43.06834" lon="0.70585">
        <ele>491.60000610352</ele>
        <time>2012-09-02T14:02:51.000Z</time>
      </trkpt>
      <trkpt lat="43.06831" lon="0.70589">
        <ele>491.60000610352</ele>
        <time>2012-09-02T14:02:52.000Z</time>
      </trkpt>
      <trkpt lat="43.06812" lon="0.70604">
        <ele>495</ele>
        <time>2012-09-02T14:02:57.000Z</time>
      </trkpt>
      <trkpt lat="43.06789" lon="0.70607">
        <ele>501.39999389648</ele>
        <time>2012-09-02T14:03:02.000Z</time>
      </trkpt>
      <trkpt lat="43.06767" lon="0.70609">
        <ele>507.60000610352</ele>
        <time>2012-09-02T14:03:06.000Z</time>
      </trkpt>
      <trkpt lat="43.06766" lon="0.70609">
        <ele>508.20001220703</ele>
        <time>2012-09-02T14:03:07.000Z</time>
      </trkpt>
      <trkpt lat="43.06759" lon="0.70619">
        <ele>508.60000610352</ele>
        <time>2012-09-02T14:03:12.000Z</time>
      </trkpt>
      <trkpt lat="43.06754" lon="0.70642">
        <ele>506.60000610352</ele>
        <time>2012-09-02T14:03:16.000Z</time>
      </trkpt>
      <trkpt lat="43.06767" lon="0.70668">
        <ele>498.60000610352</ele>
        <time>2012-09-02T14:03:20.000Z</time>
      </trkpt>
      <trkpt lat="43.0677" lon="0.70676">
        <ele>497</ele>
        <time>2012-09-02T14:03:21.000Z</time>
      </trkpt>
      <trkpt lat="43.06789" lon="0.70724">
        <ele>488.39999389648</ele>
        <time>2012-09-02T14:03:26.000Z</time>
      </trkpt>
      <trkpt lat="43.068" lon="0.70771">
        <ele>481.60000610352</ele>
        <time>2012-09-02T14:03:30.000Z</time>
      </trkpt>
      <trkpt lat="43.068" lon="0.70827">
        <ele>476.60000610352</ele>
        <time>2012-09-02T14:03:35.000Z</time>
      </trkpt>
      <trkpt lat="43.06798" lon="0.70838">
        <ele>476.20001220703</ele>
        <time>2012-09-02T14:03:36.000Z</time>
      </trkpt>
      <trkpt lat="43.06792" lon="0.70866">
        <ele>474.20001220703</ele>
        <time>2012-09-02T14:03:40.000Z</time>
      </trkpt>
      <trkpt lat="43.0677" lon="0.7088">
        <ele>476.60000610352</ele>
        <time>2012-09-02T14:03:45.000Z</time>
      </trkpt>
      <trkpt lat="43.06761" lon="0.70893">
        <ele>476.39999389648</ele>
        <time>2012-09-02T14:03:50.000Z</time>
      </trkpt>
      <trkpt lat="43.06763" lon="0.709">
        <ele>475.20001220703</ele>
        <time>2012-09-02T14:03:52.000Z</time>
      </trkpt>
      <trkpt lat="43.06771" lon="0.70923">
        <ele>471.60000610352</ele>
        <time>2012-09-02T14:03:55.000Z</time>
      </trkpt>
      <trkpt lat="43.0678" lon="0.70938">
        <ele>469.20001220703</ele>
        <time>2012-09-02T14:03:59.000Z</time>
      </trkpt>
      <trkpt lat="43.06798" lon="0.70935">
        <ele>466.39999389648</ele>
        <time>2012-09-02T14:04:04.000Z</time>
      </trkpt>
      <trkpt lat="43.06812" lon="0.70946">
        <ele>463.20001220703</ele>
        <time>2012-09-02T14:04:09.000Z</time>
      </trkpt>
      <trkpt lat="43.06815" lon="0.70951">
        <ele>462.39999389648</ele>
        <time>2012-09-02T14:04:10.000Z</time>
      </trkpt>
      <trkpt lat="43.06822" lon="0.70972">
        <ele>459.39999389648</ele>
        <time>2012-09-02T14:04:13.000Z</time>
      </trkpt>
      <trkpt lat="43.06832" lon="0.71001">
        <ele>455.20001220703</ele>
        <time>2012-09-02T14:04:16.000Z</time>
      </trkpt>
      <trkpt lat="43.06847" lon="0.71026">
        <ele>453.60000610352</ele>
        <time>2012-09-02T14:04:19.000Z</time>
      </trkpt>
      <trkpt lat="43.06868" lon="0.71041">
        <ele>452.39999389648</ele>
        <time>2012-09-02T14:04:23.000Z</time>
      </trkpt>
      <trkpt lat="43.06872" lon="0.71044">
        <ele>452.20001220703</ele>
        <time>2012-09-02T14:04:24.000Z</time>
      </trkpt>
      <trkpt lat="43.06877" lon="0.71051">
        <ele>452</ele>
        <time>2012-09-02T14:04:26.000Z</time>
      </trkpt>
      <trkpt lat="43.06883" lon="0.71059">
        <ele>451.60000610352</ele>
        <time>2012-09-02T14:04:31.000Z</time>
      </trkpt>
      <trkpt lat="43.0688" lon="0.71069">
        <ele>451.39999389648</ele>
        <time>2012-09-02T14:04:41.000Z</time>
      </trkpt>
      <trkpt lat="43.06873" lon="0.71079">
        <ele>451.20001220703</ele>
        <time>2012-09-02T14:04:48.000Z</time>
      </trkpt>
      <trkpt lat="43.06865" lon="0.71099">
        <ele>451</ele>
        <time>2012-09-02T14:04:54.000Z</time>
      </trkpt>
      <trkpt lat="43.06859" lon="0.7111">
        <ele>450.60000610352</ele>
        <time>2012-09-02T14:04:58.000Z</time>
      </trkpt>
      <trkpt lat="43.06856" lon="0.71126">
        <ele>450.20001220703</ele>
        <time>2012-09-02T14:05:02.000Z</time>
      </trkpt>
      <trkpt lat="43.06845" lon="0.71135">
        <ele>449.79998779297</ele>
        <time>2012-09-02T14:05:06.000Z</time>
      </trkpt>
      <trkpt lat="43.0684" lon="0.71137">
        <ele>449.60000610352</ele>
        <time>2012-09-02T14:05:08.000Z</time>
      </trkpt>
      <trkpt lat="43.06823" lon="0.71152">
        <ele>449.79998779297</ele>
        <time>2012-09-02T14:05:15.000Z</time>
      </trkpt>
      <trkpt lat="43.06813" lon="0.71167">
        <ele>449.79998779297</ele>
        <time>2012-09-02T14:05:21.000Z</time>
      </trkpt>
      <trkpt lat="43.06805" lon="0.71181">
        <ele>449</ele>
        <time>2012-09-02T14:05:26.000Z</time>
      </trkpt>
      <trkpt lat="43.06803" lon="0.71183">
        <ele>449</ele>
        <time>2012-09-02T14:05:27.000Z</time>
      </trkpt>
      <trkpt lat="43.0679" lon="0.71199">
        <ele>448.39999389648</ele>
        <time>2012-09-02T14:05:32.000Z</time>
      </trkpt>
      <trkpt lat="43.06783" lon="0.71204">
        <ele>448.39999389648</ele>
        <time>2012-09-02T14:05:34.000Z</time>
      </trkpt>
      <trkpt lat="43.06766" lon="0.71215">
        <ele>448.60000610352</ele>
        <time>2012-09-02T14:05:39.000Z</time>
      </trkpt>
      <trkpt lat="43.06763" lon="0.71233">
        <ele>446.79998779297</ele>
        <time>2012-09-02T14:05:45.000Z</time>
      </trkpt>
      <trkpt lat="43.06771" lon="0.71254">
        <ele>444.39999389648</ele>
        <time>2012-09-02T14:05:49.000Z</time>
      </trkpt>
      <trkpt lat="43.06774" lon="0.71261">
        <ele>443.79998779297</ele>
        <time>2012-09-02T14:05:50.000Z</time>
      </trkpt>
      <trkpt lat="43.06785" lon="0.71294">
        <ele>442.20001220703</ele>
        <time>2012-09-02T14:05:54.000Z</time>
      </trkpt>
      <trkpt lat="43.0678" lon="0.71335">
        <ele>441</ele>
        <time>2012-09-02T14:05:59.000Z</time>
      </trkpt>
      <trkpt lat="43.06769" lon="0.71372">
        <ele>439.79998779297</ele>
        <time>2012-09-02T14:06:04.000Z</time>
      </trkpt>
      <trkpt lat="43.06767" lon="0.71386">
        <ele>439</ele>
        <time>2012-09-02T14:06:08.000Z</time>
      </trkpt>
      <trkpt lat="43.06766" lon="0.71386">
        <ele>438.79998779297</ele>
        <time>2012-09-02T14:06:09.000Z</time>
      </trkpt>
      <trkpt lat="43.06746" lon="0.71388">
        <ele>437.79998779297</ele>
        <time>2012-09-02T14:06:17.000Z</time>
      </trkpt>
      <trkpt lat="43.06738" lon="0.71385">
        <ele>439.20001220703</ele>
        <time>2012-09-02T14:06:25.000Z</time>
      </trkpt>
      <trkpt lat="43.06733" lon="0.71385">
        <ele>440</ele>
        <time>2012-09-02T14:06:38.000Z</time>
      </trkpt>
      <trkpt lat="43.06734" lon="0.71384">
        <ele>439.79998779297</ele>
        <time>2012-09-02T14:07:08.000Z</time>
      </trkpt>
      <trkpt lat="43.0673" lon="0.71394">
        <ele>439.79998779297</ele>
        <time>2012-09-02T14:07:18.000Z</time>
      </trkpt>
      <trkpt lat="43.06718" lon="0.71413">
        <ele>439.79998779297</ele>
        <time>2012-09-02T14:07:27.000Z</time>
      </trkpt>
      <trkpt lat="43.06712" lon="0.71429">
        <ele>439.39999389648</ele>
        <time>2012-09-02T14:07:34.000Z</time>
      </trkpt>
      <trkpt lat="43.06711" lon="0.71435">
        <ele>439.20001220703</ele>
        <time>2012-09-02T14:07:36.000Z</time>
      </trkpt>
      <trkpt lat="43.06697" lon="0.71455">
        <ele>438.39999389648</ele>
        <time>2012-09-02T14:07:44.000Z</time>
      </trkpt>
      <trkpt lat="43.06686" lon="0.71466">
        <ele>437.79998779297</ele>
        <time>2012-09-02T14:07:49.000Z</time>
      </trkpt>
      <trkpt lat="43.06685" lon="0.71468">
        <ele>437.60000610352</ele>
        <time>2012-09-02T14:07:50.000Z</time>
      </trkpt>
      <trkpt lat="43.06676" lon="0.71493">
        <ele>434.39999389648</ele>
        <time>2012-09-02T14:07:55.000Z</time>
      </trkpt>
      <trkpt lat="43.0667" lon="0.71512">
        <ele>432</ele>
        <time>2012-09-02T14:07:58.000Z</time>
      </trkpt>
      <trkpt lat="43.06667" lon="0.71526">
        <ele>430.60000610352</ele>
        <time>2012-09-02T14:08:00.000Z</time>
      </trkpt>
      <trkpt lat="43.06662" lon="0.71553">
        <ele>428.39999389648</ele>
        <time>2012-09-02T14:08:03.000Z</time>
      </trkpt>
      <trkpt lat="43.06657" lon="0.71582">
        <ele>426</ele>
        <time>2012-09-02T14:08:06.000Z</time>
      </trkpt>
      <trkpt lat="43.06659" lon="0.7161">
        <ele>426.20001220703</ele>
        <time>2012-09-02T14:08:10.000Z</time>
      </trkpt>
      <trkpt lat="43.06661" lon="0.71645">
        <ele>427.20001220703</ele>
        <time>2012-09-02T14:08:18.000Z</time>
      </trkpt>
      <trkpt lat="43.06663" lon="0.71678">
        <ele>428.20001220703</ele>
        <time>2012-09-02T14:08:27.000Z</time>
      </trkpt>
      <trkpt lat="43.06663" lon="0.71707">
        <ele>429.20001220703</ele>
        <time>2012-09-02T14:08:35.000Z</time>
      </trkpt>
      <trkpt lat="43.06665" lon="0.71737">
        <ele>430.39999389648</ele>
        <time>2012-09-02T14:08:43.000Z</time>
      </trkpt>
      <trkpt lat="43.06669" lon="0.71755">
        <ele>430.60000610352</ele>
        <time>2012-09-02T14:08:49.000Z</time>
      </trkpt>
      <trkpt lat="43.0666" lon="0.71766">
        <ele>428.79998779297</ele>
        <time>2012-09-02T14:08:53.000Z</time>
      </trkpt>
      <trkpt lat="43.0664" lon="0.71778">
        <ele>425.39999389648</ele>
        <time>2012-09-02T14:08:57.000Z</time>
      </trkpt>
      <trkpt lat="43.06607" lon="0.71799">
        <ele>420.60000610352</ele>
        <time>2012-09-02T14:09:02.000Z</time>
      </trkpt>
      <trkpt lat="43.06558" lon="0.71828">
        <ele>415.20001220703</ele>
        <time>2012-09-02T14:09:08.000Z</time>
      </trkpt>
      <trkpt lat="43.06526" lon="0.71847">
        <ele>411.60000610352</ele>
        <time>2012-09-02T14:09:12.000Z</time>
      </trkpt>
      <trkpt lat="43.06513" lon="0.71882">
        <ele>409.60000610352</ele>
        <time>2012-09-02T14:09:16.000Z</time>
      </trkpt>
      <trkpt lat="43.0653" lon="0.7191">
        <ele>409.79998779297</ele>
        <time>2012-09-02T14:09:19.000Z</time>
      </trkpt>
      <trkpt lat="43.06548" lon="0.7194">
        <ele>410.20001220703</ele>
        <time>2012-09-02T14:09:22.000Z</time>
      </trkpt>
      <trkpt lat="43.06552" lon="0.71975">
        <ele>410.20001220703</ele>
        <time>2012-09-02T14:09:25.000Z</time>
      </trkpt>
      <trkpt lat="43.06551" lon="0.71995">
        <ele>410</ele>
        <time>2012-09-02T14:09:27.000Z</time>
      </trkpt>
      <trkpt lat="43.06547" lon="0.7204">
        <ele>417.39999389648</ele>
        <time>2012-09-02T14:09:33.000Z</time>
      </trkpt>
      <trkpt lat="43.06541" lon="0.72059">
        <ele>420.60000610352</ele>
        <time>2012-09-02T14:09:37.000Z</time>
      </trkpt>
      <trkpt lat="43.06528" lon="0.7208">
        <ele>423.79998779297</ele>
        <time>2012-09-02T14:09:44.000Z</time>
      </trkpt>
      <trkpt lat="43.06525" lon="0.72086">
        <ele>424.60000610352</ele>
        <time>2012-09-02T14:09:46.000Z</time>
      </trkpt>
      <trkpt lat="43.06516" lon="0.72094">
        <ele>425.20001220703</ele>
        <time>2012-09-02T14:09:51.000Z</time>
      </trkpt>
      <trkpt lat="43.06502" lon="0.72113">
        <ele>426.79998779297</ele>
        <time>2012-09-02T14:09:58.000Z</time>
      </trkpt>
      <trkpt lat="43.0649" lon="0.72126">
        <ele>427</ele>
        <time>2012-09-02T14:10:04.000Z</time>
      </trkpt>
      <trkpt lat="43.06481" lon="0.72139">
        <ele>427.39999389648</ele>
        <time>2012-09-02T14:10:09.000Z</time>
      </trkpt>
      <trkpt lat="43.06471" lon="0.72157">
        <ele>428.39999389648</ele>
        <time>2012-09-02T14:10:16.000Z</time>
      </trkpt>
      <trkpt lat="43.06465" lon="0.72173">
        <ele>429.60000610352</ele>
        <time>2012-09-02T14:10:22.000Z</time>
      </trkpt>
      <trkpt lat="43.06453" lon="0.72194">
        <ele>430.60000610352</ele>
        <time>2012-09-02T14:10:31.000Z</time>
      </trkpt>
      <trkpt lat="43.06444" lon="0.72219">
        <ele>431.79998779297</ele>
        <time>2012-09-02T14:10:39.000Z</time>
      </trkpt>
      <trkpt lat="43.06437" lon="0.72243">
        <ele>433.20001220703</ele>
        <time>2012-09-02T14:10:47.000Z</time>
      </trkpt>
      <trkpt lat="43.06431" lon="0.72264">
        <ele>433.39999389648</ele>
        <time>2012-09-02T14:10:54.000Z</time>
      </trkpt>
      <trkpt lat="43.06429" lon="0.72273">
        <ele>433.39999389648</ele>
        <time>2012-09-02T14:10:56.000Z</time>
      </trkpt>
      <trkpt lat="43.0643" lon="0.72307">
        <ele>435.20001220703</ele>
        <time>2012-09-02T14:11:01.000Z</time>
      </trkpt>
      <trkpt lat="43.06422" lon="0.72333">
        <ele>435</ele>
        <time>2012-09-02T14:11:05.000Z</time>
      </trkpt>
      <trkpt lat="43.0642" lon="0.72336">
        <ele>435</ele>
        <time>2012-09-02T14:11:06.000Z</time>
      </trkpt>
      <trkpt lat="43.06404" lon="0.72355">
        <ele>435.79998779297</ele>
        <time>2012-09-02T14:11:12.000Z</time>
      </trkpt>
      <trkpt lat="43.06393" lon="0.72376">
        <ele>437.39999389648</ele>
        <time>2012-09-02T14:11:18.000Z</time>
      </trkpt>
      <trkpt lat="43.06384" lon="0.72395">
        <ele>439</ele>
        <time>2012-09-02T14:11:24.000Z</time>
      </trkpt>
      <trkpt lat="43.06374" lon="0.72408">
        <ele>439.39999389648</ele>
        <time>2012-09-02T14:11:29.000Z</time>
      </trkpt>
      <trkpt lat="43.06359" lon="0.72424">
        <ele>439</ele>
        <time>2012-09-02T14:11:34.000Z</time>
      </trkpt>
      <trkpt lat="43.06343" lon="0.7244">
        <ele>438</ele>
        <time>2012-09-02T14:11:38.000Z</time>
      </trkpt>
      <trkpt lat="43.06319" lon="0.72462">
        <ele>436</ele>
        <time>2012-09-02T14:11:42.000Z</time>
      </trkpt>
      <trkpt lat="43.06306" lon="0.72469">
        <ele>434.39999389648</ele>
        <time>2012-09-02T14:11:44.000Z</time>
      </trkpt>
      <trkpt lat="43.0629" lon="0.72482">
        <ele>433</ele>
        <time>2012-09-02T14:11:47.000Z</time>
      </trkpt>
      <trkpt lat="43.06272" lon="0.72507">
        <ele>431.79998779297</ele>
        <time>2012-09-02T14:11:51.000Z</time>
      </trkpt>
      <trkpt lat="43.06252" lon="0.72547">
        <ele>430.60000610352</ele>
        <time>2012-09-02T14:11:56.000Z</time>
      </trkpt>
      <trkpt lat="43.06241" lon="0.72599">
        <ele>430.39999389648</ele>
        <time>2012-09-02T14:12:02.000Z</time>
      </trkpt>
      <trkpt lat="43.06254" lon="0.72632">
        <ele>432.60000610352</ele>
        <time>2012-09-02T14:12:08.000Z</time>
      </trkpt>
      <trkpt lat="43.06258" lon="0.72643">
        <ele>433.20001220703</ele>
        <time>2012-09-02T14:12:11.000Z</time>
      </trkpt>
      <trkpt lat="43.0625" lon="0.72665">
        <ele>432</ele>
        <time>2012-09-02T14:12:17.000Z</time>
      </trkpt>
      <trkpt lat="43.06244" lon="0.72686">
        <ele>432.39999389648</ele>
        <time>2012-09-02T14:12:22.000Z</time>
      </trkpt>
      <trkpt lat="43.06236" lon="0.7271">
        <ele>432.60000610352</ele>
        <time>2012-09-02T14:12:27.000Z</time>
      </trkpt>
      <trkpt lat="43.0623" lon="0.72732">
        <ele>433</ele>
        <time>2012-09-02T14:12:31.000Z</time>
      </trkpt>
      <trkpt lat="43.06221" lon="0.72757">
        <ele>433.39999389648</ele>
        <time>2012-09-02T14:12:35.000Z</time>
      </trkpt>
      <trkpt lat="43.06208" lon="0.72788">
        <ele>434</ele>
        <time>2012-09-02T14:12:40.000Z</time>
      </trkpt>
      <trkpt lat="43.06202" lon="0.72819">
        <ele>435.39999389648</ele>
        <time>2012-09-02T14:12:45.000Z</time>
      </trkpt>
      <trkpt lat="43.06189" lon="0.72861">
        <ele>434.60000610352</ele>
        <time>2012-09-02T14:12:52.000Z</time>
      </trkpt>
      <trkpt lat="43.06182" lon="0.72886">
        <ele>433.79998779297</ele>
        <time>2012-09-02T14:12:56.000Z</time>
      </trkpt>
      <trkpt lat="43.06177" lon="0.72913">
        <ele>433.60000610352</ele>
        <time>2012-09-02T14:13:00.000Z</time>
      </trkpt>
      <trkpt lat="43.06174" lon="0.72944">
        <ele>433.20001220703</ele>
        <time>2012-09-02T14:13:05.000Z</time>
      </trkpt>
      <trkpt lat="43.06174" lon="0.72968">
        <ele>433.20001220703</ele>
        <time>2012-09-02T14:13:09.000Z</time>
      </trkpt>
      <trkpt lat="43.06172" lon="0.7298">
        <ele>432.79998779297</ele>
        <time>2012-09-02T14:13:11.000Z</time>
      </trkpt>
      <trkpt lat="43.0616" lon="0.73004">
        <ele>430.79998779297</ele>
        <time>2012-09-02T14:13:15.000Z</time>
      </trkpt>
      <trkpt lat="43.06144" lon="0.73011">
        <ele>428.39999389648</ele>
        <time>2012-09-02T14:13:18.000Z</time>
      </trkpt>
      <trkpt lat="43.06123" lon="0.73003">
        <ele>425.60000610352</ele>
        <time>2012-09-02T14:13:21.000Z</time>
      </trkpt>
      <trkpt lat="43.06107" lon="0.72993">
        <ele>423.39999389648</ele>
        <time>2012-09-02T14:13:23.000Z</time>
      </trkpt>
      <trkpt lat="43.0606" lon="0.72985">
        <ele>417.60000610352</ele>
        <time>2012-09-02T14:13:29.000Z</time>
      </trkpt>
      <trkpt lat="43.06012" lon="0.72973">
        <ele>413</ele>
        <time>2012-09-02T14:13:35.000Z</time>
      </trkpt>
      <trkpt lat="43.05975" lon="0.72961">
        <ele>411</ele>
        <time>2012-09-02T14:13:41.000Z</time>
      </trkpt>
      <trkpt lat="43.05944" lon="0.72956">
        <ele>410</ele>
        <time>2012-09-02T14:13:46.000Z</time>
      </trkpt>
      <trkpt lat="43.05896" lon="0.72958">
        <ele>407.60000610352</ele>
        <time>2012-09-02T14:13:52.000Z</time>
      </trkpt>
      <trkpt lat="43.05837" lon="0.7298">
        <ele>403.79998779297</ele>
        <time>2012-09-02T14:13:59.000Z</time>
      </trkpt>
      <trkpt lat="43.05814" lon="0.72993">
        <ele>401.20001220703</ele>
        <time>2012-09-02T14:14:02.000Z</time>
      </trkpt>
      <trkpt lat="43.05792" lon="0.73018">
        <ele>397.60000610352</ele>
        <time>2012-09-02T14:14:06.000Z</time>
      </trkpt>
      <trkpt lat="43.05758" lon="0.73087">
        <ele>392.60000610352</ele>
        <time>2012-09-02T14:14:13.000Z</time>
      </trkpt>
      <trkpt lat="43.05752" lon="0.73099">
        <ele>391.79998779297</ele>
        <time>2012-09-02T14:14:14.000Z</time>
      </trkpt>
      <trkpt lat="43.05738" lon="0.73152">
        <ele>389.79998779297</ele>
        <time>2012-09-02T14:14:18.000Z</time>
      </trkpt>
      <trkpt lat="43.05716" lon="0.73211">
        <ele>391.60000610352</ele>
        <time>2012-09-02T14:14:24.000Z</time>
      </trkpt>
      <trkpt lat="43.0571" lon="0.73215">
        <ele>391.79998779297</ele>
        <time>2012-09-02T14:14:25.000Z</time>
      </trkpt>
      <trkpt lat="43.05684" lon="0.73232">
        <ele>392.60000610352</ele>
        <time>2012-09-02T14:14:30.000Z</time>
      </trkpt>
      <trkpt lat="43.05661" lon="0.73248">
        <ele>393.60000610352</ele>
        <time>2012-09-02T14:14:35.000Z</time>
      </trkpt>
      <trkpt lat="43.05643" lon="0.73261">
        <ele>393.79998779297</ele>
        <time>2012-09-02T14:14:39.000Z</time>
      </trkpt>
      <trkpt lat="43.0561" lon="0.73276">
        <ele>393.39999389648</ele>
        <time>2012-09-02T14:14:46.000Z</time>
      </trkpt>
      <trkpt lat="43.05606" lon="0.7329">
        <ele>394</ele>
        <time>2012-09-02T14:14:50.000Z</time>
      </trkpt>
      <trkpt lat="43.05616" lon="0.7331">
        <ele>395.60000610352</ele>
        <time>2012-09-02T14:14:57.000Z</time>
      </trkpt>
      <trkpt lat="43.05621" lon="0.73332">
        <ele>397.20001220703</ele>
        <time>2012-09-02T14:15:04.000Z</time>
      </trkpt>
      <trkpt lat="43.05628" lon="0.73358">
        <ele>398.79998779297</ele>
        <time>2012-09-02T14:15:12.000Z</time>
      </trkpt>
      <trkpt lat="43.05638" lon="0.73375">
        <ele>400</ele>
        <time>2012-09-02T14:15:18.000Z</time>
      </trkpt>
      <trkpt lat="43.0565" lon="0.73376">
        <ele>401</ele>
        <time>2012-09-02T14:15:23.000Z</time>
      </trkpt>
      <trkpt lat="43.05667" lon="0.73376">
        <ele>402</ele>
        <time>2012-09-02T14:15:29.000Z</time>
      </trkpt>
      <trkpt lat="43.0568" lon="0.73377">
        <ele>402.20001220703</ele>
        <time>2012-09-02T14:15:36.000Z</time>
      </trkpt>
      <trkpt lat="43.05685" lon="0.73379">
        <ele>402.20001220703</ele>
        <time>2012-09-02T14:15:39.000Z</time>
      </trkpt>
      <trkpt lat="43.05694" lon="0.73381">
        <ele>402.39999389648</ele>
        <time>2012-09-02T14:15:44.000Z</time>
      </trkpt>
      <trkpt lat="43.05711" lon="0.73386">
        <ele>402.79998779297</ele>
        <time>2012-09-02T14:15:51.000Z</time>
      </trkpt>
      <trkpt lat="43.05727" lon="0.73391">
        <ele>403.39999389648</ele>
        <time>2012-09-02T14:15:58.000Z</time>
      </trkpt>
      <trkpt lat="43.0574" lon="0.73395">
        <ele>403.79998779297</ele>
        <time>2012-09-02T14:16:05.000Z</time>
      </trkpt>
      <trkpt lat="43.05755" lon="0.734">
        <ele>404.60000610352</ele>
        <time>2012-09-02T14:16:13.000Z</time>
      </trkpt>
      <trkpt lat="43.0577" lon="0.73406">
        <ele>406</ele>
        <time>2012-09-02T14:16:21.000Z</time>
      </trkpt>
      <trkpt lat="43.05785" lon="0.73409">
        <ele>407</ele>
        <time>2012-09-02T14:16:27.000Z</time>
      </trkpt>
      <trkpt lat="43.058" lon="0.73414">
        <ele>408.20001220703</ele>
        <time>2012-09-02T14:16:33.000Z</time>
      </trkpt>
      <trkpt lat="43.0582" lon="0.73421">
        <ele>409.79998779297</ele>
        <time>2012-09-02T14:16:39.000Z</time>
      </trkpt>
      <trkpt lat="43.05829" lon="0.73436">
        <ele>411.39999389648</ele>
        <time>2012-09-02T14:16:44.000Z</time>
      </trkpt>
      <trkpt lat="43.05831" lon="0.73456">
        <ele>413.20001220703</ele>
        <time>2012-09-02T14:16:49.000Z</time>
      </trkpt>
      <trkpt lat="43.05831" lon="0.73476">
        <ele>414.79998779297</ele>
        <time>2012-09-02T14:16:54.000Z</time>
      </trkpt>
      <trkpt lat="43.05832" lon="0.73506">
        <ele>417.39999389648</ele>
        <time>2012-09-02T14:17:01.000Z</time>
      </trkpt>
      <trkpt lat="43.05831" lon="0.73528">
        <ele>419</ele>
        <time>2012-09-02T14:17:07.000Z</time>
      </trkpt>
      <trkpt lat="43.05841" lon="0.73535">
        <ele>420.60000610352</ele>
        <time>2012-09-02T14:17:12.000Z</time>
      </trkpt>
      <trkpt lat="43.05853" lon="0.73534">
        <ele>421.39999389648</ele>
        <time>2012-09-02T14:17:16.000Z</time>
      </trkpt>
      <trkpt lat="43.05869" lon="0.73527">
        <ele>422.20001220703</ele>
        <time>2012-09-02T14:17:23.000Z</time>
      </trkpt>
      <trkpt lat="43.05886" lon="0.73515">
        <ele>422.79998779297</ele>
        <time>2012-09-02T14:17:30.000Z</time>
      </trkpt>
      <trkpt lat="43.05895" lon="0.73519">
        <ele>423.79998779297</ele>
        <time>2012-09-02T14:17:34.000Z</time>
      </trkpt>
      <trkpt lat="43.05899" lon="0.73533">
        <ele>425.20001220703</ele>
        <time>2012-09-02T14:17:39.000Z</time>
      </trkpt>
      <trkpt lat="43.05901" lon="0.7355">
        <ele>427</ele>
        <time>2012-09-02T14:17:46.000Z</time>
      </trkpt>
      <trkpt lat="43.05903" lon="0.7357">
        <ele>428.79998779297</ele>
        <time>2012-09-02T14:17:54.000Z</time>
      </trkpt>
      <trkpt lat="43.05906" lon="0.73589">
        <ele>430.20001220703</ele>
        <time>2012-09-02T14:18:01.000Z</time>
      </trkpt>
      <trkpt lat="43.05908" lon="0.73604">
        <ele>430.39999389648</ele>
        <time>2012-09-02T14:18:07.000Z</time>
      </trkpt>
      <trkpt lat="43.05912" lon="0.73619">
        <ele>431</ele>
        <time>2012-09-02T14:18:13.000Z</time>
      </trkpt>
      <trkpt lat="43.05906" lon="0.73629">
        <ele>430.20001220703</ele>
        <time>2012-09-02T14:18:20.000Z</time>
      </trkpt>
      <trkpt lat="43.05893" lon="0.73631">
        <ele>428.79998779297</ele>
        <time>2012-09-02T14:18:26.000Z</time>
      </trkpt>
      <trkpt lat="43.05876" lon="0.73632">
        <ele>426.79998779297</ele>
        <time>2012-09-02T14:18:32.000Z</time>
      </trkpt>
      <trkpt lat="43.05861" lon="0.73632">
        <ele>425</ele>
        <time>2012-09-02T14:18:36.000Z</time>
      </trkpt>
      <trkpt lat="43.05854" lon="0.73647">
        <ele>423.60000610352</ele>
        <time>2012-09-02T14:18:41.000Z</time>
      </trkpt>
      <trkpt lat="43.05854" lon="0.73655">
        <ele>423.39999389648</ele>
        <time>2012-09-02T14:18:43.000Z</time>
      </trkpt>
      <trkpt lat="43.05853" lon="0.73666">
        <ele>422.79998779297</ele>
        <time>2012-09-02T14:18:45.000Z</time>
      </trkpt>
      <trkpt lat="43.05861" lon="0.73707">
        <ele>420.60000610352</ele>
        <time>2012-09-02T14:18:50.000Z</time>
      </trkpt>
      <trkpt lat="43.05884" lon="0.73733">
        <ele>422.39999389648</ele>
        <time>2012-09-02T14:18:54.000Z</time>
      </trkpt>
      <trkpt lat="43.05904" lon="0.73794">
        <ele>424.39999389648</ele>
        <time>2012-09-02T14:19:00.000Z</time>
      </trkpt>
      <trkpt lat="43.05904" lon="0.73805">
        <ele>424.20001220703</ele>
        <time>2012-09-02T14:19:01.000Z</time>
      </trkpt>
      <trkpt lat="43.059" lon="0.73839">
        <ele>423.39999389648</ele>
        <time>2012-09-02T14:19:05.000Z</time>
      </trkpt>
      <trkpt lat="43.05889" lon="0.7387">
        <ele>422.20001220703</ele>
        <time>2012-09-02T14:19:09.000Z</time>
      </trkpt>
      <trkpt lat="43.05861" lon="0.73901">
        <ele>419.79998779297</ele>
        <time>2012-09-02T14:19:14.000Z</time>
      </trkpt>
      <trkpt lat="43.05852" lon="0.73907">
        <ele>419.20001220703</ele>
        <time>2012-09-02T14:19:15.000Z</time>
      </trkpt>
      <trkpt lat="43.05804" lon="0.73934">
        <ele>417.60000610352</ele>
        <time>2012-09-02T14:19:21.000Z</time>
      </trkpt>
      <trkpt lat="43.05796" lon="0.73938">
        <ele>417.20001220703</ele>
        <time>2012-09-02T14:19:22.000Z</time>
      </trkpt>
      <trkpt lat="43.05766" lon="0.73949">
        <ele>415.60000610352</ele>
        <time>2012-09-02T14:19:26.000Z</time>
      </trkpt>
      <trkpt lat="43.05759" lon="0.73954">
        <ele>414.79998779297</ele>
        <time>2012-09-02T14:19:27.000Z</time>
      </trkpt>
      <trkpt lat="43.05722" lon="0.73984">
        <ele>408.79998779297</ele>
        <time>2012-09-02T14:19:31.000Z</time>
      </trkpt>
      <trkpt lat="43.05691" lon="0.74026">
        <ele>402</ele>
        <time>2012-09-02T14:19:35.000Z</time>
      </trkpt>
      <trkpt lat="43.05644" lon="0.74065">
        <ele>393.20001220703</ele>
        <time>2012-09-02T14:19:40.000Z</time>
      </trkpt>
      <trkpt lat="43.05596" lon="0.74097">
        <ele>385.39999389648</ele>
        <time>2012-09-02T14:19:45.000Z</time>
      </trkpt>
      <trkpt lat="43.05538" lon="0.74138">
        <ele>381.79998779297</ele>
        <time>2012-09-02T14:19:51.000Z</time>
      </trkpt>
      <trkpt lat="43.05469" lon="0.74184">
        <ele>377.39999389648</ele>
        <time>2012-09-02T14:19:58.000Z</time>
      </trkpt>
      <trkpt lat="43.05397" lon="0.74235">
        <ele>373</ele>
        <time>2012-09-02T14:20:05.000Z</time>
      </trkpt>
      <trkpt lat="43.05376" lon="0.74256">
        <ele>372.60000610352</ele>
        <time>2012-09-02T14:20:08.000Z</time>
      </trkpt>
      <trkpt lat="43.05363" lon="0.74272">
        <ele>372.39999389648</ele>
        <time>2012-09-02T14:20:11.000Z</time>
      </trkpt>
      <trkpt lat="43.05355" lon="0.74278">
        <ele>372.39999389648</ele>
        <time>2012-09-02T14:20:15.000Z</time>
      </trkpt>
      <trkpt lat="43.05355" lon="0.74278">
        <ele>372.39999389648</ele>
        <time>2012-09-02T14:20:16.000Z</time>
      </trkpt>
      <trkpt lat="43.05354" lon="0.74279">
        <ele>372.39999389648</ele>
        <time>2012-09-02T14:20:21.000Z</time>
      </trkpt>
      <trkpt lat="43.05348" lon="0.74287">
        <ele>372.39999389648</ele>
        <time>2012-09-02T14:20:33.000Z</time>
      </trkpt>
      <trkpt lat="43.05342" lon="0.74289">
        <ele>372.39999389648</ele>
        <time>2012-09-02T14:20:37.000Z</time>
      </trkpt>
      <trkpt lat="43.05331" lon="0.74306">
        <ele>372.60000610352</ele>
        <time>2012-09-02T14:20:44.000Z</time>
      </trkpt>
    </trkseg>
  </trk>
</gpx>